# Wetter Temperatur Luftdruck Luftfeuchtigkeit Sichtweite Windgeschwindigkeit Windrichtung Zeit
1 Clear -1 1015 86 10000 3.6 20 19:55 02.04.2020
2 Clear -1 1015 86 10000 3.6 20 19:37 02.04.2020
3 Clear -1 1015 86 10000 3.6 20 19:18 02.04.2020
4 Clear 0 1015 40 10000 1.5 0 18:41 02.04.2020
5 Clouds 0 1015 40 10000 1.5 0 18:21 02.04.2020
6 Clouds 0 1015 40 10000 1.5 0 18:21 02.04.2020
7 Clouds -1 1015 85 10000 5.1 10 17:57 02.04.2020
8 Clouds -1 1015 85 10000 5.1 10 17:39 02.04.2020
9 Clouds -1 1015 85 10000 5.1 10 17:20 02.04.2020
10 Clouds 0 1016 55 10000 3.6 360 16:56 02.04.2020
11 Clouds -1 1016 55 10000 3.6 360 16:38 02.04.2020
12 Clouds -1 1016 55 10000 3.6 360 16:20 02.04.2020
13 Clouds -1 1016 47 10000 2.6 50 15:54 02.04.2020
14 Clouds 0 1016 47 10000 2.6 50 15:36 02.04.2020
15 Clouds -1 1016 47 10000 2.6 50 15:18 02.04.2020
16 Clouds -1 1015 50 10000 6.7 20 14:40 02.04.2020
17 Clouds -1 1015 50 10000 6.7 20 14:21 02.04.2020
18 Clouds -1 1016 86 10000 6.7 10 13:58 02.04.2020
19 Clouds -1 1016 86 10000 6.7 10 13:39 02.04.2020
20 Clouds -1 1016 86 10000 6.7 10 13:21 02.04.2020
21 Clouds -1 1015 86 10000 2.6 30 12:56 02.04.2020
22 Clouds -1 1015 86 10000 2.6 30 12:38 02.04.2020
23 Clouds -1 1015 89 10000 2.6 30 12:19 02.04.2020
24 Clouds -1 1015 89 10000 2.6 30 12:19 02.04.2020
25 Clouds -2 1015 68 10000 11.3 20 11:57 02.04.2020
26 Clouds -2 1015 68 10000 11.3 20 11:38 02.04.2020
27 Clouds -2 1015 68 10000 11.3 20 11:19 02.04.2020
28 Clouds -2 1014 68 10000 6.7 40 10:55 02.04.2020
29 Clouds -2 1014 68 10000 6.7 40 10:37 02.04.2020
30 Clouds -2 1014 68 10000 6.7 40 10:19 02.04.2020
31 Clouds -2 1013 74 10000 11.3 10 09:43 02.04.2020
32 Clouds -2 1013 74 10000 11.3 10 09:25 02.04.2020
33 Rain -2 1013 86 9000 6.2 350 08:59 02.04.2020
34 Rain -2 1013 86 9000 6.2 350 08:40 02.04.2020
35 Rain -2 1013 86 9000 6.2 350 08:22 02.04.2020
36 Snow -3 1011 86 8000 10.3 320 07:45 02.04.2020
37 Snow -3 1011 86 8000 10.3 320 07:20 02.04.2020
38 Clouds -2 1012 74 10000 6.7 330 06:58 02.04.2020
39 Clouds -3 1012 74 10000 6.7 330 06:21 02.04.2020
40 Clouds -3 1012 68 10000 6.7 320 05:45 02.04.2020
41 Clouds -4 1012 63 10000 6.2 330 04:33 02.04.2020
42 Clouds -5 1011 62 10000 8.7 350 01:35 02.04.2020
43 Clouds -4 1009 73 10000 5.1 340 00:48 02.04.2020
44 Clouds -4 1009 73 10000 5.1 340 00:26 02.04.2020
45 Clouds -3 1008 58 10000 6.2 310 23:54 01.04.2020
46 Clouds -3 1008 58 10000 6.2 310 23:36 01.04.2020
47 Clouds -3 1008 58 10000 6.2 310 23:18 01.04.2020
48 Rain -4 1007 53 10000 9.3 310 22:40 01.04.2020
49 Rain -4 1007 53 10000 9.3 310 22:21 01.04.2020
50 Snow -5 1006 79 10000 13.9 300 21:55 01.04.2020
51 Snow -4 1006 79 10000 13.9 300 21:36 01.04.2020
52 Snow -4 1006 79 10000 13.9 300 21:18 01.04.2020
53 Rain -4 1005 63 10000 12.3 300 20:54 01.04.2020
54 Rain -4 1005 63 10000 12.3 300 20:54 01.04.2020
55 Rain -4 1005 63 10000 12.3 300 20:36 01.04.2020
56 Rain -4 1005 63 10000 12.3 300 20:18 01.04.2020
57 Snow -5 1005 85 800 11.8 310 19:41 01.04.2020
58 Snow -4 1005 85 800 11.8 310 19:21 01.04.2020
59 Rain -3 1004 79 8000 15.4 280 18:46 01.04.2020
60 Rain -3 1004 79 8000 15.4 280 18:27 01.04.2020
61 Snow -3 1004 86 600 12.9 260 17:59 01.04.2020
62 Snow -3 1004 86 600 12.9 260 17:59 01.04.2020
63 Snow -3 1004 86 600 12.9 260 17:39 01.04.2020
64 Snow -3 1004 79 3000 15.9 270 17:21 01.04.2020
65 Snow -3 1004 79 3000 15.9 270 17:21 01.04.2020
66 Rain -3 1004 74 6000 13.9 270 16:59 01.04.2020
67 Rain -2 1004 74 6000 13.9 270 16:41 01.04.2020
68 Snow -3 1005 86 700 13.9 270 16:22 01.04.2020
69 Snow -3 1006 86 2000 14.9 270 15:58 01.04.2020
70 Snow -3 1006 86 2000 14.9 270 15:38 01.04.2020
71 Snow -3 1006 86 2000 14.9 270 15:38 01.04.2020
72 Rain -1 1006 74 7000 15.9 270 15:20 01.04.2020
73 Rain -1 1007 78 9000 14.9 270 14:57 01.04.2020
74 Rain -1 1007 78 9000 14.9 270 14:38 01.04.2020
75 Rain 0 1007 78 9000 14.9 270 14:19 01.04.2020
76 Rain -1 1007 79 10000 15.4 260 13:57 01.04.2020
77 Rain 0 1007 79 10000 15.4 260 13:37 01.04.2020
78 Rain 0 1007 79 10000 15.4 260 13:18 01.04.2020
79 Rain 0 1008 59 8000 15.9 270 12:54 01.04.2020
80 Rain 0 1008 59 8000 15.9 270 12:36 01.04.2020
81 Rain 0 1008 59 8000 15.9 270 12:18 01.04.2020
82 Rain 1 1008 51 10000 14.9 260 11:40 01.04.2020
83 Rain 2 1008 51 10000 14.9 260 11:21 01.04.2020
84 Clouds 2 1009 55 10000 15.4 240 10:57 01.04.2020
85 Clouds 2 1009 55 10000 15.4 240 10:37 01.04.2020
86 Clouds 2 1009 55 10000 15.4 240 10:18 01.04.2020
87 Clouds 2 1009 55 10000 15.4 240 10:18 01.04.2020
88 Clouds 2 1010 59 10000 11.3 240 09:55 01.04.2020
89 Clouds 2 1010 59 10000 11.3 240 09:37 01.04.2020
90 Clouds 2 1010 59 10000 11.3 240 09:18 01.04.2020
91 Clouds 2 1010 59 10000 11.3 240 09:18 01.04.2020
92 Clouds 2 1012 59 10000 9.8 250 08:40 01.04.2020
93 Clouds 2 1012 59 10000 9.8 250 08:18 01.04.2020
94 Clouds 2 1013 80 10000 7.7 270 07:43 01.04.2020
95 Clouds 1 1013 80 10000 7.7 270 07:21 01.04.2020
96 Clouds 1 1014 80 10000 1.5 330 06:48 01.04.2020
97 Clouds 1 1014 80 10000 1.5 330 06:24 01.04.2020
98 Clouds 1 1015 80 10000 8.2 270 05:56 01.04.2020
99 Clouds 1 1016 69 10000 6.2 310 04:32 01.04.2020
100 Clouds 1 1016 69 10000 11.3 280 03:30 01.04.2020
101 Clouds 1 1017 74 10000 10.3 290 02:56 01.04.2020
102 Clouds 1 1017 74 10000 10.3 290 01:59 01.04.2020
103 Clouds 1 1017 74 10000 10.3 290 01:38 01.04.2020
104 Clouds 2 1017 74 10000 10.3 290 01:18 01.04.2020
105 Clouds 1 1018 80 10000 9.3 280 00:46 01.04.2020
106 Clouds 2 1018 80 10000 9.3 280 00:21 01.04.2020
107 Drizzle 2 1018 74 10000 10.3 280 23:42 31.03.2020
108 Drizzle 2 1018 74 10000 10.3 280 23:23 31.03.2020
109 Rain 3 1018 74 10000 9.8 280 22:58 31.03.2020
110 Rain 2 1018 74 10000 9.8 280 22:37 31.03.2020
111 Rain 2 1018 74 10000 9.8 280 22:19 31.03.2020
112 Drizzle 3 1017 81 10000 8.7 270 21:56 31.03.2020
113 Drizzle 3 1017 81 10000 8.7 270 21:38 31.03.2020
114 Drizzle 3 1017 81 10000 8.7 270 21:19 31.03.2020
115 Drizzle 3 1017 80 10000 9.8 260 20:55 31.03.2020
116 Drizzle 3 1017 80 10000 9.8 260 20:36 31.03.2020
117 Drizzle 4 1017 80 10000 9.8 260 20:18 31.03.2020
118 Drizzle 4 1017 75 7000 9.3 260 19:42 31.03.2020
119 Drizzle 4 1017 75 7000 9.3 260 19:42 31.03.2020
120 Drizzle 4 1017 75 7000 9.3 260 19:42 31.03.2020
121 Drizzle 5 1017 75 7000 9.3 260 19:23 31.03.2020
122 Rain 5 1017 80 9000 8.7 250 18:59 31.03.2020
123 Rain 5 1017 80 9000 8.7 250 18:40 31.03.2020
124 Rain 5 1017 80 9000 8.7 250 18:19 31.03.2020
125 Mist 5 1017 80 10000 9.8 240 17:55 31.03.2020
126 Mist 5 1017 80 10000 9.8 240 17:37 31.03.2020
127 Mist 5 1017 80 10000 9.8 240 17:19 31.03.2020
128 Rain 6 1017 87 10000 8.7 230 16:41 31.03.2020
129 Rain 6 1017 87 10000 8.7 230 16:20 31.03.2020
130 Drizzle 6 1017 87 4000 12.9 230 15:57 31.03.2020
131 Drizzle 6 1017 87 4000 12.9 230 15:39 31.03.2020
132 Drizzle 6 1017 87 4000 12.9 230 15:39 31.03.2020
133 Drizzle 6 1017 87 4000 12.9 230 15:21 31.03.2020
134 Drizzle 6 1018 87 5000 12.3 220 14:57 31.03.2020
135 Drizzle 6 1018 87 5000 12.3 220 14:39 31.03.2020
136 Drizzle 6 1018 87 5000 12.3 220 14:21 31.03.2020
137 Drizzle 6 1019 87 6000 12.9 210 13:43 31.03.2020
138 Drizzle 6 1019 87 6000 12.9 210 13:20 31.03.2020
139 Drizzle 6 1020 87 6000 11.8 210 12:59 31.03.2020
140 Drizzle 6 1020 87 6000 11.8 210 12:40 31.03.2020
141 Drizzle 6 1020 87 6000 11.8 210 12:19 31.03.2020
142 Drizzle 6 1021 87 3400 11.3 210 11:40 31.03.2020
143 Drizzle 6 1021 87 3400 11.3 210 11:20 31.03.2020
144 Drizzle 6 1023 87 7000 11.3 210 10:59 31.03.2020
145 Drizzle 6 1023 87 7000 11.3 210 10:40 31.03.2020
146 Drizzle 6 1023 87 7000 11.3 210 10:22 31.03.2020
147 Mist 6 1023 87 7000 10.8 210 09:59 31.03.2020
148 Mist 6 1023 87 7000 10.8 210 09:40 31.03.2020
149 Mist 6 1023 87 7000 10.8 210 09:22 31.03.2020
150 Mist 6 1024 81 9000 9.3 210 08:57 31.03.2020
151 Mist 6 1024 81 9000 9.3 210 08:38 31.03.2020
152 Mist 6 1024 81 9000 9.3 210 08:19 31.03.2020
153 Mist 6 1024 81 9000 9.3 210 08:19 31.03.2020
154 Mist 6 1025 87 9000 9.3 210 07:56 31.03.2020
155 Mist 6 1025 87 9000 9.3 210 07:37 31.03.2020
156 Mist 6 1025 87 9000 9.3 210 07:19 31.03.2020
157 Mist 6 1026 87 8000 8.7 210 06:46 31.03.2020
158 Mist 6 1026 87 8000 8.7 210 06:20 31.03.2020
159 Mist 6 1027 87 8000 7.7 220 05:39 31.03.2020
160 Mist 6 1029 81 9000 7.2 220 03:34 31.03.2020
161 Mist 5 1029 86 9000 6.7 220 02:18 31.03.2020
162 Clouds 5 1029 80 10000 8.7 220 01:45 31.03.2020
163 Clouds 5 1030 80 10000 7.7 220 00:49 31.03.2020
164 Clouds 5 1030 80 10000 7.7 220 00:25 31.03.2020
165 Clouds 5 1030 80 10000 9.3 220 23:56 30.03.2020
166 Clouds 5 1030 80 10000 9.3 220 23:37 30.03.2020
167 Clouds 5 1030 80 10000 9.3 220 23:18 30.03.2020
168 Rain 5 1030 80 10000 9.3 220 22:55 30.03.2020
169 Rain 5 1030 80 10000 9.3 220 22:36 30.03.2020
170 Rain 5 1030 80 10000 9.3 220 22:18 30.03.2020
171 Mist 5 1031 80 10000 9.3 220 21:54 30.03.2020
172 Mist 5 1031 80 10000 9.3 220 21:36 30.03.2020
173 Mist 5 1031 80 10000 9.3 220 21:36 30.03.2020
174 Mist 5 1031 80 10000 9.3 220 21:18 30.03.2020
175 Clouds 6 1031 75 10000 9.3 230 20:40 30.03.2020
176 Clouds 5 1031 75 10000 9.3 230 20:22 30.03.2020
177 Clouds 6 1032 75 10000 10.3 230 19:59 30.03.2020
178 Clouds 6 1032 75 10000 10.3 230 19:39 30.03.2020
179 Clouds 6 1032 75 10000 10.3 230 19:21 30.03.2020
180 Clouds 6 1033 75 10000 9.3 230 18:56 30.03.2020
181 Clouds 6 1033 75 10000 9.3 230 18:37 30.03.2020
182 Clouds 6 1033 75 10000 9.3 230 18:19 30.03.2020
183 Rain 6 1034 75 10000 10.3 220 17:55 30.03.2020
184 Rain 6 1034 75 10000 10.3 220 17:36 30.03.2020
185 Rain 6 1034 75 10000 10.3 220 17:18 30.03.2020
186 Clouds 6 1035 75 10000 7.7 230 16:54 30.03.2020
187 Clouds 6 1035 75 10000 7.7 230 16:36 30.03.2020
188 Clouds 6 1035 75 10000 7.7 230 16:18 30.03.2020
189 Clouds 6 1036 75 10000 8.2 220 15:41 30.03.2020
190 Clouds 6 1036 75 10000 8.2 220 15:22 30.03.2020
191 Clouds 5 1036 80 10000 7.7 210 14:59 30.03.2020
192 Clouds 5 1036 80 10000 7.7 210 14:38 30.03.2020
193 Clouds 5 1036 80 10000 7.7 210 14:19 30.03.2020
194 Clouds 5 1037 80 10000 7.7 210 13:58 30.03.2020
195 Clouds 5 1037 80 10000 7.7 210 13:58 30.03.2020
196 Clouds 5 1037 80 10000 7.7 210 13:39 30.03.2020
197 -273 0 0 0 0 0 13:20 30.03.2020
198 Clouds 5 1038 75 10000 8.2 220 12:54 30.03.2020
199 Clouds 5 1038 75 10000 8.2 220 12:36 30.03.2020
200 Clouds 5 1038 75 10000 8.2 220 12:18 30.03.2020
201 Mist 5 1038 80 10000 7.7 210 11:42 30.03.2020
202 Mist 5 1038 80 10000 7.7 210 11:22 30.03.2020
203 Rain 5 1039 75 10000 6.2 200 10:57 30.03.2020
204 Rain 5 1039 75 10000 6.2 200 10:38 30.03.2020
205 Rain 5 1039 75 10000 6.2 200 10:20 30.03.2020
206 Rain 5 1040 75 10000 5.7 200 09:54 30.03.2020
207 Rain 5 1040 75 10000 5.7 200 09:36 30.03.2020
208 Rain 5 1040 75 10000 5.7 200 09:18 30.03.2020
209 Drizzle 5 1040 80 10000 5.1 210 08:39 30.03.2020
210 -273 0 0 0 0 0 08:20 30.03.2020
211 Clouds 5 1041 86 10000 4.6 200 07:45 30.03.2020
212 Clouds 4 1041 86 10000 4.6 200 07:23 30.03.2020
213 Drizzle 4 1041 86 10000 4.6 190 06:47 30.03.2020
214 Drizzle 4 1041 86 10000 4.6 190 06:27 30.03.2020
215 Drizzle 4 1042 80 10000 4.6 190 05:44 30.03.2020
216 Rain 4 1043 80 10000 5.1 200 04:40 30.03.2020
217 Rain 4 1043 80 10000 5.1 200 04:20 30.03.2020
218 Rain 4 1044 80 10000 6.2 210 02:52 30.03.2020
219 Clouds 4 1044 80 10000 6.2 200 01:58 30.03.2020
220 Clouds 4 1044 80 10000 6.2 200 01:24 30.03.2020
221 Clouds 4 1044 80 10000 6.2 200 00:30 30.03.2020
222 Clouds 4 1045 80 10000 6.2 200 23:59 29.03.2020
223 Clouds 4 1045 80 10000 6.2 200 23:40 29.03.2020
224 Clouds 4 1045 80 10000 6.2 200 23:21 29.03.2020
225 Clouds 4 1045 80 10000 6.2 220 22:55 29.03.2020
226 Clouds 4 1045 80 10000 6.2 220 22:37 29.03.2020
227 Clouds 4 1045 80 10000 6.2 220 22:18 29.03.2020
228 Rain 5 1046 80 10000 7.2 220 21:40 29.03.2020
229 Clouds 5 1046 75 10000 7.7 220 21:21 29.03.2020
230 Clouds 5 1046 75 10000 7.7 220 20:56 29.03.2020
231 Clouds 5 1046 75 10000 7.7 220 20:38 29.03.2020
232 Clouds 5 1046 75 10000 7.7 220 20:19 29.03.2020
233 Clouds 5 1046 75 10000 7.7 220 20:19 29.03.2020
234 Clouds 5 1047 80 10000 7.2 230 19:59 29.03.2020
235 Clouds 5 1047 80 10000 7.2 230 19:41 29.03.2020
236 Clouds 5 1047 80 10000 7.2 230 19:23 29.03.2020
237 Clouds 6 1046 81 10000 6.7 220 18:57 29.03.2020
238 Clouds 6 1046 81 10000 6.7 220 18:39 29.03.2020
239 Clouds 6 1046 81 10000 6.7 220 18:20 29.03.2020
240 Clouds 6 1047 81 10000 7.2 230 17:56 29.03.2020
241 Clouds 6 1047 81 10000 7.2 230 17:38 29.03.2020
242 Clouds 6 1047 81 10000 7.2 230 17:19 29.03.2020
243 Clouds 6 1047 81 10000 7.7 230 16:56 29.03.2020
244 Clouds 6 1047 81 10000 7.7 230 16:38 29.03.2020
245 Clouds 6 1047 81 10000 7.7 230 16:38 29.03.2020
246 Clouds 6 1047 81 10000 7.7 230 16:19 29.03.2020
247 Clouds 6 1047 81 10000 7.2 230 15:42 29.03.2020
248 Clouds 6 1047 81 10000 7.2 230 15:42 29.03.2020
249 Clouds 6 1047 81 10000 7.2 230 15:42 29.03.2020
250 Clouds 6 1047 81 10000 7.2 230 15:24 29.03.2020
251 Clouds 6 1047 81 10000 7.2 220 14:59 29.03.2020
252 Clouds 6 1047 81 10000 7.2 220 14:40 29.03.2020
253 Clouds 6 1047 81 10000 7.2 220 14:40 29.03.2020
254 Clouds 6 1047 81 10000 7.2 220 14:20 29.03.2020
255 Clouds 5 1047 86 10000 6.2 210 13:58 29.03.2020
256 Clouds 5 1047 86 10000 6.2 210 13:40 29.03.2020
257 Clouds 5 1047 86 10000 6.2 210 13:20 29.03.2020
258 Clouds 5 1047 86 10000 6.7 210 12:57 29.03.2020
259 Clouds 5 1047 86 10000 6.7 210 12:38 29.03.2020
260 Clouds 5 1047 86 10000 6.7 210 12:19 29.03.2020
261 Clouds 5 1047 86 10000 6.7 210 12:19 29.03.2020
262 Clouds 5 1046 86 10000 6.7 220 11:55 29.03.2020
263 Clouds 5 1046 86 10000 6.7 220 11:37 29.03.2020
264 Clouds 5 1046 86 10000 6.7 220 11:19 29.03.2020
265 Clouds 5 1046 86 10000 6.7 220 11:19 29.03.2020
266 Drizzle 4 1046 93 6000 6.7 210 10:38 29.03.2020
267 Drizzle 4 1046 93 6000 6.7 210 10:19 29.03.2020
268 Rain 4 1046 86 10000 6.7 210 09:41 29.03.2020
269 Rain 4 1046 86 10000 6.7 210 09:23 29.03.2020
270 Rain 4 1046 86 10000 6.2 210 08:57 29.03.2020
271 Rain 4 1046 86 10000 6.2 210 08:39 29.03.2020
272 Rain 4 1046 86 10000 6.2 210 08:20 29.03.2020
273 Clouds 5 1046 86 10000 6.2 210 07:44 29.03.2020
274 Clouds 4 1046 86 10000 6.2 210 07:21 29.03.2020
275 Clouds 5 1047 80 10000 6.7 200 05:59 29.03.2020
276 Clouds 4 1047 86 10000 6.7 200 04:56 29.03.2020
277 Clouds 4 1048 80 10000 4.6 220 03:37 29.03.2020
278 Clouds 3 1048 80 10000 6.2 200 01:57 29.03.2020
279 Clouds 3 1048 80 10000 6.2 200 01:37 29.03.2020
280 Clouds 3 1048 80 10000 6.2 200 01:19 29.03.2020
281 Clouds 2 1048 86 10000 4.1 190 00:39 29.03.2020
282 Rain 2 1048 86 10000 4.6 190 23:59 28.03.2020
283 Rain 2 1048 86 10000 4.6 190 23:40 28.03.2020
284 Rain 2 1048 86 10000 4.6 190 23:40 28.03.2020
285 Rain 2 1048 86 10000 4.6 190 23:22 28.03.2020
286 Drizzle 2 1049 85 10000 3.1 190 22:42 28.03.2020
287 Drizzle 2 1049 85 10000 3.1 190 22:22 28.03.2020
288 Clouds 2 1049 85 10000 3.1 210 21:57 28.03.2020
289 Clouds 2 1049 85 10000 3.1 210 21:39 28.03.2020
290 Clouds 2 1049 85 10000 3.1 210 21:19 28.03.2020
291 Clouds 2 1049 74 10000 3.6 190 20:56 28.03.2020
292 Clouds 2 1049 74 10000 3.6 190 20:37 28.03.2020
293 Clouds 2 1049 74 10000 3.6 190 20:18 28.03.2020
294 Clouds 2 1049 69 10000 5.7 230 19:55 28.03.2020
295 Clouds 2 1049 69 10000 5.7 230 19:36 28.03.2020
296 Clouds 3 1049 69 10000 5.7 230 19:18 28.03.2020
297 Clouds 3 1049 69 10000 4.6 230 18:39 28.03.2020
298 Clouds 3 1049 69 10000 4.6 230 18:20 28.03.2020
299 Clouds 3 1049 69 10000 3.6 200 17:42 28.03.2020
300 Clouds 3 1049 69 10000 3.6 200 17:22 28.03.2020
301 Clouds 3 1049 69 10000 4.6 210 16:59 28.03.2020
302 Clouds 3 1049 69 10000 4.6 210 16:39 28.03.2020
303 Clouds 3 1049 69 10000 4.6 210 16:18 28.03.2020
304 Clouds 3 1049 64 10000 4.6 210 15:40 28.03.2020
305 Clouds 2 1049 64 10000 4.6 210 15:21 28.03.2020
306 Clouds 2 1049 64 10000 4.1 200 14:59 28.03.2020
307 Clouds 2 1049 64 10000 4.1 200 14:40 28.03.2020
308 Clouds 2 1049 64 10000 4.1 200 14:21 28.03.2020
309 Clouds 2 1049 64 10000 3.6 200 13:43 28.03.2020
310 Clouds 1 1049 64 10000 3.6 200 13:23 28.03.2020
311 Clouds 0 1049 69 10000 4.1 200 12:41 28.03.2020
312 Clouds 0 1049 69 10000 4.1 200 12:23 28.03.2020
313 Clouds -1 1049 64 10000 2.1 160 11:59 28.03.2020
314 Clouds -1 1049 64 10000 2.1 160 11:41 28.03.2020
315 Clouds -1 1049 64 10000 2.1 160 11:20 28.03.2020
316 Clouds -2 1049 68 10000 1 0 10:40 28.03.2020
317 Clouds -3 1049 68 10000 1 0 10:22 28.03.2020
318 Clouds -4 1048 68 10000 1.5 110 09:43 28.03.2020
319 Clouds -4 1048 68 10000 1.5 110 09:24 28.03.2020
320 Clouds -2 1048 73 10000 2.6 120 08:59 28.03.2020
321 Clouds -2 1048 73 10000 2.6 120 08:41 28.03.2020
322 Clouds -5 1048 73 10000 2.6 120 08:22 28.03.2020
323 Clouds -5 1047 68 10000 1.5 100 07:46 28.03.2020
324 Clouds -5 1047 68 10000 1.5 100 07:28 28.03.2020
325 Clouds -2 1047 68 10000 2.6 110 06:37 28.03.2020
326 Clouds -5 1047 68 10000 2.6 110 06:18 28.03.2020
327 Clouds -5 1046 68 10000 2.6 110 05:23 28.03.2020
328 Clouds -5 1046 68 10000 2.1 120 04:42 28.03.2020
329 Clouds -4 1046 68 10000 2.1 120 04:20 28.03.2020
330 Clouds -4 1045 68 10000 1.5 130 02:33 28.03.2020
331 Clouds -4 1044 68 10000 2.1 140 01:45 28.03.2020
332 Clouds -4 1044 68 10000 2.1 140 01:20 28.03.2020
333 Clouds -4 1044 68 10000 1 140 00:46 28.03.2020
334 Clouds -3 1044 68 10000 1 140 00:20 28.03.2020
335 Clouds -2 1043 89 10000 0.5 0 23:42 27.03.2020
336 Clouds -3 1043 89 10000 0.5 0 23:23 27.03.2020
337 Clouds -2 1042 89 10000 2.1 350 22:56 27.03.2020
338 Clouds -2 1042 89 10000 2.1 350 22:38 27.03.2020
339 Clouds -1 1042 89 10000 2.1 350 22:20 27.03.2020
340 Clouds -1 1040 55 10000 2.1 330 21:55 27.03.2020
341 Clouds -1 1040 55 10000 2.1 330 21:37 27.03.2020
342 Clouds -1 1040 55 10000 2.1 330 21:19 27.03.2020
343 Clouds -1 1039 55 10000 3.1 330 20:42 27.03.2020
344 Clouds -1 1039 55 10000 3.1 330 20:21 27.03.2020
345 Clouds 0 1038 55 10000 4.6 320 19:59 27.03.2020
346 Clouds 0 1038 55 10000 4.6 320 19:41 27.03.2020
347 Clouds 0 1038 55 10000 4.6 320 19:22 27.03.2020
348 Clouds 0 1037 55 10000 3.6 320 18:56 27.03.2020
349 Clouds 0 1037 55 10000 3.6 320 18:38 27.03.2020
350 Clouds 0 1037 55 10000 3.6 320 18:19 27.03.2020
351 Clouds 0 1036 55 10000 6.7 290 17:40 27.03.2020
352 Clouds 0 1036 55 10000 6.7 290 17:20 27.03.2020
353 Clouds 0 1034 50 10000 6.7 300 16:54 27.03.2020
354 Clouds 0 1034 50 10000 6.7 300 16:36 27.03.2020
355 Clouds 0 1034 50 10000 6.7 300 16:36 27.03.2020
356 Clouds 0 1034 50 10000 6.7 300 16:18 27.03.2020
357 Clouds 1 1033 50 10000 6.2 290 15:41 27.03.2020
358 Clouds 1 1033 50 10000 6.2 290 15:23 27.03.2020
359 Clouds 0 1032 84 10000 7.2 310 14:46 27.03.2020
360 Clouds 0 1032 84 10000 7.2 310 14:25 27.03.2020
361 Clouds 0 1030 86 10000 9.3 290 13:56 27.03.2020
362 Clouds 0 1030 86 10000 9.3 290 13:37 27.03.2020
363 Clouds 0 1030 86 10000 9.3 290 13:37 27.03.2020
364 Clouds 0 1030 86 10000 9.3 290 13:19 27.03.2020
365 Clouds 0 1029 85 10000 9.3 290 12:51 27.03.2020
366 Clouds 0 1029 85 10000 9.3 290 12:21 27.03.2020
367 Clouds 0 1027 85 10000 8.7 270 11:59 27.03.2020
368 Clouds 0 1027 85 10000 8.7 270 11:41 27.03.2020
369 Clouds 0 1027 85 10000 8.7 270 11:22 27.03.2020
370 Clouds 0 1025 90 10000 11.8 280 10:54 27.03.2020
371 Clouds 0 1025 90 10000 11.8 280 10:36 27.03.2020
372 Clouds 0 1025 90 10000 11.8 280 10:18 27.03.2020
373 Clouds 0 1023 90 10000 10.8 280 09:56 27.03.2020
374 Clouds 0 1023 90 10000 10.8 280 09:37 27.03.2020
375 Clouds 0 1023 90 10000 10.8 280 09:18 27.03.2020
376 Rain 0 1021 90 10000 11.8 270 08:55 27.03.2020
377 Rain 0 1021 90 10000 11.8 270 08:37 27.03.2020
378 Rain 0 1021 90 10000 11.8 270 08:18 27.03.2020
379 Rain -1 1020 86 10000 9.8 270 07:49 27.03.2020
380 Rain -1 1020 86 10000 9.8 270 07:22 27.03.2020
381 Rain 0 1018 89 10000 11.3 250 06:46 27.03.2020
382 Rain 0 1018 89 10000 11.3 250 06:27 27.03.2020
383 Rain 0 1017 89 10000 11.8 250 04:21 27.03.2020
384 Rain -2 1016 79 10000 11.3 250 02:25 27.03.2020
385 Rain -1 1015 63 10000 9.8 250 01:22 27.03.2020
386 Rain -1 1014 74 10000 9.8 250 00:48 27.03.2020
387 Rain -1 1014 74 10000 9.8 250 00:23 27.03.2020
388 Snow -1 1014 80 3200 12.9 250 23:42 26.03.2020
389 Snow -1 1013 92 10000 8.2 250 23:21 26.03.2020
390 Snow -1 1012 92 3500 8.2 210 22:58 26.03.2020
391 Snow -1 1012 92 3500 8.2 210 22:37 26.03.2020
392 Snow -1 1012 92 3500 8.2 210 22:19 26.03.2020
393 Snow 0 1012 89 2000 9.8 230 21:55 26.03.2020
394 Snow 0 1012 89 2000 9.8 230 21:55 26.03.2020
395 Snow 0 1012 89 2000 9.8 230 21:36 26.03.2020
396 Rain -1 1011 92 10000 7.7 240 21:18 26.03.2020
397 Snow 0 1011 89 1500 10.3 250 20:41 26.03.2020
398 Snow 0 1011 89 1500 10.3 250 20:41 26.03.2020
399 Rain 0 1011 78 10000 7.7 200 20:23 26.03.2020
400 Rain 0 1010 78 10000 7.2 210 19:58 26.03.2020
401 Rain 0 1010 78 10000 7.2 210 19:40 26.03.2020
402 Snow 0 1011 78 2000 5.1 180 19:22 26.03.2020
403 Rain 0 1011 78 10000 6.2 170 18:59 26.03.2020
404 Rain 0 1011 78 10000 6.2 170 18:41 26.03.2020
405 Rain 0 1011 78 10000 3.6 190 18:23 26.03.2020
406 Snow 0 1011 78 500 5.7 240 17:45 26.03.2020
407 Rain 2 1012 69 10000 6.7 210 17:21 26.03.2020
408 Clouds 2 1012 69 10000 7.2 210 16:59 26.03.2020
409 Clouds 2 1012 69 10000 7.2 210 16:39 26.03.2020
410 Clouds 2 1012 69 10000 7.2 210 16:21 26.03.2020
411 Clouds 3 1012 55 10000 8.2 230 15:57 26.03.2020
412 Clouds 3 1012 55 10000 8.2 230 15:38 26.03.2020
413 Clouds 3 1012 55 10000 8.2 230 15:20 26.03.2020
414 Clouds 3 1012 59 10000 9.8 230 14:55 26.03.2020
415 Clouds 3 1012 59 10000 9.8 230 14:36 26.03.2020
416 Clouds 3 1012 59 10000 9.8 230 14:18 26.03.2020
417 Rain 0 1011 78 10000 8.7 230 13:41 26.03.2020
418 Rain 0 1011 78 10000 8.7 230 13:22 26.03.2020
419 Rain 1 1010 80 10000 7.2 220 12:55 26.03.2020
420 Rain 1 1010 80 10000 7.2 220 12:37 26.03.2020
421 Rain 1 1010 80 10000 7.2 220 12:18 26.03.2020
422 Snow 0 1010 78 3000 10.8 230 11:44 26.03.2020
423 Clouds 1 1010 86 10000 7.2 240 11:20 26.03.2020
424 Rain 0 1009 84 10000 8.7 210 10:42 26.03.2020
425 Rain 0 1009 84 10000 8.7 210 10:20 26.03.2020
426 Rain 0 1008 84 10000 9.3 210 09:59 26.03.2020
427 Rain 0 1008 84 10000 9.3 210 09:41 26.03.2020
428 Rain 0 1008 84 10000 9.3 210 09:19 26.03.2020
429 Snow 0 1008 84 2500 9.8 210 08:44 26.03.2020
430 Rain -1 1007 92 10000 7.2 190 08:26 26.03.2020
431 Clouds 0 1007 83 2500 10.8 220 07:57 26.03.2020
432 Clouds 0 1007 83 2500 10.8 220 07:38 26.03.2020
433 Clouds 0 1007 83 2500 10.8 220 07:19 26.03.2020
434 Rain 0 1007 83 10000 6.7 210 06:35 26.03.2020
435 Clouds 0 1006 83 10000 6.7 230 05:51 26.03.2020
436 Snow 0 1006 82 2800 9.3 210 03:47 26.03.2020
437 Clouds 1 1006 86 6000 6.2 220 03:18 26.03.2020
438 Clouds 1 1006 86 10000 5.7 190 02:50 26.03.2020
439 Snow 1 1006 80 2000 10.3 210 01:19 26.03.2020
440 Clouds 2 1005 74 10000 6.7 220 00:32 26.03.2020
441 Clouds 2 1005 74 10000 8.2 210 23:44 25.03.2020
442 Clouds 2 1005 74 10000 8.2 210 23:26 25.03.2020
443 Clouds 2 1005 80 10000 7.7 210 22:55 25.03.2020
444 Clouds 2 1005 80 10000 7.7 210 22:37 25.03.2020
445 Clouds 2 1005 80 10000 7.7 210 22:18 25.03.2020
446 Clouds 1 1004 86 10000 6.7 220 21:43 25.03.2020
447 Clouds 1 1004 86 10000 6.7 220 21:24 25.03.2020
448 Rain 2 1004 83 10000 5.1 210 20:59 25.03.2020
449 Rain 2 1004 83 10000 5.1 210 20:39 25.03.2020
450 Rain 2 1004 81 10000 5.1 210 20:19 25.03.2020
451 Rain 1 1003 80 10000 6.2 230 19:55 25.03.2020
452 Rain 1 1003 80 10000 6.2 230 19:37 25.03.2020
453 Clouds 1 1003 86 4900 9.8 230 19:18 25.03.2020
454 Rain 3 1003 80 10000 7.2 230 18:43 25.03.2020
455 Rain 3 1003 80 10000 7.2 230 18:43 25.03.2020
456 Rain 3 1003 80 10000 7.2 230 18:25 25.03.2020
457 Rain 3 1002 80 10000 8.2 210 17:59 25.03.2020
458 Rain 3 1002 80 10000 8.2 210 17:41 25.03.2020
459 Rain 3 1002 91 10000 8.2 210 17:22 25.03.2020
460 Clouds 3 1002 91 10000 5.7 160 16:58 25.03.2020
461 Clouds 3 1002 91 10000 5.7 160 16:39 25.03.2020
462 Clouds 3 1002 91 10000 5.7 160 16:20 25.03.2020
463 Rain 2 1002 80 10000 6.2 80 15:43 25.03.2020
464 Rain 2 1002 80 10000 6.2 80 15:21 25.03.2020
465 Snow 3 1003 74 10000 6.2 90 14:57 25.03.2020
466 Snow 3 1003 74 10000 6.2 90 14:39 25.03.2020
467 Snow 3 1003 74 10000 6.2 90 14:20 25.03.2020
468 Snow 2 1003 69 10000 4.6 120 13:44 25.03.2020
469 Snow 2 1003 69 10000 4.6 120 13:24 25.03.2020
470 Clouds 2 1003 69 10000 2.6 80 12:39 25.03.2020
471 Clouds 2 1003 69 10000 2.6 80 12:21 25.03.2020
472 Snow 2 1003 69 10000 2.6 130 11:59 25.03.2020
473 Snow 2 1003 69 10000 2.6 130 11:40 25.03.2020
474 Snow 2 1003 69 10000 2.6 130 11:21 25.03.2020
475 Snow 1 1003 80 10000 2.6 130 10:58 25.03.2020
476 Snow 1 1003 80 10000 2.6 130 10:40 25.03.2020
477 Snow 1 1003 80 10000 2.6 130 10:18 25.03.2020
478 Snow 0 1003 94 10000 2.6 130 09:56 25.03.2020
479 Snow 0 1003 94 10000 2.6 130 09:38 25.03.2020
480 Snow 0 1003 94 10000 2.6 130 09:19 25.03.2020
481 Clouds -1 1002 92 10000 2.6 120 08:41 25.03.2020
482 Clouds -1 1002 92 10000 2.6 120 08:23 25.03.2020
483 Rain 0 1001 96 10000 3.1 250 07:56 25.03.2020
484 Rain 0 1001 96 10000 3.1 250 07:37 25.03.2020
485 Rain 0 1001 96 10000 3.1 250 07:18 25.03.2020
486 Snow 0 1001 96 2400 4.6 190 06:41 25.03.2020
487 Clouds 1 1000 69 10000 2.6 130 06:23 25.03.2020
488 Clouds 0 1000 96 10000 2.1 140 05:47 25.03.2020
489 Clouds 0 999 92 10000 1.5 140 04:42 25.03.2020
490 Clouds -1 999 80 10000 2.1 140 03:58 25.03.2020
491 Clouds -1 999 80 10000 2.1 140 03:33 25.03.2020
492 Clouds 0 997 86 10000 3.6 200 01:41 25.03.2020
493 Clouds 1 996 74 10000 4.1 200 00:51 25.03.2020
494 Clouds 1 996 74 10000 4.1 200 00:30 25.03.2020
495 Clouds 1 995 74 10000 4.6 210 23:58 24.03.2020
496 Clouds 1 995 74 10000 4.6 210 23:39 24.03.2020
497 Clouds 1 995 74 10000 4.6 210 23:20 24.03.2020
498 Clouds 1 994 74 10000 5.1 200 22:54 24.03.2020
499 Clouds 1 994 74 10000 5.1 200 22:36 24.03.2020
500 Clouds 1 994 74 10000 5.1 200 22:18 24.03.2020
501 Clouds 2 993 69 10000 5.7 230 21:42 24.03.2020
502 Clouds 2 993 69 10000 5.7 230 21:19 24.03.2020
503 Clouds 2 992 69 10000 6.7 240 20:59 24.03.2020
504 Clouds 2 992 69 10000 6.7 240 20:41 24.03.2020
505 Clouds 3 991 69 10000 4.6 240 20:22 24.03.2020
506 Clouds 3 991 69 10000 4.6 240 19:48 24.03.2020
507 Clouds 3 991 69 10000 4.6 240 19:23 24.03.2020
508 Rain 3 990 74 10000 6.2 240 18:59 24.03.2020
509 Rain 3 990 74 10000 6.2 240 18:40 24.03.2020
510 Rain 3 990 74 10000 6.2 240 18:20 24.03.2020
511 Clouds 2 990 88 10000 4.1 230 17:58 24.03.2020
512 Clouds 2 990 88 10000 4.1 230 17:40 24.03.2020
513 Rain 1 989 86 4000 5.7 220 17:22 24.03.2020
514 Rain 3 988 74 10000 7.2 260 16:57 24.03.2020
515 Rain 3 988 74 10000 7.2 260 16:38 24.03.2020
516 Rain 2 988 93 8000 7.7 160 16:20 24.03.2020
517 Snow 2 988 100 6000 4.1 230 15:44 24.03.2020
518 Snow 2 988 100 6000 4.1 230 15:44 24.03.2020
519 Rain 2 988 74 9000 6.2 160 15:25 24.03.2020
520 Snow 2 988 93 600 6.7 190 14:57 24.03.2020
521 Snow 2 988 93 600 6.7 190 14:39 24.03.2020
522 Clouds 4 988 64 10000 7.2 170 14:18 24.03.2020
523 Clouds 4 988 64 10000 6.7 160 13:41 24.03.2020
524 Clouds 4 988 64 10000 6.7 160 13:22 24.03.2020
525 Clouds 3 988 69 10000 5.7 160 12:47 24.03.2020
526 Clouds 3 988 69 10000 5.7 160 12:28 24.03.2020
527 Rain 1 987 74 10000 6.2 160 11:58 24.03.2020
528 Rain 1 987 74 10000 6.2 160 11:39 24.03.2020
529 Rain 1 987 74 10000 6.2 160 11:18 24.03.2020
530 Snow 0 986 74 10000 7.7 200 10:42 24.03.2020
531 Rain 0 987 70 10000 8.2 170 10:19 24.03.2020
532 Rain 0 986 69 10000 7.2 170 09:55 24.03.2020
533 Rain 0 986 69 10000 7.2 170 09:37 24.03.2020
534 Clouds 0 987 70 10000 4.1 170 09:19 24.03.2020
535 Clouds 0 985 70 10000 7.2 190 08:38 24.03.2020
536 Clouds -1 986 67 10000 5.1 160 08:20 24.03.2020
537 Rain 0 985 80 10000 8.7 190 07:47 24.03.2020
538 Snow 0 986 74 8000 12.9 210 07:24 24.03.2020
539 -273 0 0 0 0 0 06:50 24.03.2020
540 Clouds 0 985 67 10000 9.3 190 06:25 24.03.2020
541 Clouds 1 983 59 10000 11.8 210 04:57 24.03.2020
542 Rain 1 983 80 10000 11.3 190 03:48 24.03.2020
543 Clouds 1 984 74 10000 10.3 200 03:18 24.03.2020
544 Snow 0 982 69 4000 15.4 220 01:45 24.03.2020
545 Rain 2 980 69 10000 15.4 220 00:46 24.03.2020
546 Clouds 2 981 69 10000 11.3 210 00:24 24.03.2020
547 Rain 2 979 64 10000 17 230 23:44 23.03.2020
548 Rain 2 980 74 10000 13.4 220 23:26 23.03.2020
549 Rain 2 978 74 10000 16.5 220 22:55 23.03.2020
550 Rain 2 978 74 10000 16.5 220 22:55 23.03.2020
551 Rain 2 978 74 10000 16.5 220 22:37 23.03.2020
552 Rain 2 978 80 9000 14.9 210 22:19 23.03.2020
553 Rain 1 976 81 10000 18 220 21:43 23.03.2020
554 Rain 1 976 81 7000 15.9 210 21:20 23.03.2020
555 Rain 1 975 93 10000 19.5 220 20:58 23.03.2020
556 Rain 1 975 93 10000 19.5 220 20:39 23.03.2020
557 Rain 1 975 80 8000 17 200 20:21 23.03.2020
558 Rain 2 973 93 10000 21.6 220 19:45 23.03.2020
559 Rain 2 974 74 7000 15.9 200 19:27 23.03.2020
560 Rain 2 972 96 10000 20.1 210 18:59 23.03.2020
561 Rain 2 972 96 10000 20.1 210 18:41 23.03.2020
562 Rain 2 974 96 10000 13.4 200 18:21 23.03.2020
563 Rain 1 972 96 1500 18 210 17:56 23.03.2020
564 Rain 2 972 96 1500 18 210 17:37 23.03.2020
565 Clouds 1 974 86 8000 11.8 210 17:18 23.03.2020
566 Rain 2 973 72 10000 12.9 210 16:43 23.03.2020
567 Rain 3 974 74 10000 11.8 200 16:24 23.03.2020
568 Rain 4 972 72 10000 15.4 210 15:42 23.03.2020
569 Rain 4 972 72 10000 15.4 210 15:42 23.03.2020
570 Rain 3 973 69 10000 11.3 220 15:20 23.03.2020
571 Rain 3 971 69 10000 15.4 220 14:55 23.03.2020
572 Rain 3 971 69 10000 15.4 220 14:37 23.03.2020
573 Rain 3 972 87 10000 8.7 220 14:18 23.03.2020
574 Snow 3 972 87 4500 14.9 230 13:41 23.03.2020
575 Rain 2 970 87 10000 8.7 190 13:22 23.03.2020
576 Rain 3 969 86 10000 10.8 230 12:58 23.03.2020
577 Rain 3 969 86 10000 10.8 230 12:58 23.03.2020
578 Rain 3 969 86 10000 10.8 230 12:40 23.03.2020
579 Rain 3 970 85 8000 8.7 200 12:21 23.03.2020
580 Rain 2 968 86 10000 15.4 210 11:42 23.03.2020
581 Rain 3 969 75 10000 12.9 200 11:21 23.03.2020
582 Rain 2 967 75 10000 14.4 230 10:58 23.03.2020
583 Rain 2 967 75 10000 14.4 230 10:39 23.03.2020
584 Rain 2 967 75 8000 12.3 210 10:21 23.03.2020
585 Rain 2 965 75 10000 17.5 230 09:57 23.03.2020
586 Rain 2 965 75 10000 17.5 230 09:39 23.03.2020
587 Rain 2 966 75 8000 10.8 190 09:18 23.03.2020
588 Clouds 2 964 93 10000 14.4 220 08:38 23.03.2020
589 Rain 2 965 74 10000 11.3 180 08:19 23.03.2020
590 Rain 2 963 74 10000 11.8 190 07:50 23.03.2020
591 Rain 2 965 74 10000 10.3 190 07:32 23.03.2020
592 Rain 3 963 74 10000 13.9 210 06:54 23.03.2020
593 Clouds 2 964 74 10000 12.9 200 06:32 23.03.2020
594 Rain 2 962 86 10000 17 210 05:42 23.03.2020
595 Rain 2 963 93 10000 9.8 180 03:45 23.03.2020
596 Rain 2 963 93 10000 10.8 170 02:43 23.03.2020
597 Rain 3 964 86 10000 12.3 170 01:39 23.03.2020
598 Rain 2 966 77 9000 8.2 170 00:45 23.03.2020
599 Rain 2 969 77 3000 11.8 180 23:58 22.03.2020
600 Clouds 3 970 69 10000 8.7 160 23:40 22.03.2020
601 Clouds 3 970 69 10000 8.7 160 23:22 22.03.2020
602 Rain 3 968 72 10000 13.9 180 22:40 22.03.2020
603 Rain 3 971 69 10000 8.7 170 22:20 22.03.2020
604 Rain 2 969 86 10000 10.3 170 21:40 22.03.2020
605 Rain 2 971 72 10000 8.7 170 21:21 22.03.2020
606 Clouds 2 970 93 10000 9.8 180 20:58 22.03.2020
607 Clouds 2 970 93 10000 9.8 180 20:40 22.03.2020
608 Rain 2 971 86 10000 9.8 170 20:21 22.03.2020
609 Rain 3 970 84 10000 10.3 180 19:56 22.03.2020
610 Rain 3 970 84 10000 10.3 180 19:38 22.03.2020
611 Rain 2 971 93 9000 18.5 150 19:19 22.03.2020
612 Rain 4 970 93 5000 17.5 160 18:57 22.03.2020
613 Rain 4 970 93 5000 17.5 160 18:39 22.03.2020
614 Clouds 4 974 86 4000 17.5 140 18:18 22.03.2020
615 Rain 3 972 86 8000 19 150 17:56 22.03.2020
616 Rain 3 972 86 8000 19 150 17:37 22.03.2020
617 Rain 3 977 93 7000 15.9 140 17:19 22.03.2020
618 Rain 3 975 93 8000 18.5 150 16:55 22.03.2020
619 Rain 3 975 93 8000 18.5 150 16:37 22.03.2020
620 Rain 3 980 93 10000 16.5 140 16:19 22.03.2020
621 Rain 3 979 100 6000 18 150 15:39 22.03.2020
622 Rain 3 984 80 9000 13.4 140 15:19 22.03.2020
623 Rain 2 982 100 9000 17.5 150 14:46 22.03.2020
624 Rain 2 987 96 6000 11.8 140 14:18 22.03.2020
625 Rain 2 985 93 8000 15.4 160 13:42 22.03.2020
626 Rain 2 989 96 10000 10.8 140 13:20 22.03.2020
627 Rain 2 988 93 7000 12.9 160 12:57 22.03.2020
628 Rain 2 988 93 7000 12.9 160 12:38 22.03.2020
629 Snow 2 991 96 7000 10.3 150 12:18 22.03.2020
630 Rain 2 990 86 9000 12.9 150 11:43 22.03.2020
631 Rain 2 993 74 10000 10.3 150 11:24 22.03.2020
632 Drizzle 1 992 94 10000 11.3 150 10:58 22.03.2020
633 Drizzle 1 992 94 10000 11.3 150 10:39 22.03.2020
634 Snow 1 996 86 6000 7.2 150 10:21 22.03.2020
635 Snow 1 997 80 2500 5.7 150 09:43 22.03.2020
636 Snow 1 997 80 2500 5.7 150 09:43 22.03.2020
637 Snow 0 998 94 9000 5.1 140 09:24 22.03.2020
638 Clouds 0 997 94 10000 7.2 160 08:48 22.03.2020
639 Clouds 0 997 94 10000 7.2 160 08:48 22.03.2020
640 Rain 0 1000 94 10000 3.6 120 08:29 22.03.2020
641 Clouds 0 999 94 10000 6.7 160 07:53 22.03.2020
642 Rain 0 1001 94 10000 5.1 180 07:32 22.03.2020
643 Rain -1 1000 94 10000 6.7 180 06:40 22.03.2020
644 Rain -1 1001 74 10000 7.7 240 05:37 22.03.2020
645 Clouds -1 1002 86 10000 5.7 190 04:34 22.03.2020
646 Rain -1 1001 61 10000 11.3 230 01:36 22.03.2020
647 Clouds -1 1000 62 10000 11.3 250 00:49 22.03.2020
648 Rain -1 1001 80 10000 12.3 220 00:29 22.03.2020
649 Clouds -1 1000 55 10000 11.3 220 23:45 21.03.2020
650 Clouds -2 1001 86 10000 8.2 190 23:21 21.03.2020
651 Rain -1 1000 80 10000 12.9 250 22:58 21.03.2020
652 Rain -2 1000 80 10000 12.9 250 22:37 21.03.2020
653 Rain -1 1001 86 10000 7.2 180 22:19 21.03.2020
654 Rain -2 1001 92 6000 12.3 190 21:57 21.03.2020
655 Rain -2 1001 92 6000 12.3 190 21:37 21.03.2020
656 Clouds -2 1002 92 10000 6.2 200 21:18 21.03.2020
657 Snow -2 1000 92 600 12.9 230 20:42 21.03.2020
658 Rain -1 1002 92 8000 10.3 220 20:21 21.03.2020
659 Clouds -1 1002 86 1200 6.7 170 19:55 21.03.2020
660 Clouds -1 1002 86 1200 6.7 170 19:36 21.03.2020
661 Rain -1 1002 80 10000 8.2 190 19:18 21.03.2020
662 Rain -1 1002 80 10000 8.2 190 19:18 21.03.2020
663 Rain 0 1001 57 10000 12.3 200 18:41 21.03.2020
664 Clouds -1 1002 57 5000 7.2 220 18:20 21.03.2020
665 Rain 0 1001 57 10000 11.3 210 17:58 21.03.2020
666 Rain 0 1001 57 10000 11.3 210 17:40 21.03.2020
667 Rain 0 1003 57 10000 8.7 200 17:21 21.03.2020
668 Clouds 0 1002 69 10000 11.3 210 16:42 21.03.2020
669 Clouds 0 1004 92 10000 8.2 200 16:23 21.03.2020
670 Clouds 0 1004 86 1000 8.2 200 15:58 21.03.2020
671 Clouds -1 1004 86 1000 8.2 200 15:39 21.03.2020
672 Clouds -1 1005 61 10000 6.7 200 15:21 21.03.2020
673 Rain 0 1004 61 10000 10.3 190 14:55 21.03.2020
674 Rain 0 1004 61 10000 10.3 190 14:37 21.03.2020
675 Rain 0 1005 69 10000 4.6 190 14:19 21.03.2020
676 Snow -1 1004 92 2000 11.8 220 13:57 21.03.2020
677 Snow -1 1004 92 2000 11.8 220 13:57 21.03.2020
678 Snow -1 1004 92 2000 11.8 220 13:38 21.03.2020
679 Snow -1 1004 92 2000 11.8 220 13:38 21.03.2020
680 Clouds -1 1006 92 10000 3.6 130 13:20 21.03.2020
681 Clouds 0 1007 86 2500 5.1 190 12:54 21.03.2020
682 Clouds -1 1007 86 2500 5.1 190 12:36 21.03.2020
683 Rain -1 1006 86 10000 3.1 160 12:18 21.03.2020
684 Clouds -1 1006 67 10000 6.7 220 11:54 21.03.2020
685 Clouds -1 1007 92 10000 2.1 150 11:36 21.03.2020
686 Clouds -1 1007 92 10000 2.1 150 11:18 21.03.2020
687 Clouds -1 1006 69 10000 8.7 230 10:55 21.03.2020
688 Clouds -1 1006 69 10000 8.7 230 10:37 21.03.2020
689 Rain -1 1007 92 10000 2.1 140 10:18 21.03.2020
690 Clouds -1 1006 69 10000 6.2 250 09:39 21.03.2020
691 Rain -1 1007 92 10000 2.1 180 09:21 21.03.2020
692 Snow -1 1007 100 1500 6.7 230 08:56 21.03.2020
693 Snow -1 1007 100 1500 6.7 230 08:38 21.03.2020
694 Snow -1 1006 100 7000 3.1 250 08:19 21.03.2020
695 Snow -1 1006 83 10000 5.1 240 07:39 21.03.2020
696 Snow 0 1006 92 4500 4.1 240 07:20 21.03.2020
697 Snow 0 1006 92 4500 4.1 240 07:20 21.03.2020
698 Snow 0 1006 83 9000 6.7 270 06:45 21.03.2020
699 Snow 0 1006 83 4000 2.6 180 06:25 21.03.2020
700 Snow 0 1006 83 10000 5.7 240 05:41 21.03.2020
701 Snow 0 1007 97 2500 1 240 04:34 21.03.2020
702 Snow 0 1007 97 2000 5.7 260 02:37 21.03.2020
703 Drizzle 1 1008 100 10000 4.6 250 01:49 21.03.2020
704 Clouds 1 1008 86 6000 1 230 01:26 21.03.2020
705 Clouds 1 1008 100 9000 5.7 260 00:43 21.03.2020
706 Rain 2 1008 98 10000 4.1 220 00:23 21.03.2020
707 Clouds 2 1008 100 9000 4.6 250 23:44 20.03.2020
708 Rain 3 1008 86 7000 2.6 220 23:22 20.03.2020
709 Clouds 3 1008 100 10000 4.6 240 22:44 20.03.2020
710 Rain 3 1009 80 8000 6.7 180 22:25 20.03.2020
711 Rain 3 1008 100 10000 4.6 190 21:59 20.03.2020
712 Rain 3 1008 100 10000 4.6 190 21:41 20.03.2020
713 Rain 4 1009 80 10000 11.3 160 21:20 20.03.2020
714 Rain 3 1008 93 10000 6.7 210 20:59 20.03.2020
715 Rain 3 1008 93 10000 6.7 210 20:41 20.03.2020
716 Rain 4 1009 80 10000 11.3 160 20:20 20.03.2020
717 Rain 4 1008 100 9000 8.2 190 19:49 20.03.2020
718 Rain 4 1010 80 8000 12.9 170 19:22 20.03.2020
719 Rain 4 1010 80 8000 12.9 170 19:22 20.03.2020
720 Rain 4 1009 93 5000 11.8 190 18:59 20.03.2020
721 Rain 4 1009 93 5000 11.8 190 18:39 20.03.2020
722 Rain 4 1010 80 7000 13.4 170 18:20 20.03.2020
723 Rain 4 1009 86 10000 14.9 170 17:56 20.03.2020
724 Rain 4 1009 86 10000 14.9 170 17:38 20.03.2020
725 Rain 4 1011 80 7000 12.3 160 17:19 20.03.2020
726 Rain 4 1011 80 7000 12.3 160 17:19 20.03.2020
727 Rain 4 1010 93 10000 15.4 170 16:43 20.03.2020
728 Rain 4 1012 80 7000 12.9 160 16:21 20.03.2020
729 Rain 3 1011 93 9000 16.5 170 15:58 20.03.2020
730 Rain 4 1011 93 9000 16.5 170 15:39 20.03.2020
731 Rain 4 1013 80 8000 10.8 160 15:20 20.03.2020
732 Rain 4 1011 93 9000 15.4 170 14:42 20.03.2020
733 Drizzle 4 1014 80 7000 11.8 160 14:21 20.03.2020
734 Drizzle 4 1014 80 7000 11.8 160 14:21 20.03.2020
735 Rain 3 1012 93 8000 17 170 13:51 20.03.2020
736 Rain 3 1015 80 8000 9.8 150 13:26 20.03.2020
737 Rain 3 1013 93 9000 15.9 160 12:59 20.03.2020
738 Rain 3 1013 93 9000 15.9 160 12:38 20.03.2020
739 Rain 3 1015 80 10000 9.3 150 12:20 20.03.2020
740 Rain 3 1013 100 7000 16.5 160 11:41 20.03.2020
741 Rain 3 1016 80 10000 11.8 150 11:21 20.03.2020
742 Rain 3 1015 100 8000 15.9 160 10:58 20.03.2020
743 Rain 3 1015 100 8000 15.9 160 10:40 20.03.2020
744 Rain 3 1017 93 9000 11.8 150 10:18 20.03.2020
745 Rain 3 1015 93 8000 15.9 160 09:47 20.03.2020
746 Rain 3 1018 93 8000 11.3 150 09:21 20.03.2020
747 Rain 3 1016 93 7000 14.4 160 08:59 20.03.2020
748 Rain 3 1016 93 7000 14.4 160 08:40 20.03.2020
749 Rain 3 1019 86 9000 11.8 150 08:19 20.03.2020
750 Rain 2 1017 86 10000 14.9 160 07:45 20.03.2020
751 Rain 2 1020 86 10000 9.3 140 07:26 20.03.2020
752 Drizzle 2 1018 86 10000 13.9 150 06:47 20.03.2020
753 Rain 2 1021 86 10000 9.8 150 06:29 20.03.2020
754 Rain 2 1021 93 10000 11.3 150 04:49 20.03.2020
755 Rain 3 1025 74 10000 7.2 140 03:19 20.03.2020
756 Rain 1 1025 91 10000 10.3 150 01:51 20.03.2020
757 Rain 1 1025 80 10000 9.3 160 00:46 20.03.2020
758 Snow 0 1028 90 1000 7.2 120 00:25 20.03.2020
759 Snow -1 1026 90 7000 9.8 180 23:44 19.03.2020
760 Snow -1 1028 86 2000 7.7 90 23:25 19.03.2020
761 Snow -2 1027 90 2000 6.7 140 22:56 19.03.2020
762 Snow -2 1027 90 2000 6.7 140 22:37 19.03.2020
763 Snow -2 1029 86 1500 7.2 80 22:18 19.03.2020
764 Snow -2 1029 86 1500 7.7 100 21:41 19.03.2020
765 Rain 0 1029 74 10000 7.2 100 21:20 19.03.2020
766 Rain -1 1028 86 10000 6.7 120 20:56 19.03.2020
767 Rain -1 1028 86 10000 6.7 120 20:38 19.03.2020
768 Clouds -1 1030 85 10000 6.7 100 20:19 19.03.2020
769 Snow -1 1028 84 10000 7.7 130 19:55 19.03.2020
770 Snow -1 1028 84 10000 7.7 130 19:36 19.03.2020
771 Clouds -1 1030 84 10000 6.7 100 19:18 19.03.2020
772 Snow -1 1029 86 10000 6.2 120 18:42 19.03.2020
773 Clouds -2 1030 84 10000 5.1 100 18:22 19.03.2020
774 Snow -2 1030 74 10000 8.2 150 17:56 19.03.2020
775 Snow -2 1030 74 10000 8.2 150 17:38 19.03.2020
776 Clouds -2 1031 54 10000 5.1 70 17:18 19.03.2020
777 Rain -2 1030 68 10000 8.7 140 16:43 19.03.2020
778 Clouds -2 1031 54 10000 5.1 70 16:22 19.03.2020
779 Clouds -2 1030 74 10000 9.3 140 15:45 19.03.2020
780 Clouds -2 1031 69 10000 4.6 70 15:26 19.03.2020
781 Clouds -2 1030 68 10000 10.3 140 14:55 19.03.2020
782 Clouds -2 1030 68 10000 10.3 140 14:37 19.03.2020
783 Clouds -2 1031 71 10000 4.1 80 14:18 19.03.2020
784 Clouds -3 1030 68 10000 9.3 140 13:39 19.03.2020
785 Clouds -3 1031 54 10000 3.6 90 13:19 19.03.2020
786 Clouds -3 1031 68 10000 8.2 140 12:55 19.03.2020
787 Clouds -3 1031 68 10000 8.2 140 12:37 19.03.2020
788 Clouds -3 1031 58 10000 3.6 100 12:18 19.03.2020
789 Clouds -5 1031 74 10000 6.7 140 11:41 19.03.2020
790 Clouds -5 1031 58 10000 2.6 90 11:23 19.03.2020
791 Clouds -6 1030 63 10000 5.1 140 10:56 19.03.2020
792 Clouds -4 1031 57 10000 3.6 110 10:36 19.03.2020
793 Clouds -6 1031 57 10000 3.6 110 10:18 19.03.2020
794 Clouds -7 1030 73 10000 3.6 140 09:42 19.03.2020
795 Clouds -8 1030 67 10000 3.6 90 09:24 19.03.2020
796 Clouds -7 1029 73 10000 3.1 130 08:48 19.03.2020
797 Clouds -8 1030 79 10000 2.1 100 08:23 19.03.2020
798 Clouds -8 1029 79 10000 2.6 110 07:59 19.03.2020
799 Clouds -8 1029 79 10000 2.6 110 07:38 19.03.2020
800 Clouds -8 1029 79 10000 3.6 110 07:19 19.03.2020
801 Clouds -7 1028 79 10000 2.1 130 06:27 19.03.2020
802 Clouds -5 1028 68 10000 1.5 340 05:25 19.03.2020
803 Clouds -5 1028 68 10000 2.6 20 04:47 19.03.2020
804 Clouds -5 1028 68 10000 2.1 350 04:21 19.03.2020
805 Clouds -4 1026 79 10000 4.1 350 01:58 19.03.2020
806 Clouds -3 1025 68 10000 5.7 340 00:53 19.03.2020
807 Clouds -3 1024 68 10000 6.7 330 00:20 19.03.2020
808 Clouds -3 1024 73 10000 6.2 340 23:44 18.03.2020
809 Clouds -3 1023 68 10000 6.2 340 23:26 18.03.2020
810 Snow -3 1023 74 10000 6.7 350 22:43 18.03.2020
811 Clouds -3 1022 74 10000 6.2 330 22:23 18.03.2020
812 Clouds -2 1022 68 10000 7.7 340 21:58 18.03.2020
813 Clouds -2 1022 68 10000 7.7 340 21:40 18.03.2020
814 Clouds -2 1021 74 10000 7.2 330 21:20 18.03.2020
815 Clouds -2 1021 74 10000 8.7 350 20:55 18.03.2020
816 Clouds -2 1021 74 10000 8.7 350 20:37 18.03.2020
817 Clouds -2 1019 74 10000 7.7 330 20:19 18.03.2020
818 Rain -2 1019 74 10000 9.8 360 19:41 18.03.2020
819 Clouds -2 1018 68 10000 8.7 350 19:21 18.03.2020
820 Rain -2 1018 74 10000 8.7 350 18:59 18.03.2020
821 Rain -2 1018 74 10000 8.7 350 18:40 18.03.2020
822 Snow -1 1016 79 10000 8.7 350 18:19 18.03.2020
823 Snow -1 1016 79 10000 8.7 350 18:19 18.03.2020
824 Clouds -1 1017 74 10000 10.3 340 17:56 18.03.2020
825 Clouds -1 1017 74 10000 10.3 340 17:38 18.03.2020
826 Clouds -1 1015 83 10000 7.2 340 17:19 18.03.2020
827 Clouds -1 1016 80 10000 12.3 350 16:43 18.03.2020
828 Snow -1 1014 80 10000 9.3 350 16:21 18.03.2020
829 Rain -1 1015 80 10000 12.9 350 15:58 18.03.2020
830 Rain -1 1015 80 10000 12.9 350 15:38 18.03.2020
831 Snow -1 1012 86 7000 9.8 340 15:20 18.03.2020
832 Rain -1 1014 86 9000 12.9 350 14:43 18.03.2020
833 Snow -1 1011 86 7000 7.2 340 14:21 18.03.2020
834 Snow -1 1012 92 2000 11.8 350 13:42 18.03.2020
835 Snow -1 1010 86 8000 8.2 340 13:20 18.03.2020
836 Rain -1 1011 92 5000 11.3 350 12:58 18.03.2020
837 Rain -1 1011 92 5000 11.3 350 12:39 18.03.2020
838 Snow -1 1009 86 4000 5.7 340 12:19 18.03.2020
839 Snow -1 1010 92 1500 11.8 350 11:39 18.03.2020
840 Snow -1 1007 86 3000 5.1 340 11:19 18.03.2020
841 Snow -2 1008 100 1500 12.9 350 10:57 18.03.2020
842 Snow -2 1008 100 1500 12.9 350 10:38 18.03.2020
843 Snow -1 1006 80 9000 5.1 320 10:19 18.03.2020
844 Snow -1 1007 92 1500 12.3 350 09:43 18.03.2020
845 Clouds -1 1005 84 10000 5.7 340 09:24 18.03.2020
846 Snow -1 1006 100 5000 11.8 350 08:56 18.03.2020
847 Snow -1 1006 100 5000 11.8 350 08:38 18.03.2020
848 Snow -1 1006 100 5000 11.8 350 08:38 18.03.2020
849 Clouds -1 1003 89 10000 7.2 350 08:20 18.03.2020
850 Snow -1 1004 92 10000 11.8 350 07:44 18.03.2020
851 Clouds 0 1002 89 10000 6.7 350 07:26 18.03.2020
852 Snow -1 1003 86 10000 11.8 350 06:44 18.03.2020
853 Clouds 0 1001 89 10000 6.2 360 06:18 18.03.2020
854 Snow -1 1002 80 10000 10.8 350 05:34 18.03.2020
855 Clouds 0 999 85 10000 10.3 10 04:24 18.03.2020
856 Snow -1 999 86 10000 9.8 360 02:43 18.03.2020
857 Snow -2 998 86 10000 9.3 360 01:48 18.03.2020
858 Clouds -2 996 86 10000 9.8 10 01:26 18.03.2020
859 Clouds -2 995 83 10000 7.7 20 00:24 18.03.2020
860 Rain -3 995 86 10000 10.3 360 23:48 17.03.2020
861 Clouds -2 993 83 10000 6.7 10 23:27 17.03.2020
862 Rain -2 994 86 10000 10.8 360 22:57 17.03.2020
863 Rain -2 994 86 10000 10.8 360 22:37 17.03.2020
864 Clouds -2 992 86 10000 4.1 20 22:19 17.03.2020
865 Rain -2 993 86 10000 10.3 350 21:39 17.03.2020
866 Clouds -2 991 85 10000 4.6 320 21:21 17.03.2020
867 Clouds -2 991 85 10000 4.6 320 21:21 17.03.2020
868 Clouds -2 991 86 10000 4.6 320 21:21 17.03.2020
869 Rain -1 992 86 10000 9.8 350 20:40 17.03.2020
870 Rain -2 992 86 10000 9.8 350 20:40 17.03.2020
871 Clouds -1 990 85 10000 5.7 340 20:21 17.03.2020
872 Rain -1 991 86 10000 8.7 360 19:58 17.03.2020
873 Rain -1 991 86 10000 8.7 360 19:39 17.03.2020
874 Snow -1 989 78 10000 5.1 350 19:18 17.03.2020
875 Clouds -1 990 80 10000 9.3 360 18:56 17.03.2020
876 Clouds -1 990 80 10000 9.3 360 18:37 17.03.2020
877 Clouds 0 988 78 10000 7.2 360 18:19 17.03.2020
878 Clouds 0 989 78 10000 7.7 360 17:40 17.03.2020
879 Clouds 0 989 78 10000 7.7 360 17:40 17.03.2020
880 Clouds 0 987 69 10000 7.2 10 17:21 17.03.2020
881 Clouds 0 988 75 10000 8.7 360 16:55 17.03.2020
882 Clouds 0 988 75 10000 8.7 360 16:37 17.03.2020
883 Clouds 0 987 64 10000 8.7 10 16:18 17.03.2020
884 Clouds 0 987 75 10000 8.2 10 15:43 17.03.2020
885 Clouds 0 985 64 10000 7.7 360 15:20 17.03.2020
886 Clouds 0 986 75 10000 8.7 30 14:42 17.03.2020
887 Clouds 1 984 64 10000 5.7 10 14:21 17.03.2020
888 Clouds 0 985 76 10000 9.8 30 13:44 17.03.2020
889 Clouds 0 983 76 10000 6.7 30 13:26 17.03.2020
890 Clouds 0 984 80 10000 10.8 30 12:58 17.03.2020
891 Clouds 0 984 80 10000 10.8 30 12:40 17.03.2020
892 Clouds -1 982 64 10000 1.5 0 12:21 17.03.2020
893 Clouds -1 982 80 10000 11.8 30 11:46 17.03.2020
894 Clouds -1 982 80 10000 11.8 30 11:46 17.03.2020
895 Clouds -1 980 75 10000 7.7 20 11:28 17.03.2020
896 Clouds -1 981 80 10000 10.3 30 10:58 17.03.2020
897 Clouds -1 981 80 10000 10.3 30 10:38 17.03.2020
898 Clouds -1 979 83 10000 9.3 20 10:20 17.03.2020
899 Clouds -1 979 80 10000 12.3 20 09:55 17.03.2020
900 Clouds -1 979 80 10000 12.3 20 09:55 17.03.2020
901 Clouds -1 979 80 10000 12.3 20 09:36 17.03.2020
902 Clouds -1 978 83 10000 7.2 10 09:18 17.03.2020
903 Clouds -1 978 80 10000 11.3 20 08:42 17.03.2020
904 Clouds -1 976 90 10000 8.7 20 08:21 17.03.2020
905 Clouds -1 977 86 10000 10.8 20 07:50 17.03.2020
906 Clouds 0 975 90 10000 4.6 20 07:25 17.03.2020
907 Clouds 0 976 90 10000 10.3 20 06:56 17.03.2020
908 Clouds 0 974 90 10000 1 350 06:33 17.03.2020
909 Clouds 0 974 90 10000 8.2 20 05:41 17.03.2020
910 Clouds 0 972 92 10000 6.7 10 03:36 17.03.2020
911 Clouds 0 971 100 10000 3.6 340 02:45 17.03.2020
912 Snow 1 970 86 4500 4.6 210 01:42 17.03.2020
913 Rain 1 970 92 10000 4.1 200 01:24 17.03.2020
914 Clouds 1 969 86 10000 3.1 170 00:25 17.03.2020
915 Mist 1 969 100 4000 2.1 310 23:45 16.03.2020
916 Clouds 1 968 95 10000 2.1 150 23:23 16.03.2020
917 Rain 1 968 100 10000 3.1 320 22:40 16.03.2020
918 Rain 1 967 95 10000 3.1 120 22:22 16.03.2020
919 Rain 1 967 100 10000 4.1 340 21:57 16.03.2020
920 Rain 1 967 100 10000 4.1 340 21:38 16.03.2020
921 Rain 1 966 95 10000 4.6 70 21:20 16.03.2020
922 Rain 1 966 95 10000 1.5 340 20:55 16.03.2020
923 Rain 1 966 95 10000 1.5 340 20:37 16.03.2020
924 Snow 1 966 90 10000 6.2 80 20:18 16.03.2020
925 Rain 1 966 100 10000 5.7 40 19:40 16.03.2020
926 Snow 2 966 86 5000 5.1 60 19:19 16.03.2020
927 Rain 2 965 88 10000 5.1 40 18:41 16.03.2020
928 Clouds 2 966 88 10000 4.6 60 18:20 16.03.2020
929 Rain 2 966 86 10000 2.6 80 17:47 16.03.2020
930 Clouds 3 967 74 10000 3.1 70 17:26 16.03.2020
931 Rain 3 966 86 10000 3.1 70 16:59 16.03.2020
932 Rain 3 966 86 10000 3.1 70 16:41 16.03.2020
933 Rain 3 967 76 10000 4.1 100 16:22 16.03.2020
934 Rain 3 966 80 10000 3.6 100 15:44 16.03.2020
935 Clouds 3 967 76 10000 2.1 130 15:25 16.03.2020
936 Rain 2 967 93 10000 3.1 90 14:49 16.03.2020
937 Snow 2 968 76 9000 3.6 150 14:25 16.03.2020
938 Rain 1 967 100 10000 4.1 160 13:55 16.03.2020
939 Rain 1 967 100 10000 4.1 160 13:37 16.03.2020
940 Clouds 2 968 80 10000 8.2 140 13:18 16.03.2020
941 Clouds 2 967 86 10000 5.7 160 12:42 16.03.2020
942 Rain 2 968 87 10000 4.1 100 12:23 16.03.2020
943 Snow 2 967 87 9000 4.6 140 11:46 16.03.2020
944 Rain 2 968 87 10000 3.6 120 11:27 16.03.2020
945 Snow 2 968 79 5000 1.5 110 10:55 16.03.2020
946 Snow 2 968 79 5000 1.5 110 10:37 16.03.2020
947 Rain 1 968 86 10000 1 0 10:18 16.03.2020
948 Rain 1 967 79 10000 5.1 200 09:40 16.03.2020
949 Rain 1 968 86 9000 4.6 200 09:20 16.03.2020
950 Snow 2 967 74 4000 6.2 180 08:47 16.03.2020
951 Clouds 1 967 77 10000 6.2 170 08:24 16.03.2020
952 Snow 1 966 93 8000 10.3 210 07:45 16.03.2020
953 Clouds 2 966 77 10000 5.1 160 07:21 16.03.2020
954 Clouds 1 965 86 10000 8.7 210 06:46 16.03.2020
955 Rain 1 966 77 7000 10.3 110 06:23 16.03.2020
956 Clouds 1 967 93 7000 15.9 120 04:54 16.03.2020
957 Clouds 1 973 93 6000 15.4 120 02:40 16.03.2020
958 Snow 1 984 86 1500 11.8 130 00:49 16.03.2020
959 Clouds 2 984 74 8000 10.8 120 00:30 16.03.2020
960 Rain 2 983 93 10000 14.9 130 23:42 15.03.2020
961 Rain 2 987 69 10000 9.3 120 23:20 15.03.2020
962 Rain 2 985 80 10000 14.9 130 22:42 15.03.2020
963 Clouds 3 989 64 10000 8.7 130 22:22 15.03.2020
964 Rain 3 987 69 10000 13.9 140 21:55 15.03.2020
965 Rain 3 987 69 10000 13.9 140 21:37 15.03.2020
966 Clouds 3 991 64 10000 10.8 140 21:18 15.03.2020
967 Clouds 2 990 74 10000 12.3 140 20:42 15.03.2020
968 Clouds 1 992 64 10000 10.3 150 20:20 15.03.2020
969 Clouds 1 991 69 10000 12.3 150 19:56 15.03.2020
970 Clouds 1 991 69 10000 12.3 150 19:38 15.03.2020
971 Clouds 1 994 59 10000 8.7 150 19:19 15.03.2020
972 Clouds 2 993 74 10000 11.8 160 18:55 15.03.2020
973 Clouds 2 993 74 10000 11.8 160 18:36 15.03.2020
974 Clouds 2 995 59 10000 10.3 150 18:18 15.03.2020
975 Clouds 2 995 74 10000 10.3 170 17:40 15.03.2020
976 Clouds 3 996 59 10000 8.2 170 17:20 15.03.2020
977 Clouds 2 996 74 10000 10.8 170 16:56 15.03.2020
978 Clouds 2 996 74 10000 10.8 170 16:38 15.03.2020
979 Clouds 3 998 59 10000 7.2 170 16:19 15.03.2020
980 Clouds 0 997 74 10000 9.3 180 15:43 15.03.2020
981 Clouds 0 999 64 10000 6.2 140 15:25 15.03.2020
982 Rain 0 998 74 10000 9.8 190 14:55 15.03.2020
983 Rain -1 998 74 10000 9.8 190 14:37 15.03.2020
984 Clouds 0 999 64 10000 8.2 170 14:18 15.03.2020
985 Rain -2 998 69 10000 10.3 190 13:42 15.03.2020
986 Clouds -2 1000 63 10000 7.2 170 13:23 15.03.2020
987 Clouds -3 999 74 10000 10.3 200 12:59 15.03.2020
988 Clouds -3 999 74 10000 10.3 200 12:39 15.03.2020
989 Clouds -4 1001 68 10000 4.6 110 12:21 15.03.2020
990 Clouds -2 1000 74 10000 9.8 190 11:43 15.03.2020
991 Clouds -1 1001 68 10000 5.7 120 11:24 15.03.2020
992 Clouds -2 1000 69 10000 9.3 200 10:57 15.03.2020
993 Clouds -2 1000 69 10000 9.3 200 10:39 15.03.2020
994 Clouds -2 1002 68 10000 4.6 120 10:20 15.03.2020
995 Clouds -4 1001 74 10000 7.7 180 09:42 15.03.2020
996 Clouds -5 1002 67 10000 3.6 100 09:23 15.03.2020
997 Clouds -6 1001 79 10000 7.2 150 08:58 15.03.2020
998 Clouds -7 1001 79 10000 7.2 150 08:40 15.03.2020
999 Clouds -7 1001 79 10000 7.2 150 08:40 15.03.2020
1000 Clear -7 1003 66 10000 1.5 100 08:18 15.03.2020
1001 Clouds -7 1002 79 10000 6.7 160 07:44 15.03.2020
1002 Clear -8 1003 67 10000 1 0 07:18 15.03.2020
1003 Clear -8 1002 79 10000 6.2 160 06:36 15.03.2020
1004 Clear -8 1003 73 10000 5.7 150 05:46 15.03.2020
1005 Clear -8 1003 67 10000 4.1 140 04:50 15.03.2020
1006 Clear -8 1003 67 10000 4.1 140 04:32 15.03.2020
1007 Clear -8 1004 73 10000 2.6 140 03:59 15.03.2020
1008 Clouds -7 1004 68 10000 1 30 02:49 15.03.2020
1009 Clear -8 1005 73 10000 1.5 120 02:18 15.03.2020
1010 Clouds -6 1004 79 10000 3.1 10 00:57 15.03.2020
1011 Clouds -5 1004 79 10000 3.1 10 00:38 15.03.2020
1012 Clear -5 1004 58 10000 2.6 350 00:18 15.03.2020
1013 Clouds -6 1004 68 10000 3.6 350 23:38 14.03.2020
1014 Clear -7 1004 62 10000 3.6 360 23:19 14.03.2020
1015 Clouds -7 1004 68 10000 4.6 10 22:55 14.03.2020
1016 Clouds -6 1004 68 10000 4.6 10 22:37 14.03.2020
1017 Clouds -6 1004 58 10000 4.6 20 22:19 14.03.2020
1018 Clouds -6 1004 62 10000 5.1 360 21:54 14.03.2020
1019 Clouds -6 1003 63 10000 6.2 360 21:36 14.03.2020
1020 Clouds -5 1003 63 10000 6.2 360 21:18 14.03.2020
1021 Clouds -5 1003 62 10000 4.6 360 20:55 14.03.2020
1022 Clouds -5 1003 62 10000 4.6 360 20:36 14.03.2020
1023 Clouds -5 1003 58 10000 4.6 10 20:18 14.03.2020
1024 Clouds -4 1003 73 10000 5.7 360 19:40 14.03.2020
1025 Clouds -3 1002 54 10000 5.1 350 19:20 14.03.2020
1026 Clouds -3 1002 68 10000 7.2 350 18:39 14.03.2020
1027 Clouds -3 1002 54 10000 5.7 350 18:20 14.03.2020
1028 Clouds -3 1002 74 10000 7.7 350 17:42 14.03.2020
1029 Clouds -3 1001 54 10000 5.7 350 17:23 14.03.2020
1030 Clouds -3 1001 58 10000 5.1 340 16:58 14.03.2020
1031 Clouds -3 1001 58 10000 5.1 340 16:38 14.03.2020
1032 Clouds -3 1001 58 10000 5.1 340 16:19 14.03.2020
1033 Clouds -3 1002 68 10000 6.2 360 15:46 14.03.2020
1034 Clouds -3 1002 54 10000 5.7 350 15:22 14.03.2020
1035 Clouds -4 1002 68 10000 6.7 360 14:43 14.03.2020
1036 Clouds -4 1001 58 10000 4.6 360 14:21 14.03.2020
1037 Clouds -5 1002 74 10000 5.7 360 13:57 14.03.2020
1038 Clouds -4 1002 74 10000 5.7 360 13:38 14.03.2020
1039 Clouds -4 1002 74 10000 5.7 360 13:20 14.03.2020
1040 Clouds -4 1002 74 10000 5.7 360 12:44 14.03.2020
1041 Clouds -4 1001 63 10000 6.2 340 12:26 14.03.2020
1042 Rain -5 1002 79 10000 5.1 10 11:46 14.03.2020
1043 Rain -5 1002 79 10000 5.1 10 11:46 14.03.2020
1044 Clouds -6 1001 68 10000 5.7 340 11:26 14.03.2020
1045 Rain -5 1002 86 10000 6.2 360 10:57 14.03.2020
1046 Rain -5 1002 86 10000 6.2 360 10:39 14.03.2020
1047 Clouds -5 1001 68 10000 5.1 350 10:20 14.03.2020
1048 Rain -6 1002 85 10000 5.7 10 09:41 14.03.2020
1049 Clouds -6 1001 73 10000 4.1 360 09:22 14.03.2020
1050 Clouds -7 1001 85 10000 5.1 10 08:47 14.03.2020
1051 Clouds -7 1001 73 10000 4.1 350 08:28 14.03.2020
1052 Clouds -6 1001 73 10000 5.7 360 07:49 14.03.2020
1053 Clouds -6 1001 73 10000 4.6 350 07:23 14.03.2020
1054 Clouds -6 1001 79 10000 4.1 360 06:59 14.03.2020
1055 Clouds -6 1001 79 10000 4.1 360 06:39 14.03.2020
1056 Clear -6 1001 79 10000 4.38 1 05:19 14.03.2020
1057 Clouds -5 1001 79 10000 6.7 360 03:42 14.03.2020
1058 Clouds -3 1001 73 10000 3.6 20 03:23 14.03.2020
1059 Clouds -3 1001 79 10000 4.6 350 02:20 14.03.2020
1060 Clouds -4 1002 79 10000 10.3 340 00:44 14.03.2020
1061 Clouds -5 1002 79 10000 8.7 340 23:45 13.03.2020
1062 Clouds -5 1002 74 10000 6.7 340 23:27 13.03.2020
1063 Clouds -5 1002 79 10000 7.7 330 22:49 13.03.2020
1064 Clouds -5 1002 74 10000 4.6 340 22:26 13.03.2020
1065 Clouds -4 1002 74 10000 5.7 340 21:44 13.03.2020
1066 Clouds -4 1002 68 10000 5.7 350 21:21 13.03.2020
1067 Clouds -4 1002 79 10000 6.2 350 20:58 13.03.2020
1068 Clouds -4 1002 79 10000 6.2 350 20:39 13.03.2020
1069 Clouds -4 1002 79 10000 6.2 350 20:39 13.03.2020
1070 Clouds -4 1001 68 10000 5.1 350 20:20 13.03.2020
1071 Clouds -4 1002 73 10000 6.7 350 19:47 13.03.2020
1072 Clouds -3 1002 63 10000 6.7 360 19:28 13.03.2020
1073 Clouds -2 1002 74 10000 7.7 360 18:47 13.03.2020
1074 Clouds -3 1002 63 10000 7.2 360 18:29 13.03.2020
1075 Clouds -2 1003 74 10000 8.2 10 17:57 13.03.2020
1076 Clouds -2 1003 74 10000 8.2 10 17:38 13.03.2020
1077 Clouds -2 1002 63 10000 6.7 360 17:20 13.03.2020
1078 Clouds -2 1003 74 10000 8.7 360 16:42 13.03.2020
1079 Clouds -2 1002 68 10000 6.7 360 16:24 13.03.2020
1080 Clouds -2 1004 79 10000 9.8 360 15:56 13.03.2020
1081 Clouds -1 1004 79 10000 9.8 360 15:37 13.03.2020
1082 Clouds -1 1003 80 10000 0.5 0 15:19 13.03.2020
1083 Clouds -2 1004 74 10000 9.3 360 14:41 13.03.2020
1084 Clouds -2 1003 79 10000 1.5 20 14:22 13.03.2020
1085 Clouds -2 1004 74 10000 8.2 360 13:57 13.03.2020
1086 Clouds -2 1004 74 10000 8.2 360 13:38 13.03.2020
1087 Clouds -2 1003 79 10000 2.6 360 13:19 13.03.2020
1088 Clouds -2 1004 86 10000 7.2 360 12:54 13.03.2020
1089 Clouds -2 1003 79 10000 1.5 40 12:36 13.03.2020
1090 Clouds -2 1003 79 10000 1.5 40 12:18 13.03.2020
1091 Clouds -3 1004 86 10000 8.7 360 11:42 13.03.2020
1092 Clouds -3 1003 79 10000 1 0 11:24 13.03.2020
1093 Clouds -3 1004 79 10000 7.7 350 10:48 13.03.2020
1094 Clouds -3 1003 79 10000 1 0 10:29 13.03.2020
1095 Clouds -3 1004 86 10000 5.1 350 09:59 13.03.2020
1096 Clouds -3 1004 86 10000 5.1 350 09:41 13.03.2020
1097 Clouds -3 1003 79 10000 1 0 09:22 13.03.2020
1098 Clouds -3 1004 86 10000 6.2 340 08:46 13.03.2020
1099 Clouds -3 1004 92 10000 1.5 180 08:23 13.03.2020
1100 Clouds -3 1004 86 10000 6.2 350 07:52 13.03.2020
1101 Clouds -4 1004 92 10000 1.35 48 07:28 13.03.2020
1102 Clouds -4 1004 85 10000 6.7 360 06:57 13.03.2020
1103 Clouds -4 1004 85 10000 6.7 360 06:32 13.03.2020
1104 Clouds -3 1004 92 10000 7.2 360 05:55 13.03.2020
1105 Clouds -3 1004 92 10000 7.2 360 05:37 13.03.2020
1106 Clouds -3 1004 92 10000 6.7 340 04:38 13.03.2020
1107 Clouds -3 1005 86 10000 6.2 350 03:43 13.03.2020
1108 Clouds -4 1005 92 10000 5.1 330 01:47 13.03.2020
1109 Clouds -4 1005 85 10000 2.1 160 01:19 13.03.2020
1110 Clouds -4 1005 92 10000 4.1 340 00:54 13.03.2020
1111 Clouds -4 1005 92 10000 2.1 140 00:28 13.03.2020
1112 Clouds -3 1005 85 10000 4.1 340 23:59 12.03.2020
1113 Clouds -4 1005 86 10000 3.1 190 23:28 12.03.2020
1114 Clouds -4 1005 85 10000 3.6 360 22:57 12.03.2020
1115 Clouds -4 1005 85 10000 3.6 360 22:39 12.03.2020
1116 Clouds -3 1005 86 10000 1.5 20 22:21 12.03.2020
1117 Clouds -3 1005 86 10000 3.6 10 21:46 12.03.2020
1118 Snow -3 1005 86 10000 1.5 20 21:28 12.03.2020
1119 Clouds -3 1005 86 10000 3.1 50 20:57 12.03.2020
1120 Clouds -2 1005 86 10000 3.1 50 20:38 12.03.2020
1121 Rain -3 1005 92 8000 3.1 50 20:19 12.03.2020
1122 Clouds -3 1005 86 10000 3.1 60 19:42 12.03.2020
1123 Snow -3 1005 92 1900 2.6 60 19:20 12.03.2020
1124 Clouds -3 1005 58 10000 5.7 30 18:44 12.03.2020
1125 Clouds -3 1005 58 10000 5.7 30 18:44 12.03.2020
1126 Snow -3 1005 86 1500 5.1 50 18:24 12.03.2020
1127 Snow -2 1005 79 2500 5.1 80 17:57 12.03.2020
1128 Snow -2 1005 79 2500 5.1 80 17:39 12.03.2020
1129 Clouds -2 1006 46 10000 4.6 45 17:20 12.03.2020
1130 Clouds -2 1005 68 10000 4.6 40 16:56 12.03.2020
1131 Clouds -2 1005 68 10000 4.6 40 16:38 12.03.2020
1132 Clouds -2 1005 46 10000 4.1 60 16:19 12.03.2020
1133 Clouds -2 1005 58 10000 4.6 50 15:45 12.03.2020
1134 Clouds -2 1005 42 10000 2.6 60 15:27 12.03.2020
1135 Clouds -3 1005 68 10000 4.1 40 14:42 12.03.2020
1136 Clouds -3 1005 46 10000 2.6 70 14:24 12.03.2020
1137 Clouds -3 1005 79 10000 2.6 40 13:57 12.03.2020
1138 Clouds -3 1005 79 10000 2.6 40 13:37 12.03.2020
1139 Clouds -3 1004 54 10000 3.1 90 13:19 12.03.2020
1140 Clouds -3 1004 68 10000 2.1 30 12:41 12.03.2020
1141 Clouds -3 1004 54 10000 1 150 12:22 12.03.2020
1142 Clouds -4 1003 74 10000 1 90 11:57 12.03.2020
1143 Clouds -4 1003 74 10000 1 90 11:39 12.03.2020
1144 Clouds -4 1003 58 10000 1 0 11:20 12.03.2020
1145 Clouds -5 1003 73 10000 2.1 30 10:59 12.03.2020
1146 Clouds -5 1003 73 10000 2.1 30 10:40 12.03.2020
1147 Clouds -5 1003 73 10000 2.1 30 10:40 12.03.2020
1148 Clouds -5 1002 62 10000 3.1 120 10:22 12.03.2020
1149 Clouds -5 1002 73 10000 2.6 90 09:47 12.03.2020
1150 Clouds -5 1001 68 10000 2.1 170 09:28 12.03.2020
1151 Clouds -4 1001 79 10000 9.8 30 08:46 12.03.2020
1152 Clouds -4 1000 68 10000 2.6 160 08:21 12.03.2020
1153 Clouds -4 1000 74 10000 8.7 40 07:59 12.03.2020
1154 Clouds -4 1000 74 10000 8.7 40 07:41 12.03.2020
1155 Clouds -3 999 68 10000 0.5 0 07:21 12.03.2020
1156 Clouds -3 998 74 10000 9.8 40 05:55 12.03.2020
1157 Clouds -2 997 68 10000 2.6 50 05:26 12.03.2020
1158 Clouds -1 995 74 10000 9.8 40 02:43 12.03.2020
1159 Clouds -1 995 79 10000 11.3 30 01:38 12.03.2020
1160 Clouds -1 993 68 10000 10.3 10 01:20 12.03.2020
1161 Clouds -2 994 74 10000 12.3 30 00:41 12.03.2020
1162 Clouds -1 993 80 10000 13.4 30 23:56 11.03.2020
1163 Clouds -1 991 79 10000 10.8 360 23:26 11.03.2020
1164 Snow -1 991 80 10000 12.9 20 22:55 11.03.2020
1165 Snow -1 991 80 10000 12.9 20 22:37 11.03.2020
1166 Clouds -1 990 73 10000 10.3 10 22:18 11.03.2020
1167 Snow -1 990 86 10000 12.9 20 21:54 11.03.2020
1168 Snow -1 990 86 10000 12.9 20 21:36 11.03.2020
1169 Clouds -1 988 73 10000 9.3 20 21:18 11.03.2020
1170 Clouds -1 989 73 10000 13.9 30 20:55 11.03.2020
1171 Clouds -1 989 73 10000 13.9 30 20:36 11.03.2020
1172 Clouds 0 987 66 10000 11.3 10 20:18 11.03.2020
1173 Snow -1 987 68 10000 13.9 20 19:41 11.03.2020
1174 Rain -1 986 68 10000 12.9 10 19:22 11.03.2020
1175 Snow 0 986 68 10000 12.9 30 18:56 11.03.2020
1176 Snow 0 986 68 10000 12.9 30 18:36 11.03.2020
1177 Clouds 0 985 64 10000 11.8 10 18:18 11.03.2020
1178 Clouds 0 985 68 10000 12.9 20 17:40 11.03.2020
1179 Clouds 0 984 65 10000 11.8 20 17:21 11.03.2020
1180 Clouds 0 985 65 10000 14.4 30 16:56 11.03.2020
1181 Clouds 0 985 65 10000 14.4 30 16:37 11.03.2020
1182 Clouds 0 983 65 10000 13.4 20 16:19 11.03.2020
1183 Clouds 0 984 65 10000 13.4 30 15:42 11.03.2020
1184 Clouds 0 983 59 10000 12.9 10 15:22 11.03.2020
1185 Clouds 0 984 65 10000 13.4 30 14:44 11.03.2020
1186 Clouds 0 983 55 10000 11.8 20 14:23 11.03.2020
1187 Clouds 0 984 71 10000 12.3 30 13:58 11.03.2020
1188 Clouds 0 983 59 10000 10.3 20 13:39 11.03.2020
1189 Clouds 0 983 59 10000 10.3 20 13:21 11.03.2020
1190 Clouds 0 983 71 10000 14.4 30 12:41 11.03.2020
1191 Clouds 0 982 59 10000 9.8 20 12:21 11.03.2020
1192 Clouds 0 983 71 10000 13.9 40 11:57 11.03.2020
1193 Clouds 0 983 71 10000 13.9 40 11:39 11.03.2020
1194 Clouds 1 982 59 10000 6.2 20 11:19 11.03.2020
1195 Clouds 0 982 74 10000 10.8 30 10:43 11.03.2020
1196 Clouds 1 981 59 10000 9.8 20 10:19 11.03.2020
1197 Clouds 0 981 74 10000 10.8 40 09:54 11.03.2020
1198 Clouds 1 981 74 10000 10.8 40 09:36 11.03.2020
1199 Clouds 1 981 64 10000 4.6 10 09:18 11.03.2020
1200 Clouds 1 981 74 10000 7.2 40 08:40 11.03.2020
1201 Snow 1 980 51 10000 2.6 80 08:22 11.03.2020
1202 Snow 1 980 69 10000 5.7 50 07:45 11.03.2020
1203 Clouds 1 980 55 10000 3.6 60 07:19 11.03.2020
1204 Snow 1 980 80 10000 11.3 70 06:48 11.03.2020
1205 Clouds 0 979 72 10000 12.3 70 05:43 11.03.2020
1206 Clouds 0 979 80 10000 12.3 60 04:52 11.03.2020
1207 Snow 1 978 69 10000 11.8 80 02:30 11.03.2020
1208 Snow 1 977 86 10000 13.9 80 01:44 11.03.2020
1209 Clouds 1 977 86 10000 14.4 80 00:53 11.03.2020
1210 Snow 1 977 69 10000 12.9 70 00:21 11.03.2020
1211 Clouds 2 976 86 10000 14.4 80 23:45 10.03.2020
1212 Clouds 2 977 48 10000 9.8 80 23:22 10.03.2020
1213 Clouds 3 976 64 10000 10.8 50 22:55 10.03.2020
1214 Clouds 3 976 41 10000 8.7 80 22:36 10.03.2020
1215 Clouds 3 976 41 10000 8.7 80 22:18 10.03.2020
1216 Clouds 2 976 59 10000 8.2 50 21:55 10.03.2020
1217 Clouds 3 976 59 10000 8.2 50 21:37 10.03.2020
1218 Clouds 3 976 51 10000 6.7 60 21:18 10.03.2020
1219 Clouds 3 976 59 10000 8.2 40 20:41 10.03.2020
1220 Clouds 3 976 44 10000 5.7 70 20:19 10.03.2020
1221 Clouds 3 976 59 10000 8.7 50 19:58 10.03.2020
1222 Clouds 3 976 59 10000 8.7 50 19:40 10.03.2020
1223 Clouds 3 976 44 10000 5.7 60 19:21 10.03.2020
1224 Clouds 3 976 64 10000 8.2 50 18:54 10.03.2020
1225 Clouds 3 976 64 10000 8.2 50 18:36 10.03.2020
1226 Clouds 4 976 41 10000 8.2 80 18:18 10.03.2020
1227 Clouds 3 977 64 10000 8.2 50 17:41 10.03.2020
1228 Clouds 3 977 44 10000 6.7 70 17:22 10.03.2020
1229 Clouds 3 977 59 10000 7.7 50 16:54 10.03.2020
1230 Clouds 3 977 59 10000 7.7 50 16:36 10.03.2020
1231 Clouds 3 977 44 10000 4.6 40 16:18 10.03.2020
1232 Clouds 3 977 59 10000 6.7 50 15:41 10.03.2020
1233 Clouds 3 977 41 10000 5.1 80 15:20 10.03.2020
1234 Clouds 2 978 80 10000 5.7 30 14:58 10.03.2020
1235 Clouds 2 978 80 10000 5.7 30 14:40 10.03.2020
1236 Clouds 3 978 41 10000 6.7 80 14:19 10.03.2020
1237 Clouds 2 978 64 10000 5.7 60 13:43 10.03.2020
1238 Clouds 3 978 41 10000 9.3 80 13:25 10.03.2020
1239 Clouds 2 979 59 10000 8.2 60 12:55 10.03.2020
1240 Clouds 2 979 59 10000 8.2 60 12:36 10.03.2020
1241 Clouds 2 978 40 10000 9.8 80 12:18 10.03.2020
1242 Clouds 2 978 40 10000 9.8 80 12:18 10.03.2020
1243 Clouds 1 979 64 10000 8.7 60 11:42 10.03.2020
1244 Clouds 1 979 43 10000 5.7 70 11:24 10.03.2020
1245 Clouds 1 979 64 10000 6.7 40 10:54 10.03.2020
1246 Clouds 1 979 64 10000 6.7 40 10:36 10.03.2020
1247 Clouds 1 979 47 10000 4.1 60 10:18 10.03.2020
1248 Clouds 1 979 59 10000 6.2 30 09:44 10.03.2020
1249 Clouds 0 979 43 10000 5.7 60 09:20 10.03.2020
1250 Clouds 0 979 58 10000 6.2 60 08:54 10.03.2020
1251 Clouds 0 980 58 10000 5.1 70 08:35 10.03.2020
1252 Clouds -1 980 56 10000 7.7 60 07:58 10.03.2020
1253 Clouds 0 980 56 10000 7.7 60 07:40 10.03.2020
1254 Clouds 0 980 56 10000 5.7 70 07:19 10.03.2020
1255 Clouds -1 980 63 10000 9.3 70 06:37 10.03.2020
1256 Clouds -1 981 58 10000 7.2 60 05:42 10.03.2020
1257 Clouds -2 981 50 10000 5.1 30 05:19 10.03.2020
1258 Clouds -2 983 46 10000 3.1 50 04:30 10.03.2020
1259 Clouds -3 984 58 10000 7.7 80 02:58 10.03.2020
1260 Clouds -2 985 39 10000 7.7 70 01:33 10.03.2020
1261 Clouds -3 986 58 10000 13.9 80 00:51 10.03.2020
1262 Clouds -3 987 50 10000 3.1 80 00:28 10.03.2020
1263 Clouds -2 987 63 10000 9.8 70 23:43 09.03.2020
1264 Clouds -2 987 50 10000 7.2 70 23:22 09.03.2020
1265 Clouds -3 987 63 10000 7.7 80 22:58 09.03.2020
1266 Clouds -3 987 63 10000 7.7 80 22:38 09.03.2020
1267 Clouds -3 988 63 10000 4.1 110 22:20 09.03.2020
1268 Clouds -2 988 68 10000 7.2 70 21:45 09.03.2020
1269 Clouds -1 988 54 10000 9.3 100 21:22 09.03.2020
1270 Clouds -2 989 74 10000 9.3 80 20:59 09.03.2020
1271 Clouds -2 989 74 10000 9.3 80 20:41 09.03.2020
1272 Clouds -2 989 58 10000 9.3 80 20:22 09.03.2020
1273 Clouds -2 989 74 10000 12.3 80 19:59 09.03.2020
1274 Clouds -1 989 74 10000 12.3 80 19:41 09.03.2020
1275 Clouds -1 989 58 10000 11.3 80 19:19 09.03.2020
1276 Clouds -1 989 80 10000 11.3 70 18:56 09.03.2020
1277 Clouds -1 989 80 10000 11.3 70 18:56 09.03.2020
1278 Clouds -1 989 80 10000 11.3 70 18:38 09.03.2020
1279 Clouds 0 989 58 10000 11.3 80 18:18 09.03.2020
1280 Clouds 0 989 58 10000 8.7 80 17:55 09.03.2020
1281 Clouds 0 989 58 10000 8.7 80 17:37 09.03.2020
1282 Clouds 0 989 71 10000 10.3 80 17:19 09.03.2020
1283 Clouds 0 990 71 10000 7.7 60 16:56 09.03.2020
1284 Clouds 0 990 71 10000 7.7 60 16:37 09.03.2020
1285 Clouds 0 990 71 10000 9.8 80 16:19 09.03.2020
1286 Clouds 0 990 71 10000 8.2 70 15:55 09.03.2020
1287 Clouds 0 990 71 10000 8.2 70 15:37 09.03.2020
1288 Clouds 0 990 71 10000 10.8 80 15:18 09.03.2020
1289 Clouds -1 991 71 10000 9.8 70 14:39 09.03.2020
1290 Clouds 0 991 80 10000 11.3 80 14:20 09.03.2020
1291 Clouds -1 991 86 10000 9.8 70 13:58 09.03.2020
1292 Clouds -1 991 86 10000 9.8 70 13:39 09.03.2020
1293 Snow -1 992 68 10000 10.3 70 13:20 09.03.2020
1294 Clouds -2 991 80 10000 11.3 70 12:58 09.03.2020
1295 Clouds -1 991 80 10000 11.3 70 12:39 09.03.2020
1296 Snow -2 992 63 10000 11.3 80 12:18 09.03.2020
1297 Clouds -1 992 74 10000 10.8 70 11:40 09.03.2020
1298 Clouds -1 993 58 10000 10.3 80 11:20 09.03.2020
1299 Clouds -1 992 74 10000 10.3 80 10:57 09.03.2020
1300 Clouds -1 992 74 10000 10.3 80 10:39 09.03.2020
1301 Clouds -2 993 63 10000 9.8 80 10:19 09.03.2020
1302 Clouds -2 993 79 10000 8.2 60 09:42 09.03.2020
1303 Clouds -2 993 63 10000 9.3 80 09:24 09.03.2020
1304 Clouds -2 993 74 10000 6.2 60 08:47 09.03.2020
1305 Clouds -3 994 58 10000 5.7 70 08:29 09.03.2020
1306 Clouds -4 994 73 10000 6.2 60 07:58 09.03.2020
1307 Clouds -4 994 73 10000 6.2 60 07:37 09.03.2020
1308 Clouds -3 994 53 10000 7.7 70 07:18 09.03.2020
1309 Clouds -4 994 62 10000 7.2 50 06:40 09.03.2020
1310 Clouds -4 995 45 10000 6.2 60 06:21 09.03.2020
1311 Clouds -4 995 62 10000 6.2 60 05:45 09.03.2020
1312 Clouds -4 996 62 10000 5.7 60 04:59 09.03.2020
1313 Clouds -4 996 62 10000 5.7 60 04:39 09.03.2020
1314 Clouds -5 997 49 10000 4.1 70 04:20 09.03.2020
1315 Clouds -5 997 58 10000 5.7 50 02:53 09.03.2020
1316 Clouds -5 997 73 10000 4.6 40 00:44 09.03.2020
1317 Clouds -5 997 49 10000 6.2 90 00:25 09.03.2020
1318 Clouds -4 997 73 10000 4.1 50 23:58 08.03.2020
1319 Clouds -4 997 73 10000 4.1 50 23:38 08.03.2020
1320 Clear -4 997 53 10000 5.7 90 23:18 08.03.2020
1321 Clouds -4 996 73 10000 2.6 60 22:41 08.03.2020
1322 Clear -4 996 58 10000 5.7 90 22:41 08.03.2020
1323 Clear -4 996 58 10000 5.7 90 22:22 08.03.2020
1324 Clear -3 996 68 10000 4.1 20 21:59 08.03.2020
1325 Clear -3 996 68 10000 4.1 20 21:41 08.03.2020
1326 Clear -4 996 53 10000 3.1 90 21:20 08.03.2020
1327 Clear -3 995 68 10000 1.5 110 20:58 08.03.2020
1328 Clear -2 995 68 10000 1.5 110 20:38 08.03.2020
1329 Clouds -2 995 50 10000 3.6 100 20:19 08.03.2020
1330 Clouds -2 995 50 10000 3.6 100 20:19 08.03.2020
1331 Clouds -1 995 58 10000 1.5 40 19:40 08.03.2020
1332 Clouds -2 995 69 10000 2.6 40 19:19 08.03.2020
1333 Clouds -1 994 63 10000 3.1 10 18:55 08.03.2020
1334 Clouds -1 994 63 10000 3.1 10 18:37 08.03.2020
1335 Clouds -1 994 37 10000 1.5 50 18:19 08.03.2020
1336 Clouds -1 994 63 10000 3.1 10 17:40 08.03.2020
1337 Clouds -1 993 60 10000 2.1 280 17:22 08.03.2020
1338 Clouds -1 993 63 10000 0.5 170 16:58 08.03.2020
1339 Clouds -1 993 63 10000 0.5 170 16:40 08.03.2020
1340 Clouds -1 993 40 10000 1 0 16:22 08.03.2020
1341 Clouds -1 992 63 10000 2.6 360 15:41 08.03.2020
1342 Clouds -1 992 37 10000 1.5 230 15:22 08.03.2020
1343 Clouds -2 992 74 10000 3.1 360 14:59 08.03.2020
1344 Clouds -2 992 74 10000 3.1 360 14:38 08.03.2020
1345 Clouds -2 992 58 10000 1 230 14:19 08.03.2020
1346 Clouds -2 991 68 10000 3.1 30 13:42 08.03.2020
1347 Clouds -2 991 46 10000 1 0 13:21 08.03.2020
1348 Clouds -2 990 63 10000 3.1 50 12:57 08.03.2020
1349 Clouds -2 990 63 10000 3.1 50 12:37 08.03.2020
1350 Clouds -3 990 46 10000 1 0 12:18 08.03.2020
1351 Clouds -4 989 63 10000 2.6 120 11:41 08.03.2020
1352 Clouds -3 989 49 10000 2.6 90 11:23 08.03.2020
1353 Clouds -5 989 73 10000 1.5 120 10:57 08.03.2020
1354 Clouds -6 989 73 10000 1.5 120 10:39 08.03.2020
1355 Clouds -6 989 53 10000 1.5 70 10:21 08.03.2020
1356 Clouds -6 988 79 10000 2.6 350 09:39 08.03.2020
1357 Clouds -6 988 57 10000 0.5 0 09:21 08.03.2020
1358 Clouds -5 988 68 10000 2.1 350 08:46 08.03.2020
1359 Clouds -5 987 62 10000 2.1 120 08:21 08.03.2020
1360 Clouds -5 987 63 10000 1 20 07:49 08.03.2020
1361 Clouds -5 987 62 10000 2.1 150 07:28 08.03.2020
1362 Clouds -4 987 68 10000 1 50 06:46 08.03.2020
1363 Clouds -4 987 53 10000 5.15 23 06:27 08.03.2020
1364 Clouds -3 987 68 10000 2.6 40 05:47 08.03.2020
1365 Clouds -3 986 68 10000 4.6 30 03:52 08.03.2020
1366 Clouds -2 986 58 10000 5.1 50 02:59 08.03.2020
1367 Clouds -2 986 54 10000 7.2 70 01:55 08.03.2020
1368 Clouds -2 986 61 10000 3.1 60 01:20 08.03.2020
1369 Clouds -3 986 54 10000 6.2 70 00:41 08.03.2020
1370 Clouds -4 986 58 10000 7.2 80 23:59 07.03.2020
1371 Clouds -4 986 58 10000 7.2 80 23:41 07.03.2020
1372 Clouds -4 986 50 10000 4.6 90 23:20 07.03.2020
1373 Clouds -3 986 58 10000 5.1 70 22:38 07.03.2020
1374 Clouds -3 986 39 10000 6.2 90 22:20 07.03.2020
1375 Clouds -2 986 50 10000 5.7 80 21:45 07.03.2020
1376 Clouds -3 986 42 10000 5.1 90 21:24 07.03.2020
1377 Clouds -2 986 54 10000 6.7 80 20:42 07.03.2020
1378 Clouds -2 985 46 10000 5.7 90 20:23 07.03.2020
1379 Clouds -1 986 55 10000 8.7 80 19:57 07.03.2020
1380 Clouds -1 986 55 10000 8.7 80 19:38 07.03.2020
1381 Clouds -1 986 55 10000 5.7 90 19:19 07.03.2020
1382 Clouds 0 986 55 10000 6.7 70 18:41 07.03.2020
1383 Clouds 0 986 31 10000 5.7 80 18:22 07.03.2020
1384 Clouds 0 986 55 10000 7.2 50 17:43 07.03.2020
1385 Clouds 0 986 31 10000 7.2 90 17:22 07.03.2020
1386 Clouds 0 986 44 10000 7.2 60 16:59 07.03.2020
1387 Clouds 0 986 44 10000 7.2 60 16:41 07.03.2020
1388 Clouds 0 986 31 10000 6.2 80 16:22 07.03.2020
1389 Clouds 0 987 44 10000 7.7 70 15:57 07.03.2020
1390 Clouds 0 987 44 10000 7.7 70 15:39 07.03.2020
1391 Clouds 0 987 31 10000 4.6 90 15:20 07.03.2020
1392 Clouds 0 987 44 10000 7.2 60 14:54 07.03.2020
1393 Clouds 0 987 44 10000 7.2 60 14:36 07.03.2020
1394 Clouds 0 987 43 10000 8.2 90 14:18 07.03.2020
1395 Clouds 0 988 43 10000 7.7 80 13:39 07.03.2020
1396 Clouds 0 988 37 10000 7.2 80 13:19 07.03.2020
1397 Clouds 0 988 63 10000 7.7 70 12:42 07.03.2020
1398 Clouds 0 988 37 10000 6.7 80 12:20 07.03.2020
1399 Clouds -1 988 68 10000 7.2 80 11:58 07.03.2020
1400 Clouds -1 988 68 10000 7.2 80 11:58 07.03.2020
1401 Clouds -1 988 68 10000 7.2 80 11:39 07.03.2020
1402 Clouds 0 989 47 10000 9.3 80 11:21 07.03.2020
1403 Clouds -1 989 68 10000 8.2 80 10:41 07.03.2020
1404 Clouds -1 989 58 10000 7.2 70 10:21 07.03.2020
1405 Clouds -1 989 74 10000 9.8 80 09:57 07.03.2020
1406 Clouds -1 989 74 10000 9.8 80 09:38 07.03.2020
1407 Clouds 0 989 47 10000 10.3 80 09:18 07.03.2020
1408 Clouds -1 989 74 10000 10.8 80 08:44 07.03.2020
1409 Clouds 0 989 66 10000 9.3 80 08:21 07.03.2020
1410 Clouds -1 989 74 10000 12.3 70 07:52 07.03.2020
1411 Clouds 0 989 65 10000 8.7 80 07:23 07.03.2020
1412 Clouds -1 990 74 10000 11.8 60 06:59 07.03.2020
1413 Clouds -1 991 74 10000 11.8 70 06:35 07.03.2020
1414 Clouds -1 991 74 10000 11.8 70 05:55 07.03.2020
1415 Clouds -1 992 74 10000 11.8 70 04:56 07.03.2020
1416 Clouds -1 993 68 10000 9.3 60 02:58 07.03.2020
1417 Clouds -1 993 68 10000 9.3 60 02:34 07.03.2020
1418 Clouds -1 994 62 10000 7.7 70 01:45 07.03.2020
1419 Clouds -1 995 74 10000 5.1 60 00:40 07.03.2020
1420 Clouds -1 997 50 10000 6.2 70 00:22 07.03.2020
1421 Clouds -1 996 74 10000 8.2 100 23:54 06.03.2020
1422 Clouds -3 997 50 10000 5.1 70 23:26 06.03.2020
1423 Clouds -2 997 74 10000 5.1 60 22:58 06.03.2020
1424 Clouds -2 997 74 10000 5.1 60 22:40 06.03.2020
1425 Clouds -4 998 46 10000 7.2 80 22:18 06.03.2020
1426 Clouds -3 998 68 10000 6.2 60 21:43 06.03.2020
1427 Clouds -3 999 46 10000 4.6 70 21:19 06.03.2020
1428 Clouds -3 998 63 10000 5.7 60 20:39 06.03.2020
1429 Clouds -4 999 50 10000 7.2 80 20:21 06.03.2020
1430 Clouds -4 998 68 10000 4.1 60 19:52 06.03.2020
1431 Clouds -4 998 68 10000 4.1 60 19:33 06.03.2020
1432 Clouds -3 999 68 10000 3.6 70 18:59 06.03.2020
1433 Clouds -3 999 68 10000 3.6 70 18:41 06.03.2020
1434 Clouds -3 1000 46 10000 5.1 80 18:19 06.03.2020
1435 Clouds -3 1000 46 10000 5.1 80 18:19 06.03.2020
1436 Clouds -3 1000 46 10000 5.1 80 18:19 06.03.2020
1437 Clouds -3 1000 73 10000 4.1 90 17:55 06.03.2020
1438 Clouds -2 1000 73 10000 4.1 90 17:36 06.03.2020
1439 Clear -2 1000 50 10000 4.6 60 17:18 06.03.2020
1440 Clear -2 1001 68 10000 6.7 60 16:42 06.03.2020
1441 Clear -2 1002 54 10000 3.1 60 16:20 06.03.2020
1442 Clear -2 1002 74 10000 4.6 60 15:45 06.03.2020
1443 Clear -2 1003 54 10000 4.6 60 15:25 06.03.2020
1444 Clear -3 1003 68 10000 4.1 60 14:59 06.03.2020
1445 Clear -3 1003 68 10000 4.1 60 14:39 06.03.2020
1446 Clear -2 1004 54 10000 3.1 40 14:19 06.03.2020
1447 Clear -3 1004 73 10000 2.6 60 13:43 06.03.2020
1448 Clear -3 1004 58 10000 3.1 60 13:22 06.03.2020
1449 Clear -4 1004 73 10000 2.1 90 12:57 06.03.2020
1450 Clear -4 1004 73 10000 2.1 90 12:38 06.03.2020
1451 Clear -4 1004 63 10000 3.1 100 12:19 06.03.2020
1452 Clear -5 1004 73 10000 2.6 70 11:57 06.03.2020
1453 Clear -5 1004 73 10000 2.6 70 11:57 06.03.2020
1454 Clear -5 1004 73 10000 2.6 70 11:38 06.03.2020
1455 Clear -5 1004 73 10000 2.1 150 11:20 06.03.2020
1456 Clouds -5 1003 68 10000 3.6 80 10:39 06.03.2020
1457 Clear -5 1004 73 10000 1 0 10:21 06.03.2020
1458 Clouds -5 1004 73 10000 9.8 40 09:55 06.03.2020
1459 Clouds -5 1004 73 10000 9.8 40 09:37 06.03.2020
1460 Clear -5 1004 79 10000 2.6 160 09:19 06.03.2020
1461 Clouds -4 1004 79 10000 9.3 30 08:45 06.03.2020
1462 Clear -5 1004 73 10000 3.1 190 08:27 06.03.2020
1463 Clouds -3 1004 79 10000 9.3 20 07:57 06.03.2020
1464 Clouds -3 1004 79 10000 9.3 20 07:57 06.03.2020
1465 Clouds -3 1004 79 10000 9.3 20 07:38 06.03.2020
1466 Clouds -4 1005 79 10000 10.3 10 06:59 06.03.2020
1467 Clouds -4 1005 79 10000 10.3 10 06:40 06.03.2020
1468 Clouds -3 1004 79 10000 8.7 10 05:47 06.03.2020
1469 Clouds -3 1004 63 10000 7.2 10 05:28 06.03.2020
1470 Clouds -4 1004 73 10000 9.8 10 04:58 06.03.2020
1471 Clouds -3 1004 79 10000 7.7 360 02:55 06.03.2020
1472 Clouds -3 1003 73 10000 10.8 10 01:41 06.03.2020
1473 Clouds -2 1002 68 10000 8.2 360 01:23 06.03.2020
1474 Clouds -3 1002 73 10000 11.3 10 00:39 06.03.2020
1475 Clouds -2 1001 74 10000 7.7 360 00:19 06.03.2020
1476 Clouds -2 1001 79 10000 10.3 10 23:42 05.03.2020
1477 Clouds -2 1000 68 10000 6.7 360 23:22 05.03.2020
1478 Clouds -2 1000 79 10000 10.3 10 22:41 05.03.2020
1479 Rain -2 999 68 10000 8.7 10 22:23 05.03.2020
1480 Clouds -1 999 86 10000 9.8 10 21:58 05.03.2020
1481 Clouds -1 999 86 10000 9.8 10 21:39 05.03.2020
1482 Clouds 0 998 74 10000 10.3 10 21:21 05.03.2020
1483 Clouds -1 998 86 10000 12.3 10 20:59 05.03.2020
1484 Clouds -1 998 86 10000 12.3 10 20:41 05.03.2020
1485 Clouds -1 996 64 10000 7.2 360 20:20 05.03.2020
1486 Clouds -1 997 86 10000 9.8 10 19:58 05.03.2020
1487 Clouds 0 997 86 10000 9.8 10 19:39 05.03.2020
1488 Clouds 0 997 86 10000 9.8 10 19:39 05.03.2020
1489 Snow 0 995 64 10000 6.2 360 19:19 05.03.2020
1490 Clouds 0 995 74 10000 8.7 10 18:57 05.03.2020
1491 Clouds -1 995 74 10000 8.7 10 18:37 05.03.2020
1492 Clouds -1 994 74 10000 7.2 350 18:18 05.03.2020
1493 Clouds 0 993 74 10000 7.7 360 17:42 05.03.2020
1494 Clouds -1 992 77 10000 7.2 340 17:24 05.03.2020
1495 Clouds -1 993 77 10000 10.3 350 16:59 05.03.2020
1496 Clouds -1 993 77 10000 10.3 350 16:41 05.03.2020
1497 Clouds -1 992 77 10000 6.2 350 16:21 05.03.2020
1498 Clouds -1 992 86 10000 8.7 360 15:45 05.03.2020
1499 Clouds -1 991 77 10000 7.2 350 15:24 05.03.2020
1500 Clouds -2 991 80 10000 7.7 360 14:59 05.03.2020
1501 Clouds -2 991 80 10000 7.7 360 14:41 05.03.2020
1502 Clouds -1 990 77 10000 9.3 350 14:22 05.03.2020
1503 Clouds -2 990 86 10000 8.2 360 13:57 05.03.2020
1504 Clouds -2 990 86 10000 8.2 360 13:38 05.03.2020
1505 Clouds -2 989 69 10000 5.7 10 13:20 05.03.2020
1506 Clouds -3 989 79 10000 8.2 10 12:42 05.03.2020
1507 Clouds -2 988 68 10000 1 0 12:21 05.03.2020
1508 Clouds -3 988 74 10000 7.7 10 11:58 05.03.2020
1509 Clouds -4 988 74 10000 7.7 10 11:38 05.03.2020
1510 Clouds -4 987 73 10000 2.1 120 11:19 05.03.2020
1511 Clouds -5 987 73 10000 7.7 10 10:58 05.03.2020
1512 Clouds -5 987 73 10000 7.7 10 10:58 05.03.2020
1513 Clouds -5 987 73 10000 7.7 10 10:40 05.03.2020
1514 Clouds -4 987 79 10000 3.4 3 10:21 05.03.2020
1515 Clouds -4 987 68 10000 7.7 30 09:59 05.03.2020
1516 Clouds -3 987 68 10000 7.7 30 09:40 05.03.2020
1517 Clouds -3 986 68 10000 1.5 30 09:21 05.03.2020
1518 Clouds -4 986 79 10000 5.7 30 08:43 05.03.2020
1519 Clouds -3 985 68 10000 2.1 50 08:24 05.03.2020
1520 Rain -3 985 79 10000 3.6 40 07:44 05.03.2020
1521 Clouds -3 984 73 10000 3.1 110 07:21 05.03.2020
1522 Rain -1 984 74 10000 6.2 60 06:45 05.03.2020
1523 Rain -1 984 74 10000 6.2 60 06:45 05.03.2020
1524 Clouds -2 984 68 10000 3.6 90 06:20 05.03.2020
1525 Rain -1 984 80 10000 7.2 50 05:37 05.03.2020
1526 Clouds -2 984 68 10000 5.1 70 04:25 05.03.2020
1527 Clouds -2 983 86 10000 5.1 50 03:58 05.03.2020
1528 Clouds -2 984 79 10000 6.7 70 03:18 05.03.2020
1529 Snow -2 984 92 3000 6.2 70 01:28 05.03.2020
1530 Snow -2 984 86 2700 7.2 80 00:56 05.03.2020
1531 Snow -3 983 100 800 4.6 90 23:58 04.03.2020
1532 Snow -3 983 100 800 4.6 90 23:40 04.03.2020
1533 Clouds -3 984 79 10000 6.2 70 23:22 04.03.2020
1534 Snow -3 983 92 5000 4.1 70 22:56 04.03.2020
1535 Snow -3 983 92 5000 4.1 70 22:37 04.03.2020
1536 Clouds -3 984 79 10000 5.1 60 22:19 04.03.2020
1537 Snow -3 983 92 4000 3.1 50 21:56 04.03.2020
1538 Snow -3 983 92 4000 3.1 50 21:37 04.03.2020
1539 Clouds -4 984 79 10000 6.2 70 21:18 04.03.2020
1540 Snow -4 983 100 3000 3.1 90 20:40 04.03.2020
1541 Clouds -4 983 79 10000 5.7 80 20:22 04.03.2020
1542 Snow -4 983 92 5000 3.1 120 19:58 04.03.2020
1543 Snow -3 983 92 5000 3.1 120 19:40 04.03.2020
1544 Clouds -3 983 74 10000 4.6 80 19:22 04.03.2020
1545 Rain -2 983 92 10000 4.6 100 18:42 04.03.2020
1546 Snow -2 983 80 3000 3.1 90 18:24 04.03.2020
1547 Rain -2 983 92 10000 4.1 120 17:59 04.03.2020
1548 Rain -2 983 92 10000 4.1 120 17:39 04.03.2020
1549 Rain -2 983 64 10000 2.1 110 17:20 04.03.2020
1550 Snow -2 983 92 4000 4.1 160 16:57 04.03.2020
1551 Snow -1 983 92 4000 4.1 160 16:38 04.03.2020
1552 Rain -1 983 64 10000 3.1 150 16:19 04.03.2020
1553 Rain -1 983 86 10000 4.1 130 15:46 04.03.2020
1554 Rain -1 983 74 10000 2.6 120 15:27 04.03.2020
1555 Rain -1 983 100 10000 4.6 130 14:59 04.03.2020
1556 Rain -1 983 100 10000 4.6 130 14:59 04.03.2020
1557 Rain -1 983 100 10000 4.6 130 14:41 04.03.2020
1558 Clouds -1 983 80 10000 5.1 90 14:20 04.03.2020
1559 Rain -2 983 92 10000 4.1 140 13:58 04.03.2020
1560 Rain -2 983 92 10000 4.1 140 13:58 04.03.2020
1561 Rain -2 983 92 10000 4.1 140 13:39 04.03.2020
1562 Rain -2 983 80 10000 5.1 80 13:21 04.03.2020
1563 Snow -2 983 86 9000 4.1 90 12:56 04.03.2020
1564 Snow -2 983 86 9000 4.1 90 12:56 04.03.2020
1565 Snow -2 983 86 9000 4.1 90 12:37 04.03.2020
1566 Snow -2 983 86 9000 4.1 90 12:19 04.03.2020
1567 Rain -3 982 92 10000 3.6 110 11:42 04.03.2020
1568 Rain -3 982 92 10000 3.6 110 11:42 04.03.2020
1569 Snow -3 982 86 2000 3.6 80 11:24 04.03.2020
1570 Rain -3 982 100 50 2.6 100 10:59 04.03.2020
1571 Rain -3 982 100 50 2.6 100 10:41 04.03.2020
1572 Snow -3 982 86 2000 6.7 100 10:22 04.03.2020
1573 Snow -3 981 100 5000 1.5 70 09:44 04.03.2020
1574 Rain -3 982 79 10000 6.2 70 09:22 04.03.2020
1575 Rain -3 981 92 2000 2.6 150 08:58 04.03.2020
1576 Rain -3 981 92 2000 2.6 150 08:40 04.03.2020
1577 Clouds -3 981 92 10000 4.6 60 08:21 04.03.2020
1578 Rain -3 981 92 10000 3.6 100 07:41 04.03.2020
1579 Snow -2 981 86 10000 4.1 80 07:23 04.03.2020
1580 Snow -2 981 86 3500 4.1 100 06:49 04.03.2020
1581 Snow -3 981 79 10000 5.7 100 06:25 04.03.2020
1582 Rain -2 980 92 10000 2.1 120 05:54 04.03.2020
1583 -273 0 0 0 0 0 04:56 04.03.2020
1584 Rain -3 981 92 5000 3.6 170 04:56 04.03.2020
1585 Rain -3 981 92 5000 3.6 170 03:49 04.03.2020
1586 Clouds -3 982 92 10000 2.6 100 03:30 04.03.2020
1587 Snow -2 982 86 10000 3.1 90 02:58 04.03.2020
1588 Snow -3 982 86 10000 3.6 120 02:23 04.03.2020
1589 Rain -3 981 86 10000 4.6 190 01:56 04.03.2020
1590 Rain -3 982 79 10000 4.6 90 01:31 04.03.2020
1591 Rain -3 982 86 10000 4.1 170 00:41 04.03.2020
1592 Clouds -3 983 86 10000 2.6 90 00:19 04.03.2020
1593 Clouds -3 982 86 5000 4.1 140 23:41 03.03.2020
1594 Rain -3 983 86 10000 2.1 110 23:22 03.03.2020
1595 Rain -3 982 92 10000 2.1 150 22:42 03.03.2020
1596 Rain -3 983 79 10000 3.1 130 22:20 03.03.2020
1597 Rain -3 983 92 10000 4.1 190 21:59 03.03.2020
1598 Rain -3 983 92 10000 4.1 190 21:59 03.03.2020
1599 Rain -3 983 92 10000 4.1 190 21:40 03.03.2020
1600 Rain -3 983 86 10000 2.1 130 21:21 03.03.2020
1601 Snow -3 983 92 5000 4.1 210 20:57 03.03.2020
1602 Snow -2 983 92 5000 4.1 210 20:38 03.03.2020
1603 Clouds -2 984 86 10000 2.1 140 20:18 03.03.2020
1604 Clouds -2 983 92 10000 3.1 180 19:56 03.03.2020
1605 Clouds -2 983 92 10000 3.1 180 19:56 03.03.2020
1606 Clouds -2 983 92 10000 3.1 180 19:37 03.03.2020
1607 Clouds -1 984 92 10000 2.6 160 19:18 03.03.2020
1608 Rain -1 984 100 10000 3.1 170 18:56 03.03.2020
1609 Rain -1 985 92 10000 2.1 230 18:38 03.03.2020
1610 Rain -1 985 92 10000 2.1 230 18:19 03.03.2020
1611 Clouds -1 985 100 10000 1 170 17:41 03.03.2020
1612 Snow -1 985 92 1000 3.6 190 17:22 03.03.2020
1613 Snow 0 985 84 4500 3.6 180 16:59 03.03.2020
1614 Snow 0 985 76 4500 3.6 180 16:39 03.03.2020
1615 Clouds 0 986 76 10000 3.6 230 16:21 03.03.2020
1616 Rain 0 986 100 9000 2.1 210 15:59 03.03.2020
1617 Rain 0 986 100 9000 2.1 210 15:59 03.03.2020
1618 Rain 0 986 100 9000 2.1 210 15:41 03.03.2020
1619 Clouds 0 986 64 10000 4.6 240 15:20 03.03.2020
1620 Snow 0 986 100 2500 2.6 210 14:43 03.03.2020
1621 Clouds -1 987 90 10000 3.6 260 14:21 03.03.2020
1622 Rain 0 987 92 10000 3.1 190 13:59 03.03.2020
1623 Rain 0 987 92 10000 3.1 190 13:41 03.03.2020
1624 Clouds -1 987 55 10000 1.5 250 13:23 03.03.2020
1625 Rain -1 987 100 10000 4.1 150 12:55 03.03.2020
1626 Rain -1 987 100 10000 4.1 150 12:36 03.03.2020
1627 Clouds -1 987 93 10000 3.6 100 12:18 03.03.2020
1628 Snow -1 988 92 4000 3.1 170 11:38 03.03.2020
1629 Clouds 0 988 60 10000 6.7 90 11:19 03.03.2020
1630 Clouds 0 988 60 10000 6.7 90 11:19 03.03.2020
1631 Clouds -1 988 80 10000 1.5 20 10:57 03.03.2020
1632 Clouds -1 988 80 10000 1.5 20 10:39 03.03.2020
1633 Clouds -1 988 60 10000 7.2 100 10:19 03.03.2020
1634 Snow 0 988 80 10000 3.1 130 09:45 03.03.2020
1635 Clouds 0 989 47 10000 7.2 90 09:23 03.03.2020
1636 Snow -1 989 68 10000 4.6 90 08:59 03.03.2020
1637 Snow -1 989 68 10000 4.6 90 08:39 03.03.2020
1638 Clouds 0 989 62 10000 8.2 80 08:21 03.03.2020
1639 Clouds -1 989 74 10000 5.1 90 07:44 03.03.2020
1640 Clouds 0 989 62 10000 7.7 90 07:24 03.03.2020
1641 Clouds -1 989 68 10000 8.7 90 06:55 03.03.2020
1642 Clouds 0 990 62 10000 8.7 90 06:27 03.03.2020
1643 Clouds 0 989 62 10000 8.2 90 05:49 03.03.2020
1644 Clouds 0 990 62 10000 8.2 80 05:31 03.03.2020
1645 Clouds 0 990 80 10000 7.2 110 04:44 03.03.2020
1646 Clouds 1 991 55 10000 6.2 100 02:24 03.03.2020
1647 Rain 0 991 59 10000 6.2 100 01:21 03.03.2020
1648 Clouds 1 989 72 9000 12.9 120 00:40 03.03.2020
1649 Clouds 1 991 59 10000 7.7 100 00:20 03.03.2020
1650 Clouds 1 989 72 9000 15.4 120 23:43 02.03.2020
1651 Rain 1 990 64 10000 11.8 110 23:23 02.03.2020
1652 Clouds 1 988 69 10000 16.5 120 22:56 02.03.2020
1653 Clouds 2 988 69 10000 16.5 120 22:56 02.03.2020
1654 Clouds 2 990 64 10000 11.8 100 22:38 02.03.2020
1655 Clouds 1 990 64 10000 11.8 100 22:19 02.03.2020
1656 Snow 1 988 68 3000 16.5 120 21:55 02.03.2020
1657 Snow 2 988 68 3000 16.5 120 21:36 02.03.2020
1658 Clouds 1 990 64 10000 11.3 100 21:18 02.03.2020
1659 Clouds 2 988 74 7000 18 120 20:41 02.03.2020
1660 Clouds 2 989 64 10000 12.3 90 20:22 02.03.2020
1661 Rain 2 987 69 10000 16.5 110 19:59 02.03.2020
1662 Rain 2 987 69 10000 16.5 110 19:39 02.03.2020
1663 Clouds 2 988 64 10000 12.9 100 19:21 02.03.2020
1664 Clouds 2 987 80 10000 15.4 110 18:56 02.03.2020
1665 Clouds 1 987 80 10000 15.4 110 18:38 02.03.2020
1666 Clouds 2 988 64 10000 12.9 110 18:18 02.03.2020
1667 Clouds 2 988 80 10000 14.4 100 17:56 02.03.2020
1668 Clouds 2 988 80 10000 14.4 100 17:38 02.03.2020
1669 Clouds 2 988 80 10000 14.4 100 17:38 02.03.2020
1670 Clouds 2 988 64 10000 12.3 110 17:20 02.03.2020
1671 Clouds 2 987 74 10000 16.5 110 16:42 02.03.2020
1672 Clouds 2 988 64 10000 11.8 110 16:23 02.03.2020
1673 Snow 2 987 80 10000 16.5 110 15:57 02.03.2020
1674 Snow 2 987 80 10000 16.5 110 15:38 02.03.2020
1675 Clouds 2 988 55 10000 12.9 100 15:18 02.03.2020
1676 Snow 2 987 74 10000 15.9 110 14:39 02.03.2020
1677 Clouds 2 988 59 10000 11.3 100 14:20 02.03.2020
1678 Snow 2 987 74 5000 15.9 110 13:57 02.03.2020
1679 Snow 2 987 74 5000 15.9 110 13:37 02.03.2020
1680 Clouds 2 988 55 10000 10.8 100 13:18 02.03.2020
1681 Clouds 2 987 69 10000 14.9 100 12:43 02.03.2020
1682 Clouds 2 987 69 10000 14.9 100 12:43 02.03.2020
1683 Clouds 2 988 59 10000 10.8 100 12:19 02.03.2020
1684 Clouds 1 986 74 10000 14.9 100 11:40 02.03.2020
1685 Clouds 1 986 69 10000 15.4 100 11:22 02.03.2020
1686 Clouds 2 986 69 10000 12.3 100 10:59 02.03.2020
1687 Clouds 1 986 69 10000 12.3 100 10:41 02.03.2020
1688 Clouds 1 987 59 10000 12.3 100 10:20 02.03.2020
1689 Clouds 1 986 69 10000 12.3 100 09:55 02.03.2020
1690 Clouds 1 986 69 10000 12.3 100 09:37 02.03.2020
1691 Clouds 1 986 59 10000 13.9 100 09:18 02.03.2020
1692 Clouds 1 985 69 10000 11.8 100 08:40 02.03.2020
1693 Clouds 1 984 59 10000 13.9 90 08:19 02.03.2020
1694 Clouds 1 985 69 10000 10.3 100 07:40 02.03.2020
1695 Clouds 1 985 64 10000 13.4 110 06:57 02.03.2020
1696 Clouds 1 985 64 10000 13.4 110 06:35 02.03.2020
1697 Clouds 1 984 55 10000 10.3 90 05:29 02.03.2020
1698 Clouds 2 983 59 10000 11.8 100 04:19 02.03.2020
1699 Clouds 2 983 59 10000 9.3 90 03:19 02.03.2020
1700 Clouds 2 982 64 10000 13.4 110 02:36 02.03.2020
1701 Clouds 2 982 64 10000 12.9 110 01:42 02.03.2020
1702 Clouds 2 982 59 10000 8.2 100 01:23 02.03.2020
1703 Clouds 2 981 59 10000 10.3 100 00:23 02.03.2020
1704 Clouds 2 980 64 10000 14.4 120 23:56 01.03.2020
1705 Clouds 2 980 64 10000 14.4 120 23:38 01.03.2020
1706 Clouds 2 980 64 10000 12.9 100 23:19 01.03.2020
1707 Clouds 2 980 69 10000 17.5 110 22:42 01.03.2020
1708 Clouds 2 979 59 10000 10.8 100 22:19 01.03.2020
1709 Clouds 2 979 74 10000 15.9 100 21:55 01.03.2020
1710 Clouds 2 979 74 9000 12.3 90 21:37 01.03.2020
1711 Clouds 2 979 74 9000 12.3 90 21:18 01.03.2020
1712 Clouds 2 979 80 10000 14.9 100 20:42 01.03.2020
1713 Clouds 2 978 69 10000 12.9 90 20:24 01.03.2020
1714 Clouds 3 978 74 10000 15.4 90 19:43 01.03.2020
1715 Rain 3 977 64 10000 13.4 90 19:24 01.03.2020
1716 Clouds 3 977 80 10000 11.3 90 18:59 01.03.2020
1717 Clouds 3 977 80 10000 11.3 90 18:40 01.03.2020
1718 Rain 3 976 60 10000 14.9 100 18:19 01.03.2020
1719 Rain 3 977 74 10000 9.8 90 17:57 01.03.2020
1720 Rain 3 977 74 10000 9.8 90 17:39 01.03.2020
1721 Rain 3 976 64 10000 12.9 100 17:20 01.03.2020
1722 Clouds 3 977 70 10000 11.3 90 16:57 01.03.2020
1723 Snow 3 976 64 10000 10.3 90 16:38 01.03.2020
1724 Snow 3 976 64 10000 10.3 90 16:18 01.03.2020
1725 Clouds 3 977 80 10000 10.8 90 15:56 01.03.2020
1726 Clouds 2 977 80 10000 10.8 90 15:37 01.03.2020
1727 Rain 2 977 59 10000 9.8 90 15:19 01.03.2020
1728 Clouds 2 977 74 10000 10.8 90 14:56 01.03.2020
1729 Clouds 2 977 74 10000 10.8 90 14:38 01.03.2020
1730 Rain 2 977 55 10000 8.7 90 14:19 01.03.2020
1731 Clouds 2 977 69 10000 9.3 80 13:54 01.03.2020
1732 Clouds 2 977 69 10000 9.3 80 13:54 01.03.2020
1733 Clouds 2 977 69 10000 9.3 80 13:36 01.03.2020
1734 Clouds 2 977 69 10000 9.3 80 13:36 01.03.2020
1735 Rain 2 977 51 10000 8.7 80 13:18 01.03.2020
1736 Clouds 2 977 64 10000 10.8 80 12:41 01.03.2020
1737 Clouds 2 977 51 10000 7.2 80 12:21 01.03.2020
1738 Clouds 2 977 51 10000 7.2 80 12:21 01.03.2020
1739 Clouds 1 977 74 10000 11.3 70 11:43 01.03.2020
1740 Clouds 1 977 51 10000 7.7 80 11:25 01.03.2020
1741 Clouds 1 977 69 10000 12.3 70 10:57 01.03.2020
1742 Clouds 1 977 69 10000 12.3 70 10:57 01.03.2020
1743 Clouds 1 977 69 10000 12.3 70 10:38 01.03.2020
1744 Clouds 1 977 51 10000 8.7 80 10:20 01.03.2020
1745 Clouds 1 977 74 10000 11.3 70 09:58 01.03.2020
1746 Clouds 1 977 74 10000 11.3 70 09:40 01.03.2020
1747 Clouds 1 977 51 10000 9.3 80 09:21 01.03.2020
1748 Clouds 1 977 74 10000 11.3 70 08:42 01.03.2020
1749 Clouds 1 977 55 10000 7.2 80 08:21 01.03.2020
1750 Clouds 1 977 69 10000 8.7 90 07:43 01.03.2020
1751 Clouds 1 977 55 10000 7.2 80 07:24 01.03.2020
1752 Clouds 1 977 69 10000 8.2 80 06:58 01.03.2020
1753 Clouds 2 977 69 10000 8.2 80 06:38 01.03.2020
1754 Clouds 1 977 55 10000 7.2 90 04:27 01.03.2020
1755 Rain 2 977 74 10000 6.2 70 02:55 01.03.2020
1756 Clouds 1 977 69 10000 5.7 70 01:54 01.03.2020
1757 Clouds 1 977 59 10000 2.1 100 01:33 01.03.2020
1758 Clouds 1 977 74 10000 7.7 80 00:46 01.03.2020
1759 Clouds 2 977 59 10000 5.7 80 00:22 01.03.2020
1760 Clouds 1 977 80 10000 5.1 80 23:54 29.02.2020
1761 Clouds 1 977 80 10000 5.1 80 23:34 29.02.2020
1762 Clouds 2 977 74 10000 5.1 80 22:45 29.02.2020
1763 Clouds 2 977 64 10000 6.7 100 22:26 29.02.2020
1764 Clouds 0 977 74 10000 5.7 30 21:47 29.02.2020
1765 Clouds 0 978 92 10000 8.78 105 21:27 29.02.2020
1766 Rain 0 978 74 10000 5.7 20 20:59 29.02.2020
1767 Rain 0 978 74 10000 5.7 20 20:40 29.02.2020
1768 Clouds 0 977 92 10000 1 170 20:20 29.02.2020
1769 Snow -1 978 100 900 4.6 360 19:41 29.02.2020
1770 Snow -1 978 92 6000 3.21 28 19:22 29.02.2020
1771 Snow -1 978 100 1000 3.1 60 18:59 29.02.2020
1772 Snow -1 978 100 1000 3.1 60 18:39 29.02.2020
1773 Snow -1 978 86 1800 1 300 18:19 29.02.2020
1774 Snow 0 978 92 700 0.5 0 17:55 29.02.2020
1775 Snow 0 978 92 700 0.5 0 17:37 29.02.2020
1776 Snow 0 978 73 1100 1 0 17:18 29.02.2020
1777 Snow 0 978 73 2000 1.5 140 16:43 29.02.2020
1778 Rain 0 978 69 10000 2.1 120 16:19 29.02.2020
1779 Clouds 0 978 73 10000 6.2 10 15:54 29.02.2020
1780 Clouds 0 978 73 10000 6.2 10 15:36 29.02.2020
1781 Clouds 0 978 69 10000 2.1 50 15:18 29.02.2020
1782 Clouds -1 979 73 10000 5.1 360 14:39 29.02.2020
1783 Clouds -1 979 86 10000 1 0 14:21 29.02.2020
1784 Clouds -1 979 79 10000 4.6 350 13:44 29.02.2020
1785 Clouds -1 979 86 10000 1.5 190 13:26 29.02.2020
1786 Clouds -2 979 92 10000 2.6 350 12:56 29.02.2020
1787 Clouds -3 979 92 10000 2.6 350 12:37 29.02.2020
1788 Clouds -3 980 79 10000 0.5 210 12:19 29.02.2020
1789 Clouds -2 980 79 10000 1.5 20 11:44 29.02.2020
1790 Clouds -3 980 79 10000 1 0 11:26 29.02.2020
1791 Clouds -4 980 86 10000 1.5 40 10:51 29.02.2020
1792 Clouds -4 981 79 10000 1 0 10:29 29.02.2020
1793 Clouds -4 981 92 10000 2.6 80 09:52 29.02.2020
1794 Clouds -3 981 86 10000 2.1 90 09:28 29.02.2020
1795 Clouds -3 981 86 10000 2.1 110 08:58 29.02.2020
1796 Clouds -4 981 86 10000 2.1 110 08:39 29.02.2020
1797 Clouds -3 981 86 10000 4.1 100 08:20 29.02.2020
1798 Clouds -3 981 86 10000 2.1 160 07:47 29.02.2020
1799 Clouds -3 981 86 10000 3.1 60 07:22 29.02.2020
1800 Clouds -3 981 86 10000 3.6 140 06:54 29.02.2020
1801 Clouds -3 981 86 10000 4.6 80 06:28 29.02.2020
1802 Clouds -2 981 92 10000 3.6 150 05:50 29.02.2020
1803 Clouds -2 981 80 10000 2.6 70 05:31 29.02.2020
1804 Clouds -1 981 100 10000 3.6 150 03:55 29.02.2020
1805 Clouds -1 982 86 10000 2.6 130 03:24 29.02.2020
1806 Clouds -2 981 92 10000 3.6 170 02:52 29.02.2020
1807 Rain -2 981 100 10000 4.6 170 01:58 29.02.2020
1808 Clouds -3 981 100 10000 4.1 160 00:51 29.02.2020
1809 Clouds -3 981 86 10000 2.1 130 00:27 29.02.2020
1810 Fog -1 981 100 10000 4.1 150 23:41 28.02.2020
1811 Clouds -1 981 86 10000 3.1 70 23:22 28.02.2020
1812 Clouds -1 980 100 10000 3.1 140 22:43 28.02.2020
1813 Snow -1 981 77 7000 2.1 100 22:22 28.02.2020
1814 Rain -1 980 92 10000 2.6 140 21:42 28.02.2020
1815 Rain -1 980 77 10000 3.6 90 21:22 28.02.2020
1816 Snow -1 980 100 10000 3.1 110 20:59 28.02.2020
1817 Snow -1 980 100 10000 3.1 110 20:39 28.02.2020
1818 Snow -1 980 71 10000 3.6 90 20:20 28.02.2020
1819 Snow -1 980 100 1500 4.1 140 19:57 28.02.2020
1820 Snow -1 980 100 1500 4.1 140 19:39 28.02.2020
1821 Clouds 0 980 71 10000 4.1 100 19:20 28.02.2020
1822 Rain 0 980 71 10000 2.6 140 18:47 28.02.2020
1823 Rain 0 980 71 10000 2.6 140 18:47 28.02.2020
1824 Clouds 0 980 74 10000 4.6 80 18:28 28.02.2020
1825 Rain 0 980 92 10000 3.6 110 17:58 28.02.2020
1826 Rain 0 980 92 10000 3.6 110 17:39 28.02.2020
1827 Rain 0 980 92 10000 3.6 110 17:39 28.02.2020
1828 Clouds 0 980 74 10000 5.1 70 17:20 28.02.2020
1829 Clouds 1 980 80 10000 6.7 110 16:43 28.02.2020
1830 Clouds 1 980 74 10000 5.7 90 16:20 28.02.2020
1831 Clouds 1 980 86 10000 5.1 90 15:57 28.02.2020
1832 Clouds 1 980 86 10000 5.1 90 15:39 28.02.2020
1833 Rain 1 981 80 10000 6.7 80 15:19 28.02.2020
1834 Clouds 1 981 86 10000 4.6 100 14:55 28.02.2020
1835 Clouds 1 981 86 10000 4.6 100 14:37 28.02.2020
1836 Rain 0 981 74 10000 8.2 90 14:18 28.02.2020
1837 Snow 0 981 83 10000 6.7 80 13:41 28.02.2020
1838 Snow 0 981 81 10000 6.7 80 13:20 28.02.2020
1839 Snow 0 981 81 4000 9.8 90 12:56 28.02.2020
1840 Snow 0 981 81 4000 9.8 90 12:37 28.02.2020
1841 Snow 0 982 81 10000 7.2 90 12:18 28.02.2020
1842 Snow 0 982 81 1500 8.2 80 11:41 28.02.2020
1843 Snow 0 982 86 10000 7.2 90 11:22 28.02.2020
1844 Clouds 0 982 86 10000 7.7 80 10:54 28.02.2020
1845 Clouds 0 982 86 10000 7.7 80 10:54 28.02.2020
1846 Clouds 0 982 86 10000 7.7 80 10:36 28.02.2020
1847 Clouds -1 983 86 10000 6.2 80 10:18 28.02.2020
1848 Snow -1 983 100 3000 9.3 80 09:40 28.02.2020
1849 Rain -1 984 86 8000 6.7 80 09:20 28.02.2020
1850 Snow -1 983 100 3000 9.3 80 08:42 28.02.2020
1851 Snow -1 984 92 5000 6.2 80 08:20 28.02.2020
1852 Snow -1 983 77 50 9.8 80 07:46 28.02.2020
1853 Snow -1 985 92 600 8.2 100 07:26 28.02.2020
1854 Rain -1 983 77 10000 5.7 110 06:52 28.02.2020
1855 Snow -1 984 86 8000 8.2 90 06:33 28.02.2020
1856 Clouds 0 984 77 8000 6.7 110 05:30 28.02.2020
1857 Rain 0 984 86 8000 8.7 130 04:31 28.02.2020
1858 Snow -2 982 92 800 18.5 90 03:22 28.02.2020
1859 Snow -2 982 92 2000 12.3 60 02:34 28.02.2020
1860 Snow -2 984 86 1000 13.9 90 01:48 28.02.2020
1861 Clouds -2 986 79 3000 17 70 00:32 28.02.2020
1862 Clouds -2 987 79 6000 14.9 70 23:47 27.02.2020
1863 Clouds -2 986 68 10000 13.4 80 23:23 27.02.2020
1864 Clouds -2 988 79 6000 13.9 70 22:59 27.02.2020
1865 Clouds -3 988 79 6000 13.9 70 22:40 27.02.2020
1866 Clouds -3 988 68 10000 11.3 80 22:21 27.02.2020
1867 Clouds -2 988 79 6000 14.4 70 21:42 27.02.2020
1868 Clouds -2 989 68 6000 12.3 90 21:24 27.02.2020
1869 Snow -3 989 79 5000 11.3 70 20:59 27.02.2020
1870 Snow -3 989 79 5000 11.3 70 20:41 27.02.2020
1871 Snow -3 989 79 6000 11.8 80 20:23 27.02.2020
1872 Snow -3 989 79 6000 11.8 80 20:23 27.02.2020
1873 Snow -3 990 79 3500 10.8 70 19:57 27.02.2020
1874 Snow -3 990 79 3500 10.8 70 19:39 27.02.2020
1875 Clouds -3 990 79 8000 11.8 80 19:21 27.02.2020
1876 Clouds -4 990 86 8000 10.3 80 18:55 27.02.2020
1877 Clouds -3 990 86 8000 10.3 80 18:37 27.02.2020
1878 Snow -3 991 86 500 9.8 70 18:18 27.02.2020
1879 Snow -3 992 86 1500 8.2 80 17:54 27.02.2020
1880 Snow -3 992 86 1500 8.2 80 17:36 27.02.2020
1881 Clouds -3 992 86 7000 7.7 80 17:18 27.02.2020
1882 Snow -3 993 86 700 8.2 80 16:41 27.02.2020
1883 Snow -3 993 86 2000 8.7 80 16:20 27.02.2020
1884 Snow -3 993 86 500 7.2 70 15:59 27.02.2020
1885 Snow -3 993 86 500 7.2 70 15:38 27.02.2020
1886 Snow -3 993 86 500 7.2 70 15:38 27.02.2020
1887 Snow -3 994 79 10000 7.2 50 15:19 27.02.2020
1888 Snow -3 993 100 250 10.8 100 14:58 27.02.2020
1889 Snow -3 993 100 250 10.8 100 14:37 27.02.2020
1890 Rain -3 994 79 10000 4.6 80 14:19 27.02.2020
1891 Snow -4 993 100 700 11.3 80 13:42 27.02.2020
1892 Snow -4 994 85 1500 6.2 70 13:21 27.02.2020
1893 Rain -3 992 92 5000 10.8 90 12:56 27.02.2020
1894 Rain -3 992 92 5000 10.8 90 12:38 27.02.2020
1895 Snow -3 994 85 500 9.8 90 12:18 27.02.2020
1896 Snow -3 993 92 2000 9.8 90 11:41 27.02.2020
1897 Snow -4 994 85 3500 7.7 70 11:21 27.02.2020
1898 Snow -4 994 85 3500 7.7 70 11:21 27.02.2020
1899 Snow -4 993 100 2000 11.3 90 10:44 27.02.2020
1900 Snow -4 994 85 1000 7.7 80 10:24 27.02.2020
1901 Snow -4 993 92 3000 9.8 80 09:49 27.02.2020
1902 Snow -4 994 92 500 7.7 80 09:30 27.02.2020
1903 Rain -4 993 86 10000 5.7 100 08:58 27.02.2020
1904 Rain -4 993 86 10000 5.7 100 08:40 27.02.2020
1905 Snow -4 994 92 500 10.8 90 08:22 27.02.2020
1906 Snow -5 994 92 600 8.2 90 07:44 27.02.2020
1907 Snow -4 993 79 1000 10.3 90 07:25 27.02.2020
1908 Snow -4 993 79 1000 6.2 80 06:48 27.02.2020
1909 Snow -4 992 100 2000 8.46 96 05:48 27.02.2020
1910 Snow -4 993 100 1000 10.8 100 03:42 27.02.2020
1911 Clouds -3 994 54 10000 11.3 90 02:22 27.02.2020
1912 Clouds -3 993 68 10000 11.3 80 00:46 27.02.2020
1913 Clouds -3 994 54 10000 8.2 70 00:26 27.02.2020
1914 Clouds -3 993 68 10000 11.3 80 23:40 26.02.2020
1915 Clouds -5 995 60 0 8.83 85 23:19 26.02.2020
1916 Clouds -5 995 60 0 8.83 85 22:58 26.02.2020
1917 Clouds -5 995 60 0 8.83 85 22:39 26.02.2020
1918 Clouds -4 994 59 0 4.02 73 22:20 26.02.2020
1919 Clouds -4 994 59 0 4.02 73 21:56 26.02.2020
1920 Clouds -5 995 60 0 8.83 85 21:37 26.02.2020
1921 Clouds -4 994 49 10000 6.2 90 21:18 26.02.2020
1922 Clouds -4 994 49 10000 6.2 90 20:55 26.02.2020
1923 Clouds -4 994 49 10000 6.2 90 20:37 26.02.2020
1924 Clouds -4 994 49 10000 6.2 90 20:37 26.02.2020
1925 Clouds -4 994 49 10000 6.2 90 20:18 26.02.2020
1926 Clouds -4 993 63 10000 9.3 60 19:46 26.02.2020
1927 Clouds -4 994 53 10000 4.1 100 19:21 26.02.2020
1928 Clouds -4 994 50 10000 7.7 60 18:59 26.02.2020
1929 Clouds -3 994 50 10000 7.7 60 18:40 26.02.2020
1930 Clouds -3 994 50 10000 3.6 70 18:22 26.02.2020
1931 Clouds -3 994 54 10000 7.7 60 17:56 26.02.2020
1932 Clouds -3 994 54 10000 7.7 60 17:37 26.02.2020
1933 Clouds -3 994 50 10000 5.1 60 17:18 26.02.2020
1934 Clouds -2 994 54 10000 7.7 70 16:43 26.02.2020
1935 -273 0 0 0 0 0 16:22 26.02.2020
1936 Clouds -3 994 58 10000 8.2 60 15:56 26.02.2020
1937 Clouds -2 994 58 10000 8.2 60 15:38 26.02.2020
1938 Clouds -2 994 46 10000 4.6 50 15:19 26.02.2020
1939 Clouds -2 994 54 10000 6.2 50 14:42 26.02.2020
1940 Clouds -2 994 46 10000 3.6 60 14:22 26.02.2020
1941 Clouds -2 994 58 10000 6.7 50 13:43 26.02.2020
1942 Clouds -2 994 54 10000 4.6 60 13:22 26.02.2020
1943 Clouds -2 993 58 10000 8.7 60 12:42 26.02.2020
1944 Clouds -2 994 50 10000 5.1 80 12:23 26.02.2020
1945 Clouds -2 994 63 10000 6.2 60 11:59 26.02.2020
1946 Clouds -3 994 63 10000 6.2 60 11:41 26.02.2020
1947 Clouds -3 993 50 10000 4.6 80 11:22 26.02.2020
1948 Clouds -3 993 63 10000 6.7 40 10:58 26.02.2020
1949 Clouds -3 993 63 10000 6.7 40 10:39 26.02.2020
1950 Clouds -3 993 54 10000 3.6 50 10:20 26.02.2020
1951 Clouds -3 993 68 10000 7.2 30 09:43 26.02.2020
1952 Clouds -3 993 54 10000 3.1 40 09:22 26.02.2020
1953 Clouds -3 992 68 10000 7.7 40 08:55 26.02.2020
1954 Clouds -3 992 68 10000 7.7 40 08:36 26.02.2020
1955 Clouds -3 992 50 10000 5.7 70 08:18 26.02.2020
1956 Clouds -3 992 68 10000 6.7 40 07:41 26.02.2020
1957 Clouds -3 992 50 10000 4.6 60 07:23 26.02.2020
1958 Clouds -2 992 68 10000 7.2 40 06:49 26.02.2020
1959 Clouds -2 992 54 10000 4.1 50 06:31 26.02.2020
1960 Clouds -3 991 74 10000 7.2 40 05:48 26.02.2020
1961 Clouds -3 992 58 10000 2.1 0 05:19 26.02.2020
1962 Clouds -3 991 79 10000 9.3 30 03:45 26.02.2020
1963 Clouds -1 991 67 10000 3.6 20 02:18 26.02.2020
1964 Clouds -2 990 74 10000 8.2 40 01:38 26.02.2020
1965 Clouds -2 990 74 10000 6.2 30 00:47 26.02.2020
1966 Clouds -2 990 68 10000 3.1 360 00:21 26.02.2020
1967 Clouds -2 990 68 10000 3.1 360 00:21 26.02.2020
1968 Clouds -2 989 74 10000 4.1 30 23:43 25.02.2020
1969 Clouds -2 989 67 10000 4.1 50 23:25 25.02.2020
1970 Clouds -2 989 79 10000 2.1 20 22:58 25.02.2020
1971 Clouds -2 989 79 10000 2.1 20 22:40 25.02.2020
1972 Clouds -2 989 63 10000 2.1 20 22:19 25.02.2020
1973 Clouds -2 989 63 10000 1 0 21:38 25.02.2020
1974 Clouds -3 989 63 10000 1 0 21:20 25.02.2020
1975 Clouds -3 989 63 10000 1 0 21:20 25.02.2020
1976 Clouds -3 988 79 10000 2.6 70 20:57 25.02.2020
1977 Clouds -4 988 79 10000 2.6 70 20:39 25.02.2020
1978 Clouds -4 988 73 10000 1 0 20:20 25.02.2020
1979 Clouds -3 988 74 10000 2.6 30 19:58 25.02.2020
1980 Clouds -3 988 74 10000 2.6 30 19:40 25.02.2020
1981 Clouds -3 988 63 10000 2.6 40 19:19 25.02.2020
1982 Rain -3 987 68 10000 1.5 30 18:41 25.02.2020
1983 Clouds -3 987 63 10000 2.6 40 18:21 25.02.2020
1984 Clouds -3 987 63 10000 2.6 40 18:21 25.02.2020
1985 Rain -3 987 80 10000 1.5 30 17:57 25.02.2020
1986 Clouds -3 987 68 10000 1 10 17:37 25.02.2020
1987 Clouds -3 987 68 10000 1 10 17:19 25.02.2020
1988 Rain -3 987 80 10000 2.6 40 16:58 25.02.2020
1989 Rain -2 987 80 10000 2.6 40 16:39 25.02.2020
1990 Clouds -2 987 57 10000 2.6 80 16:21 25.02.2020
1991 Rain -2 987 57 10000 3.1 50 15:56 25.02.2020
1992 Rain -2 987 57 10000 3.1 50 15:37 25.02.2020
1993 Clouds -2 987 57 10000 2.6 60 15:18 25.02.2020
1994 Clouds -2 986 57 10000 4.6 70 14:54 25.02.2020
1995 Clouds -2 986 57 10000 4.6 70 14:36 25.02.2020
1996 Rain -2 986 64 10000 4.13 85 14:18 25.02.2020
1997 Clouds -2 986 92 10000 3.1 70 13:54 25.02.2020
1998 Clouds -2 986 92 10000 3.1 70 13:54 25.02.2020
1999 Clouds -2 986 92 10000 3.1 70 13:36 25.02.2020
2000 Rain -2 986 70 10000 3.1 60 13:18 25.02.2020
2001 Clouds -3 986 92 10000 1.5 40 12:40 25.02.2020
2002 Clouds -3 986 74 10000 3.6 70 12:20 25.02.2020
2003 Clouds -3 985 92 10000 2.6 80 11:56 25.02.2020
2004 Clouds -4 985 92 10000 2.6 80 11:38 25.02.2020
2005 Snow -3 985 79 10000 3.6 90 11:19 25.02.2020
2006 Clouds -4 985 86 10000 2.6 110 10:57 25.02.2020
2007 Clouds -3 985 86 10000 2.6 110 10:39 25.02.2020
2008 Clouds -3 985 79 10000 3.1 70 10:20 25.02.2020
2009 Clouds -4 985 92 10000 2.1 90 09:41 25.02.2020
2010 Clouds -3 985 86 10000 3.1 50 09:20 25.02.2020
2011 Clouds -3 984 92 10000 4.6 130 08:45 25.02.2020
2012 Clouds -3 985 86 10000 4.1 90 08:26 25.02.2020
2013 Rain -4 984 100 10000 5.1 120 07:56 25.02.2020
2014 Rain -4 984 100 10000 5.1 120 07:36 25.02.2020
2015 Clouds -3 985 92 10000 1 0 07:18 25.02.2020
2016 Snow -4 985 92 7000 3.1 90 06:27 25.02.2020
2017 Rain -3 985 86 10000 2.6 100 05:24 25.02.2020
2018 Rain -3 985 100 10000 4.1 120 02:54 25.02.2020
2019 Clouds -4 986 79 10000 4.1 80 01:30 25.02.2020
2020 Rain -4 985 86 10000 4.1 140 00:43 25.02.2020
2021 Clouds -4 986 86 10000 3.1 100 00:22 25.02.2020
2022 Rain -4 986 86 10000 4.1 140 23:40 24.02.2020
2023 Clouds -4 986 86 10000 2.6 130 23:20 24.02.2020
2024 Rain -4 986 92 10000 3.1 160 22:39 24.02.2020
2025 Clouds -3 987 92 10000 2.6 120 22:19 24.02.2020
2026 Rain -3 987 92 10000 3.1 240 21:57 24.02.2020
2027 Rain -3 987 92 10000 3.1 240 21:39 24.02.2020
2028 Rain -2 987 86 10000 1.5 160 21:19 24.02.2020
2029 Rain -2 987 86 10000 3.1 270 20:58 24.02.2020
2030 Rain -2 987 86 10000 3.1 270 20:39 24.02.2020
2031 Rain -2 987 86 10000 2.6 130 20:19 24.02.2020
2032 Rain -2 987 73 10000 4.6 240 19:56 24.02.2020
2033 Rain -1 987 73 10000 4.6 240 19:38 24.02.2020
2034 Rain -2 987 92 10000 2.6 150 19:19 24.02.2020
2035 Rain -1 987 73 10000 4.6 250 18:42 24.02.2020
2036 Snow -1 988 73 6000 3.1 220 18:24 24.02.2020
2037 Rain -1 987 73 10000 4.1 250 17:58 24.02.2020
2038 Rain 0 987 73 10000 4.1 250 17:39 24.02.2020
2039 Clouds 0 988 79 10000 3.6 190 17:20 24.02.2020
2040 Rain 0 988 86 10000 4.6 240 16:58 24.02.2020
2041 Rain 1 988 86 10000 4.6 240 16:38 24.02.2020
2042 Rain 0 988 79 10000 2.6 180 16:20 24.02.2020
2043 Snow 0 988 79 1300 8.7 230 15:57 24.02.2020
2044 Snow 0 988 79 1300 8.7 230 15:39 24.02.2020
2045 Rain 0 989 79 10000 3.1 210 15:20 24.02.2020
2046 Rain 1 988 79 10000 4.6 200 14:56 24.02.2020
2047 Rain 1 988 79 10000 4.6 200 14:38 24.02.2020
2048 Rain 1 989 86 10000 2.1 150 14:18 24.02.2020
2049 Snow 1 989 77 3000 5.1 240 13:56 24.02.2020
2050 Rain 0 990 77 10000 3.6 120 13:36 24.02.2020
2051 Rain 0 990 78 10000 3.6 120 13:18 24.02.2020
2052 Rain 0 989 78 10000 6.7 180 12:42 24.02.2020
2053 Snow 0 991 78 10000 4.1 140 12:24 24.02.2020
2054 Rain 0 990 86 10000 4.6 190 11:56 24.02.2020
2055 Rain 0 990 86 10000 4.6 190 11:38 24.02.2020
2056 Snow 0 991 76 10000 4.1 130 11:19 24.02.2020
2057 Snow 0 992 76 1500 4.6 170 10:41 24.02.2020
2058 Rain 0 992 76 10000 4.6 140 10:22 24.02.2020
2059 Rain 0 991 76 10000 5.1 170 09:40 24.02.2020
2060 Rain 1 992 76 10000 5.1 140 09:19 24.02.2020
2061 Rain 0 992 76 10000 6.7 170 08:53 24.02.2020
2062 Rain 0 993 76 10000 3.6 140 08:30 24.02.2020
2063 Rain 0 993 76 10000 6.7 200 07:56 24.02.2020
2064 Rain 0 993 76 10000 6.7 200 07:36 24.02.2020
2065 Rain 0 993 76 10000 6.7 200 07:36 24.02.2020
2066 Rain 0 994 86 10000 5.7 200 06:55 24.02.2020
2067 Rain 1 995 76 10000 2.6 160 06:28 24.02.2020
2068 Clouds 0 995 76 10000 6.2 210 05:47 24.02.2020
2069 Rain 0 996 76 10000 5.1 200 05:27 24.02.2020
2070 Rain 0 998 73 10000 7.7 190 03:18 24.02.2020
2071 Snow 0 999 73 3500 4.6 210 02:45 24.02.2020
2072 Snow -1 999 92 4000 2.6 120 01:40 24.02.2020
2073 Snow 0 999 96 3000 0.5 210 00:51 24.02.2020
2074 Rain 0 1000 96 10000 4.1 230 00:21 24.02.2020
2075 Clouds 0 1000 96 10000 3.1 230 23:58 23.02.2020
2076 Clouds 0 1000 96 10000 3.1 230 23:58 23.02.2020
2077 Clouds 0 1000 96 10000 3.1 230 23:38 23.02.2020
2078 Snow 0 1000 69 10000 7.2 200 23:18 23.02.2020
2079 Snow 0 1000 69 5000 12.3 220 22:54 23.02.2020
2080 Snow 0 1000 69 5000 12.3 220 22:36 23.02.2020
2081 Snow 0 1001 69 10000 3.6 260 22:18 23.02.2020
2082 Snow 1 1000 69 4000 7.7 210 21:43 23.02.2020
2083 Rain 0 1000 69 10000 5.7 200 21:19 23.02.2020
2084 Clouds 0 1000 69 10000 11.3 240 20:55 23.02.2020
2085 Clouds 0 1000 69 10000 11.3 240 20:37 23.02.2020
2086 Snow 0 1000 69 1800 5.1 210 20:19 23.02.2020
2087 Clouds 0 1000 69 10000 4.1 230 19:55 23.02.2020
2088 Clouds 0 1000 69 10000 4.1 230 19:36 23.02.2020
2089 Snow 0 1000 69 1000 4.1 260 19:18 23.02.2020
2090 Snow 0 1000 69 800 5.7 250 18:41 23.02.2020
2091 Snow 0 999 86 8000 10.3 220 18:21 23.02.2020
2092 Snow 1 999 69 3000 8.7 210 17:59 23.02.2020
2093 Snow 1 999 69 3000 8.7 210 17:41 23.02.2020
2094 Clouds 0 999 94 10000 5.1 180 17:22 23.02.2020
2095 Snow 0 1000 94 1500 5.7 190 16:58 23.02.2020
2096 Snow 0 1000 94 1500 5.7 190 16:40 23.02.2020
2097 Snow 0 1000 94 3500 6.7 220 16:21 23.02.2020
2098 Snow 0 1000 94 8000 6.7 230 15:55 23.02.2020
2099 Snow 0 1000 94 8000 6.7 230 15:37 23.02.2020
2100 Clouds 0 1000 94 10000 5.1 200 15:19 23.02.2020
2101 Rain 0 1000 69 10000 7.7 230 14:55 23.02.2020
2102 Rain 0 1000 69 10000 7.7 230 14:37 23.02.2020
2103 Snow 0 1000 62 10000 8.7 220 14:19 23.02.2020
2104 Rain 0 1000 62 10000 7.7 240 13:55 23.02.2020
2105 Rain 0 1000 62 10000 7.7 240 13:37 23.02.2020
2106 Clouds 0 1000 50 10000 10.3 270 13:19 23.02.2020
2107 Rain -1 999 55 10000 10.8 260 12:40 23.02.2020
2108 Rain -1 999 55 10000 10.8 260 12:40 23.02.2020
2109 Snow -1 999 80 10000 12.3 250 12:21 23.02.2020
2110 Clouds -1 998 68 10000 13.4 270 11:39 23.02.2020
2111 Rain -1 997 60 10000 11.3 270 11:20 23.02.2020
2112 Rain -1 997 60 10000 11.3 270 11:20 23.02.2020
2113 Clouds -1 997 60 10000 13.9 270 10:58 23.02.2020
2114 Clouds -1 997 60 10000 13.9 270 10:40 23.02.2020
2115 Rain -1 996 60 10000 10.8 280 10:22 23.02.2020
2116 Snow -2 995 86 400 13.9 270 09:56 23.02.2020
2117 Snow -2 995 86 400 13.9 270 09:38 23.02.2020
2118 Rain -2 994 60 10000 7.7 270 09:19 23.02.2020
2119 Clouds -2 994 59 10000 9.8 270 08:50 23.02.2020
2120 Rain -2 993 60 10000 4.1 290 08:29 23.02.2020
2121 Rain -1 993 74 10000 10.8 270 07:48 23.02.2020
2122 Rain -2 992 92 10000 7.2 270 07:29 23.02.2020
2123 Clouds -3 991 92 1900 6.7 180 06:27 23.02.2020
2124 Rain -2 990 86 10000 9.8 270 05:39 23.02.2020
2125 Rain -3 990 64 10000 4.6 250 04:24 23.02.2020
2126 Rain -3 990 80 10000 5.7 250 02:53 23.02.2020
2127 Clouds -3 989 74 10000 8.2 240 01:47 23.02.2020
2128 Clouds -3 990 74 6000 5.1 140 01:22 23.02.2020
2129 Snow -3 989 84 10000 14.4 250 00:45 23.02.2020
2130 Clouds -4 989 74 10000 2.6 130 00:23 23.02.2020
2131 Clouds -4 989 86 10000 3.6 150 23:43 22.02.2020
2132 Clouds -3 989 74 10000 2.1 130 23:25 22.02.2020
2133 Snow -3 989 80 10000 3.1 200 22:46 22.02.2020
2134 Snow -3 989 80 10000 3.1 200 22:46 22.02.2020
2135 Clouds -4 989 79 10000 1.5 130 22:22 22.02.2020
2136 Clouds -4 988 74 10000 2.1 150 21:59 22.02.2020
2137 Clouds -3 988 74 10000 2.1 150 21:39 22.02.2020
2138 Clouds -4 988 79 10000 2.1 170 21:21 22.02.2020
2139 Clouds -3 987 80 10000 1 170 20:41 22.02.2020
2140 Clouds -2 987 74 10000 2.1 360 20:23 22.02.2020
2141 Clouds -1 987 81 10000 0.5 80 19:43 22.02.2020
2142 Clouds -1 986 81 10000 3.1 340 19:25 22.02.2020
2143 Clouds -1 986 81 10000 2.1 30 18:59 22.02.2020
2144 Clouds 0 986 81 10000 2.1 30 18:39 22.02.2020
2145 Clouds 0 985 81 10000 3.1 320 18:20 22.02.2020
2146 Clouds 0 985 81 10000 2.1 360 17:55 22.02.2020
2147 Clouds 0 985 81 10000 2.1 360 17:37 22.02.2020
2148 Clouds 0 985 81 10000 2.1 360 17:37 22.02.2020
2149 Clouds 0 984 59 10000 3.1 320 17:19 22.02.2020
2150 Clouds 0 984 75 10000 4.1 360 16:54 22.02.2020
2151 Clouds 0 984 75 10000 4.1 360 16:36 22.02.2020
2152 Clouds 0 983 64 10000 4.6 330 16:18 22.02.2020
2153 Clouds 0 983 75 10000 5.1 10 15:42 22.02.2020
2154 Clouds 1 982 64 10000 2.1 200 15:22 22.02.2020
2155 Clouds 0 982 75 10000 5.7 360 14:43 22.02.2020
2156 Clouds 0 981 64 10000 2.6 360 14:22 22.02.2020
2157 Clouds -1 981 78 10000 6.2 10 13:55 22.02.2020
2158 Clouds -1 981 78 10000 6.2 10 13:36 22.02.2020
2159 Clouds -1 979 79 10000 2.6 180 13:18 22.02.2020
2160 Clouds -1 979 78 10000 6.7 10 12:41 22.02.2020
2161 Clouds -2 978 74 10000 2.1 170 12:22 22.02.2020
2162 Clouds -2 978 80 10000 5.7 20 11:44 22.02.2020
2163 Clouds -2 976 79 10000 1.5 200 11:26 22.02.2020
2164 Clouds -2 976 86 10000 6.2 20 10:56 22.02.2020
2165 Clouds -2 976 86 10000 6.2 20 10:38 22.02.2020
2166 Clouds -2 975 79 10000 1.5 200 10:19 22.02.2020
2167 Clouds -2 974 86 10000 9.3 10 09:56 22.02.2020
2168 Clouds -2 974 86 10000 9.3 10 09:38 22.02.2020
2169 Clouds -1 974 79 10000 3.1 150 09:19 22.02.2020
2170 Clouds -2 973 86 10000 6.7 10 08:44 22.02.2020
2171 Clouds -2 972 79 10000 1.5 150 08:26 22.02.2020
2172 Clouds -1 972 86 10000 8.2 20 07:43 22.02.2020
2173 Clouds -1 971 68 10000 2.1 0 07:19 22.02.2020
2174 Clouds 0 971 85 10000 9.3 20 06:46 22.02.2020
2175 Clouds 0 970 85 10000 9.3 10 06:26 22.02.2020
2176 Clouds -1 968 74 10000 2.1 110 04:30 22.02.2020
2177 Clouds -2 967 80 10000 8.2 20 02:46 22.02.2020
2178 Clouds -2 967 74 10000 1 0 02:21 22.02.2020
2179 Clouds -1 967 80 10000 7.7 20 01:41 22.02.2020
2180 Clouds -1 966 74 10000 2.1 250 01:22 22.02.2020
2181 Clouds 0 966 81 10000 6.7 20 00:40 22.02.2020
2182 Clouds -1 966 81 10000 3.1 220 00:20 22.02.2020
2183 Clouds 0 965 81 10000 7.7 20 23:42 21.02.2020
2184 Clouds 0 965 64 10000 4.1 360 23:21 21.02.2020
2185 Clouds 0 965 82 10000 9.3 30 22:45 21.02.2020
2186 Clouds 0 965 64 10000 2.1 40 22:27 21.02.2020
2187 Clouds 0 964 80 10000 7.7 50 21:58 21.02.2020
2188 Clouds 0 964 80 10000 7.7 50 21:40 21.02.2020
2189 Clouds 0 964 69 10000 7.2 30 21:21 21.02.2020
2190 Clouds 1 964 80 10000 8.7 50 20:48 21.02.2020
2191 Clouds 1 964 64 10000 5.1 30 20:28 21.02.2020
2192 Clouds 1 963 80 10000 8.7 50 19:41 21.02.2020
2193 Clouds 1 963 64 10000 7.2 30 19:23 21.02.2020
2194 Clouds 1 963 80 10000 6.7 40 18:55 21.02.2020
2195 Clouds 1 963 80 10000 6.7 40 18:37 21.02.2020
2196 Clouds 1 962 69 10000 1.5 170 18:19 21.02.2020
2197 Clouds 1 962 80 10000 6.7 30 17:40 21.02.2020
2198 Clouds 1 962 64 10000 4.6 10 17:21 21.02.2020
2199 Clouds 1 962 80 10000 6.7 20 16:57 21.02.2020
2200 Clouds 1 962 80 10000 6.7 20 16:39 21.02.2020
2201 Clouds 1 962 69 10000 3.1 180 16:20 21.02.2020
2202 Clouds 1 962 80 10000 5.1 20 15:44 21.02.2020
2203 Clouds 2 962 55 10000 2.1 10 15:19 21.02.2020
2204 Clouds 1 962 80 10000 6.2 20 14:56 21.02.2020
2205 Clouds 1 962 80 10000 6.2 20 14:38 21.02.2020
2206 Clouds 1 962 55 10000 3.6 10 14:19 21.02.2020
2207 Clouds 1 962 80 10000 7.7 20 13:42 21.02.2020
2208 Clouds 1 962 80 10000 7.7 20 13:42 21.02.2020
2209 Clouds 1 962 59 10000 4.6 40 13:23 21.02.2020
2210 Clouds 1 961 74 10000 8.7 30 12:54 21.02.2020
2211 Clouds 0 961 64 10000 3.1 20 12:36 21.02.2020
2212 Clouds 0 961 64 10000 3.1 20 12:18 21.02.2020
2213 Clouds -1 961 73 10000 9.8 30 11:40 21.02.2020
2214 Clouds -1 961 68 10000 1 0 11:21 21.02.2020
2215 Clouds 0 961 66 10000 8.7 40 10:56 21.02.2020
2216 Clouds 0 961 66 10000 8.7 40 10:38 21.02.2020
2217 Clouds 0 961 66 10000 8.7 40 10:38 21.02.2020
2218 Clouds 0 961 64 10000 5.7 40 10:19 21.02.2020
2219 Clouds 0 961 66 10000 9.8 30 09:56 21.02.2020
2220 Clouds 0 961 66 10000 9.8 30 09:37 21.02.2020
2221 Clouds 0 961 59 10000 6.7 40 09:18 21.02.2020
2222 Clouds -1 961 66 10000 8.7 40 08:41 21.02.2020
2223 Snow 0 961 68 10000 6.7 20 08:22 21.02.2020
2224 Snow -1 961 68 10000 8.7 40 07:58 21.02.2020
2225 Snow 0 961 68 10000 8.7 40 07:40 21.02.2020
2226 Snow 0 961 68 10000 3.6 20 07:18 21.02.2020
2227 Snow 0 961 68 10000 6.2 40 06:50 21.02.2020
2228 Snow 0 961 55 10000 3.6 40 06:30 21.02.2020
2229 Snow 0 961 68 10000 6.7 30 05:42 21.02.2020
2230 Clouds 0 962 64 10000 6.2 30 04:33 21.02.2020
2231 Clouds -1 963 74 10000 6.7 50 03:58 21.02.2020
2232 Clouds -1 963 64 10000 6.2 70 03:31 21.02.2020
2233 Clouds -1 965 65 10000 10.8 60 01:51 21.02.2020
2234 Clouds -1 967 68 10000 6.2 40 01:24 21.02.2020
2235 Clouds -1 966 68 10000 9.3 60 00:45 21.02.2020
2236 Clouds -1 968 68 10000 2.6 60 00:23 21.02.2020
2237 Clouds -1 968 68 10000 2.6 60 00:23 21.02.2020
2238 Clouds -1 968 68 10000 6.7 50 23:46 20.02.2020
2239 Clouds -1 970 68 10000 5.1 70 23:25 20.02.2020
2240 Clouds -1 969 74 10000 5.1 60 22:57 20.02.2020
2241 Clouds 0 969 74 10000 5.1 60 22:38 20.02.2020
2242 Clouds 0 970 77 10000 5.7 90 22:20 20.02.2020
2243 Rain -1 970 100 10000 3.1 40 21:56 20.02.2020
2244 Rain -1 970 100 10000 3.1 40 21:37 20.02.2020
2245 Rain -1 970 100 10000 3.1 40 21:37 20.02.2020
2246 Rain -1 970 100 10000 3.1 40 21:37 20.02.2020
2247 Rain -1 970 100 10000 3.1 40 21:37 20.02.2020
2248 Rain -1 970 100 10000 3.1 40 21:37 20.02.2020
2249 Clouds -1 971 77 10000 2.1 100 21:19 20.02.2020
2250 Clouds 0 971 77 10000 3.1 70 20:54 20.02.2020
2251 Clouds 0 971 77 10000 3.1 70 20:36 20.02.2020
2252 Clouds -1 971 85 10000 3.11 75 20:18 20.02.2020
2253 Clouds 0 971 78 10000 8.2 20 19:56 20.02.2020
2254 Clouds 0 971 78 10000 8.2 20 19:38 20.02.2020
2255 Clouds 0 971 78 10000 8.2 20 19:38 20.02.2020
2256 Clouds 0 971 74 10000 1.5 210 19:20 20.02.2020
2257 Clouds 0 972 78 10000 5.7 10 18:39 20.02.2020
2258 Clouds 0 971 74 10000 2.1 130 18:20 20.02.2020
2259 Clouds 0 972 78 10000 9.3 10 17:42 20.02.2020
2260 Clouds 0 971 69 10000 6.7 20 17:23 20.02.2020
2261 -273 0 0 0 0 0 17:22 20.02.2020
2262 -273 0 0 0 0 0 17:22 20.02.2020
2263 -273 0 0 0 0 0 17:22 20.02.2020
2264 Clouds 0 971 74 10000 9.8 10 16:59 20.02.2020
2265 Clouds 0 971 74 10000 9.8 10 16:40 20.02.2020
2266 Clouds 0 970 69 10000 9.8 10 16:21 20.02.2020
2267 Clouds 1 970 80 10000 11.8 10 15:59 20.02.2020
2268 Clouds 1 970 80 10000 11.8 10 15:41 20.02.2020
2269 Clouds 1 970 74 10000 9.8 20 15:20 20.02.2020
2270 Clouds 1 970 80 10000 9.8 10 14:55 20.02.2020
2271 Clouds 1 970 80 10000 9.8 10 14:36 20.02.2020
2272 Clouds 1 969 74 10000 11.8 10 14:18 20.02.2020
2273 Clouds 1 969 80 10000 11.8 360 13:44 20.02.2020
2274 Rain 1 967 69 10000 12.3 10 13:20 20.02.2020
2275 Snow 1 968 86 10000 9.8 360 12:57 20.02.2020
2276 Snow 1 968 86 10000 9.8 360 12:37 20.02.2020
2277 Rain 1 966 74 10000 9.3 20 12:19 20.02.2020
2278 Drizzle 1 967 86 10000 9.3 360 11:43 20.02.2020
2279 Rain 1 965 74 10000 7.2 30 11:23 20.02.2020
2280 Clouds 0 966 81 10000 10.3 350 10:58 20.02.2020
2281 Clouds 0 966 81 10000 10.3 350 10:40 20.02.2020
2282 Rain 1 964 74 10000 6.7 20 10:21 20.02.2020
2283 Rain 1 964 74 10000 6.7 20 10:21 20.02.2020
2284 Clouds 1 965 81 10000 10.8 350 09:47 20.02.2020
2285 Clouds 1 963 74 10000 6.7 20 09:25 20.02.2020
2286 Clouds 1 964 81 10000 8.7 350 08:59 20.02.2020
2287 Clouds 1 964 81 10000 8.7 350 08:39 20.02.2020
2288 Clouds 1 962 80 10000 9.3 10 08:21 20.02.2020
2289 Clouds 1 963 84 10000 7.7 350 07:45 20.02.2020
2290 Clouds 1 961 80 10000 8.7 10 07:26 20.02.2020
2291 Clouds 1 962 84 10000 7.7 350 06:55 20.02.2020
2292 Clouds 1 961 80 10000 4.6 340 06:27 20.02.2020
2293 Rain 1 962 84 10000 9.3 360 05:47 20.02.2020
2294 Rain 1 961 84 10000 10.3 360 04:56 20.02.2020
2295 Clouds 2 960 74 10000 11.8 360 04:23 20.02.2020
2296 Rain 1 961 84 10000 8.7 360 03:35 20.02.2020
2297 Clouds 1 960 86 10000 6.2 340 02:28 20.02.2020
2298 Snow 1 961 100 4000 10.3 330 01:21 20.02.2020
2299 Snow 1 961 100 4000 10.3 330 00:34 20.02.2020
2300 Snow 1 962 85 1800 10.8 330 23:54 19.02.2020
2301 Snow 0 962 85 4000 6.7 330 23:23 19.02.2020
2302 Snow 0 963 87 1600 13.4 350 22:56 19.02.2020
2303 Snow 0 963 87 1600 13.4 350 22:38 19.02.2020
2304 Snow -1 962 92 2500 11.3 360 22:20 19.02.2020
2305 Snow -1 964 100 800 13.4 360 21:55 19.02.2020
2306 Snow -1 964 100 800 13.4 360 21:37 19.02.2020
2307 Snow -1 964 92 2000 11.8 360 21:18 19.02.2020
2308 Snow -2 965 100 1200 12.9 360 20:55 19.02.2020
2309 Snow -2 965 100 1200 12.9 360 20:36 19.02.2020
2310 Snow -2 965 92 2000 14.9 360 20:18 19.02.2020
2311 Snow -2 967 100 1000 12.9 10 19:55 19.02.2020
2312 Snow -2 967 100 1000 12.9 10 19:36 19.02.2020
2313 Snow -2 967 86 3000 12.9 10 19:18 19.02.2020
2314 Snow -1 968 92 3500 10.3 20 18:56 19.02.2020
2315 Snow -1 968 92 3500 10.3 20 18:37 19.02.2020
2316 Snow -1 969 80 6000 12.3 10 18:19 19.02.2020
2317 Snow -1 970 92 3000 9.3 10 17:42 19.02.2020
2318 Rain -1 971 84 10000 10.8 10 17:19 19.02.2020
2319 Clouds 0 972 69 10000 9.8 20 16:44 19.02.2020
2320 Rain 0 974 59 10000 7.7 20 16:20 19.02.2020
2321 Clouds 0 974 69 10000 9.3 30 15:58 19.02.2020
2322 Clouds 0 974 69 10000 9.3 30 15:39 19.02.2020
2323 Clouds 0 976 59 10000 6.2 30 15:20 19.02.2020
2324 Clouds 1 977 69 10000 8.2 40 14:55 19.02.2020
2325 Clouds 0 977 69 10000 8.2 40 14:37 19.02.2020
2326 Clouds 0 979 59 10000 7.2 70 14:18 19.02.2020
2327 Clouds 0 979 68 10000 10.8 70 13:41 19.02.2020
2328 Clouds 0 981 68 10000 6.2 80 13:20 19.02.2020
2329 Clouds 0 981 68 10000 9.8 70 12:42 19.02.2020
2330 Clouds 0 983 68 10000 6.7 70 12:19 19.02.2020
2331 Clouds -1 983 86 10000 8.2 70 11:59 19.02.2020
2332 Clouds -1 983 86 10000 8.2 70 11:37 19.02.2020
2333 Clouds -1 985 74 10000 8.2 70 11:19 19.02.2020
2334 Clouds -2 985 80 10000 6.7 80 10:57 19.02.2020
2335 Clouds -1 985 80 10000 6.7 80 10:38 19.02.2020
2336 Clouds -2 987 80 10000 5.7 70 10:19 19.02.2020
2337 Rain -2 986 86 10000 6.2 100 09:57 19.02.2020
2338 Rain -3 986 86 10000 6.2 100 09:37 19.02.2020
2339 Clouds -2 988 79 10000 5.1 80 09:18 19.02.2020
2340 Clouds -2 988 79 10000 5.1 80 09:18 19.02.2020
2341 Rain -3 988 92 10000 4.6 80 08:44 19.02.2020
2342 Snow -3 989 86 10000 6.2 80 08:24 19.02.2020
2343 Clouds -2 989 86 10000 4.1 110 07:41 19.02.2020
2344 Rain -3 991 92 10000 4.7 133 07:21 19.02.2020
2345 Rain -3 991 92 10000 4.7 133 07:21 19.02.2020
2346 Clouds -2 990 79 10000 2.6 130 06:53 19.02.2020
2347 Clouds -3 992 79 10000 5.7 100 06:23 19.02.2020
2348 Rain -2 993 79 10000 2.6 110 04:21 19.02.2020
2349 Rain -2 994 86 10000 3.1 190 02:56 19.02.2020
2350 Clouds -1 995 86 10000 3.1 120 02:31 19.02.2020
2351 Snow -1 995 76 10000 4.1 160 01:24 19.02.2020
2352 Rain -1 994 74 10000 3.6 220 00:50 19.02.2020
2353 Snow -1 995 74 10000 3.6 180 00:30 19.02.2020
2354 Clouds 0 994 69 10000 6.2 220 23:44 18.02.2020
2355 Clouds 0 995 74 10000 4.1 190 23:21 18.02.2020
2356 Rain 0 994 69 10000 6.7 230 22:59 18.02.2020
2357 Rain 1 994 69 10000 6.7 230 22:41 18.02.2020
2358 Rain 1 995 86 10000 3.1 160 22:19 18.02.2020
2359 Rain 1 994 74 10000 7.2 240 21:56 18.02.2020
2360 Rain 1 994 74 10000 7.2 240 21:37 18.02.2020
2361 Clouds 1 995 86 8000 3.1 200 21:19 18.02.2020
2362 Rain 1 994 74 10000 7.2 230 20:57 18.02.2020
2363 Rain 1 994 74 10000 7.2 230 20:38 18.02.2020
2364 Rain 1 994 74 10000 7.2 230 20:38 18.02.2020
2365 Snow 1 994 86 10000 4.6 210 20:20 18.02.2020
2366 Clouds 1 994 100 10000 5.1 240 19:43 18.02.2020
2367 Clouds 1 994 100 10000 5.1 240 19:43 18.02.2020
2368 Rain 1 994 80 10000 4.6 180 19:20 18.02.2020
2369 Rain 1 993 94 10000 4.1 260 18:59 18.02.2020
2370 Rain 1 993 94 10000 4.1 260 18:41 18.02.2020
2371 Rain 1 993 69 10000 2.6 170 18:20 18.02.2020
2372 Rain 2 993 80 10000 2.6 140 17:56 18.02.2020
2373 Rain 2 993 80 10000 2.6 140 17:38 18.02.2020
2374 Clouds 2 993 55 10000 2.1 210 17:18 18.02.2020
2375 Clouds 2 993 80 10000 5.1 190 16:39 18.02.2020
2376 Clouds 2 993 59 10000 1.5 180 16:20 18.02.2020
2377 Clouds 2 992 74 10000 2.1 140 15:41 18.02.2020
2378 Clouds 2 992 64 10000 1.5 220 15:20 18.02.2020
2379 Clouds 2 992 80 10000 2.6 100 14:58 18.02.2020
2380 Clouds 2 992 80 10000 2.6 100 14:39 18.02.2020
2381 Rain 2 991 64 10000 3.6 80 14:21 18.02.2020
2382 Clouds 1 991 80 10000 3.1 80 13:56 18.02.2020
2383 Clouds 1 991 80 10000 3.1 80 13:38 18.02.2020
2384 Clouds 1 991 80 10000 3.1 80 13:37 18.02.2020
2385 Rain 1 991 69 10000 1.38 80 13:19 18.02.2020
2386 Clouds 1 991 86 10000 2.1 20 12:42 18.02.2020
2387 Clouds 1 990 62 10000 0.5 0 12:23 18.02.2020
2388 Clouds 0 990 80 10000 2.6 40 11:56 18.02.2020
2389 Clouds 0 990 80 10000 2.6 40 11:37 18.02.2020
2390 Rain -1 990 74 10000 0.5 0 11:18 18.02.2020
2391 Clouds -1 989 73 10000 3.1 50 10:42 18.02.2020
2392 Clouds -1 989 74 10000 0.5 0 10:22 18.02.2020
2393 Clouds -1 988 73 10000 2.6 20 09:56 18.02.2020
2394 Clouds -1 988 73 10000 2.6 20 09:56 18.02.2020
2395 Clouds -1 988 73 10000 2.6 20 09:38 18.02.2020
2396 Clouds -1 988 74 10000 1.5 120 09:19 18.02.2020
2397 Clouds -1 988 73 10000 3.1 30 08:55 18.02.2020
2398 Clouds -1 988 73 10000 3.1 30 08:37 18.02.2020
2399 Clouds -1 988 74 10000 1.5 170 08:18 18.02.2020
2400 Clouds -1 987 75 10000 3.6 30 07:45 18.02.2020
2401 Clouds -1 987 74 10000 1 130 07:25 18.02.2020
2402 Clouds -1 987 86 10000 4.6 30 06:50 18.02.2020
2403 Clouds -1 986 74 10000 1.5 170 06:28 18.02.2020
2404 Clouds 0 986 75 10000 5.1 50 05:47 18.02.2020
2405 Clouds 0 986 68 10000 1 0 05:18 18.02.2020
2406 Clouds -1 985 74 10000 5.7 30 03:49 18.02.2020
2407 Clouds -1 986 74 10000 5.7 30 02:58 18.02.2020
2408 Clouds 0 985 68 10000 1 0 01:25 18.02.2020
2409 Clouds -1 985 77 10000 5.7 40 00:40 18.02.2020
2410 Clouds 0 985 77 10000 1.5 350 00:18 18.02.2020
2411 Clouds 1 985 74 10000 4.6 30 23:39 17.02.2020
2412 Clouds 1 984 64 10000 1 0 23:19 17.02.2020
2413 Clouds 0 984 82 10000 2.1 50 22:58 17.02.2020
2414 Clouds 0 984 82 10000 2.1 50 22:39 17.02.2020
2415 Clouds 0 984 82 10000 1.5 220 22:18 17.02.2020
2416 Clouds 1 984 82 10000 4.1 40 21:39 17.02.2020
2417 Clouds 1 983 55 10000 2.1 110 21:19 17.02.2020
2418 Clouds 1 983 80 10000 4.1 60 20:55 17.02.2020
2419 Clouds 1 983 80 10000 4.1 60 20:37 17.02.2020
2420 Clear 1 982 55 10000 5.7 80 20:18 17.02.2020
2421 Clear 1 982 80 10000 8.2 40 19:43 17.02.2020
2422 Clouds 1 981 55 10000 4.1 80 19:21 17.02.2020
2423 Clear 2 981 74 10000 8.2 40 18:56 17.02.2020
2424 Clear 2 981 74 10000 8.2 40 18:36 17.02.2020
2425 Clear 2 981 74 10000 8.2 40 18:36 17.02.2020
2426 Clear 2 981 74 10000 8.2 40 18:36 17.02.2020
2427 Clouds 2 981 59 10000 3.6 20 18:18 17.02.2020
2428 Clear 2 981 74 10000 8.2 40 17:38 17.02.2020
2429 Clear 2 981 74 10000 8.2 40 17:38 17.02.2020
2430 Clouds 2 980 59 10000 3.6 20 17:20 17.02.2020
2431 Clouds 2 980 74 10000 6.7 40 16:59 17.02.2020
2432 Clouds 2 980 74 10000 6.7 40 16:59 17.02.2020
2433 Clouds 3 980 74 10000 6.7 40 16:40 17.02.2020
2434 Clouds 3 979 55 10000 6.7 20 16:22 17.02.2020
2435 Clouds 3 979 74 10000 8.2 30 15:46 17.02.2020
2436 Clouds 3 978 60 10000 6.7 360 15:28 17.02.2020
2437 Clouds 3 978 78 10000 9.8 30 14:59 17.02.2020
2438 Clouds 3 978 78 10000 9.8 30 14:40 17.02.2020
2439 Clouds 3 977 60 10000 6.7 20 14:22 17.02.2020
2440 Clouds 3 977 60 10000 6.7 20 14:22 17.02.2020
2441 Clouds 3 977 81 10000 8.7 30 13:57 17.02.2020
2442 Clouds 3 977 81 10000 8.7 30 13:57 17.02.2020
2443 Clouds 3 977 81 10000 8.7 30 13:38 17.02.2020
2444 Clouds 2 975 64 10000 10.3 30 13:18 17.02.2020
2445 Clouds 3 974 60 10000 9.8 30 12:43 17.02.2020
2446 Clouds 3 974 60 10000 9.8 30 12:24 17.02.2020
2447 Clouds 3 974 74 10000 8.2 20 11:58 17.02.2020
2448 Clouds 3 974 74 10000 8.2 20 11:39 17.02.2020
2449 Clouds 3 974 74 10000 8.2 20 11:39 17.02.2020
2450 Clouds 3 973 60 10000 9.3 30 11:20 17.02.2020
2451 Clouds 3 973 74 10000 8.7 30 10:55 17.02.2020
2452 Clouds 3 971 60 10000 2.1 0 10:37 17.02.2020
2453 Clouds 3 971 60 10000 2.1 0 10:18 17.02.2020
2454 Clouds 3 971 79 10000 9.8 30 09:41 17.02.2020
2455 Clouds 3 969 60 10000 2.1 10 09:21 17.02.2020
2456 Clouds 2 969 93 10000 8.7 350 08:58 17.02.2020
2457 Clouds 2 969 93 10000 8.7 350 08:39 17.02.2020
2458 Clouds 2 968 80 10000 6.2 330 08:20 17.02.2020
2459 Rain 2 968 80 10000 13.9 330 07:45 17.02.2020
2460 Clouds 2 966 74 10000 9.3 330 07:24 17.02.2020
2461 Clouds 1 968 80 10000 13.4 340 06:52 17.02.2020
2462 Clouds 1 966 80 10000 9.8 330 06:32 17.02.2020
2463 Clouds 1 968 80 10000 13.4 340 05:58 17.02.2020
2464 Clouds 1 968 80 10000 13.4 340 05:38 17.02.2020
2465 Clouds 2 965 69 10000 8.2 360 03:22 17.02.2020
2466 Clouds 2 964 80 10000 12.9 10 01:58 17.02.2020
2467 Clouds 2 962 80 10000 14.9 20 00:51 17.02.2020
2468 Snow 2 962 74 10000 5.7 50 00:22 17.02.2020
2469 Clouds 2 962 78 10000 9.8 20 23:54 16.02.2020
2470 Snow 2 960 74 10000 13.4 360 23:33 16.02.2020
2471 Clouds 2 960 84 10000 11.3 360 22:58 16.02.2020
2472 Clouds 2 960 84 10000 11.3 360 22:58 16.02.2020
2473 Clouds 2 960 84 10000 11.3 360 22:39 16.02.2020
2474 Clouds 2 960 84 10000 11.3 360 22:39 16.02.2020
2475 Rain 2 959 80 10000 7.2 360 22:21 16.02.2020
2476 Clouds 2 960 84 10000 9.3 360 21:58 16.02.2020
2477 Clouds 2 960 84 10000 9.3 360 21:40 16.02.2020
2478 Clouds 2 959 80 10000 5.7 340 21:22 16.02.2020
2479 Clouds 2 959 84 10000 9.8 350 20:58 16.02.2020
2480 Clouds 2 959 84 10000 9.8 350 20:39 16.02.2020
2481 Clouds 2 958 74 10000 6.2 330 20:21 16.02.2020
2482 Clouds 2 958 93 10000 7.2 360 19:58 16.02.2020
2483 Clouds 2 958 93 10000 7.2 360 19:38 16.02.2020
2484 Clouds 2 958 93 10000 7.2 360 19:38 16.02.2020
2485 Clouds 2 956 69 10000 7.7 350 19:19 16.02.2020
2486 Clouds 2 956 93 10000 7.7 350 18:45 16.02.2020
2487 Clouds 3 955 60 10000 9.3 10 18:26 16.02.2020
2488 Clouds 2 955 86 10000 7.7 350 17:57 16.02.2020
2489 Clouds 3 955 86 10000 7.7 350 17:39 16.02.2020
2490 Clouds 3 954 60 10000 6.7 310 17:19 16.02.2020
2491 Clouds 3 954 76 10000 6.7 10 16:56 16.02.2020
2492 Clouds 3 954 76 10000 6.7 10 16:37 16.02.2020
2493 Clouds 3 953 60 10000 9.3 350 16:19 16.02.2020
2494 Clouds 3 953 76 10000 6.7 360 15:41 16.02.2020
2495 Clouds 3 952 55 10000 8.2 350 15:22 16.02.2020
2496 Clouds 3 953 74 10000 6.7 10 14:55 16.02.2020
2497 Clouds 3 953 74 10000 6.7 10 14:36 16.02.2020
2498 Clouds 3 952 55 10000 3.1 340 14:18 16.02.2020
2499 Clouds 3 952 74 10000 6.2 10 13:42 16.02.2020
2500 Clouds 3 950 55 10000 3.6 350 13:23 16.02.2020
2501 Clouds 3 950 74 10000 4.6 360 12:40 16.02.2020
2502 Clouds 3 949 51 10000 1.5 340 12:20 16.02.2020
2503 Clouds 2 949 80 10000 3.6 30 11:57 16.02.2020
2504 Clouds 2 949 80 10000 3.6 30 11:37 16.02.2020
2505 Clouds 3 948 55 10000 4.6 50 11:18 16.02.2020
2506 Clouds 3 947 74 10000 5.1 40 10:56 16.02.2020
2507 Clouds 3 947 74 10000 5.1 40 10:37 16.02.2020
2508 Clouds 3 947 74 10000 5.1 40 10:37 16.02.2020
2509 Clouds 3 946 55 10000 5.1 60 10:18 16.02.2020
2510 Clouds 3 946 69 10000 5.1 50 09:39 16.02.2020
2511 Clouds 3 946 69 10000 5.1 50 09:39 16.02.2020
2512 Clouds 3 944 55 10000 8.2 70 09:21 16.02.2020
2513 Clouds 3 944 74 10000 6.2 60 08:59 16.02.2020
2514 Clouds 3 944 74 10000 6.2 60 08:40 16.02.2020
2515 Clouds 3 943 55 10000 6.7 70 08:19 16.02.2020
2516 Clouds 3 943 74 10000 8.7 60 07:44 16.02.2020
2517 Clouds 3 942 60 10000 6.7 50 07:25 16.02.2020
2518 Clouds 3 941 69 10000 9.8 50 06:33 16.02.2020
2519 Clouds 3 939 74 10000 9.3 20 04:38 16.02.2020
2520 Clouds 3 939 59 10000 8.7 10 03:25 16.02.2020
2521 Clouds 3 940 64 10000 5.1 360 02:31 16.02.2020
2522 Clouds 3 939 70 10000 9.8 20 01:42 16.02.2020
2523 Clouds 3 939 64 10000 9.8 350 01:21 16.02.2020
2524 Clouds 2 939 65 10000 11.3 20 00:52 16.02.2020
2525 Clouds 2 940 69 10000 9.8 340 00:31 16.02.2020
2526 Clouds 2 939 80 10000 14.9 30 23:46 15.02.2020
2527 Clouds 2 941 69 10000 9.3 350 23:26 15.02.2020
2528 Clouds 2 940 80 10000 14.4 20 22:59 15.02.2020
2529 Clouds 2 940 80 10000 14.4 20 22:41 15.02.2020
2530 Clouds 2 942 69 10000 9.3 330 22:21 15.02.2020
2531 Clouds 2 941 74 10000 12.9 40 21:59 15.02.2020
2532 Clouds 1 941 74 10000 12.9 40 21:40 15.02.2020
2533 Clouds 1 943 74 10000 11.8 350 21:21 15.02.2020
2534 Clouds 2 942 74 10000 15.9 30 20:40 15.02.2020
2535 Clouds 2 944 64 10000 12.3 30 20:21 15.02.2020
2536 Rain 2 943 74 10000 13.4 30 19:44 15.02.2020
2537 Clouds 2 944 59 10000 15.4 30 19:24 15.02.2020
2538 Rain 2 944 69 10000 18 30 18:55 15.02.2020
2539 Rain 2 944 69 10000 18 30 18:37 15.02.2020
2540 Clouds 2 945 59 10000 15.4 40 18:18 15.02.2020
2541 Clouds 2 945 69 10000 15.4 30 17:43 15.02.2020
2542 Clouds 2 945 55 10000 11.3 40 17:22 15.02.2020
2543 Clouds 2 946 69 10000 14.9 30 16:59 15.02.2020
2544 Clouds 2 946 69 10000 14.9 30 16:39 15.02.2020
2545 Clouds 2 948 44 10000 6.7 40 16:19 15.02.2020
2546 Clouds 1 948 74 10000 13.9 30 15:43 15.02.2020
2547 Clouds 2 950 59 10000 11.3 360 15:24 15.02.2020
2548 Clouds 2 951 69 10000 12.3 20 14:45 15.02.2020
2549 Clouds 3 953 44 10000 9.3 40 14:24 15.02.2020
2550 Clouds 3 954 64 10000 11.3 40 13:58 15.02.2020
2551 Clouds 3 954 64 10000 11.3 40 13:39 15.02.2020
2552 Clouds 3 956 51 10000 7.7 70 13:20 15.02.2020
2553 Clouds 2 956 69 10000 9.3 40 12:44 15.02.2020
2554 Clouds 2 958 59 10000 8.2 80 12:26 15.02.2020
2555 Clouds 2 958 74 10000 10.3 60 11:55 15.02.2020
2556 Clouds 2 958 74 10000 10.3 60 11:36 15.02.2020
2557 Clouds 2 958 74 10000 10.3 60 11:36 15.02.2020
2558 Clouds 1 960 64 10000 7.7 70 11:18 15.02.2020
2559 Clouds 1 960 80 10000 8.7 60 10:40 15.02.2020
2560 Clouds 1 961 64 10000 8.7 70 10:21 15.02.2020
2561 Clouds 0 961 80 10000 9.3 70 09:44 15.02.2020
2562 Clouds 0 963 69 10000 7.2 70 09:25 15.02.2020
2563 Rain 0 962 86 10000 9.8 70 08:59 15.02.2020
2564 Rain 1 962 86 10000 9.8 70 08:39 15.02.2020
2565 Clouds 0 964 80 10000 6.7 70 08:20 15.02.2020
2566 Clouds 1 964 80 10000 6.7 70 07:41 15.02.2020
2567 Clouds 0 964 80 10000 7.2 70 07:22 15.02.2020
2568 Clouds 0 963 86 10000 5.1 70 06:38 15.02.2020
2569 Clouds 1 965 80 10000 6.2 70 06:20 15.02.2020
2570 Clouds 1 964 69 10000 8.2 140 04:51 15.02.2020
2571 Clouds 1 965 74 10000 5.7 150 04:26 15.02.2020
2572 Rain 1 962 80 10000 8.2 150 02:59 15.02.2020
2573 Clouds 1 963 74 10000 6.2 160 02:28 15.02.2020
2574 Snow 1 962 74 4000 8.2 190 01:59 15.02.2020
2575 Snow 1 962 74 4000 8.2 190 01:36 15.02.2020
2576 Rain 2 959 69 9000 11.8 190 00:30 15.02.2020
2577 Rain 1 956 80 10000 13.4 200 23:57 14.02.2020
2578 Rain 1 956 80 10000 13.4 200 23:36 14.02.2020
2579 Rain 1 957 80 10000 10.8 180 23:18 14.02.2020
2580 Clouds 2 954 93 10000 15.9 190 22:42 14.02.2020
2581 Rain 2 954 74 10000 12.3 180 22:22 14.02.2020
2582 Drizzle 3 949 93 8000 18 190 21:49 14.02.2020
2583 Rain 3 951 90 10000 11.8 180 21:31 14.02.2020
2584 Rain 3 947 86 10000 14.9 190 20:56 14.02.2020
2585 Rain 4 947 86 10000 14.9 190 20:38 14.02.2020
2586 Rain 4 947 80 10000 7.7 160 20:19 14.02.2020
2587 Rain 4 947 80 10000 7.7 160 20:19 14.02.2020
2588 Rain 4 945 93 10000 7.2 110 19:41 14.02.2020
2589 Rain 4 946 87 10000 12.3 80 19:23 14.02.2020
2590 Rain 3 944 93 10000 14.9 80 18:57 14.02.2020
2591 Rain 3 944 93 10000 14.9 80 18:39 14.02.2020
2592 Rain 3 946 87 8000 14.4 80 18:20 14.02.2020
2593 Rain 4 944 86 8000 13.4 70 17:44 14.02.2020
2594 Rain 4 946 87 10000 11.3 90 17:23 14.02.2020
2595 Rain 4 946 87 10000 11.3 90 17:23 14.02.2020
2596 Rain 4 946 87 10000 11.3 90 17:23 14.02.2020
2597 Rain 4 945 93 10000 14.4 60 16:59 14.02.2020
2598 Rain 4 945 93 10000 14.4 60 16:41 14.02.2020
2599 Rain 4 946 94 10000 13.4 90 16:22 14.02.2020
2600 Rain 3 946 86 10000 14.9 80 15:56 14.02.2020
2601 Rain 3 946 86 10000 14.9 80 15:56 14.02.2020
2602 Rain 3 946 86 10000 14.9 80 15:38 14.02.2020
2603 Rain 3 946 86 10000 14.9 80 15:38 14.02.2020
2604 Rain 3 947 94 8000 15.4 90 15:20 14.02.2020
2605 Rain 3 947 86 10000 15.4 80 14:59 14.02.2020
2606 Rain 3 947 86 10000 15.4 80 14:40 14.02.2020
2607 Rain 3 948 74 10000 19 80 14:22 14.02.2020
2608 Rain 3 948 74 10000 19 80 14:22 14.02.2020
2609 Rain 2 947 83 10000 18 80 13:55 14.02.2020
2610 Rain 2 947 83 10000 18 80 13:37 14.02.2020
2611 Rain 2 950 80 10000 15.9 80 13:19 14.02.2020
2612 Rain 2 949 93 10000 24.2 90 12:56 14.02.2020
2613 Rain 2 949 93 10000 24.2 90 12:56 14.02.2020
2614 Rain 2 949 93 10000 24.2 90 12:38 14.02.2020
2615 Rain 2 949 93 10000 24.2 90 12:38 14.02.2020
2616 Snow 2 953 80 10000 15.9 80 12:19 14.02.2020
2617 Clouds 2 950 82 10000 25.7 90 11:55 14.02.2020
2618 Snow 2 955 74 9000 19 90 11:36 14.02.2020
2619 Snow 2 955 74 9000 19 90 11:18 14.02.2020
2620 Rain 2 952 74 10000 23.7 90 10:41 14.02.2020
2621 Snow 2 956 80 6000 18 90 10:22 14.02.2020
2622 Clouds 2 952 74 10000 28.8 90 09:44 14.02.2020
2623 Snow 1 957 86 5000 19.5 100 09:23 14.02.2020
2624 Snow 1 957 86 5000 19.5 100 09:23 14.02.2020
2625 Drizzle 1 955 80 10000 27.8 90 08:57 14.02.2020
2626 Drizzle 1 955 80 10000 27.8 90 08:39 14.02.2020
2627 Snow 1 960 72 3000 19.5 100 08:20 14.02.2020
2628 Rain 1 957 72 10000 29.3 100 07:49 14.02.2020
2629 Rain 1 962 80 6000 18.5 90 07:29 14.02.2020
2630 Rain 0 961 72 9000 20.1 80 06:39 14.02.2020
2631 Snow 0 964 72 2300 19 90 06:18 14.02.2020
2632 Snow 0 969 72 1800 17 80 05:28 14.02.2020
2633 Snow 0 976 74 4000 17 80 03:48 14.02.2020
2634 Snow 0 977 100 1100 20.1 90 02:56 14.02.2020
2635 Snow 0 977 100 1100 20.1 90 02:56 14.02.2020
2636 Snow 0 980 69 10000 17 90 01:56 14.02.2020
2637 Clouds 0 983 69 10000 17 90 00:45 14.02.2020
2638 Clouds 0 986 69 10000 11.8 90 00:27 14.02.2020
2639 Clouds -1 984 74 10000 15.4 90 23:57 13.02.2020
2640 Clouds -1 984 74 10000 15.4 90 23:38 13.02.2020
2641 Clouds -1 988 63 10000 14.9 90 23:18 13.02.2020
2642 Snow -2 987 86 3000 15.4 90 22:40 13.02.2020
2643 Clouds -1 990 63 10000 11.3 80 22:19 13.02.2020
2644 Snow -1 989 68 10000 14.9 80 21:58 13.02.2020
2645 Snow -1 989 68 10000 14.9 80 21:40 13.02.2020
2646 Clouds -1 991 58 10000 12.9 80 21:20 13.02.2020
2647 Clouds -2 990 68 10000 14.9 80 20:42 13.02.2020
2648 Clouds -2 993 63 10000 12.3 80 20:22 13.02.2020
2649 Clouds -2 991 63 10000 13.9 70 19:57 13.02.2020
2650 Clouds -2 991 63 10000 13.9 70 19:39 13.02.2020
2651 Snow -2 994 54 10000 10.3 80 19:20 13.02.2020
2652 Snow -3 993 63 10000 12.3 70 18:57 13.02.2020
2653 Snow -3 993 63 10000 12.3 70 18:39 13.02.2020
2654 Snow -3 995 50 10000 9.3 80 18:20 13.02.2020
2655 Snow -3 994 58 10000 12.9 70 17:57 13.02.2020
2656 Snow -3 994 58 10000 12.9 70 17:37 13.02.2020
2657 Clouds -3 996 53 10000 10.3 70 17:18 13.02.2020
2658 Clouds -2 995 58 10000 11.3 70 16:42 13.02.2020
2659 Clouds -3 997 53 10000 12.3 80 16:21 13.02.2020
2660 Clouds -3 996 63 10000 10.8 70 15:58 13.02.2020
2661 Clouds -3 996 63 10000 10.8 70 15:39 13.02.2020
2662 Clouds -4 998 49 10000 10.8 80 15:20 13.02.2020
2663 Clouds -4 998 68 10000 10.8 80 14:59 13.02.2020
2664 Clouds -3 998 68 10000 10.8 80 14:40 13.02.2020
2665 Clouds -3 999 53 10000 9.8 80 14:22 13.02.2020
2666 Clouds -3 998 63 10000 9.3 70 13:54 13.02.2020
2667 Clouds -3 998 63 10000 9.3 70 13:36 13.02.2020
2668 Clouds -3 999 58 10000 9.8 70 13:18 13.02.2020
2669 Clouds -3 998 63 10000 8.2 80 12:48 13.02.2020
2670 Clouds -4 999 53 10000 8.7 70 12:30 13.02.2020
2671 Clouds -3 999 73 10000 8.2 90 11:58 13.02.2020
2672 Clouds -4 999 73 10000 8.2 90 11:40 13.02.2020
2673 Clouds -4 1000 53 10000 9.8 80 11:19 13.02.2020
2674 Clouds -4 999 73 10000 8.7 80 10:43 13.02.2020
2675 Clouds -4 1000 53 10000 7.7 70 10:24 13.02.2020
2676 Clouds -5 999 73 10000 7.7 80 09:47 13.02.2020
2677 Clouds -5 1000 58 10000 7.2 80 09:24 13.02.2020
2678 Clouds -4 999 73 10000 7.7 80 08:48 13.02.2020
2679 Clouds -4 1000 58 10000 5.7 70 08:20 13.02.2020
2680 Clouds -5 998 73 10000 6.2 80 07:45 13.02.2020
2681 Clouds -4 999 53 10000 5.7 70 07:24 13.02.2020
2682 Clouds -5 999 79 10000 5.7 70 06:59 13.02.2020
2683 Clouds -5 999 79 10000 5.7 70 06:41 13.02.2020
2684 Clouds -5 999 79 10000 4.6 70 05:58 13.02.2020
2685 Clouds -5 1000 58 10000 5.7 80 05:20 13.02.2020
2686 Clouds -4 1000 58 10000 4.1 90 04:25 13.02.2020
2687 Clouds -4 999 79 10000 2.6 130 03:45 13.02.2020
2688 Clouds -5 999 85 10000 2.1 120 02:59 13.02.2020
2689 Clouds -5 999 85 10000 2.1 120 02:41 13.02.2020
2690 Clouds -5 999 63 10000 5.7 80 02:18 13.02.2020
2691 Clouds -4 999 63 10000 5.7 80 01:27 13.02.2020
2692 Clouds -5 998 92 10000 4.1 160 00:32 13.02.2020
2693 Clouds -5 998 92 10000 4.1 160 00:32 13.02.2020
2694 Clouds -5 998 92 10000 2.6 190 23:58 12.02.2020
2695 Clouds -5 998 92 10000 2.6 190 23:37 12.02.2020
2696 Clouds -4 998 68 10000 2.6 70 23:18 12.02.2020
2697 Clouds -5 997 92 10000 3.1 180 22:44 12.02.2020
2698 Clouds -5 998 63 10000 3.1 70 22:24 12.02.2020
2699 Clouds -4 997 86 10000 2.6 220 21:57 12.02.2020
2700 Clouds -4 997 86 10000 2.6 220 21:39 12.02.2020
2701 Clouds -4 997 63 10000 4.1 70 21:19 12.02.2020
2702 Clouds -4 996 92 10000 4.1 160 20:56 12.02.2020
2703 Clouds -3 996 92 10000 4.1 160 20:37 12.02.2020
2704 Clouds -3 997 63 10000 3.1 60 20:18 12.02.2020
2705 Clouds -4 996 92 10000 1.5 160 19:44 12.02.2020
2706 Snow -3 996 58 10000 4.1 80 19:23 12.02.2020
2707 Rain -3 996 86 10000 2.1 240 18:55 12.02.2020
2708 Rain -3 996 86 10000 2.1 240 18:37 12.02.2020
2709 Clouds -3 996 58 10000 4.1 100 18:18 12.02.2020
2710 Clouds -3 995 79 9000 4.6 160 17:42 12.02.2020
2711 Clouds -3 996 54 10000 3.1 110 17:20 12.02.2020
2712 Snow -4 995 86 10000 3.6 150 16:58 12.02.2020
2713 Snow -4 995 86 10000 3.6 150 16:38 12.02.2020
2714 Clouds -3 996 53 10000 4.1 80 16:18 12.02.2020
2715 Clouds -3 996 53 10000 4.1 80 16:18 12.02.2020
2716 Snow -3 995 58 10000 0.5 0 15:41 12.02.2020
2717 Clouds -3 996 50 10000 5.7 90 15:20 12.02.2020
2718 Clouds -4 995 54 10000 4.1 100 14:57 12.02.2020
2719 Clouds -4 995 54 10000 4.1 100 14:39 12.02.2020
2720 Clouds -3 996 53 10000 3.1 80 14:19 12.02.2020
2721 Clouds -5 995 54 10000 3.1 120 13:56 12.02.2020
2722 Clouds -5 995 54 10000 3.1 120 13:37 12.02.2020
2723 Clouds -5 995 57 10000 2.1 130 13:18 12.02.2020
2724 Clouds -6 995 58 10000 1 100 12:56 12.02.2020
2725 Clouds -6 995 58 10000 1 100 12:37 12.02.2020
2726 Clouds -6 995 57 10000 0.5 0 12:18 12.02.2020
2727 Clouds -7 994 62 10000 2.6 110 11:54 12.02.2020
2728 Clouds -7 994 62 10000 2.6 110 11:36 12.02.2020
2729 Clouds -8 994 57 10000 2.1 110 11:18 12.02.2020
2730 Clouds -8 994 68 10000 2.6 80 10:54 12.02.2020
2731 Clouds -7 994 68 10000 2.6 80 10:36 12.02.2020
2732 Clouds -7 994 67 10000 2.34 116 10:18 12.02.2020
2733 Clouds -8 993 68 10000 2.6 90 09:40 12.02.2020
2734 Clouds -8 994 62 10000 1.5 140 09:20 12.02.2020
2735 Clouds -8 993 62 10000 2.6 100 08:57 12.02.2020
2736 Clouds -7 993 62 10000 2.6 100 08:37 12.02.2020
2737 Clouds -7 993 62 10000 3.6 110 08:19 12.02.2020
2738 Clouds -7 993 62 10000 3.6 110 08:19 12.02.2020
2739 Clouds -8 993 79 10000 0.5 120 07:43 12.02.2020
2740 Clouds -8 993 79 10000 0.5 120 07:43 12.02.2020
2741 Clouds -8 993 67 10000 1.64 102 07:23 12.02.2020
2742 Clouds -8 992 79 10000 2.1 80 06:53 12.02.2020
2743 Clouds -7 993 72 10000 1.64 102 06:20 12.02.2020
2744 Clouds -7 992 79 10000 2.1 10 05:36 12.02.2020
2745 Clouds -7 992 73 10000 3.1 30 04:57 12.02.2020
2746 Clouds -7 992 73 10000 3.1 30 04:39 12.02.2020
2747 Clouds -7 992 73 10000 1.5 120 03:33 12.02.2020
2748 Clouds -7 992 73 10000 3.1 20 02:58 12.02.2020
2749 Clouds -6 991 67 10000 1.5 120 02:29 12.02.2020
2750 Clouds -7 991 73 10000 3.6 20 01:50 12.02.2020
2751 Clouds -6 991 68 10000 4.6 30 00:45 12.02.2020
2752 Clouds -6 991 67 10000 0.56 59 00:26 12.02.2020
2753 Clouds -5 990 73 10000 3.6 20 23:56 11.02.2020
2754 Clouds -5 990 73 10000 3.6 20 23:38 11.02.2020
2755 Clouds -5 990 58 10000 1 160 23:20 11.02.2020
2756 Clouds -5 990 73 10000 4.1 20 22:55 11.02.2020
2757 Clouds -5 990 73 10000 4.1 20 22:37 11.02.2020
2758 Clouds -5 990 73 10000 4.1 20 22:37 11.02.2020
2759 Clouds -5 990 67 10000 2.6 160 22:18 11.02.2020
2760 Clouds -4 990 68 10000 4.6 10 21:55 11.02.2020
2761 Clouds -4 990 68 10000 4.6 10 21:37 11.02.2020
2762 Clouds -4 989 58 10000 3.1 100 21:18 11.02.2020
2763 Clouds -4 989 58 10000 3.1 100 21:18 11.02.2020
2764 Clouds -4 989 58 10000 3.1 100 21:18 11.02.2020
2765 Clouds -4 989 73 10000 5.1 20 20:54 11.02.2020
2766 Clouds -4 989 58 10000 4.6 360 20:36 11.02.2020
2767 Clouds -4 989 58 10000 4.6 360 20:18 11.02.2020
2768 Clouds -4 989 68 10000 4.1 10 19:42 11.02.2020
2769 Clouds -4 988 58 10000 6.7 360 19:23 11.02.2020
2770 Clouds -3 988 74 10000 7.2 20 18:56 11.02.2020
2771 Clouds -3 988 74 10000 7.2 20 18:37 11.02.2020
2772 Clouds -2 987 54 10000 3.6 60 18:19 11.02.2020
2773 Clouds -2 987 68 10000 8.2 20 17:55 11.02.2020
2774 Snow -2 987 68 10000 8.2 20 17:36 11.02.2020
2775 Snow -2 987 54 10000 4.6 30 17:18 11.02.2020
2776 Clouds -2 987 74 10000 6.7 20 16:55 11.02.2020
2777 Snow -2 987 74 10000 6.7 20 16:37 11.02.2020
2778 Snow -1 986 63 10000 7.7 10 16:19 11.02.2020
2779 Snow -1 986 63 10000 7.7 20 15:43 11.02.2020
2780 Clouds -2 986 63 10000 8.7 10 15:24 11.02.2020
2781 Clouds -2 986 63 10000 8.2 20 14:54 11.02.2020
2782 Clouds -2 986 63 10000 8.2 20 14:36 11.02.2020
2783 Clouds -2 985 63 10000 9.3 10 14:18 11.02.2020
2784 Clouds -2 985 68 10000 9.3 30 13:41 11.02.2020
2785 Clouds -2 985 63 10000 9.8 10 13:21 11.02.2020
2786 Clouds -2 985 63 10000 9.8 20 12:58 11.02.2020
2787 Clouds -2 985 63 10000 9.8 20 12:40 11.02.2020
2788 Clouds -2 985 63 10000 7.7 10 12:20 11.02.2020
2789 Clouds -2 984 68 10000 9.8 20 11:42 11.02.2020
2790 Clouds -2 984 63 10000 8.7 10 11:21 11.02.2020
2791 Clouds -2 983 74 10000 10.8 30 10:58 11.02.2020
2792 Clouds -2 983 74 10000 10.8 30 10:39 11.02.2020
2793 Clouds -2 983 63 10000 9.3 20 10:20 11.02.2020
2794 Clouds -1 983 80 10000 8.7 30 09:56 11.02.2020
2795 Clouds -1 983 80 10000 8.7 30 09:38 11.02.2020
2796 Clouds -1 983 75 10000 7.7 10 09:19 11.02.2020
2797 Clouds -1 982 75 10000 9.8 20 08:46 11.02.2020
2798 Clouds -1 981 76 10000 8.7 360 08:24 11.02.2020
2799 Clouds -1 981 77 10000 8.7 20 07:48 11.02.2020
2800 Clouds -1 980 77 10000 13.9 10 07:26 11.02.2020
2801 Clouds 0 980 77 10000 12.3 10 06:44 11.02.2020
2802 Clouds 0 979 69 10000 8.7 10 06:22 11.02.2020
2803 Clouds 0 979 74 10000 10.3 20 05:58 11.02.2020
2804 Clouds 0 978 69 10000 5.7 20 05:25 11.02.2020
2805 Clouds 0 978 80 10000 8.2 10 04:52 11.02.2020
2806 Clouds 1 976 69 10000 4.6 340 03:26 11.02.2020
2807 Clouds 1 976 80 10000 9.8 350 02:33 11.02.2020
2808 Clouds 1 976 74 10000 8.2 360 01:38 11.02.2020
2809 Clouds 1 975 80 10000 11.3 360 00:42 11.02.2020
2810 Clouds 1 973 69 10000 8.2 350 00:20 11.02.2020
2811 Clouds 1 973 80 10000 12.9 350 23:39 10.02.2020
2812 Rain 1 971 69 10000 12.3 360 23:20 10.02.2020
2813 Clouds 1 972 86 10000 11.8 350 22:42 10.02.2020
2814 Clouds 1 971 80 10000 9.3 340 22:21 10.02.2020
2815 Clouds 1 971 80 10000 13.9 350 21:57 10.02.2020
2816 Clouds 1 971 80 10000 13.9 350 21:57 10.02.2020
2817 Clouds 1 971 80 10000 13.9 350 21:39 10.02.2020
2818 Clouds 1 971 80 10000 13.9 350 21:39 10.02.2020
2819 Rain 1 971 74 10000 7.7 340 21:20 10.02.2020
2820 Clouds 1 971 86 10000 11.8 350 20:54 10.02.2020
2821 Clouds 1 971 86 10000 11.8 350 20:36 10.02.2020
2822 Snow 1 969 86 10000 7.7 340 20:18 10.02.2020
2823 Clouds 1 969 80 10000 14.9 350 19:54 10.02.2020
2824 Clouds 1 969 80 10000 14.9 350 19:36 10.02.2020
2825 Clouds 1 969 80 10000 14.9 350 19:36 10.02.2020
2826 Rain 1 967 80 10000 9.8 330 19:18 10.02.2020
2827 Clouds 0 968 80 10000 14.4 340 18:41 10.02.2020
2828 Snow 0 966 73 10000 10.3 320 18:22 10.02.2020
2829 Snow 0 967 73 10000 12.9 340 17:59 10.02.2020
2830 Snow 0 967 73 10000 12.9 340 17:39 10.02.2020
2831 Snow 0 965 70 10000 14.4 310 17:21 10.02.2020
2832 Clouds 0 967 69 10000 12.3 330 16:59 10.02.2020
2833 Clouds 0 967 69 10000 12.3 330 16:40 10.02.2020
2834 Rain 0 965 70 10000 12.3 310 16:20 10.02.2020
2835 Clouds 0 967 64 10000 11.3 340 15:58 10.02.2020
2836 Clouds 0 967 64 10000 11.3 340 15:39 10.02.2020
2837 Clouds 0 965 70 10000 9.3 320 15:21 10.02.2020
2838 Clouds 0 966 69 10000 7.7 340 14:57 10.02.2020
2839 Clouds 0 966 69 10000 7.7 340 14:39 10.02.2020
2840 Clouds 0 964 70 10000 11.8 340 14:19 10.02.2020
2841 Clouds 0 965 69 10000 9.3 340 13:44 10.02.2020
2842 Rain -1 964 68 10000 9.8 330 13:25 10.02.2020
2843 Clouds -1 965 68 10000 11.3 350 12:57 10.02.2020
2844 Clouds -1 965 68 10000 11.3 350 12:38 10.02.2020
2845 Clouds -1 963 68 10000 10.8 330 12:20 10.02.2020
2846 Clouds -1 964 68 10000 12.9 350 11:45 10.02.2020
2847 Clouds -1 963 80 10000 8.2 350 11:21 10.02.2020
2848 Clouds -1 963 86 10000 11.3 340 10:49 10.02.2020
2849 Clouds -1 962 73 10000 9.8 340 10:31 10.02.2020
2850 Clouds -1 963 73 10000 11.8 340 09:56 10.02.2020
2851 Clouds -1 962 80 10000 8.7 350 09:37 10.02.2020
2852 Clouds -1 963 73 10000 11.8 340 09:37 10.02.2020
2853 Clouds -1 962 80 10000 8.7 350 09:18 10.02.2020
2854 Snow -2 962 80 10000 9.8 340 08:40 10.02.2020
2855 Clouds -2 961 80 10000 8.2 330 08:21 10.02.2020
2856 Rain -1 961 69 10000 10.8 360 07:55 10.02.2020
2857 Clouds -2 960 74 10000 9.3 330 07:35 10.02.2020
2858 Clouds -2 961 80 10000 11.3 360 06:50 10.02.2020
2859 Clouds -1 960 80 10000 9.8 360 05:35 10.02.2020
2860 Clouds -1 959 75 10000 9.3 360 03:55 10.02.2020
2861 Clouds -1 959 74 10000 6.7 350 03:22 10.02.2020
2862 Clouds -1 959 80 10000 8.7 10 02:42 10.02.2020
2863 Clouds -3 958 73 10000 2.6 80 01:25 10.02.2020
2864 Clouds -3 958 79 10000 10.8 30 00:40 10.02.2020
2865 Clouds -3 957 79 10000 2.1 360 00:22 10.02.2020
2866 Clouds -4 957 68 10000 9.3 30 23:42 09.02.2020
2867 Clouds -4 957 79 10000 1.5 120 23:23 09.02.2020
2868 Clouds -3 957 74 10000 7.2 20 22:45 09.02.2020
2869 Clouds -3 957 85 10000 2.6 140 22:23 09.02.2020
2870 Clouds -3 957 74 10000 8.2 40 21:59 09.02.2020
2871 Clouds -3 957 74 10000 8.2 40 21:40 09.02.2020
2872 Clouds -3 957 79 10000 1 0 21:21 09.02.2020
2873 Clouds -3 957 79 10000 7.2 30 20:45 09.02.2020
2874 Clouds -3 956 79 10000 1 0 20:22 09.02.2020
2875 Clouds -3 956 74 10000 7.2 30 19:55 09.02.2020
2876 Clouds -3 956 74 10000 7.2 30 19:37 09.02.2020
2877 Clouds -3 956 79 10000 2.6 170 19:18 09.02.2020
2878 Clouds -3 956 74 10000 7.7 30 18:42 09.02.2020
2879 Clouds -3 956 74 10000 2.1 190 18:23 09.02.2020
2880 Clouds -3 956 80 10000 6.7 40 17:58 09.02.2020
2881 Clouds -3 956 80 10000 6.7 40 17:39 09.02.2020
2882 Clouds -2 956 79 10000 1.5 150 17:20 09.02.2020
2883 Clouds -2 956 62 10000 6.2 40 16:41 09.02.2020
2884 Clouds -2 956 74 10000 1 140 16:22 09.02.2020
2885 Clouds -2 956 62 10000 7.2 50 15:58 09.02.2020
2886 Clouds -2 956 62 10000 7.2 50 15:40 09.02.2020
2887 Clouds -2 956 68 10000 1.5 150 15:21 09.02.2020
2888 Clouds -2 956 62 10000 6.7 40 14:56 09.02.2020
2889 Clouds -2 956 62 10000 6.7 40 14:37 09.02.2020
2890 Clouds -2 956 68 10000 2.1 60 14:19 09.02.2020
2891 Clouds -2 956 64 10000 5.1 50 13:43 09.02.2020
2892 Clouds -2 957 79 10000 1 0 13:25 09.02.2020
2893 Clouds -2 956 65 10000 4.6 60 12:55 09.02.2020
2894 Clouds -2 956 65 10000 4.6 60 12:37 09.02.2020
2895 Clouds -2 957 74 10000 2.6 20 12:18 09.02.2020
2896 Clouds -2 956 80 10000 4.1 50 11:40 09.02.2020
2897 Clouds -2 957 74 10000 3.1 90 11:20 09.02.2020
2898 Clouds -2 957 86 10000 4.1 70 10:57 09.02.2020
2899 Clouds -2 957 86 10000 4.1 70 10:38 09.02.2020
2900 Clouds -2 957 79 10000 2.6 70 10:19 09.02.2020
2901 Clouds -3 957 86 10000 3.6 60 09:40 09.02.2020
2902 Clouds -3 958 74 10000 4.1 70 09:21 09.02.2020
2903 Clouds -3 958 86 10000 3.6 70 08:44 09.02.2020
2904 Clouds -3 958 79 10000 4.1 90 08:26 09.02.2020
2905 Clouds -3 958 92 10000 3.6 60 07:57 09.02.2020
2906 Clouds -3 958 92 10000 3.6 60 07:34 09.02.2020
2907 Clouds -2 958 86 10000 3.6 70 06:45 09.02.2020
2908 Clouds -2 959 92 10000 4.1 120 05:57 09.02.2020
2909 Clouds -2 960 86 10000 6.2 80 05:35 09.02.2020
2910 Clouds -2 960 92 10000 4.6 90 04:54 09.02.2020
2911 Rain -1 960 92 10000 4.1 90 03:52 09.02.2020
2912 Rain -1 961 92 10000 4.1 70 02:44 09.02.2020
2913 Clouds -1 962 86 10000 5.7 80 02:24 09.02.2020
2914 Rain -1 961 100 10000 4.1 80 01:34 09.02.2020
2915 Snow 0 962 77 10000 2.6 110 00:42 09.02.2020
2916 Snow 0 963 77 8000 7.7 100 00:23 09.02.2020
2917 Rain 0 963 80 10000 1.5 180 23:42 08.02.2020
2918 Rain 0 964 75 10000 5.1 80 23:20 08.02.2020
2919 Rain 0 963 75 10000 3.6 140 22:42 08.02.2020
2920 Snow 0 965 75 2000 4.6 120 22:21 08.02.2020
2921 Rain 0 963 80 10000 3.6 120 21:58 08.02.2020
2922 Rain 0 963 80 10000 3.6 120 21:40 08.02.2020
2923 Clouds 0 964 86 10000 5.7 90 21:20 08.02.2020
2924 Rain 0 963 86 10000 4.1 130 20:56 08.02.2020
2925 Rain 0 963 86 10000 4.1 130 20:38 08.02.2020
2926 Snow 1 965 80 2000 6.7 110 20:19 08.02.2020
2927 Snow 1 964 74 10000 4.1 180 19:54 08.02.2020
2928 Snow 1 964 74 10000 4.1 180 19:36 08.02.2020
2929 Rain 1 965 74 10000 3.6 120 19:18 08.02.2020
2930 Rain 1 964 74 10000 6.2 150 18:42 08.02.2020
2931 Snow 1 965 80 10000 6.2 100 18:23 08.02.2020
2932 Rain 2 964 74 10000 7.7 140 17:43 08.02.2020
2933 Rain 2 965 74 10000 4.1 110 17:21 08.02.2020
2934 Rain 2 965 74 10000 4.1 110 17:21 08.02.2020
2935 Clouds 1 964 71 10000 5.1 160 16:58 08.02.2020
2936 Clouds 1 964 71 10000 5.1 160 16:39 08.02.2020
2937 Clouds 1 966 80 10000 5.1 110 16:20 08.02.2020
2938 Rain 1 965 71 10000 4.6 140 15:42 08.02.2020
2939 Rain 1 966 74 10000 6.2 100 15:19 08.02.2020
2940 Snow 1 964 80 10000 6.7 140 14:59 08.02.2020
2941 Snow 1 964 80 10000 6.7 140 14:40 08.02.2020
2942 Rain 1 966 80 10000 8.7 140 14:19 08.02.2020
2943 Snow 2 964 93 6000 7.7 140 13:43 08.02.2020
2944 Snow 2 966 69 10000 5.7 140 13:23 08.02.2020
2945 Rain 2 964 61 10000 8.7 160 12:57 08.02.2020
2946 Rain 2 964 61 10000 8.7 160 12:37 08.02.2020
2947 Clouds 2 966 69 10000 5.7 130 12:19 08.02.2020
2948 Rain 2 964 80 10000 11.8 160 11:43 08.02.2020
2949 Rain 2 965 69 10000 8.2 170 11:21 08.02.2020
2950 Rain 2 964 63 10000 9.8 150 10:57 08.02.2020
2951 Rain 2 964 63 10000 9.8 150 10:38 08.02.2020
2952 Rain 2 965 64 10000 8.7 140 10:19 08.02.2020
2953 Rain 2 964 63 10000 9.3 150 09:49 08.02.2020
2954 Snow 2 965 64 10000 7.7 130 09:24 08.02.2020
2955 Rain 2 963 80 10000 10.3 160 08:41 08.02.2020
2956 Rain 2 963 80 10000 10.3 160 08:41 08.02.2020
2957 Snow 2 965 64 10000 8.7 150 08:22 08.02.2020
2958 Rain 2 963 74 10000 12.3 150 07:53 08.02.2020
2959 Snow 2 965 55 10000 10.8 150 07:34 08.02.2020
2960 Clouds 2 963 80 10000 11.3 150 06:54 08.02.2020
2961 Clouds 2 965 64 10000 8.7 150 06:21 08.02.2020
2962 Rain 2 963 64 10000 9.8 140 05:33 08.02.2020
2963 Rain 2 964 69 10000 9.8 150 04:54 08.02.2020
2964 Snow 2 965 64 10000 8.2 150 04:24 08.02.2020
2965 Clouds 3 964 64 10000 10.8 160 03:37 08.02.2020
2966 Rain 3 966 69 10000 7.2 140 02:29 08.02.2020
2967 Rain 3 966 69 10000 7.2 140 02:29 08.02.2020
2968 Clouds 3 965 69 10000 8.2 150 01:33 08.02.2020
2969 Clouds 3 964 80 10000 10.3 150 00:47 08.02.2020
2970 Drizzle 3 966 70 10000 8.2 160 00:25 08.02.2020
2971 Clouds 3 964 86 10000 11.3 150 23:58 07.02.2020
2972 Clouds 4 964 86 10000 11.3 150 23:39 07.02.2020
2973 Clouds 4 966 60 10000 7.7 150 23:20 07.02.2020
2974 Clouds 4 964 70 10000 13.4 160 22:42 07.02.2020
2975 Clouds 4 964 70 10000 13.4 160 22:42 07.02.2020
2976 Drizzle 3 966 70 10000 6.2 120 22:20 07.02.2020
2977 Rain 3 963 70 10000 12.9 160 21:58 07.02.2020
2978 Rain 3 963 70 10000 12.9 160 21:40 07.02.2020
2979 Drizzle 4 966 80 10000 7.7 180 21:19 07.02.2020
2980 Rain 4 964 80 10000 12.3 160 20:39 07.02.2020
2981 Drizzle 5 966 80 10000 7.7 170 20:20 07.02.2020
2982 Rain 6 965 93 10000 12.9 170 19:55 07.02.2020
2983 Rain 6 965 93 10000 12.9 170 19:37 07.02.2020
2984 Rain 6 965 81 5000 16.5 120 19:18 07.02.2020
2985 Rain 6 965 93 4000 15.9 150 18:44 07.02.2020
2986 Rain 6 965 93 4000 15.9 150 18:44 07.02.2020
2987 Rain 6 967 81 6000 14.4 130 18:25 07.02.2020
2988 Rain 7 965 93 4000 20.1 130 17:55 07.02.2020
2989 Rain 7 965 93 4000 20.1 130 17:37 07.02.2020
2990 Rain 7 969 75 10000 14.4 120 17:19 07.02.2020
2991 Mist 7 967 93 6000 21.6 130 16:43 07.02.2020
2992 Rain 7 971 70 10000 17 130 16:23 07.02.2020
2993 Drizzle 7 970 93 3000 20.6 130 15:54 07.02.2020
2994 Drizzle 7 973 81 5000 12.9 120 15:28 07.02.2020
2995 Drizzle 7 972 87 4000 15.9 130 14:56 07.02.2020
2996 Drizzle 7 972 87 4000 15.9 130 14:38 07.02.2020
2997 Drizzle 7 972 87 4000 15.9 130 14:38 07.02.2020
2998 Rain 7 976 70 10000 10.8 110 14:19 07.02.2020
2999 Drizzle 7 974 87 5000 14.4 130 13:56 07.02.2020
3000 Drizzle 7 974 87 5000 14.4 130 13:38 07.02.2020
3001 Clouds 7 978 70 10000 13.4 130 13:19 07.02.2020
3002 Rain 7 976 87 9000 12.9 140 12:42 07.02.2020
3003 Clouds 7 978 75 10000 12.3 160 12:23 07.02.2020
3004 Drizzle 7 978 81 4200 13.9 140 11:45 07.02.2020
3005 Drizzle 7 979 81 9000 14.4 140 11:24 07.02.2020
3006 Rain 7 978 93 10000 15.4 130 10:58 07.02.2020
3007 Rain 7 978 93 10000 15.4 130 10:39 07.02.2020
3008 Drizzle 7 980 81 10000 12.3 130 10:20 07.02.2020
3009 Rain 7 979 93 10000 14.9 130 09:45 07.02.2020
3010 Rain 7 981 75 10000 15.4 120 09:25 07.02.2020
3011 Rain 6 980 93 8000 14.4 130 08:57 07.02.2020
3012 Rain 7 980 93 8000 14.4 130 08:36 07.02.2020
3013 Rain 6 983 81 10000 12.3 130 08:18 07.02.2020
3014 Rain 7 981 93 50 12.9 130 07:40 07.02.2020
3015 Rain 7 984 81 10000 9.8 130 07:19 07.02.2020
3016 Rain 6 983 100 8000 12.9 130 06:42 07.02.2020
3017 Rain 6 986 87 10000 8.2 110 06:22 07.02.2020
3018 Rain 6 985 93 10000 11.3 110 05:43 07.02.2020
3019 Clouds 5 991 93 10000 8.7 130 03:55 07.02.2020
3020 Clouds 5 995 75 10000 8.7 130 02:24 07.02.2020
3021 Clouds 6 996 70 10000 9.3 140 01:22 07.02.2020
3022 Rain 5 996 93 9000 10.8 130 00:37 07.02.2020
3023 Rain 5 996 87 10000 9.8 140 23:39 06.02.2020
3024 Rain 5 998 75 10000 8.7 140 23:21 06.02.2020
3025 Rain 5 997 87 10000 8.7 150 22:58 06.02.2020
3026 Rain 5 997 87 10000 8.7 150 22:40 06.02.2020
3027 Clouds 5 999 75 10000 8.7 140 22:21 06.02.2020
3028 Rain 5 997 87 10000 10.3 150 21:37 06.02.2020
3029 Rain 5 999 81 10000 8.7 150 21:19 06.02.2020
3030 Rain 4 998 86 10000 9.8 150 20:56 06.02.2020
3031 Rain 4 998 86 10000 9.8 150 20:37 06.02.2020
3032 Rain 4 1000 75 10000 7.7 160 20:18 06.02.2020
3033 Rain 4 999 80 10000 8.7 160 19:57 06.02.2020
3034 Rain 4 999 80 10000 8.7 160 19:39 06.02.2020
3035 Rain 4 1000 75 10000 7.7 160 19:20 06.02.2020
3036 Rain 4 998 86 10000 7.7 160 18:57 06.02.2020
3037 Rain 4 998 86 10000 7.7 160 18:38 06.02.2020
3038 Rain 4 1000 75 10000 6.2 160 18:19 06.02.2020
3039 Rain 4 998 86 10000 8.7 180 17:42 06.02.2020
3040 Clouds 4 1000 75 10000 6.2 170 17:20 06.02.2020
3041 Rain 5 999 86 10000 8.2 180 16:54 06.02.2020
3042 Rain 5 999 86 10000 8.2 180 16:36 06.02.2020
3043 Rain 5 999 70 10000 6.7 190 16:18 06.02.2020
3044 Clouds 5 998 86 10000 9.3 180 15:41 06.02.2020
3045 Rain 5 999 70 10000 8.2 180 15:21 06.02.2020
3046 Rain 5 998 80 10000 10.3 190 14:47 06.02.2020
3047 Rain 5 999 70 10000 8.7 180 14:26 06.02.2020
3048 Rain 5 998 80 10000 9.8 190 13:54 06.02.2020
3049 Rain 5 998 80 10000 9.8 190 13:36 06.02.2020
3050 Rain 5 998 70 10000 7.7 180 13:18 06.02.2020
3051 Rain 5 997 80 10000 9.8 190 12:43 06.02.2020
3052 Rain 5 997 70 10000 9.8 180 12:18 06.02.2020
3053 Rain 5 995 75 10000 11.3 190 11:56 06.02.2020
3054 Rain 5 995 75 10000 11.3 190 11:37 06.02.2020
3055 Rain 5 996 80 9000 10.8 190 11:18 06.02.2020
3056 Rain 5 994 86 10000 12.9 200 10:54 06.02.2020
3057 Rain 6 994 86 10000 12.9 200 10:36 06.02.2020
3058 Clouds 6 994 75 10000 11.3 190 10:18 06.02.2020
3059 Drizzle 6 992 81 10000 14.4 200 09:42 06.02.2020
3060 Rain 6 992 70 10000 15.4 190 09:20 06.02.2020
3061 Rain 6 989 75 10000 19.5 190 08:47 06.02.2020
3062 Rain 6 989 75 10000 19.5 190 08:47 06.02.2020
3063 Rain 6 990 75 9000 19 170 08:25 06.02.2020
3064 Drizzle 7 987 87 9000 18 170 07:58 06.02.2020
3065 Drizzle 8 987 87 9000 18 170 07:33 06.02.2020
3066 Drizzle 8 986 93 10000 17 150 06:54 06.02.2020
3067 Rain 8 988 76 10000 19.5 160 06:21 06.02.2020
3068 Drizzle 8 987 93 10000 17 150 05:41 06.02.2020
3069 Drizzle 7 992 87 6000 12.9 130 04:18 06.02.2020
3070 Drizzle 7 993 87 8000 12.9 140 03:18 06.02.2020
3071 Clouds 7 994 87 10000 13.9 160 02:20 06.02.2020
3072 Rain 7 995 87 10000 13.4 170 01:24 06.02.2020
3073 Drizzle 6 994 100 10000 13.9 160 00:41 06.02.2020
3074 Drizzle 6 996 81 10000 9.8 160 00:19 06.02.2020
3075 Rain 6 994 100 4000 13.4 160 23:42 05.02.2020
3076 Rain 7 996 81 10000 10.8 160 23:23 05.02.2020
3077 Drizzle 6 996 100 4000 12.9 160 22:54 05.02.2020
3078 Drizzle 6 996 100 4000 12.9 160 22:54 05.02.2020
3079 Drizzle 6 996 100 4000 12.9 160 22:36 05.02.2020
3080 Drizzle 6 996 100 4000 12.9 160 22:36 05.02.2020
3081 Drizzle 6 997 87 10000 9.3 160 22:18 05.02.2020
3082 Rain 6 996 100 2000 11.8 160 21:40 05.02.2020
3083 Rain 6 998 81 10000 8.7 150 21:22 05.02.2020
3084 Rain 6 997 100 3000 10.3 160 20:55 05.02.2020
3085 Clouds 6 999 81 10000 7.7 160 20:36 05.02.2020
3086 Clouds 6 999 81 10000 7.7 160 20:18 05.02.2020
3087 Drizzle 6 998 100 4000 10.8 160 19:55 05.02.2020
3088 Drizzle 6 998 100 4000 10.8 160 19:36 05.02.2020
3089 Rain 6 1000 87 10000 7.7 160 19:18 05.02.2020
3090 Drizzle 6 999 100 3000 9.8 170 18:43 05.02.2020
3091 Mist 6 1000 87 8000 7.7 160 18:20 05.02.2020
3092 Drizzle 6 999 100 2500 10.3 170 17:55 05.02.2020
3093 Drizzle 6 999 100 2500 10.3 170 17:36 05.02.2020
3094 Drizzle 6 1001 87 4000 7.7 180 17:18 05.02.2020
3095 Drizzle 5 1000 100 2500 10.3 180 16:42 05.02.2020
3096 Drizzle 6 1001 87 3500 8.2 180 16:24 05.02.2020
3097 Drizzle 6 1000 100 2000 10.3 190 15:57 05.02.2020
3098 Drizzle 6 1000 100 2000 10.3 190 15:38 05.02.2020
3099 Drizzle 6 1002 93 5000 9.3 190 15:18 05.02.2020
3100 Drizzle 6 1001 87 2000 10.3 190 14:42 05.02.2020
3101 Drizzle 6 1001 93 6000 10.3 190 14:23 05.02.2020
3102 Drizzle 6 1000 100 2500 12.3 200 13:57 05.02.2020
3103 Drizzle 6 1000 100 2500 12.3 200 13:38 05.02.2020
3104 Drizzle 6 1000 93 5000 10.3 190 13:19 05.02.2020
3105 Drizzle 6 999 100 3500 11.8 200 12:42 05.02.2020
3106 Rain 6 1000 93 7000 10.3 190 12:22 05.02.2020
3107 Drizzle 6 999 100 3500 11.3 200 11:54 05.02.2020
3108 Drizzle 6 999 100 3500 11.3 200 11:36 05.02.2020
3109 Drizzle 6 999 87 5000 10.3 190 11:18 05.02.2020
3110 Drizzle 6 998 100 3000 10.8 200 10:42 05.02.2020
3111 Drizzle 6 999 87 6000 9.8 190 10:23 05.02.2020
3112 Drizzle 6 999 87 6000 9.8 190 10:23 05.02.2020
3113 Drizzle 6 998 100 2500 11.8 200 09:44 05.02.2020
3114 Drizzle 6 998 87 5000 10.3 190 09:23 05.02.2020
3115 Drizzle 6 997 100 2500 11.3 200 08:59 05.02.2020
3116 Drizzle 6 997 100 2500 11.3 200 08:41 05.02.2020
3117 Drizzle 5 998 93 5000 10.3 190 08:22 05.02.2020
3118 Drizzle 5 998 100 2500 11.3 190 07:45 05.02.2020
3119 Drizzle 5 998 93 5000 10.3 180 07:26 05.02.2020
3120 Drizzle 5 998 100 3500 11.3 190 06:43 05.02.2020
3121 Rain 5 999 87 7000 9.3 180 06:23 05.02.2020
3122 Drizzle 5 998 100 3500 11.3 190 05:49 05.02.2020
3123 Rain 5 1000 87 6000 9.3 190 05:18 05.02.2020
3124 Drizzle 5 999 100 2500 11.3 190 04:45 05.02.2020
3125 Rain 5 1000 87 7000 9.8 180 03:36 05.02.2020
3126 Rain 5 1001 87 7000 10.3 190 02:24 05.02.2020
3127 Rain 4 1000 100 3000 10.3 190 01:35 05.02.2020
3128 Rain 5 1000 100 3000 9.8 190 00:42 05.02.2020
3129 Drizzle 4 1000 100 500 8.7 180 23:43 04.02.2020
3130 Drizzle 4 1002 86 6000 5.1 160 23:23 04.02.2020
3131 Drizzle 4 1001 100 400 7.2 180 22:59 04.02.2020
3132 Drizzle 4 1001 100 400 7.2 180 22:41 04.02.2020
3133 Drizzle 4 1002 86 8000 4.6 170 22:21 04.02.2020
3134 Drizzle 4 1002 100 350 7.2 180 21:59 04.02.2020
3135 Drizzle 4 1002 100 350 7.2 180 21:40 04.02.2020
3136 Clouds 4 1003 93 8000 5.7 180 21:19 04.02.2020
3137 Clouds 4 1003 93 8000 5.7 180 21:19 04.02.2020
3138 Drizzle 4 1002 100 200 5.7 190 20:58 04.02.2020
3139 Drizzle 4 1002 100 200 5.7 190 20:38 04.02.2020
3140 Drizzle 4 1003 93 7000 5.7 180 20:20 04.02.2020
3141 Drizzle 4 1002 100 200 6.2 190 19:56 04.02.2020
3142 Drizzle 4 1002 100 200 6.2 190 19:38 04.02.2020
3143 Clouds 4 1003 93 10000 6.7 190 19:19 04.02.2020
3144 Drizzle 4 1002 100 250 7.2 190 18:54 04.02.2020
3145 Rain 4 1002 86 10000 6.7 180 18:36 04.02.2020
3146 Rain 4 1002 86 10000 6.7 180 18:18 04.02.2020
3147 Drizzle 4 1001 100 250 8.2 190 17:41 04.02.2020
3148 Rain 4 1003 86 10000 7.2 160 17:20 04.02.2020
3149 Drizzle 3 1002 100 600 9.3 170 16:40 04.02.2020
3150 Drizzle 4 1003 80 10000 8.2 150 16:21 04.02.2020
3151 Rain 3 1002 100 2500 10.8 160 15:59 04.02.2020
3152 Rain 3 1002 100 2500 10.8 160 15:41 04.02.2020
3153 Rain 3 1005 80 6000 10.8 140 15:21 04.02.2020
3154 Rain 2 1004 100 3000 11.3 150 14:58 04.02.2020
3155 Rain 2 1004 100 3000 11.3 150 14:40 04.02.2020
3156 Rain 2 1007 83 10000 7.7 140 14:20 04.02.2020
3157 Rain 2 1006 93 10000 11.3 150 13:55 04.02.2020
3158 Rain 2 1006 93 10000 11.3 150 13:36 04.02.2020
3159 Drizzle 2 1008 82 10000 6.7 150 13:18 04.02.2020
3160 Rain 2 1007 86 10000 8.2 170 12:42 04.02.2020
3161 Rain 2 1007 86 10000 8.2 170 12:42 04.02.2020
3162 Rain 2 1008 82 10000 8.2 140 12:24 04.02.2020
3163 Rain 1 1008 93 10000 8.2 140 11:57 04.02.2020
3164 Rain 1 1008 93 10000 8.2 140 11:38 04.02.2020
3165 Clouds 1 1009 80 10000 4.1 110 11:19 04.02.2020
3166 Drizzle 1 1009 100 10000 8.2 140 10:49 04.02.2020
3167 Clouds 1 1010 80 10000 4.1 110 10:26 04.02.2020
3168 Clouds 0 1009 83 10000 7.7 140 09:58 04.02.2020
3169 Clouds 0 1009 83 10000 7.7 140 09:39 04.02.2020
3170 Clouds 0 1010 86 10000 5.1 140 09:21 04.02.2020
3171 Clouds -1 1009 100 10000 5.7 140 08:46 04.02.2020
3172 Clouds -1 1010 87 10000 2.6 110 08:27 04.02.2020
3173 Clouds -1 1010 100 10000 5.7 140 07:53 04.02.2020
3174 Clouds -1 1010 80 10000 3.1 120 07:25 04.02.2020
3175 Clouds -2 1010 78 10000 4.1 140 06:58 04.02.2020
3176 Clouds -2 1010 78 10000 4.1 140 06:40 04.02.2020
3177 Clouds -2 1010 100 10000 2.6 170 05:34 04.02.2020
3178 Clouds -3 1010 92 10000 2.6 120 04:28 04.02.2020
3179 Clouds -3 1009 92 10000 2.1 180 03:48 04.02.2020
3180 Clouds -2 1009 72 10000 1 0 03:29 04.02.2020
3181 Clouds -2 1009 72 10000 2.1 250 02:42 04.02.2020
3182 Clouds -2 1008 92 10000 1.5 130 02:24 04.02.2020
3183 Clouds -2 1008 72 10000 2.1 290 01:45 04.02.2020
3184 Clouds -2 1007 74 10000 1 280 00:56 04.02.2020
3185 Clouds -2 1006 74 10000 3.1 140 00:23 04.02.2020
3186 Clouds -1 1006 79 10000 2.1 150 23:49 03.02.2020
3187 Clouds 0 1005 74 10000 1.5 130 23:30 03.02.2020
3188 Clouds -1 1005 78 10000 1.5 340 22:58 03.02.2020
3189 Clouds -1 1005 78 10000 1.5 340 22:38 03.02.2020
3190 Rain 0 1004 78 10000 2.1 200 22:19 03.02.2020
3191 Clouds 0 1004 80 10000 1 0 21:41 03.02.2020
3192 Rain 0 1003 78 10000 0.5 0 21:20 03.02.2020
3193 Snow 0 1002 78 10000 1 330 20:55 03.02.2020
3194 Snow 0 1002 75 10000 1 330 20:37 03.02.2020
3195 Rain 0 1001 84 10000 1.5 200 20:18 03.02.2020
3196 Snow 0 1001 84 10000 1.5 40 19:41 03.02.2020
3197 Rain 0 1000 84 10000 2.7 336 19:22 03.02.2020
3198 Clouds 0 999 84 10000 1.5 330 18:57 03.02.2020
3199 Clouds 0 999 84 10000 1.5 330 18:39 03.02.2020
3200 Snow 0 999 84 9000 1.5 170 18:21 03.02.2020
3201 Snow 0 998 84 3200 2.6 10 17:57 03.02.2020
3202 Snow 0 998 84 3200 2.6 10 17:57 03.02.2020
3203 Snow 0 998 84 3200 2.6 10 17:38 03.02.2020
3204 Rain 0 997 80 10000 1.5 300 17:19 03.02.2020
3205 Snow 0 997 94 2000 1.5 110 16:40 03.02.2020
3206 Snow 0 997 94 10000 2.6 350 16:21 03.02.2020
3207 Snow 0 996 94 800 2.1 80 15:57 03.02.2020
3208 Snow 0 996 94 800 2.1 80 15:39 03.02.2020
3209 Clouds 0 996 94 10000 1 0 15:19 03.02.2020
3210 Snow 0 996 94 2500 0.5 260 14:57 03.02.2020
3211 Snow 0 996 94 2500 0.5 260 14:38 03.02.2020
3212 Rain 0 995 97 10000 1.5 280 14:19 03.02.2020
3213 Rain 0 995 97 10000 1.5 240 13:42 03.02.2020
3214 Snow 0 995 98 2200 3.1 270 13:21 03.02.2020
3215 Snow 0 994 98 1800 1 200 12:58 03.02.2020
3216 Snow 0 994 98 1800 1 200 12:39 03.02.2020
3217 Rain 0 994 74 10000 2.6 230 12:21 03.02.2020
3218 Snow 0 993 98 1500 3.6 180 11:55 03.02.2020
3219 Snow 0 993 98 1500 3.6 180 11:36 03.02.2020
3220 Rain 1 993 64 10000 3.1 100 11:18 03.02.2020
3221 Snow 1 993 95 1600 3.6 190 10:40 03.02.2020
3222 Rain 1 992 59 10000 3.6 90 10:22 03.02.2020
3223 Snow 0 992 95 800 4.6 210 09:46 03.02.2020
3224 Rain 1 992 64 10000 4.1 90 09:23 03.02.2020
3225 Snow 0 992 95 1800 1.5 170 08:55 03.02.2020
3226 Snow 0 992 95 1800 1.5 170 08:37 03.02.2020
3227 Rain 1 991 64 10000 5.7 70 08:18 03.02.2020
3228 Snow 0 991 72 2000 5.1 120 07:40 03.02.2020
3229 Clouds 1 991 59 10000 6.7 80 07:21 03.02.2020
3230 Snow 2 990 74 4000 4.6 90 06:51 03.02.2020
3231 Clouds 1 991 59 10000 6.2 80 06:28 03.02.2020
3232 Clouds 2 990 74 10000 5.1 90 05:37 03.02.2020
3233 Clouds 2 991 59 10000 7.2 80 05:18 03.02.2020
3234 Clouds 0 991 74 10000 7.2 110 03:51 03.02.2020
3235 Clouds -1 991 80 10000 4.1 80 02:36 03.02.2020
3236 Clouds -2 991 74 10000 4.1 90 01:42 03.02.2020
3237 Clouds -3 991 79 10000 3.6 70 00:47 03.02.2020
3238 Clouds -3 992 79 10000 6.2 80 00:25 03.02.2020
3239 Clouds -3 991 79 10000 4.6 80 23:39 02.02.2020
3240 Clouds -3 992 63 10000 4.6 80 23:21 02.02.2020
3241 Clouds -3 991 86 10000 4.6 80 22:58 02.02.2020
3242 Clouds -3 991 86 10000 4.6 80 22:38 02.02.2020
3243 Clouds -3 991 86 10000 4.6 80 22:38 02.02.2020
3244 Clouds -2 992 78 10000 5.7 80 22:19 02.02.2020
3245 Clouds -3 992 78 10000 4.1 80 21:55 02.02.2020
3246 Clouds -2 992 78 10000 4.1 80 21:37 02.02.2020
3247 Clouds -3 992 63 10000 4.1 90 21:19 02.02.2020
3248 Clouds -3 992 80 10000 4.6 80 20:55 02.02.2020
3249 Clouds -3 992 80 10000 4.6 80 20:37 02.02.2020
3250 Clouds -3 992 63 10000 4.6 70 20:19 02.02.2020
3251 Clouds -3 992 80 10000 5.1 80 19:55 02.02.2020
3252 Clouds -3 992 80 10000 5.1 80 19:37 02.02.2020
3253 Clouds -3 992 63 10000 4.6 80 19:18 02.02.2020
3254 Clouds -3 992 80 10000 5.1 80 18:39 02.02.2020
3255 Clouds -2 992 63 10000 3.6 90 18:21 02.02.2020
3256 Clouds -3 992 75 10000 5.7 80 17:58 02.02.2020
3257 Clouds -2 992 75 10000 5.7 80 17:38 02.02.2020
3258 Clouds -3 992 58 10000 4.6 80 17:19 02.02.2020
3259 Clouds -3 992 71 10000 4.6 70 16:59 02.02.2020
3260 Clouds -3 992 71 10000 4.6 70 16:39 02.02.2020
3261 Clouds -3 993 58 10000 5.7 70 16:19 02.02.2020
3262 Snow -3 992 86 6000 4.6 80 15:59 02.02.2020
3263 Snow -3 992 86 6000 4.6 80 15:40 02.02.2020
3264 Clouds -4 993 68 10000 4.6 80 15:20 02.02.2020
3265 Snow -4 993 86 10000 4.6 80 14:58 02.02.2020
3266 Snow -4 993 86 10000 4.6 80 14:40 02.02.2020
3267 Clouds -4 994 63 10000 5.1 70 14:18 02.02.2020
3268 Clouds -4 993 80 10000 5.1 80 13:55 02.02.2020
3269 Clouds -4 993 80 10000 5.1 80 13:37 02.02.2020
3270 Clouds -5 994 68 10000 4.6 60 13:18 02.02.2020
3271 Clouds -5 993 80 10000 4.6 90 12:44 02.02.2020
3272 Clouds -5 994 68 10000 5.7 60 12:22 02.02.2020
3273 Clouds -6 993 86 10000 5.7 120 11:59 02.02.2020
3274 Clouds -4 993 86 10000 5.7 120 11:40 02.02.2020
3275 Clouds -5 994 68 10000 5.7 70 11:19 02.02.2020
3276 Clouds -6 993 74 10000 6.2 130 10:56 02.02.2020
3277 Clouds -6 993 74 10000 6.2 130 10:36 02.02.2020
3278 Clouds -6 993 74 10000 6.2 130 10:36 02.02.2020
3279 Clouds -6 994 68 10000 6.2 80 10:18 02.02.2020
3280 Clouds -6 993 74 10000 4.6 130 09:55 02.02.2020
3281 Clouds -6 993 74 10000 4.6 130 09:36 02.02.2020
3282 Clouds -6 994 73 10000 5.1 80 09:18 02.02.2020
3283 Clouds -6 993 86 10000 4.1 130 08:41 02.02.2020
3284 Clouds -5 994 68 10000 6.2 90 08:22 02.02.2020
3285 Clouds -5 994 86 10000 4.6 140 07:46 02.02.2020
3286 Clouds -5 994 86 10000 4.6 140 07:46 02.02.2020
3287 Clouds -5 994 74 10000 5.7 100 07:28 02.02.2020
3288 Clouds -6 994 79 10000 4.1 100 06:43 02.02.2020
3289 Clouds -6 995 79 10000 4.6 80 06:25 02.02.2020
3290 Clouds -6 994 86 10000 5.7 140 05:47 02.02.2020
3291 Clouds -6 994 79 10000 5.1 140 04:42 02.02.2020
3292 Clouds -6 995 79 10000 4.1 90 03:25 02.02.2020
3293 Clouds -5 995 74 10000 2.1 70 02:29 02.02.2020
3294 Clouds -6 995 86 10000 4.6 150 01:54 02.02.2020
3295 Clouds -6 995 79 10000 0.5 0 01:22 02.02.2020
3296 Clouds -7 995 86 10000 4.6 150 00:43 02.02.2020
3297 Clouds -7 995 79 10000 1 110 00:22 02.02.2020
3298 Clouds -6 995 86 10000 4.1 150 23:46 01.02.2020
3299 Clear -6 995 79 10000 2.1 100 23:21 01.02.2020
3300 Clouds -6 995 86 10000 3.1 130 22:51 01.02.2020
3301 Clear -6 995 79 10000 1 0 22:20 01.02.2020
3302 Clear -6 995 79 10000 1 0 22:20 01.02.2020
3303 Clouds -7 995 86 10000 3.1 140 21:57 01.02.2020
3304 Clouds -7 995 86 10000 3.1 140 21:38 01.02.2020
3305 Clear -7 995 79 10000 1 0 21:18 01.02.2020
3306 Clouds -6 995 86 10000 2.6 140 20:40 01.02.2020
3307 Clouds -6 995 73 10000 1.5 100 20:20 01.02.2020
3308 Clouds -7 995 86 10000 1.5 160 19:57 01.02.2020
3309 Clouds -7 995 86 10000 1.5 160 19:39 01.02.2020
3310 Clouds -6 995 79 10000 1.5 140 19:19 01.02.2020
3311 Clouds -6 995 86 10000 0.5 110 18:57 01.02.2020
3312 Clouds -6 995 86 10000 0.5 110 18:39 01.02.2020
3313 Clouds -5 995 73 10000 0.5 0 18:21 01.02.2020
3314 Clouds -5 994 86 10000 1.5 10 17:56 01.02.2020
3315 Clouds -4 994 86 10000 1.5 10 17:38 01.02.2020
3316 Clouds -4 994 68 10000 1.14 221 17:19 01.02.2020
3317 Clouds -4 994 79 10000 1.5 360 16:42 01.02.2020
3318 Clouds -4 995 73 10000 1.5 0 16:23 01.02.2020
3319 Clouds -4 994 86 10000 2.1 320 15:58 01.02.2020
3320 Clouds -4 994 86 10000 2.1 320 15:38 01.02.2020
3321 Clouds -4 994 73 10000 1 0 15:18 01.02.2020
3322 Clouds -4 994 86 10000 2.1 270 14:41 01.02.2020
3323 Clouds -4 994 68 10000 1 0 14:21 01.02.2020
3324 Clouds -5 994 86 10000 2.1 60 13:45 01.02.2020
3325 Clouds -5 994 73 10000 2.1 120 13:24 01.02.2020
3326 Clouds -5 993 86 10000 1.5 50 12:59 01.02.2020
3327 Clouds -5 993 86 10000 1.5 50 12:41 01.02.2020
3328 Clouds -5 993 67 10000 0.5 168 12:22 01.02.2020
3329 Clouds -5 993 86 10000 2.1 40 11:44 01.02.2020
3330 Clouds -5 993 67 10000 2.1 100 11:24 01.02.2020
3331 Clouds -5 992 79 10000 1.5 10 10:59 01.02.2020
3332 Clouds -5 992 79 10000 1.5 10 10:41 01.02.2020
3333 Clouds -5 992 73 10000 0.5 0 10:22 01.02.2020
3334 Clouds -6 992 86 10000 2.6 30 09:59 01.02.2020
3335 Clouds -6 992 86 10000 2.6 30 09:40 01.02.2020
3336 Clouds -6 992 73 10000 0.5 0 09:21 01.02.2020
3337 Clouds -5 991 79 10000 2.6 40 08:54 01.02.2020
3338 Clouds -5 992 73 10000 1 0 08:18 01.02.2020
3339 Clouds -5 991 79 10000 2.1 80 07:41 01.02.2020
3340 Clouds -4 991 73 10000 2.1 100 07:22 01.02.2020
3341 Clouds -5 991 86 10000 1 60 06:44 01.02.2020
3342 Clouds -4 990 79 10000 2.6 30 05:54 01.02.2020
3343 Clouds -4 990 79 10000 0.5 0 04:22 01.02.2020
3344 Clouds -4 990 73 10000 2.6 80 03:25 01.02.2020
3345 Clouds -4 990 79 10000 6.7 30 02:58 01.02.2020
3346 Clouds -4 990 79 10000 6.7 30 02:39 01.02.2020
3347 Clouds -4 990 73 10000 3.1 120 02:19 01.02.2020
3348 Clouds -4 990 79 10000 6.7 30 01:40 01.02.2020
3349 Clouds -4 989 79 10000 1.5 190 01:19 01.02.2020
3350 Clouds -4 989 79 10000 2.1 130 00:23 01.02.2020
3351 Clouds -4 989 80 10000 7.7 30 23:41 31.01.2020
3352 Clouds -4 989 79 10000 1 0 23:19 31.01.2020
3353 Clouds -4 989 80 10000 7.7 50 22:57 31.01.2020
3354 Clouds -3 989 80 10000 7.7 50 22:38 31.01.2020
3355 Clouds -3 988 85 10000 1.5 150 22:20 31.01.2020
3356 Clouds -3 988 86 10000 8.2 40 21:55 31.01.2020
3357 Clouds -3 988 86 10000 8.2 40 21:37 31.01.2020
3358 Clouds -3 988 79 10000 1.5 130 21:18 31.01.2020
3359 Clouds -3 988 80 10000 7.2 30 20:54 31.01.2020
3360 Clouds -3 988 80 10000 7.2 30 20:54 31.01.2020
3361 Clouds -3 988 80 10000 7.2 30 20:36 31.01.2020
3362 Clouds -3 988 79 10000 2.1 140 20:36 31.01.2020
3363 Clear -3 988 79 10000 2.1 140 20:18 31.01.2020
3364 Clouds -3 987 86 10000 7.7 30 19:42 31.01.2020
3365 Clouds -2 987 79 10000 1 0 19:23 31.01.2020
3366 Clouds -2 987 85 10000 7.2 20 18:58 31.01.2020
3367 Clouds -1 987 85 10000 7.2 20 18:38 31.01.2020
3368 Clouds -1 987 74 10000 1.5 170 18:19 31.01.2020
3369 Clouds -1 987 85 10000 7.2 30 17:44 31.01.2020
3370 Clouds -1 986 85 10000 1.5 60 17:26 31.01.2020
3371 Clouds -1 987 82 10000 8.2 20 16:57 31.01.2020
3372 Clouds -1 987 82 10000 8.2 20 16:38 31.01.2020
3373 Clouds -1 987 82 10000 2.1 250 16:19 31.01.2020
3374 Clouds -1 987 82 10000 7.2 40 15:58 31.01.2020
3375 Clouds 0 987 82 10000 7.2 40 15:39 31.01.2020
3376 Clouds 0 986 64 10000 7.7 30 15:20 31.01.2020
3377 Clouds 0 987 82 10000 5.7 40 14:43 31.01.2020
3378 Clouds 0 987 64 10000 8.7 20 14:24 31.01.2020
3379 Clouds 0 987 82 10000 6.2 30 13:56 31.01.2020
3380 Clouds 0 987 82 10000 6.2 30 13:37 31.01.2020
3381 Clouds 0 987 59 10000 2.6 30 13:18 31.01.2020
3382 Clouds -1 987 86 10000 8.2 20 12:43 31.01.2020
3383 Clouds -1 986 64 10000 9.3 20 12:23 31.01.2020
3384 Clouds -1 987 86 10000 8.2 20 11:55 31.01.2020
3385 Clouds -1 987 86 10000 8.2 20 11:37 31.01.2020
3386 Clouds -1 986 85 10000 8.7 10 11:18 31.01.2020
3387 Clouds -1 986 86 10000 8.7 20 10:43 31.01.2020
3388 Clouds -1 986 64 10000 5.7 30 10:22 31.01.2020
3389 Clouds -1 987 86 10000 7.7 20 09:57 31.01.2020
3390 Clouds -1 987 86 10000 7.7 20 09:39 31.01.2020
3391 Clouds 0 986 64 10000 7.7 10 09:19 31.01.2020
3392 Clouds -1 986 86 10000 7.7 30 08:52 31.01.2020
3393 Clouds -1 986 64 10000 9.8 10 08:27 31.01.2020
3394 Clouds -1 986 86 10000 7.7 30 07:54 31.01.2020
3395 Clouds 0 986 64 10000 9.3 20 07:26 31.01.2020
3396 Clouds -1 987 86 10000 7.2 30 06:59 31.01.2020
3397 Clouds 0 986 84 10000 8.2 360 06:20 31.01.2020
3398 Clouds 0 987 84 10000 10.3 30 05:50 31.01.2020
3399 Clouds 0 987 84 10000 9.3 20 04:56 31.01.2020
3400 Clouds 0 988 84 10000 4.6 330 03:26 31.01.2020
3401 Clouds -1 988 86 10000 7.7 10 01:40 31.01.2020
3402 Clear -1 988 86 10000 7.7 30 00:46 31.01.2020
3403 Clouds 0 988 85 10000 5.7 360 00:27 31.01.2020
3404 Clouds 0 988 85 10000 7.2 30 23:57 30.01.2020
3405 Clouds -1 988 88 10000 3.1 60 23:26 30.01.2020
3406 Clouds 0 988 88 10000 6.2 30 22:57 30.01.2020
3407 Clouds 0 988 88 10000 6.2 30 22:37 30.01.2020
3408 Clouds 0 988 88 10000 6.2 30 22:37 30.01.2020
3409 Clouds 0 988 88 10000 6.2 30 22:18 30.01.2020
3410 Clouds 0 988 88 10000 6.2 30 22:18 30.01.2020
3411 Clouds 0 988 88 10000 7.7 30 21:57 30.01.2020
3412 Clouds 0 988 88 10000 7.7 30 21:38 30.01.2020
3413 Clouds 0 988 74 10000 5.7 10 21:18 30.01.2020
3414 Clouds 0 988 74 10000 5.7 10 21:18 30.01.2020
3415 Clouds 0 988 88 10000 6.7 20 20:41 30.01.2020
3416 Clouds 0 987 80 10000 3.6 340 20:22 30.01.2020
3417 Clouds 1 987 80 10000 3.6 340 20:22 30.01.2020
3418 Clouds 0 987 90 10000 7.2 10 19:58 30.01.2020
3419 Clouds 0 987 90 10000 7.2 10 19:40 30.01.2020
3420 Clouds 0 987 90 10000 4.1 340 19:19 30.01.2020
3421 Clouds 0 987 90 10000 6.2 10 18:42 30.01.2020
3422 Clouds 0 987 90 10000 3.1 340 18:23 30.01.2020
3423 Clear 0 987 90 10000 5.7 10 17:58 30.01.2020
3424 Clear -1 987 90 10000 5.7 10 17:39 30.01.2020
3425 Clouds -1 987 85 10000 2.1 350 17:19 30.01.2020
3426 Clear -1 987 92 10000 5.7 360 16:58 30.01.2020
3427 Clear -1 987 92 10000 5.7 360 16:39 30.01.2020
3428 Clouds 0 986 85 10000 5.7 350 16:20 30.01.2020
3429 Clear 0 986 85 10000 5.1 20 15:44 30.01.2020
3430 Clouds 0 986 85 10000 1.5 0 15:21 30.01.2020
3431 Clouds 0 986 85 10000 1.5 0 15:21 30.01.2020
3432 Clear -1 986 85 10000 4.1 30 14:57 30.01.2020
3433 Clear -1 986 85 10000 4.1 30 14:37 30.01.2020
3434 Clouds -1 986 79 10000 1.5 0 14:19 30.01.2020
3435 Clear -2 986 92 10000 6.2 20 13:41 30.01.2020
3436 Clouds -2 986 79 10000 2.1 140 13:22 30.01.2020
3437 Clear -1 986 85 10000 7.7 10 12:55 30.01.2020
3438 Clear -1 986 85 10000 7.7 10 12:37 30.01.2020
3439 Clouds -2 985 79 10000 1.5 90 12:18 30.01.2020
3440 Clouds -1 985 85 10000 6.7 10 11:41 30.01.2020
3441 Clouds 0 984 89 10000 1.5 0 11:22 30.01.2020
3442 Clouds 0 985 89 10000 6.7 10 10:58 30.01.2020
3443 Clouds 0 985 89 10000 6.7 10 10:39 30.01.2020
3444 Clouds 0 984 89 10000 5.1 360 10:20 30.01.2020
3445 Clouds -1 984 89 10000 7.2 20 09:45 30.01.2020
3446 Clouds -1 984 74 10000 1.5 0 09:24 30.01.2020
3447 Clouds 0 984 89 10000 7.7 10 08:42 30.01.2020
3448 Clouds 1 984 69 10000 6.7 10 08:22 30.01.2020
3449 Clouds -2 984 83 10000 7.7 10 07:58 30.01.2020
3450 Clouds -2 984 83 10000 7.7 10 07:39 30.01.2020
3451 Clouds -2 984 79 10000 1.5 140 07:18 30.01.2020
3452 Clear -4 984 92 10000 5.7 10 06:43 30.01.2020
3453 Clear -4 984 79 10000 2.1 180 06:25 30.01.2020
3454 Clear -5 984 85 10000 2.1 160 05:29 30.01.2020
3455 Clear -4 984 72 10000 7.7 30 04:50 30.01.2020
3456 Clear -5 985 72 10000 6.2 30 03:47 30.01.2020
3457 Clear -6 985 79 10000 3.6 60 02:59 30.01.2020
3458 Clear -5 985 85 10000 2.1 110 01:30 30.01.2020
3459 Clear -5 986 79 10000 2.1 140 00:30 30.01.2020
3460 Clear -4 985 86 10000 4.6 40 23:58 29.01.2020
3461 Clear -4 985 86 10000 4.6 40 23:39 29.01.2020
3462 Clear -3 986 68 10000 2.6 50 23:20 29.01.2020
3463 Clear -5 986 80 10000 5.1 30 22:55 29.01.2020
3464 Clear -4 986 80 10000 5.1 30 22:37 29.01.2020
3465 Clear -5 986 73 10000 3.6 120 22:18 29.01.2020
3466 Clear -5 986 86 10000 3.6 50 21:54 29.01.2020
3467 Clear -4 986 86 10000 3.6 50 21:36 29.01.2020
3468 Clear -4 986 73 10000 1.5 140 21:18 29.01.2020
3469 Clear -4 986 73 10000 1.5 140 21:18 29.01.2020
3470 Clear -5 986 86 10000 4.6 50 20:41 29.01.2020
3471 Clear -4 986 73 10000 2.1 120 20:22 29.01.2020
3472 Clear -4 986 73 10000 2.1 120 20:22 29.01.2020
3473 Clear -4 986 80 10000 4.6 40 19:58 29.01.2020
3474 Clear -4 986 80 10000 4.6 40 19:38 29.01.2020
3475 Clear -4 986 79 10000 0.5 0 19:20 29.01.2020
3476 Clear -4 986 80 10000 3.1 60 18:58 29.01.2020
3477 Clear -3 986 80 10000 3.1 60 18:38 29.01.2020
3478 Clear -3 986 74 10000 1.5 190 18:19 29.01.2020
3479 Clear -3 986 80 10000 3.1 50 17:41 29.01.2020
3480 Clear -3 986 68 10000 2.1 220 17:23 29.01.2020
3481 Clear -4 986 80 10000 3.1 50 16:55 29.01.2020
3482 Clear -3 986 80 10000 3.1 50 16:37 29.01.2020
3483 Clear -3 986 68 10000 2.1 160 16:19 29.01.2020
3484 Clear -3 986 68 10000 2.1 160 16:19 29.01.2020
3485 Clear -3 986 79 10000 4.1 50 15:39 29.01.2020
3486 Clear -3 987 63 10000 1.5 110 15:21 29.01.2020
3487 Clear -4 987 73 10000 3.1 50 14:55 29.01.2020
3488 Clear -4 987 73 10000 3.1 50 14:37 29.01.2020
3489 Clear -4 987 63 10000 3.1 110 14:18 29.01.2020
3490 Clear -5 987 85 10000 3.6 70 13:40 29.01.2020
3491 Clear -5 987 63 10000 2.1 120 13:22 29.01.2020
3492 Clear -5 987 86 10000 3.6 60 12:56 29.01.2020
3493 Clear -5 987 86 10000 3.6 60 12:38 29.01.2020
3494 Clear -4 987 63 10000 1 0 12:20 29.01.2020
3495 Clear -6 987 79 10000 4.1 50 11:47 29.01.2020
3496 Clear -5 987 73 10000 1.5 0 11:24 29.01.2020
3497 Clear -5 987 86 10000 3.1 60 10:56 29.01.2020
3498 Clear -5 987 86 10000 3.1 60 10:37 29.01.2020
3499 Clear -5 987 73 10000 2.1 90 10:19 29.01.2020
3500 Clear -5 987 73 10000 2.6 40 09:40 29.01.2020
3501 Clear -5 987 73 10000 2.6 40 09:21 29.01.2020
3502 Clear -6 987 79 10000 6.2 30 08:57 29.01.2020
3503 Clear -6 987 79 10000 6.2 30 08:39 29.01.2020
3504 Clear -5 987 73 10000 0.5 0 08:20 29.01.2020
3505 Clear -5 987 86 10000 4.1 50 07:44 29.01.2020
3506 Clear -5 987 68 10000 3 55 07:24 29.01.2020
3507 Clear -6 987 86 10000 4.1 60 06:54 29.01.2020
3508 Clear -5 987 86 10000 4.1 60 06:36 29.01.2020
3509 Clear -5 987 86 10000 4.1 80 06:18 29.01.2020
3510 Clear -4 987 86 10000 4.1 60 05:43 29.01.2020
3511 Clear -4 988 68 10000 4.1 60 05:25 29.01.2020
3512 Clear -4 987 92 10000 3.6 40 04:37 29.01.2020
3513 Clear -4 987 86 10000 2.1 70 02:43 29.01.2020
3514 Clear -4 988 68 10000 1 0 02:18 29.01.2020
3515 Fog -4 987 100 10000 1.5 30 00:43 29.01.2020
3516 Clear -5 987 68 10000 1.44 119 00:24 29.01.2020
3517 Clear -4 986 68 10000 1 50 23:56 28.01.2020
3518 Clear -4 986 68 10000 1 50 23:37 28.01.2020
3519 Clear -4 987 73 10000 2.6 130 23:18 28.01.2020
3520 Clear -3 987 68 10000 1 0 22:40 28.01.2020
3521 Clear -3 987 68 10000 1 0 22:21 28.01.2020
3522 Clouds -2 986 80 10000 3.1 50 21:42 28.01.2020
3523 Clear -3 987 73 10000 2.1 60 21:22 28.01.2020
3524 Clouds -3 986 74 10000 3.1 40 20:58 28.01.2020
3525 Clouds -3 986 74 10000 3.1 40 20:40 28.01.2020
3526 Clouds -3 986 73 10000 1 110 20:21 28.01.2020
3527 Clouds -2 986 74 10000 3.1 50 19:39 28.01.2020
3528 Clouds -2 986 68 10000 2.18 55 19:20 28.01.2020
3529 Clouds -2 986 71 10000 3.6 60 18:58 28.01.2020
3530 Clouds -2 986 71 10000 3.6 60 18:58 28.01.2020
3531 Clouds -2 986 71 10000 3.6 60 18:39 28.01.2020
3532 Clouds -2 985 71 10000 0.5 0 18:21 28.01.2020
3533 Clouds -2 985 71 10000 0.5 0 18:21 28.01.2020
3534 Clouds -2 985 74 10000 4.1 80 17:57 28.01.2020
3535 Clouds -1 985 74 10000 4.1 80 17:37 28.01.2020
3536 Clouds -1 985 59 10000 4.6 90 17:19 28.01.2020
3537 Clouds -1 985 65 10000 4.1 60 16:54 28.01.2020
3538 Clouds -1 985 65 10000 4.1 60 16:36 28.01.2020
3539 Clouds 0 985 64 10000 3.6 100 16:18 28.01.2020
3540 Clouds 0 984 74 10000 3.1 60 15:42 28.01.2020
3541 Clouds 0 984 64 10000 5.7 80 15:19 28.01.2020
3542 Rain 0 984 80 10000 5.7 100 14:54 28.01.2020
3543 Rain 0 984 80 10000 5.7 100 14:36 28.01.2020
3544 Clouds 0 983 64 10000 5.1 90 14:18 28.01.2020
3545 Rain 0 983 86 10000 4.6 90 13:39 28.01.2020
3546 Clouds 0 983 74 10000 3.6 90 13:21 28.01.2020
3547 Rain 0 982 80 10000 5.1 90 12:42 28.01.2020
3548 Clouds 1 982 74 10000 5.7 90 12:23 28.01.2020
3549 Rain 1 982 75 10000 6.2 100 11:48 28.01.2020
3550 Clouds 1 982 80 10000 4.6 90 11:23 28.01.2020
3551 Rain 0 981 86 10000 7.7 110 10:59 28.01.2020
3552 Rain 0 981 86 10000 7.7 110 10:40 28.01.2020
3553 Rain 0 981 75 10000 5.1 70 10:20 28.01.2020
3554 Rain 1 980 75 10000 6.7 100 09:55 28.01.2020
3555 Rain 0 980 75 10000 6.7 100 09:36 28.01.2020
3556 Rain 0 980 75 10000 4.6 70 09:18 28.01.2020
3557 Rain 0 979 75 10000 6.2 100 08:40 28.01.2020
3558 Rain 0 979 78 10000 6.7 80 08:19 28.01.2020
3559 Drizzle 1 979 86 10000 8.2 110 07:38 28.01.2020
3560 Rain 1 977 78 10000 4.1 110 06:51 28.01.2020
3561 Snow 0 978 78 10000 6.2 110 06:28 28.01.2020
3562 Rain 0 977 78 10000 5.7 100 05:55 28.01.2020
3563 Clouds 0 977 78 10000 5.7 90 05:27 28.01.2020
3564 Snow 0 976 87 2900 7.2 90 04:30 28.01.2020
3565 Rain 1 975 87 10000 7.2 90 02:58 28.01.2020
3566 Rain 0 976 87 10000 7.2 80 02:25 28.01.2020
3567 Rain 0 976 87 10000 7.2 80 02:25 28.01.2020
3568 Rain 0 976 87 10000 7.2 80 02:25 28.01.2020
3569 Rain 0 974 77 10000 2.1 130 01:57 28.01.2020
3570 Rain 0 975 77 10000 5.7 70 01:32 28.01.2020
3571 Clouds 0 973 76 10000 2.6 180 00:51 28.01.2020
3572 Snow 0 974 76 5000 5.1 110 00:29 28.01.2020
3573 Snow 0 973 76 10000 3.6 110 23:51 27.01.2020
3574 Rain 0 973 76 10000 6.7 100 23:30 27.01.2020
3575 Snow -1 972 95 6000 8.7 170 22:59 27.01.2020
3576 Snow 0 972 95 6000 8.7 170 22:40 27.01.2020
3577 Snow 0 973 95 3900 6.7 100 22:19 27.01.2020
3578 Clouds 0 971 100 9000 6.7 130 21:55 27.01.2020
3579 Clouds 0 971 100 9000 6.7 130 21:37 27.01.2020
3580 Rain 0 972 95 10000 3.1 120 21:18 27.01.2020
3581 Snow 0 970 95 4000 6.2 120 20:54 27.01.2020
3582 Snow 0 970 95 4000 6.2 120 20:36 27.01.2020
3583 Snow 0 971 84 8000 5.7 100 20:18 27.01.2020
3584 Snow 0 970 84 1500 6.7 100 19:41 27.01.2020
3585 Snow 0 970 84 10000 5.7 100 19:22 27.01.2020
3586 Snow 0 969 84 8000 8.7 90 18:56 27.01.2020
3587 Snow 0 969 84 8000 8.7 90 18:38 27.01.2020
3588 Snow 1 969 74 2000 9.3 90 18:19 27.01.2020
3589 Rain 1 968 84 10000 6.2 80 17:39 27.01.2020
3590 Snow 1 969 80 10000 5.7 90 17:21 27.01.2020
3591 Snow 1 968 78 9000 4.6 80 16:59 27.01.2020
3592 Snow 1 968 78 9000 4.6 80 16:41 27.01.2020
3593 Rain 1 968 64 10000 4.1 140 16:23 27.01.2020
3594 Rain 0 968 92 10000 2.6 70 15:55 27.01.2020
3595 Rain 0 968 92 10000 2.6 70 15:37 27.01.2020
3596 Rain 0 968 92 10000 2.6 70 15:37 27.01.2020
3597 Clouds 0 968 80 10000 2.6 90 15:18 27.01.2020
3598 Clouds 0 967 78 10000 3.1 100 14:42 27.01.2020
3599 Clouds 0 967 74 10000 5.1 80 14:22 27.01.2020
3600 Clouds 0 967 74 10000 6.2 80 13:58 27.01.2020
3601 Clouds 0 967 74 10000 6.2 80 13:39 27.01.2020
3602 Clouds 0 967 74 10000 7.7 80 13:19 27.01.2020
3603 Clouds 1 966 74 10000 6.7 70 12:54 27.01.2020
3604 Clouds 1 966 74 10000 6.7 70 12:36 27.01.2020
3605 Clouds 0 966 69 10000 7.2 80 12:18 27.01.2020
3606 Clouds 0 966 75 10000 7.2 70 11:41 27.01.2020
3607 Clouds 0 966 75 10000 7.2 70 11:41 27.01.2020
3608 Clouds 0 967 69 10000 6.2 80 11:20 27.01.2020
3609 Clouds 1 966 74 10000 8.7 80 10:43 27.01.2020
3610 Clouds 1 966 64 10000 6.7 70 10:24 27.01.2020
3611 Clouds 1 966 74 10000 8.2 70 09:56 27.01.2020
3612 Clouds 1 966 74 10000 8.2 70 09:38 27.01.2020
3613 Clouds 1 967 59 10000 5.7 60 09:18 27.01.2020
3614 Clear 0 966 70 10000 7.7 70 08:42 27.01.2020
3615 Clouds 0 966 59 10000 4.6 20 08:20 27.01.2020
3616 Clouds 0 966 74 10000 8.7 80 07:54 27.01.2020
3617 Clouds 0 966 74 10000 8.7 80 07:54 27.01.2020
3618 Clouds 0 966 74 10000 8.7 80 07:33 27.01.2020
3619 Clouds -1 966 79 10000 8.2 80 06:52 27.01.2020
3620 Clouds -1 966 75 10000 5.7 80 06:24 27.01.2020
3621 Clouds -1 967 63 10000 4.1 70 05:22 27.01.2020
3622 Clouds -1 966 70 10000 4.1 80 03:43 27.01.2020
3623 Clouds -1 967 70 10000 4.1 60 02:36 27.01.2020
3624 Clouds 0 967 55 10000 2.1 90 01:29 27.01.2020
3625 Clouds 1 965 64 10000 7.2 160 00:43 27.01.2020
3626 Clouds 1 966 55 10000 5.7 130 00:23 27.01.2020
3627 Clouds 1 965 74 10000 8.2 170 23:59 26.01.2020
3628 Clouds 1 965 74 10000 8.2 170 23:41 26.01.2020
3629 Clouds 1 965 74 10000 8.2 170 23:41 26.01.2020
3630 Clouds 1 965 64 10000 7.2 160 23:19 26.01.2020
3631 Clouds 1 964 80 10000 7.7 180 22:54 26.01.2020
3632 Clouds 1 964 80 10000 7.7 180 22:36 26.01.2020
3633 Clouds 1 965 74 10000 6.2 180 22:18 26.01.2020
3634 Rain 1 964 80 10000 8.2 190 21:55 26.01.2020
3635 Rain 1 964 80 10000 8.2 190 21:37 26.01.2020
3636 Clouds 2 964 74 10000 6.7 190 21:18 26.01.2020
3637 Rain 2 962 93 9000 11.8 220 20:55 26.01.2020
3638 Rain 1 963 80 10000 12.9 190 20:36 26.01.2020
3639 Rain 1 963 80 10000 12.9 190 20:18 26.01.2020
3640 Clouds 1 962 92 10000 3.6 190 19:41 26.01.2020
3641 Rain 1 962 80 10000 5.7 170 19:21 26.01.2020
3642 Clouds 1 961 92 10000 3.1 70 18:59 26.01.2020
3643 Clouds 1 961 92 10000 3.1 70 18:40 26.01.2020
3644 Clouds 1 961 80 10000 5.7 70 18:22 26.01.2020
3645 Rain 2 961 80 10000 5.1 60 17:58 26.01.2020
3646 Rain 2 961 80 10000 5.1 60 17:58 26.01.2020
3647 Rain 1 961 80 10000 5.1 60 17:38 26.01.2020
3648 Snow 1 961 69 10000 4.6 60 17:19 26.01.2020
3649 Rain 1 961 80 10000 5.1 50 16:58 26.01.2020
3650 Rain 2 961 80 10000 5.1 50 16:39 26.01.2020
3651 Clouds 2 962 69 10000 6.7 70 16:20 26.01.2020
3652 Rain 2 962 80 10000 5.1 60 15:55 26.01.2020
3653 Rain 2 962 80 10000 5.1 60 15:37 26.01.2020
3654 Clouds 2 963 80 10000 6.2 50 15:18 26.01.2020
3655 Clouds 1 964 80 10000 8.2 40 14:40 26.01.2020
3656 Clouds 1 964 86 10000 8.2 40 14:19 26.01.2020
3657 Clouds 1 964 86 10000 8.2 40 14:19 26.01.2020
3658 Clouds 1 965 74 10000 3.6 20 13:42 26.01.2020
3659 Clouds 1 965 74 10000 3.6 20 13:20 26.01.2020
3660 Clouds 0 966 80 10000 4.1 10 12:58 26.01.2020
3661 Clouds 0 966 80 10000 4.1 10 12:39 26.01.2020
3662 Snow 0 966 73 2500 8.2 40 12:21 26.01.2020
3663 Clouds 0 966 80 10000 4.1 10 12:21 26.01.2020
3664 Snow 0 966 73 2500 8.2 40 11:57 26.01.2020
3665 Snow 0 966 73 2500 8.2 40 11:57 26.01.2020
3666 Snow 0 967 86 6000 4.6 50 11:38 26.01.2020
3667 Snow 0 967 86 6000 4.6 50 11:18 26.01.2020
3668 Snow 0 967 77 3500 8.2 40 10:58 26.01.2020
3669 Snow 0 968 80 7000 4.6 80 10:38 26.01.2020
3670 Snow 0 968 80 7000 4.6 80 10:38 26.01.2020
3671 Snow 0 968 80 7000 4.6 80 10:38 26.01.2020
3672 Snow 0 968 80 7000 4.6 80 10:20 26.01.2020
3673 Drizzle 0 968 77 10000 8.2 50 09:56 26.01.2020
3674 Drizzle 0 968 77 10000 8.2 50 09:38 26.01.2020
3675 Clouds 1 969 80 10000 7.7 80 09:20 26.01.2020
3676 Clouds 1 969 80 10000 8.7 50 08:42 26.01.2020
3677 Snow 1 970 74 10000 8.2 60 08:22 26.01.2020
3678 Clouds 1 969 80 10000 8.2 50 07:56 26.01.2020
3679 Clouds 1 969 80 10000 8.2 50 07:38 26.01.2020
3680 Clouds 1 970 80 10000 8.2 60 07:19 26.01.2020
3681 Clouds 2 972 74 10000 6.7 60 06:29 26.01.2020
3682 Clouds 2 973 69 10000 6.2 60 05:30 26.01.2020
3683 Clouds 2 973 81 10000 7.7 20 04:44 26.01.2020
3684 Clouds 1 976 81 10000 5.1 50 02:41 26.01.2020
3685 Clouds 1 977 84 10000 3.6 90 01:47 26.01.2020
3686 Clouds 1 978 80 10000 2.6 50 01:24 26.01.2020
3687 Clouds 2 978 80 10000 3.6 50 00:44 26.01.2020
3688 Clouds 2 979 80 10000 4.1 90 00:26 26.01.2020
3689 Rain 2 979 74 10000 4.6 90 23:40 25.01.2020
3690 Clouds 1 977 71 10000 4.6 180 23:21 25.01.2020
3691 Clouds 1 977 71 10000 4.6 180 22:58 25.01.2020
3692 Clouds 2 978 74 10000 3.6 120 22:40 25.01.2020
3693 Clouds 2 978 74 10000 3.6 120 22:18 25.01.2020
3694 Clouds 2 977 74 10000 5.7 150 21:57 25.01.2020
3695 Clouds 2 978 80 10000 3.1 80 21:38 25.01.2020
3696 Clouds 2 978 80 10000 3.1 80 21:19 25.01.2020
3697 Snow 0 979 71 0 4.62 153 20:44 25.01.2020
3698 Snow 0 979 71 0 4.62 153 20:25 25.01.2020
3699 Snow 2 977 74 0 6 166 19:55 25.01.2020
3700 Snow 2 977 74 0 6 166 19:37 25.01.2020
3701 Rain 2 977 80 10000 5.1 140 19:18 25.01.2020
3702 Rain 2 976 80 10000 5.7 180 18:41 25.01.2020
3703 Rain 2 976 80 10000 5.7 180 18:21 25.01.2020
3704 Rain 2 976 80 10000 5.7 180 17:57 25.01.2020
3705 Rain 3 975 74 10000 5.7 180 17:37 25.01.2020
3706 Rain 3 975 74 10000 5.7 180 17:37 25.01.2020
3707 Rain 3 975 81 10000 5.7 180 17:18 25.01.2020
3708 Rain 3 973 86 10000 9.3 180 16:42 25.01.2020
3709 Rain 2 972 93 10000 7.2 170 16:23 25.01.2020
3710 Rain 3 972 93 10000 7.2 170 15:57 25.01.2020
3711 Drizzle 3 974 81 7000 6.7 100 15:39 25.01.2020
3712 Snow 2 973 81 6000 12.3 110 15:20 25.01.2020
3713 Drizzle 2 974 81 7000 6.7 100 15:20 25.01.2020
3714 Snow 2 973 81 6000 12.3 110 14:42 25.01.2020
3715 Snow 2 973 93 6000 12.3 110 14:19 25.01.2020
3716 Rain 2 971 93 8000 10.8 130 13:45 25.01.2020
3717 Snow 2 972 80 6000 11.3 80 13:27 25.01.2020
3718 Rain 2 970 86 10000 12.9 100 12:58 25.01.2020
3719 Rain 2 970 86 10000 12.9 100 12:38 25.01.2020
3720 Clouds 2 971 92 10000 11.8 100 12:19 25.01.2020
3721 Clouds 2 971 92 10000 11.8 100 11:40 25.01.2020
3722 Clouds 2 972 69 10000 12.3 90 11:20 25.01.2020
3723 Clouds 2 971 82 10000 9.3 80 10:56 25.01.2020
3724 Clouds 2 971 82 10000 9.3 80 10:38 25.01.2020
3725 Clouds 2 972 69 10000 13.4 80 10:18 25.01.2020
3726 Clouds 2 972 82 10000 10.3 70 09:40 25.01.2020
3727 Clouds 2 973 69 10000 11.8 80 09:19 25.01.2020
3728 Clouds 2 973 82 10000 9.8 60 08:43 25.01.2020
3729 Snow 1 973 76 4000 10.8 60 07:58 25.01.2020
3730 Snow 1 973 76 4000 10.8 60 07:36 25.01.2020
3731 Snow 1 973 76 4000 10.8 60 07:36 25.01.2020
3732 Snow 1 973 100 10000 11.8 60 06:41 25.01.2020
3733 Clouds 1 974 80 10000 12.9 80 06:22 25.01.2020
3734 Snow 1 974 76 3000 13.9 60 05:43 25.01.2020
3735 Rain 0 976 86 8000 13.9 80 04:19 25.01.2020
3736 Snow 0 976 85 1000 12.3 60 03:49 25.01.2020
3737 Snow 0 978 85 1000 12.9 60 02:37 25.01.2020
3738 Snow 0 980 91 700 12.3 60 01:57 25.01.2020
3739 Snow -1 983 91 5000 9.3 60 01:23 25.01.2020
3740 Snow -1 983 100 1100 11.8 50 00:41 25.01.2020
3741 Clouds -1 986 90 8000 7.7 60 00:22 25.01.2020
3742 Snow -1 986 100 1400 12.9 70 23:42 24.01.2020
3743 Snow -1 988 86 8000 7.7 70 23:24 24.01.2020
3744 Snow -1 988 92 3000 12.3 70 22:47 24.01.2020
3745 Snow -1 990 80 10000 8.2 70 22:28 24.01.2020
3746 Snow 0 990 80 10000 10.3 70 21:59 24.01.2020
3747 Snow 0 990 80 10000 10.3 70 21:40 24.01.2020
3748 Clouds 0 992 64 10000 9.3 80 21:19 24.01.2020
3749 Rain 0 991 80 10000 9.3 70 20:44 24.01.2020
3750 Clouds 0 993 85 10000 7.7 80 20:22 24.01.2020
3751 Rain 0 993 85 10000 8.2 80 19:58 24.01.2020
3752 Rain 0 993 85 10000 8.2 80 19:58 24.01.2020
3753 Rain 0 993 85 10000 8.2 80 19:40 24.01.2020
3754 Clouds 0 994 85 10000 6.7 80 19:22 24.01.2020
3755 Clouds 0 994 85 10000 6.2 80 18:56 24.01.2020
3756 Clouds 0 994 85 10000 6.2 80 18:37 24.01.2020
3757 Clouds 0 996 85 10000 6.2 70 18:19 24.01.2020
3758 Clouds 0 995 85 10000 5.1 90 17:42 24.01.2020
3759 Clouds 0 997 88 10000 5.7 70 17:21 24.01.2020
3760 Clouds 0 997 88 10000 5.7 70 17:21 24.01.2020
3761 Clouds 0 996 88 10000 5.1 110 16:55 24.01.2020
3762 Clouds 0 996 88 10000 5.1 110 16:36 24.01.2020
3763 Clouds 0 998 88 10000 4.1 80 16:18 24.01.2020
3764 Clouds 0 998 88 10000 4.1 80 16:18 24.01.2020
3765 Clouds 0 998 88 10000 4.1 130 15:40 24.01.2020
3766 Clouds -1 999 88 10000 3.6 90 15:20 24.01.2020
3767 Clouds -1 999 100 10000 4.1 120 14:42 24.01.2020
3768 Clouds -1 1000 80 10000 2.6 140 14:23 24.01.2020
3769 Clouds -1 1000 92 10000 4.1 120 13:57 24.01.2020
3770 Clouds -1 1000 92 10000 4.1 120 13:39 24.01.2020
3771 Clouds -1 1000 79 10000 2.6 110 13:19 24.01.2020
3772 Clouds -1 1000 79 10000 2.6 110 13:19 24.01.2020
3773 Snow -1 1000 92 5000 3.1 140 12:41 24.01.2020
3774 Rain -1 1001 79 10000 4.1 160 12:19 24.01.2020
3775 Rain -1 1000 92 10000 1.5 150 11:43 24.01.2020
3776 Clouds -1 1001 78 10000 3.1 130 11:19 24.01.2020
3777 Snow -1 1001 78 10000 3.1 240 10:43 24.01.2020
3778 Snow 0 1001 69 10000 3.1 210 10:23 24.01.2020
3779 Snow 0 1001 69 10000 4.1 260 09:57 24.01.2020
3780 Snow 0 1001 69 10000 4.1 260 09:57 24.01.2020
3781 Snow 0 1001 69 10000 4.1 260 09:39 24.01.2020
3782 Rain 0 1001 64 10000 6.7 240 09:21 24.01.2020
3783 Clouds 1 1001 69 10000 4.1 270 08:41 24.01.2020
3784 Rain 1 1001 55 10000 7.7 250 08:20 24.01.2020
3785 Clouds 0 1001 64 10000 7.2 250 07:52 24.01.2020
3786 Rain 0 1000 64 10000 9.8 250 07:34 24.01.2020
3787 Clouds 0 1000 64 10000 11.3 270 06:48 24.01.2020
3788 Snow 0 1001 64 10000 10.3 250 06:29 24.01.2020
3789 Clouds 0 1000 73 10000 12.3 260 05:59 24.01.2020
3790 Clouds 0 1000 69 10000 13.4 260 04:57 24.01.2020
3791 Clouds 0 999 69 10000 14.4 260 02:53 24.01.2020
3792 Rain 0 999 59 10000 12.3 260 02:26 24.01.2020
3793 Clouds -1 997 69 10000 17 260 01:46 24.01.2020
3794 Clouds -1 997 67 9000 12.9 260 01:28 24.01.2020
3795 Rain -1 997 67 10000 13.9 250 00:25 24.01.2020
3796 Clouds -1 996 67 10000 19 250 23:49 23.01.2020
3797 Snow -2 996 80 7000 14.4 250 23:31 23.01.2020
3798 Clouds -1 995 65 10000 19.5 250 22:59 23.01.2020
3799 Clouds -1 995 65 10000 19.5 250 22:38 23.01.2020
3800 Rain -1 995 65 10000 16.5 250 22:19 23.01.2020
3801 Snow -1 995 63 8000 19.5 260 21:57 23.01.2020
3802 Snow -1 995 63 8000 19.5 260 21:39 23.01.2020
3803 Snow -2 995 65 10000 16.5 240 21:20 23.01.2020
3804 Snow -2 995 63 10000 20.6 250 20:59 23.01.2020
3805 Snow -2 995 63 10000 20.6 250 20:38 23.01.2020
3806 Snow -2 995 74 6000 14.9 260 20:20 23.01.2020
3807 Clouds -1 994 65 10000 19.5 250 19:56 23.01.2020
3808 Clouds -1 994 65 10000 19.5 250 19:38 23.01.2020
3809 Rain -1 994 65 5200 19 250 19:19 23.01.2020
3810 Snow -2 995 86 3400 17 250 18:43 23.01.2020
3811 Rain -2 994 79 8000 17.5 240 18:21 23.01.2020
3812 Snow -2 994 68 10000 17 250 17:58 23.01.2020
3813 Snow -1 994 68 10000 17 250 17:40 23.01.2020
3814 Rain -1 994 62 10000 16.5 250 17:20 23.01.2020
3815 Clouds -2 994 79 2000 18 260 16:56 23.01.2020
3816 Clouds -2 994 79 2000 18 260 16:37 23.01.2020
3817 Snow -2 995 80 1500 16.5 240 16:18 23.01.2020
3818 Snow -2 994 92 1500 20.6 240 15:55 23.01.2020
3819 Snow -2 994 92 1500 20.6 240 15:37 23.01.2020
3820 Snow -1 995 80 1000 20.1 240 15:18 23.01.2020
3821 Snow -1 995 80 1000 20.1 240 15:18 23.01.2020
3822 Snow -1 995 80 3000 16.5 250 14:55 23.01.2020
3823 Snow -1 995 80 3000 16.5 250 14:55 23.01.2020
3824 Snow -1 995 80 3000 16.5 250 14:37 23.01.2020
3825 Rain -2 995 80 7000 14.9 250 14:19 23.01.2020
3826 Clouds -1 995 80 2000 19.5 250 13:40 23.01.2020
3827 Rain -1 996 80 10000 17 250 13:20 23.01.2020
3828 Snow -1 996 80 1500 15.4 250 12:47 23.01.2020
3829 Snow -1 996 65 9000 16.5 250 12:26 23.01.2020
3830 Rain -1 995 70 10000 20.1 240 11:59 23.01.2020
3831 Rain -1 995 65 10000 20.1 240 11:59 23.01.2020
3832 Rain -1 995 65 10000 20.1 240 11:39 23.01.2020
3833 Rain -1 996 58 9000 13.9 260 11:20 23.01.2020
3834 Rain -1 996 62 9000 13.9 260 11:20 23.01.2020
3835 Rain -1 995 62 10000 20.1 250 10:55 23.01.2020
3836 Snow -1 997 86 650 18 260 10:36 23.01.2020
3837 Snow -1 997 86 650 18 260 10:18 23.01.2020
3838 Snow -1 997 86 1200 17.5 240 09:39 23.01.2020
3839 Snow -1 996 80 4000 18.5 240 09:20 23.01.2020
3840 Snow -2 996 86 1300 17 260 08:43 23.01.2020
3841 Clouds -2 996 86 1500 20.1 250 08:24 23.01.2020
3842 Snow -1 996 86 5000 16.5 240 07:49 23.01.2020
3843 Snow -2 996 80 1500 19.5 250 07:27 23.01.2020
3844 Snow -1 996 86 2000 16.5 250 06:54 23.01.2020
3845 Rain -1 995 51 6000 13.9 230 06:24 23.01.2020
3846 Rain -1 995 92 10000 11.8 230 05:59 23.01.2020
3847 Rain -1 995 80 10000 15.9 220 04:24 23.01.2020
3848 Snow -1 997 86 1600 19 240 02:48 23.01.2020
3849 Rain -1 997 59 10000 16.5 240 01:50 23.01.2020
3850 Rain -1 999 71 10000 10.8 220 00:29 23.01.2020
3851 Rain 0 998 74 10000 14.9 230 23:57 22.01.2020
3852 Rain 0 998 74 10000 14.9 230 23:39 22.01.2020
3853 Clouds 0 1000 69 10000 13.9 230 23:20 22.01.2020
3854 Clouds 1 999 65 10000 14.4 230 22:42 22.01.2020
3855 Clouds 1 1000 59 10000 14.9 230 22:23 22.01.2020
3856 Clouds 1 999 64 10000 15.9 230 21:56 22.01.2020
3857 Clouds 1 999 64 10000 15.9 230 21:36 22.01.2020
3858 Clouds 1 1001 74 10000 12.3 220 21:18 22.01.2020
3859 Clouds 2 999 69 10000 15.4 230 20:41 22.01.2020
3860 Rain 2 1000 74 10000 10.3 210 20:23 22.01.2020
3861 Clouds 2 999 64 10000 15.9 230 19:58 22.01.2020
3862 Clouds 2 999 64 10000 15.9 230 19:39 22.01.2020
3863 Clouds 2 1001 80 10000 11.3 210 19:20 22.01.2020
3864 Rain 2 1000 93 10000 14.4 230 18:57 22.01.2020
3865 Rain 2 1000 93 10000 14.4 230 18:38 22.01.2020
3866 Rain 2 1001 74 10000 8.2 200 18:20 22.01.2020
3867 Rain 3 1001 69 10000 10.3 220 17:55 22.01.2020
3868 Rain 3 1001 69 10000 10.3 220 17:37 22.01.2020
3869 Rain 3 1002 83 10000 8.7 210 17:19 22.01.2020
3870 Rain 3 1001 86 10000 10.3 220 16:44 22.01.2020
3871 Rain 3 1002 83 10000 8.2 220 16:23 22.01.2020
3872 Rain 4 1001 80 10000 10.8 230 15:59 22.01.2020
3873 Rain 4 1001 80 10000 10.8 230 15:41 22.01.2020
3874 Rain 4 1002 80 10000 10.3 220 15:23 22.01.2020
3875 Rain 4 1001 86 10000 14.9 230 14:58 22.01.2020
3876 Rain 4 1001 86 10000 14.9 230 14:37 22.01.2020
3877 Rain 5 1002 75 10000 11.8 220 14:19 22.01.2020
3878 Rain 5 1001 86 10000 13.4 230 13:55 22.01.2020
3879 Rain 5 1001 86 10000 13.4 230 13:36 22.01.2020
3880 Rain 6 1001 81 10000 12.9 220 13:18 22.01.2020
3881 Rain 6 1000 93 10000 14.9 220 12:56 22.01.2020
3882 Rain 6 1000 93 10000 14.9 220 12:37 22.01.2020
3883 Rain 7 1000 87 7000 15.4 200 12:18 22.01.2020
3884 Drizzle 7 999 93 4000 15.9 200 11:56 22.01.2020
3885 Drizzle 7 999 93 4000 15.9 200 11:38 22.01.2020
3886 Rain 7 1001 87 9000 14.9 190 11:18 22.01.2020
3887 Rain 7 1000 93 9000 16.5 190 10:44 22.01.2020
3888 Rain 7 1001 87 8000 13.4 190 10:21 22.01.2020
3889 Rain 7 1001 100 5000 15.9 190 09:45 22.01.2020
3890 Rain 7 1003 87 7000 12.3 180 09:26 22.01.2020
3891 Rain 7 1002 93 10000 15.4 180 08:59 22.01.2020
3892 Rain 7 1002 93 10000 15.4 180 08:40 22.01.2020
3893 Rain 7 1004 81 10000 12.9 170 08:21 22.01.2020
3894 Rain 7 1003 100 8000 14.9 180 07:59 22.01.2020
3895 Rain 7 1003 100 8000 14.9 180 07:40 22.01.2020
3896 Rain 7 1006 81 10000 10.3 170 07:21 22.01.2020
3897 Rain 7 1008 75 10000 10.3 150 06:31 22.01.2020
3898 Rain 6 1007 100 3000 11.8 160 05:42 22.01.2020
3899 Rain 6 1007 100 3000 11.8 160 05:42 22.01.2020
3900 Drizzle 6 1010 100 10000 12.3 170 04:24 22.01.2020
3901 Rain 6 1012 81 10000 9.3 150 03:26 22.01.2020
3902 Rain 5 1011 100 4000 11.8 160 02:38 22.01.2020
3903 Rain 5 1014 100 3000 10.8 150 00:46 22.01.2020
3904 Rain 5 1016 75 10000 5.1 130 00:27 22.01.2020
3905 Rain 5 1015 100 4000 9.8 150 23:55 21.01.2020
3906 Rain 5 1015 100 4000 9.8 150 23:36 21.01.2020
3907 Drizzle 5 1017 80 10000 6.7 110 23:18 21.01.2020
3908 Drizzle 5 1017 80 10000 6.7 110 23:18 21.01.2020
3909 Drizzle 5 1017 80 10000 6.7 110 23:18 21.01.2020
3910 Drizzle 4 1016 100 3000 8.7 150 22:40 21.01.2020
3911 Drizzle 4 1018 80 10000 5.7 110 22:20 21.01.2020
3912 Rain 4 1017 100 9000 7.7 150 21:57 21.01.2020
3913 Rain 4 1017 100 9000 7.7 150 21:38 21.01.2020
3914 Clouds 4 1018 80 10000 5.1 110 21:20 21.01.2020
3915 Rain 3 1017 100 10000 6.7 150 20:56 21.01.2020
3916 Rain 3 1017 100 10000 6.7 150 20:37 21.01.2020
3917 Clouds 3 1018 80 10000 6.7 120 20:19 21.01.2020
3918 Rain 3 1017 93 10000 5.7 140 19:56 21.01.2020
3919 Rain 3 1017 93 10000 5.7 140 19:56 21.01.2020
3920 Rain 3 1017 93 10000 5.7 140 19:38 21.01.2020
3921 Clouds 3 1019 89 10000 5.1 110 19:20 21.01.2020
3922 Rain 2 1018 100 10000 5.7 140 18:55 21.01.2020
3923 Rain 3 1018 100 10000 5.7 140 18:37 21.01.2020
3924 Drizzle 2 1019 89 10000 4.1 110 18:18 21.01.2020
3925 Rain 2 1018 93 10000 5.7 140 17:45 21.01.2020
3926 Clouds 2 1019 91 10000 4.1 130 17:20 21.01.2020
3927 Rain 2 1018 93 10000 5.7 140 16:59 21.01.2020
3928 Rain 2 1018 93 10000 5.7 140 16:37 21.01.2020
3929 Clouds 2 1020 91 10000 3.6 100 16:19 21.01.2020
3930 Rain 2 1019 100 10000 5.7 140 15:42 21.01.2020
3931 Drizzle 2 1020 91 10000 3.6 120 15:21 21.01.2020
3932 Drizzle 2 1020 93 10000 4.1 150 14:59 21.01.2020
3933 Drizzle 2 1020 93 10000 4.1 150 14:38 21.01.2020
3934 Drizzle 2 1021 97 10000 2.6 120 14:19 21.01.2020
3935 Drizzle 2 1020 100 10000 5.7 160 13:40 21.01.2020
3936 Drizzle 2 1020 96 10000 2.6 120 13:19 21.01.2020
3937 Rain 1 1020 100 10000 5.1 150 12:44 21.01.2020
3938 Clouds 1 1020 86 10000 3.1 130 12:25 21.01.2020
3939 Rain 1 1020 100 10000 4.6 150 11:57 21.01.2020
3940 Rain 1 1020 100 10000 4.6 150 11:39 21.01.2020
3941 Clouds 1 1020 86 10000 2.6 150 11:21 21.01.2020
3942 Rain 1 1019 100 10000 4.1 160 10:55 21.01.2020
3943 Rain 1 1019 100 10000 4.1 160 10:37 21.01.2020
3944 Snow 1 1020 86 10000 3.1 150 10:18 21.01.2020
3945 Drizzle 1 1019 100 10000 3.6 170 09:41 21.01.2020
3946 Clouds 1 1020 86 10000 3.6 170 09:22 21.01.2020
3947 Rain 1 1019 100 10000 4.1 220 08:49 21.01.2020
3948 Clouds 1 1020 86 10000 4.6 190 08:29 21.01.2020
3949 Rain 1 1019 89 10000 6.7 230 07:59 21.01.2020
3950 Rain 1 1019 89 10000 6.7 230 07:39 21.01.2020
3951 Clouds 1 1020 86 6000 9.3 230 07:21 21.01.2020
3952 Snow 1 1019 89 7000 10.3 240 06:48 21.01.2020
3953 Clouds 1 1020 86 6000 8.7 240 06:26 21.01.2020
3954 Snow 1 1019 89 10000 12.3 240 05:42 21.01.2020
3955 Snow 1 1019 91 10000 11.8 240 04:39 21.01.2020
3956 Clouds 2 1018 80 2000 8.2 230 02:56 21.01.2020
3957 Rain 1 1017 80 10000 9.3 240 01:53 21.01.2020
3958 Rain 1 1018 86 10000 10.3 250 01:18 21.01.2020
3959 Rain 1 1018 74 10000 9.8 220 00:36 21.01.2020
3960 Rain 2 1016 74 10000 14.9 240 23:58 20.01.2020
3961 Rain 2 1016 74 10000 14.9 240 23:38 20.01.2020
3962 Snow 1 1016 74 5000 9.8 240 23:19 20.01.2020
3963 Snow 1 1016 74 5000 9.8 240 23:19 20.01.2020
3964 Snow 0 1015 68 9000 16.5 240 22:56 20.01.2020
3965 Snow 0 1015 68 9000 16.5 240 22:37 20.01.2020
3966 Rain 1 1016 74 10000 10.8 250 22:19 20.01.2020
3967 Snow 0 1015 68 2000 12.3 250 21:57 20.01.2020
3968 Snow 0 1015 68 2000 12.3 250 21:37 20.01.2020
3969 Snow 0 1015 68 2000 12.3 250 21:37 20.01.2020
3970 Clouds 1 1015 74 10000 11.8 240 21:18 20.01.2020
3971 Rain 1 1014 68 10000 13.4 240 20:55 20.01.2020
3972 Rain 0 1014 68 10000 13.4 240 20:36 20.01.2020
3973 Rain 0 1014 74 10000 12.9 220 20:18 20.01.2020
3974 Rain 0 1014 74 10000 12.9 220 20:18 20.01.2020
3975 Rain 1 1012 74 10000 15.9 240 19:56 20.01.2020
3976 Rain 2 1013 64 10000 12.3 240 19:37 20.01.2020
3977 Rain 2 1013 64 10000 12.3 240 19:18 20.01.2020
3978 Rain 1 1011 69 10000 14.4 240 18:42 20.01.2020
3979 Rain 1 1012 64 10000 13.9 250 18:21 20.01.2020
3980 Rain 2 1010 59 10000 15.9 240 17:40 20.01.2020
3981 Rain 2 1010 59 10000 15.9 240 17:19 20.01.2020
3982 Rain 1 1009 55 10000 19 240 16:58 20.01.2020
3983 Rain 1 1009 55 10000 19 240 16:37 20.01.2020
3984 Rain 1 1008 80 10000 17 250 16:18 20.01.2020
3985 Rain 1 1008 80 10000 17 250 15:54 20.01.2020
3986 Rain 1 1009 80 10000 12.3 230 15:36 20.01.2020
3987 Rain 1 1009 80 10000 12.3 230 15:18 20.01.2020
3988 Rain 1 1008 69 10000 18 240 14:41 20.01.2020
3989 Clouds 0 1008 86 1500 17 250 14:22 20.01.2020
3990 Snow 0 1008 69 1200 18.5 230 13:57 20.01.2020
3991 Snow 0 1008 69 1200 18.5 230 13:39 20.01.2020
3992 Clouds 1 1007 69 3500 12.9 240 13:20 20.01.2020
3993 Rain 0 1006 66 6000 14.9 230 12:45 20.01.2020
3994 Rain 0 1006 66 6000 14.9 230 12:26 20.01.2020
3995 Clouds 0 1005 66 1900 15.9 240 11:57 20.01.2020
3996 Clouds 0 1005 66 1900 15.9 240 11:38 20.01.2020
3997 Rain 0 1004 63 10000 11.3 220 11:19 20.01.2020
3998 Rain 1 1003 69 10000 19 240 10:47 20.01.2020
3999 Rain 1 1003 59 10000 12.3 220 10:21 20.01.2020
4000 Rain 1 1003 59 10000 12.3 220 10:21 20.01.2020
4001 Rain 1 1002 59 10000 17.5 230 09:54 20.01.2020
4002 Rain 1 1002 59 10000 17.5 230 09:36 20.01.2020
4003 Snow 1 1002 63 10000 14.4 230 09:18 20.01.2020
4004 Snow 1 1001 63 4000 17 250 08:42 20.01.2020
4005 Clouds 1 1001 64 10000 12.9 220 08:24 20.01.2020
4006 Rain 2 1000 64 10000 17 230 07:42 20.01.2020
4007 Rain 1 1000 80 10000 10.3 220 07:23 20.01.2020
4008 Rain 1 999 69 10000 14.4 230 06:45 20.01.2020
4009 Snow 1 1000 86 5000 7.2 220 06:25 20.01.2020
4010 Rain 2 999 80 10000 12.9 240 05:41 20.01.2020
4011 Clouds 2 999 80 10000 11.8 210 05:21 20.01.2020
4012 Snow 2 999 100 9000 11.8 220 04:33 20.01.2020
4013 Rain 2 999 86 10000 9.8 230 02:55 20.01.2020
4014 Rain 3 999 86 10000 9.3 200 01:42 20.01.2020
4015 Rain 3 1000 92 10000 7.2 200 01:23 20.01.2020
4016 Rain 2 1000 93 10000 11.3 240 00:43 20.01.2020
4017 Snow 3 1000 92 10000 11.3 210 00:22 20.01.2020
4018 Clouds 3 1000 92 5000 11.8 210 23:39 19.01.2020
4019 Clouds 4 1000 76 10000 8.7 200 23:20 19.01.2020
4020 Rain 4 999 80 10000 10.8 210 22:56 19.01.2020
4021 Rain 4 999 80 10000 10.8 210 22:38 19.01.2020
4022 Clouds 4 1000 76 10000 6.7 220 22:20 19.01.2020
4023 Rain 4 998 75 10000 12.9 220 21:56 19.01.2020
4024 Rain 4 998 75 10000 12.9 220 21:56 19.01.2020
4025 Rain 4 998 75 10000 12.9 220 21:38 19.01.2020
4026 Clouds 4 999 80 10000 9.3 210 21:20 19.01.2020
4027 Rain 5 998 86 9000 12.3 230 20:57 19.01.2020
4028 Rain 5 998 86 9000 12.3 230 20:38 19.01.2020
4029 Clouds 5 997 75 10000 10.8 220 20:20 19.01.2020
4030 Rain 5 996 80 10000 15.9 230 19:56 19.01.2020
4031 Rain 5 996 80 10000 15.9 230 19:38 19.01.2020
4032 Rain 5 996 80 10000 11.3 210 19:20 19.01.2020
4033 Rain 5 994 87 9000 13.4 220 18:56 19.01.2020
4034 Rain 5 994 87 9000 13.4 220 18:37 19.01.2020
4035 Rain 5 994 80 10000 12.9 200 18:19 19.01.2020
4036 Rain 5 993 81 10000 17 210 17:58 19.01.2020
4037 Rain 5 993 81 10000 17 210 17:58 19.01.2020
4038 Rain 5 993 81 10000 17 210 17:39 19.01.2020
4039 Rain 5 994 80 10000 13.9 210 17:20 19.01.2020
4040 Rain 5 992 81 9000 17 220 16:58 19.01.2020
4041 Rain 5 992 81 9000 17 220 16:38 19.01.2020
4042 Rain 5 993 70 10000 14.4 200 16:20 19.01.2020
4043 Drizzle 5 991 87 4000 15.4 210 15:58 19.01.2020
4044 Drizzle 5 991 87 4000 15.4 210 15:38 19.01.2020
4045 Rain 5 991 80 9000 13.4 210 15:20 19.01.2020
4046 Rain 5 990 86 8000 15.4 210 14:57 19.01.2020
4047 Rain 5 990 86 8000 15.4 210 14:38 19.01.2020
4048 Rain 5 990 75 9000 15.9 200 14:18 19.01.2020
4049 Rain 5 989 75 8000 17.5 200 13:57 19.01.2020
4050 Rain 5 989 75 8000 17.5 200 13:38 19.01.2020
4051 Rain 5 989 70 10000 14.9 200 13:19 19.01.2020
4052 Rain 5 988 93 4000 18 210 12:55 19.01.2020
4053 Rain 5 988 93 4000 18 210 12:36 19.01.2020
4054 Clouds 5 989 70 10000 13.4 200 12:18 19.01.2020
4055 Mist 5 987 75 8000 14.9 200 11:42 19.01.2020
4056 Clouds 6 988 75 10000 13.4 200 11:20 19.01.2020
4057 Rain 6 987 81 8000 15.9 200 10:56 19.01.2020
4058 Rain 6 987 81 8000 15.9 200 10:38 19.01.2020
4059 Clouds 6 988 75 10000 14.9 190 10:19 19.01.2020
4060 Rain 7 986 87 10000 15.9 190 09:55 19.01.2020
4061 Rain 7 986 87 10000 15.9 190 09:55 19.01.2020
4062 Rain 7 988 81 10000 15.4 180 09:36 19.01.2020
4063 Rain 7 988 81 10000 15.4 180 09:18 19.01.2020
4064 Drizzle 7 986 93 9000 15.9 180 08:44 19.01.2020
4065 Clouds 7 987 81 10000 13.9 170 08:26 19.01.2020
4066 Rain 6 987 93 10000 16.5 180 07:42 19.01.2020
4067 Clouds 6 988 87 10000 12.3 160 07:22 19.01.2020
4068 Rain 6 987 100 10000 14.4 170 06:53 19.01.2020
4069 Rain 6 990 81 10000 12.9 160 06:21 19.01.2020
4070 Rain 4 996 93 4000 18.5 140 02:47 19.01.2020
4071 Rain 4 1000 80 8000 15.9 130 02:24 19.01.2020
4072 Rain 4 1003 93 10000 11.8 130 01:28 19.01.2020
4073 Rain 4 1001 86 9000 15.4 140 00:54 19.01.2020
4074 Rain 3 1006 93 10000 9.8 130 00:29 19.01.2020
4075 Clouds 3 1005 80 10000 11.8 150 23:59 18.01.2020
4076 Clouds 3 1005 80 10000 11.8 150 23:41 18.01.2020
4077 Clouds 3 1009 86 10000 11.3 130 23:23 18.01.2020
4078 Clouds 2 1008 86 10000 10.3 130 22:55 18.01.2020
4079 Clouds 2 1008 86 10000 10.3 130 22:37 18.01.2020
4080 Clouds 2 1010 74 10000 7.2 90 22:19 18.01.2020
4081 Clouds 1 1009 93 10000 11.8 130 21:57 18.01.2020
4082 Clouds 1 1009 93 10000 11.8 130 21:38 18.01.2020
4083 Clouds 1 1012 80 10000 5.7 110 21:20 18.01.2020
4084 Clouds 0 1011 86 10000 7.7 140 20:44 18.01.2020
4085 Clouds 0 1013 88 10000 3.6 80 20:21 18.01.2020
4086 Clouds 0 1012 88 10000 7.2 120 19:59 18.01.2020
4087 Clouds -1 1012 88 10000 7.2 120 19:41 18.01.2020
4088 Clouds -1 1013 88 10000 4.6 90 19:22 18.01.2020
4089 Clouds -1 1013 88 10000 5.7 130 18:42 18.01.2020
4090 Clouds -2 1014 80 10000 4.6 80 18:22 18.01.2020
4091 Clouds -2 1013 92 10000 5.7 140 17:56 18.01.2020
4092 Clouds -2 1013 92 10000 5.7 140 17:37 18.01.2020
4093 Clouds -2 1014 86 10000 4.6 80 17:19 18.01.2020
4094 Clouds -2 1014 92 10000 3.6 150 16:55 18.01.2020
4095 Clouds -2 1014 92 10000 3.6 150 16:55 18.01.2020
4096 Clouds -2 1014 92 10000 3.6 150 16:36 18.01.2020
4097 Clouds -2 1015 89 10000 4.6 90 16:18 18.01.2020
4098 Clouds -2 1015 92 10000 4.1 140 15:41 18.01.2020
4099 Clouds -1 1015 86 10000 3.6 90 15:23 18.01.2020
4100 Clouds -2 1014 100 10000 2.1 140 14:57 18.01.2020
4101 Clouds -2 1014 86 10000 3.1 90 14:39 18.01.2020
4102 Snow -2 1014 86 10000 3.1 90 14:18 18.01.2020
4103 Clouds -2 1014 100 10000 3.1 130 13:43 18.01.2020
4104 Clouds -2 1014 86 10000 2.6 110 13:24 18.01.2020
4105 Clouds -2 1013 100 10000 2.1 110 12:58 18.01.2020
4106 Clouds -2 1013 100 10000 2.1 110 12:39 18.01.2020
4107 Clouds -2 1014 86 10000 2.1 100 12:20 18.01.2020
4108 Clouds -2 1013 83 10000 1.5 100 11:44 18.01.2020
4109 Clouds -2 1013 86 10000 0.5 120 11:22 18.01.2020
4110 Snow -2 1013 74 4000 1.51 141 10:57 18.01.2020
4111 Snow -2 1013 74 4000 1.51 141 10:38 18.01.2020
4112 Clouds -2 1013 86 10000 0.5 0 10:20 18.01.2020
4113 Snow -2 1012 74 4000 2.6 190 09:46 18.01.2020
4114 Clouds -2 1012 86 10000 1 0 09:28 18.01.2020
4115 Snow -2 1011 69 10000 1.5 240 08:56 18.01.2020
4116 Snow -2 1011 69 10000 1.5 240 08:38 18.01.2020
4117 Clouds -2 1011 86 10000 2.1 110 08:19 18.01.2020
4118 Rain -3 1011 74 10000 1 0 07:47 18.01.2020
4119 Clouds -2 1011 86 10000 2.1 120 07:29 18.01.2020
4120 Rain -3 1010 70 10000 1 240 06:47 18.01.2020
4121 Rain -4 1010 74 10000 3.1 250 05:59 18.01.2020
4122 Clouds -3 1010 92 10000 2.6 140 05:21 18.01.2020
4123 Snow -2 1009 69 10000 7.7 240 02:55 18.01.2020
4124 Rain -2 1008 76 10000 5.7 260 01:54 18.01.2020
4125 Clouds -3 1008 92 10000 2.6 140 01:30 18.01.2020
4126 Rain -2 1008 80 10000 5.7 240 00:37 18.01.2020
4127 Rain -2 1008 80 10000 5.7 240 00:37 18.01.2020
4128 Clouds -2 1008 86 10000 1.5 140 00:18 18.01.2020
4129 Clouds -2 1008 86 10000 1.5 140 00:18 18.01.2020
4130 Snow -2 1007 76 10000 7.2 250 23:41 17.01.2020
4131 Clouds -3 1007 92 10000 1.5 140 23:20 17.01.2020
4132 Clouds -2 1007 86 10000 2.1 130 22:46 17.01.2020
4133 Snow -2 1007 92 2300 1.5 150 22:22 17.01.2020
4134 Clouds -2 1006 86 10000 2.1 290 21:59 17.01.2020
4135 Clouds -2 1006 86 10000 2.1 290 21:41 17.01.2020
4136 Clouds -2 1006 92 10000 2.1 140 21:22 17.01.2020
4137 Clouds -2 1005 92 10000 5.1 260 20:58 17.01.2020
4138 Clouds -2 1005 92 10000 5.1 260 20:38 17.01.2020
4139 Clouds -2 1006 86 10000 1.5 180 20:20 17.01.2020
4140 Rain -2 1005 86 10000 3.1 280 19:55 17.01.2020
4141 Rain -2 1005 86 10000 3.1 280 19:55 17.01.2020
4142 Rain -2 1005 86 10000 3.1 280 19:37 17.01.2020
4143 Clouds -2 1005 86 10000 1.5 190 19:19 17.01.2020
4144 Rain -2 1004 92 10000 1 180 18:56 17.01.2020
4145 Rain -1 1004 92 10000 1 180 18:36 17.01.2020
4146 Rain -1 1004 76 10000 4.6 300 18:18 17.01.2020
4147 Clouds -1 1004 92 10000 1 310 17:39 17.01.2020
4148 Clouds -1 1004 86 10000 1.5 0 17:20 17.01.2020
4149 Clouds -1 1003 92 10000 2.6 260 16:44 17.01.2020
4150 Clouds -1 1003 86 10000 2.1 150 16:21 17.01.2020
4151 Clouds -2 1003 86 10000 4.1 260 15:58 17.01.2020
4152 Clouds -2 1003 86 10000 4.1 260 15:39 17.01.2020
4153 Clouds -1 1002 86 10000 2.6 170 15:20 17.01.2020
4154 Clouds -1 1002 75 10000 4.6 260 14:43 17.01.2020
4155 Clouds -1 1002 86 10000 2.1 190 14:24 17.01.2020
4156 Snow -1 1001 86 10000 4.6 280 13:43 17.01.2020
4157 Clouds -1 1001 92 10000 1.5 150 13:23 17.01.2020
4158 Clouds 0 1001 70 10000 2.6 270 12:47 17.01.2020
4159 Clouds -1 1000 86 10000 4.13 276 12:23 17.01.2020
4160 Clouds -1 1000 68 10000 4.6 300 11:43 17.01.2020
4161 Clouds 0 1000 72 10000 2.1 340 11:20 17.01.2020
4162 Clouds 0 999 72 10000 3.1 300 10:57 17.01.2020
4163 Clouds 0 999 72 10000 3.1 300 10:57 17.01.2020
4164 Clouds 0 999 72 10000 3.1 300 10:57 17.01.2020
4165 Clouds 0 999 72 10000 3.1 300 10:39 17.01.2020
4166 Clouds 0 999 72 10000 3.6 310 10:20 17.01.2020
4167 Clouds 0 999 72 10000 7.7 310 09:56 17.01.2020
4168 Clouds 0 999 72 10000 7.7 310 09:37 17.01.2020
4169 Snow 0 998 72 8000 3.1 310 09:18 17.01.2020
4170 Clouds 0 998 72 10000 5.7 310 08:42 17.01.2020
4171 Rain 0 997 77 10000 7.2 290 08:23 17.01.2020
4172 Clouds 0 997 77 10000 5.7 300 07:49 17.01.2020
4173 Snow 0 996 77 8000 6.7 280 07:30 17.01.2020
4174 Clouds 0 996 77 10000 6.2 310 06:56 17.01.2020
4175 Clouds 0 996 77 10000 6.2 310 06:37 17.01.2020
4176 Clouds 0 994 86 10000 4.6 250 05:22 17.01.2020
4177 Snow 1 993 86 10000 4.6 250 03:38 17.01.2020
4178 Clouds 1 992 80 10000 3.1 260 02:43 17.01.2020
4179 Snow 1 992 84 10000 8.2 270 01:45 17.01.2020
4180 Clouds 2 991 74 10000 3.6 270 01:27 17.01.2020
4181 Clouds 1 991 74 10000 4.6 260 00:43 17.01.2020
4182 Clouds 1 991 74 10000 4.6 260 00:20 17.01.2020
4183 Clouds 1 990 80 10000 6.7 260 23:42 16.01.2020
4184 Rain 2 990 80 10000 2.6 240 23:24 16.01.2020
4185 Clouds 2 989 74 10000 7.7 260 22:43 16.01.2020
4186 Clouds 2 989 88 10000 3.1 180 22:22 16.01.2020
4187 Clouds 1 988 74 10000 7.2 270 21:57 16.01.2020
4188 Clouds 1 988 74 10000 7.2 270 21:39 16.01.2020
4189 Clouds 1 988 86 10000 3.1 200 21:19 16.01.2020
4190 Clouds 2 987 80 10000 7.7 270 20:59 16.01.2020
4191 Clouds 2 987 80 10000 7.7 270 20:39 16.01.2020
4192 Clouds 2 987 80 10000 2.1 190 20:20 16.01.2020
4193 Clouds 2 986 93 10000 4.1 260 19:56 16.01.2020
4194 Clouds 2 986 93 10000 4.1 260 19:38 16.01.2020
4195 Rain 1 986 80 10000 2.1 180 19:20 16.01.2020
4196 Rain 1 986 100 10000 3.1 260 18:56 16.01.2020
4197 Rain 1 986 100 10000 3.1 260 18:37 16.01.2020
4198 Rain 2 985 80 10000 3.6 110 18:18 16.01.2020
4199 Rain 2 985 80 10000 3.6 110 18:18 16.01.2020
4200 Rain 2 985 93 10000 2.6 200 17:55 16.01.2020
4201 Rain 2 985 93 10000 2.6 200 17:37 16.01.2020
4202 Rain 2 985 80 10000 5.1 130 17:18 16.01.2020
4203 Rain 2 984 87 10000 3.1 180 16:40 16.01.2020
4204 Rain 2 985 69 10000 4.1 130 16:21 16.01.2020
4205 Rain 2 984 87 10000 4.6 150 15:55 16.01.2020
4206 Rain 2 984 87 10000 4.6 150 15:37 16.01.2020
4207 Rain 2 985 74 10000 4.6 140 15:18 16.01.2020
4208 Rain 2 984 87 10000 5.1 170 14:41 16.01.2020
4209 Rain 2 985 74 10000 3.6 140 14:23 16.01.2020
4210 Clouds 2 984 79 10000 6.2 180 13:47 16.01.2020
4211 Clouds 2 984 74 10000 5.7 160 13:28 16.01.2020
4212 Clouds 2 983 80 10000 6.7 170 12:57 16.01.2020
4213 Clouds 2 983 80 10000 6.7 170 12:39 16.01.2020
4214 Rain 2 984 80 10000 7.7 180 12:20 16.01.2020
4215 Clouds 2 982 93 10000 7.7 200 11:42 16.01.2020
4216 Clouds 2 983 80 10000 5.7 190 11:23 16.01.2020
4217 Clouds 2 981 93 10000 8.2 200 10:56 16.01.2020
4218 Clouds 2 981 93 10000 8.2 200 10:37 16.01.2020
4219 Clouds 2 981 90 10000 7.2 160 10:19 16.01.2020
4220 Clouds 2 980 100 10000 6.2 200 09:43 16.01.2020
4221 Clouds 2 981 90 10000 5.7 120 09:24 16.01.2020
4222 Clouds 2 979 100 10000 5.1 100 08:58 16.01.2020
4223 Clouds 2 979 100 10000 5.1 100 08:40 16.01.2020
4224 Clouds 2 980 80 10000 6.2 80 08:20 16.01.2020
4225 Clouds 2 979 94 10000 6.7 80 07:42 16.01.2020
4226 Rain 2 980 74 10000 7.2 70 07:24 16.01.2020
4227 Rain 2 979 94 10000 6.7 80 06:54 16.01.2020
4228 Clouds 2 980 69 10000 7.2 80 06:34 16.01.2020
4229 Clouds 2 979 80 10000 6.7 70 05:49 16.01.2020
4230 Clouds 2 979 86 10000 7.7 70 04:51 16.01.2020
4231 Rain 3 980 55 10000 5.1 100 04:21 16.01.2020
4232 Clouds 3 980 55 10000 5.7 70 03:27 16.01.2020
4233 Clouds 3 980 59 10000 5.1 80 02:21 16.01.2020
4234 Clouds 2 979 55 10000 4.1 80 00:43 16.01.2020
4235 Clouds 2 979 55 10000 4.1 80 00:23 16.01.2020
4236 Clouds 1 979 86 10000 5.7 40 23:45 15.01.2020
4237 Clouds 1 979 59 10000 3.6 60 23:22 15.01.2020
4238 Clouds 1 979 80 10000 5.1 40 22:57 15.01.2020
4239 Clouds 1 979 80 10000 5.1 40 22:38 15.01.2020
4240 Clouds 1 979 69 10000 2.6 60 22:18 15.01.2020
4241 Clouds 0 979 92 10000 4.6 20 21:56 15.01.2020
4242 Clouds 0 979 92 10000 4.6 20 21:56 15.01.2020
4243 Clouds 0 979 92 10000 4.6 20 21:37 15.01.2020
4244 Clouds 0 979 55 10000 3.6 70 21:19 15.01.2020
4245 Clouds -1 978 86 10000 2.6 20 20:56 15.01.2020
4246 Clouds -1 978 86 10000 2.6 20 20:38 15.01.2020
4247 Clouds -1 978 80 10000 2.6 100 20:19 15.01.2020
4248 Clouds 0 978 88 10000 3.1 90 19:54 15.01.2020
4249 Clouds 0 978 88 10000 3.1 90 19:36 15.01.2020
4250 Clouds 0 977 88 10000 2.6 60 19:18 15.01.2020
4251 Clouds -1 977 86 10000 8.7 40 18:56 15.01.2020
4252 Clouds -1 977 86 10000 8.7 40 18:37 15.01.2020
4253 Clouds -1 977 86 10000 8.7 40 18:37 15.01.2020
4254 Clouds -1 977 86 10000 5.59 39 18:19 15.01.2020
4255 Clouds -1 976 86 10000 8.2 30 17:55 15.01.2020
4256 Clouds -1 976 79 10000 2.1 170 17:36 15.01.2020
4257 Clouds -1 976 79 10000 2.1 170 17:18 15.01.2020
4258 Clouds 0 976 86 10000 7.7 30 16:40 15.01.2020
4259 Clouds -1 976 79 10000 1.5 170 16:21 15.01.2020
4260 Clouds 0 975 86 10000 8.2 30 15:56 15.01.2020
4261 Clouds 0 975 86 10000 8.2 30 15:38 15.01.2020
4262 Clouds 0 975 80 10000 0.5 0 15:18 15.01.2020
4263 Clouds 0 975 86 10000 9.3 30 14:42 15.01.2020
4264 Clouds 0 975 84 10000 0.5 0 14:19 15.01.2020
4265 Clouds 0 975 86 10000 9.8 30 13:46 15.01.2020
4266 Clouds 0 974 80 10000 2.1 160 13:26 15.01.2020
4267 Clouds 1 974 86 10000 9.3 20 12:59 15.01.2020
4268 Clouds 0 974 86 10000 9.3 20 12:39 15.01.2020
4269 Clouds 0 973 86 10000 2.6 120 12:19 15.01.2020
4270 Clouds 1 973 86 10000 10.3 20 11:57 15.01.2020
4271 Clouds 1 973 86 10000 10.3 20 11:37 15.01.2020
4272 Clouds 1 972 69 10000 8.2 20 11:19 15.01.2020
4273 Clouds 1 972 86 10000 10.3 20 10:43 15.01.2020
4274 Clouds 1 971 69 10000 12.3 20 10:25 15.01.2020
4275 Clouds 1 972 86 10000 11.3 20 09:45 15.01.2020
4276 Clouds 1 971 69 10000 10.8 20 09:26 15.01.2020
4277 Clouds 1 970 80 10000 12.9 30 08:58 15.01.2020
4278 Clouds 1 970 80 10000 12.9 30 08:39 15.01.2020
4279 Clouds 1 970 69 10000 7.2 30 08:21 15.01.2020
4280 Clouds 1 970 80 10000 12.9 20 07:51 15.01.2020
4281 Clouds 1 969 69 10000 12.3 20 07:31 15.01.2020
4282 Clouds 1 969 80 10000 15.4 20 06:46 15.01.2020
4283 Clouds 1 969 80 10000 15.9 20 06:20 15.01.2020
4284 Clouds 1 968 80 10000 15.9 20 04:44 15.01.2020
4285 Clouds 1 967 80 10000 15.4 20 02:38 15.01.2020
4286 Clouds 1 966 64 10000 5.1 0 01:28 15.01.2020
4287 Clouds 1 967 80 10000 15.9 10 00:47 15.01.2020
4288 Clouds 1 966 69 10000 14.9 360 00:27 15.01.2020
4289 Clouds 1 966 80 10000 16.5 20 23:57 14.01.2020
4290 Clouds 1 966 80 10000 16.5 20 23:38 14.01.2020
4291 Clouds 1 966 69 10000 14.4 360 23:19 14.01.2020
4292 Clouds 1 967 80 10000 14.9 20 22:41 14.01.2020
4293 Clouds 1 965 69 10000 12.9 20 22:19 14.01.2020
4294 Clouds 1 967 80 10000 14.4 10 21:59 14.01.2020
4295 Clouds 1 967 80 10000 14.4 10 21:40 14.01.2020
4296 Clouds 1 964 69 10000 13.9 20 21:21 14.01.2020
4297 Clouds 2 966 80 10000 11.3 10 20:59 14.01.2020
4298 Clouds 2 966 80 10000 11.3 10 20:40 14.01.2020
4299 Clouds 2 966 80 10000 11.3 10 20:40 14.01.2020
4300 Clouds 2 964 69 10000 12.3 10 20:20 14.01.2020
4301 Clouds 2 964 69 10000 12.3 10 20:20 14.01.2020
4302 Clouds 2 965 80 10000 11.8 10 19:56 14.01.2020
4303 Clouds 2 965 80 10000 11.8 10 19:38 14.01.2020
4304 Clouds 1 964 69 10000 9.8 30 19:19 14.01.2020
4305 Clouds 2 965 80 10000 15.4 20 18:56 14.01.2020
4306 Clouds 1 965 80 10000 15.4 20 18:37 14.01.2020
4307 Clouds 1 964 69 10000 11.3 360 18:19 14.01.2020
4308 Clouds 1 965 80 10000 13.4 10 17:39 14.01.2020
4309 Clouds 1 963 69 10000 14.9 10 17:19 14.01.2020
4310 Clouds 1 965 86 10000 12.9 20 16:55 14.01.2020
4311 Clouds 1 965 86 10000 12.9 20 16:37 14.01.2020
4312 Clouds 1 964 74 10000 14.9 10 16:19 14.01.2020
4313 Clouds 1 965 80 10000 11.3 10 15:43 14.01.2020
4314 Clouds 1 964 64 10000 15.9 10 15:19 14.01.2020
4315 Clouds 1 965 80 10000 12.3 20 14:57 14.01.2020
4316 Clouds 1 965 80 10000 12.3 20 14:39 14.01.2020
4317 Clouds 1 964 69 10000 17 10 14:18 14.01.2020
4318 Clouds 1 965 74 10000 14.4 20 13:42 14.01.2020
4319 Clouds 1 963 64 10000 13.9 10 13:20 14.01.2020
4320 Clouds 1 964 74 10000 17 30 12:56 14.01.2020
4321 Clouds 1 964 74 10000 17 30 12:38 14.01.2020
4322 Clouds 1 963 64 10000 15.9 10 12:20 14.01.2020
4323 Clouds 1 964 74 10000 17 20 11:41 14.01.2020
4324 Clouds 1 963 64 10000 13.9 20 11:22 14.01.2020
4325 Clouds 1 963 74 10000 17 30 10:56 14.01.2020
4326 Clouds 1 963 74 10000 17 30 10:38 14.01.2020
4327 Clouds 1 963 59 10000 11.8 30 10:19 14.01.2020
4328 Clouds 1 964 74 10000 14.9 30 09:55 14.01.2020
4329 Clouds 1 964 74 10000 14.9 30 09:37 14.01.2020
4330 Clouds 1 963 55 10000 8.2 30 09:19 14.01.2020
4331 Clouds 1 963 74 10000 14.9 30 08:41 14.01.2020
4332 Clouds 1 963 55 10000 9.3 50 08:22 14.01.2020
4333 Clouds 1 963 74 10000 15.4 30 07:51 14.01.2020
4334 Clouds 1 964 55 10000 7.7 40 07:25 14.01.2020
4335 Clouds 1 963 74 10000 13.4 30 06:44 14.01.2020
4336 Clouds 1 963 74 10000 13.4 30 05:59 14.01.2020
4337 Clouds 1 962 80 10000 14.9 40 04:51 14.01.2020
4338 Clouds 1 962 69 10000 16.5 40 03:47 14.01.2020
4339 Clouds 1 962 74 10000 17.5 40 02:39 14.01.2020
4340 Clouds 1 962 64 10000 15.4 40 01:31 14.01.2020
4341 Clouds 0 963 74 10000 15.9 40 00:48 14.01.2020
4342 Clouds 1 963 59 10000 13.9 30 00:22 14.01.2020
4343 Drizzle 0 963 71 10000 16.5 40 23:47 13.01.2020
4344 Snow 0 964 64 10000 12.9 40 23:19 13.01.2020
4345 Clouds 0 963 64 10000 18 40 22:58 13.01.2020
4346 Clouds 0 963 64 10000 18 40 22:39 13.01.2020
4347 Snow 0 965 59 10000 14.9 40 22:20 13.01.2020
4348 Clouds 0 964 64 10000 19.5 40 21:56 13.01.2020
4349 Clouds 0 964 64 10000 19.5 40 21:37 13.01.2020
4350 Rain 0 965 59 10000 11.3 40 21:18 13.01.2020
4351 Clouds 0 964 64 7000 18 40 20:56 13.01.2020
4352 Clouds 0 964 64 7000 18 40 20:38 13.01.2020
4353 Clouds 0 966 59 10000 11.8 40 20:19 13.01.2020
4354 Clouds 0 965 60 1500 18 40 19:42 13.01.2020
4355 Clouds 0 966 55 10000 11.3 40 19:22 13.01.2020
4356 Clouds -1 966 60 1200 15.4 40 18:59 13.01.2020
4357 Clouds -1 966 60 1200 15.4 40 18:40 13.01.2020
4358 Clouds -1 967 60 10000 7.2 20 18:20 13.01.2020
4359 Clouds -1 967 60 10000 7.2 20 18:20 13.01.2020
4360 Snow -1 967 80 10000 13.4 40 17:59 13.01.2020
4361 Snow -1 967 80 10000 13.4 40 17:40 13.01.2020
4362 Clouds -1 968 50 10000 3.6 30 17:21 13.01.2020
4363 Clouds -1 968 50 10000 3.6 30 17:21 13.01.2020
4364 Clouds -1 968 74 10000 10.3 30 16:55 13.01.2020
4365 Clouds -1 969 40 10000 5.1 40 16:36 13.01.2020
4366 Clouds -1 969 40 10000 5.1 40 16:18 13.01.2020
4367 Clouds -2 970 84 0 11.18 80 15:42 13.01.2020
4368 Clouds -2 970 83 0 8.05 81 15:22 13.01.2020
4369 Clouds -2 970 82 0 7.15 84 14:56 13.01.2020
4370 Clouds -2 972 81 0 5.36 81 14:36 13.01.2020
4371 Clouds -4 973 78 0 5.9 63 14:18 13.01.2020
4372 Clouds -4 973 78 0 5.9 63 13:40 13.01.2020
4373 Clouds -2 973 85 0 6.26 103 13:22 13.01.2020
4374 Clouds -1 973 80 10000 8.2 80 12:58 13.01.2020
4375 Clouds -2 973 80 10000 8.2 80 12:40 13.01.2020
4376 Clouds -2 973 80 10000 8.2 80 12:21 13.01.2020
4377 Clouds -2 973 80 10000 8.2 80 11:56 13.01.2020
4378 Clouds -2 973 80 10000 8.2 80 11:36 13.01.2020
4379 Clouds -2 974 74 10000 6.2 70 11:18 13.01.2020
4380 Rain -1 973 89 10000 5.1 70 10:55 13.01.2020
4381 Rain -1 973 89 10000 5.1 70 10:36 13.01.2020
4382 Rain -2 974 86 10000 6.7 80 10:18 13.01.2020
4383 Rain -1 973 92 10000 4.1 120 09:40 13.01.2020
4384 Clouds -1 974 86 10000 4.1 60 09:22 13.01.2020
4385 Clouds -1 972 100 10000 5.7 160 08:42 13.01.2020
4386 Clouds -1 973 92 10000 5.1 100 08:21 13.01.2020
4387 Snow -1 970 93 5000 10.3 190 07:54 13.01.2020
4388 Snow -1 970 93 5000 10.3 190 07:35 13.01.2020
4389 Rain 0 969 93 10000 3.6 260 06:51 13.01.2020
4390 Snow 0 971 93 10000 9.3 110 06:22 13.01.2020
4391 Rain 0 970 93 10000 9.3 100 05:36 13.01.2020
4392 Rain -1 970 96 10000 10.8 90 04:25 13.01.2020
4393 Snow -1 971 92 7000 10.3 70 03:26 13.01.2020
4394 Snow -2 970 92 3500 13.9 30 02:47 13.01.2020
4395 Snow -2 972 86 7000 9.3 60 02:29 13.01.2020
4396 Snow -3 972 86 10000 9.3 70 01:22 13.01.2020
4397 Snow -3 972 86 10000 9.3 70 01:22 13.01.2020
4398 Snow -3 970 86 2500 15.9 30 00:42 13.01.2020
4399 Snow -3 972 86 8000 9.8 70 00:24 13.01.2020
4400 Snow -3 970 92 1500 17.5 30 23:55 12.01.2020
4401 Snow -3 970 92 1500 17.5 30 23:36 12.01.2020
4402 Snow -3 972 86 3700 10.3 70 23:18 12.01.2020
4403 Snow -3 972 86 3700 10.3 70 23:18 12.01.2020
4404 Snow -3 969 92 400 19.5 30 22:42 12.01.2020
4405 Snow -3 972 92 3100 9.8 60 22:24 12.01.2020
4406 Snow -3 968 92 300 18.5 40 21:57 12.01.2020
4407 Snow -3 968 92 300 18.5 40 21:38 12.01.2020
4408 Snow -3 972 92 2500 9.8 60 21:19 12.01.2020
4409 Snow -3 967 100 300 21.6 30 20:57 12.01.2020
4410 Snow -3 967 100 300 21.6 30 20:38 12.01.2020
4411 Snow -3 971 92 2600 10.3 70 20:20 12.01.2020
4412 Snow -2 966 100 400 17.5 40 19:56 12.01.2020
4413 Snow -2 966 100 400 17.5 40 19:38 12.01.2020
4414 Snow -2 971 92 1600 10.3 70 19:19 12.01.2020
4415 Mist -2 965 80 2000 10.3 50 18:57 12.01.2020
4416 Mist -1 965 80 2000 10.3 50 18:39 12.01.2020
4417 Snow -1 970 92 3000 11.3 80 18:21 12.01.2020
4418 Rain -1 964 100 8000 6.7 40 17:55 12.01.2020
4419 Snow -1 969 92 2100 11.8 80 17:37 12.01.2020
4420 Snow -1 969 92 2100 11.8 80 17:18 12.01.2020
4421 Drizzle -1 964 93 10000 16.5 40 16:54 12.01.2020
4422 Drizzle 0 964 93 10000 16.5 40 16:36 12.01.2020
4423 Snow -1 970 92 1300 11.3 80 16:18 12.01.2020
4424 Rain -1 964 93 10000 13.4 40 15:42 12.01.2020
4425 Snow -1 970 86 1900 9.8 70 15:23 12.01.2020
4426 Snow -1 965 87 300 17 60 14:56 12.01.2020
4427 Snow -1 965 87 300 17 60 14:37 12.01.2020
4428 Snow 0 971 80 7000 9.8 80 14:18 12.01.2020
4429 Snow -2 965 82 1200 17.5 70 13:42 12.01.2020
4430 Clouds -2 971 86 10000 11.3 60 13:23 12.01.2020
4431 Snow -2 966 77 1500 16.5 70 12:58 12.01.2020
4432 Snow -2 966 77 1500 16.5 70 12:38 12.01.2020
4433 Clouds -3 971 86 10000 11.8 70 12:20 12.01.2020
4434 Snow -3 967 92 1000 17 70 11:57 12.01.2020
4435 Snow -3 967 92 1000 17 70 11:38 12.01.2020
4436 Snow -3 971 86 2300 9.3 80 11:19 12.01.2020
4437 Snow -4 968 100 500 14.9 80 10:41 12.01.2020
4438 Snow -4 971 92 10000 11.3 70 10:22 12.01.2020
4439 Snow -4 969 100 600 14.4 80 09:57 12.01.2020
4440 Snow -4 969 100 600 14.4 80 09:38 12.01.2020
4441 Snow -4 972 92 6000 8.7 80 09:18 12.01.2020
4442 Snow -4 970 92 900 13.4 70 08:44 12.01.2020
4443 Snow -3 973 92 2000 7.2 90 08:20 12.01.2020
4444 Snow -4 971 92 300 11.3 80 07:40 12.01.2020
4445 Snow -4 974 79 2000 5.7 80 07:22 12.01.2020
4446 Snow -4 972 92 2000 7.2 90 06:48 12.01.2020
4447 Snow -4 974 79 10000 5.1 70 06:29 12.01.2020
4448 Snow -5 974 79 10000 4.6 80 05:24 12.01.2020
4449 Clouds -5 974 79 10000 5.1 100 04:27 12.01.2020
4450 Clouds -4 973 85 10000 4.6 100 03:23 12.01.2020
4451 Rain -4 972 79 10000 1.5 140 02:33 12.01.2020
4452 Rain -4 972 92 10000 1.5 90 01:44 12.01.2020
4453 Clouds -4 972 85 10000 6.2 90 01:22 12.01.2020
4454 Rain -4 972 92 10000 2.1 70 00:41 12.01.2020
4455 Clouds -5 972 85 10000 4.6 90 00:20 12.01.2020
4456 Clouds -5 972 85 10000 4.6 90 00:20 12.01.2020
4457 Rain -5 971 85 10000 4.1 100 23:42 11.01.2020
4458 Rain -5 972 92 10000 3.6 100 23:20 11.01.2020
4459 Rain -5 971 92 10000 4.1 100 22:59 11.01.2020
4460 Rain -4 971 92 10000 4.1 100 22:41 11.01.2020
4461 Clouds -4 972 92 10000 2.1 80 22:20 11.01.2020
4462 Rain -4 971 92 10000 3.6 130 21:58 11.01.2020
4463 Rain -4 971 92 10000 3.6 130 21:40 11.01.2020
4464 Snow -4 973 85 2000 4.6 190 21:18 11.01.2020
4465 Snow -3 971 92 4000 5.7 190 20:42 11.01.2020
4466 Clouds -3 972 73 10000 4.1 80 20:22 11.01.2020
4467 Clouds -3 971 68 10000 3.6 170 19:59 11.01.2020
4468 Clouds -3 971 68 10000 3.6 170 19:40 11.01.2020
4469 Clouds -3 971 68 10000 3.6 170 19:40 11.01.2020
4470 Clouds -4 973 73 10000 2.1 180 19:22 11.01.2020
4471 Clouds -3 971 68 10000 4.1 180 18:59 11.01.2020
4472 Clouds -3 971 68 10000 4.1 180 18:39 11.01.2020
4473 Rain -3 973 68 10000 3.1 130 18:20 11.01.2020
4474 Snow -3 972 92 3000 10.8 200 17:58 11.01.2020
4475 Snow -4 972 92 3000 10.8 200 17:40 11.01.2020
4476 Clouds -3 973 74 10000 5.7 190 17:20 11.01.2020
4477 Rain -2 972 58 10000 7.7 210 16:55 11.01.2020
4478 Rain -2 972 58 10000 7.7 210 16:55 11.01.2020
4479 Rain -2 972 58 10000 7.7 210 16:36 11.01.2020
4480 Rain -3 973 79 10000 5.1 210 16:36 11.01.2020
4481 Rain -3 973 79 10000 5.1 210 16:18 11.01.2020
4482 Rain -2 973 79 10000 7.7 210 15:41 11.01.2020
4483 Rain -2 973 74 10000 9.3 220 15:22 11.01.2020
4484 Snow -2 971 79 2000 17 230 14:58 11.01.2020
4485 Snow -2 971 79 2000 17 230 14:40 11.01.2020
4486 Rain -2 972 86 10000 10.8 220 14:21 11.01.2020
4487 Snow -2 972 74 1000 12.3 210 13:55 11.01.2020
4488 Snow -1 972 74 1000 12.3 210 13:36 11.01.2020
4489 Rain 0 971 70 10000 13.9 220 13:18 11.01.2020
4490 Rain 0 969 70 10000 19 230 12:41 11.01.2020
4491 Rain 0 970 70 10000 14.9 220 12:23 11.01.2020
4492 Snow 0 968 70 10000 19.5 230 11:48 11.01.2020
4493 Rain 0 968 70 9000 17 230 11:27 11.01.2020
4494 Snow 0 966 90 10000 21.1 230 10:59 11.01.2020
4495 Snow 0 966 90 10000 21.1 230 10:40 11.01.2020
4496 Snow 0 966 90 10000 21.1 230 10:40 11.01.2020
4497 Rain 0 966 74 8000 15.9 220 10:22 11.01.2020
4498 Snow 1 964 80 10000 21.1 240 09:39 11.01.2020
4499 Rain 2 964 74 10000 14.9 220 09:21 11.01.2020
4500 Snow 2 962 74 10000 19 240 08:43 11.01.2020
4501 Rain 2 962 69 10000 13.4 220 08:22 11.01.2020
4502 Clouds 3 961 69 10000 19.5 240 07:44 11.01.2020
4503 Clouds 2 961 64 10000 14.9 230 07:26 11.01.2020
4504 Clouds 3 959 64 10000 20.6 240 06:55 11.01.2020
4505 Clouds 3 959 74 10000 16.5 230 06:19 11.01.2020
4506 Clouds 3 955 86 10000 18.5 250 04:48 11.01.2020
4507 Clouds 3 955 78 10000 11.3 230 04:29 11.01.2020
4508 Rain 3 953 86 10000 14.9 250 03:49 11.01.2020
4509 Drizzle 3 952 86 10000 12.3 250 02:41 11.01.2020
4510 Rain 3 950 86 10000 13.4 250 01:44 11.01.2020
4511 Rain 2 948 87 10000 10.8 200 01:20 11.01.2020
4512 Clouds 3 948 93 10000 11.3 240 00:44 11.01.2020
4513 Drizzle 3 949 87 10000 8.7 180 00:20 11.01.2020
4514 Clouds 3 947 86 10000 10.3 230 23:41 10.01.2020
4515 Rain 3 947 80 10000 9.3 190 23:22 10.01.2020
4516 Drizzle 3 946 100 5000 8.7 210 22:59 10.01.2020
4517 Drizzle 4 946 100 5000 8.7 210 22:40 10.01.2020
4518 Drizzle 3 946 80 8000 11.3 170 22:21 10.01.2020
4519 Drizzle 3 944 100 4000 8.2 210 21:58 10.01.2020
4520 Drizzle 3 944 100 4000 8.2 210 21:39 10.01.2020
4521 Rain 3 945 80 10000 11.8 170 21:19 10.01.2020
4522 Drizzle 4 942 100 250 7.7 210 20:55 10.01.2020
4523 Drizzle 4 942 100 250 7.7 210 20:37 10.01.2020
4524 Rain 4 944 80 10000 9.8 160 20:18 10.01.2020
4525 Mist 4 941 100 3000 4.6 160 19:39 10.01.2020
4526 Rain 4 944 80 10000 9.3 150 19:20 10.01.2020
4527 Drizzle 3 941 100 2000 8.2 60 18:44 10.01.2020
4528 Rain 3 945 80 10000 10.8 80 18:20 10.01.2020
4529 Drizzle 3 943 100 3000 13.4 60 17:58 10.01.2020
4530 Drizzle 2 943 100 3000 13.4 60 17:40 10.01.2020
4531 Snow 2 947 95 7000 13.9 80 17:21 10.01.2020
4532 Snow 2 946 100 3000 16.5 60 16:59 10.01.2020
4533 Snow 2 946 100 3000 16.5 60 16:41 10.01.2020
4534 Clouds 2 950 95 6000 14.9 80 16:21 10.01.2020
4535 Rain 2 950 86 10000 18 70 15:56 10.01.2020
4536 Rain 2 950 86 10000 18 70 15:37 10.01.2020
4537 Snow 2 954 95 9000 14.9 80 15:19 10.01.2020
4538 Snow 2 956 100 3000 15.4 60 14:56 10.01.2020
4539 Snow 2 956 100 3000 15.4 60 14:38 10.01.2020
4540 Snow 2 960 93 6000 14.4 70 14:19 10.01.2020
4541 Snow 1 965 86 2300 14.9 80 13:45 10.01.2020
4542 Snow 1 966 74 9000 13.4 70 13:27 10.01.2020
4543 Clouds 1 966 86 10000 14.9 70 12:59 10.01.2020
4544 Clouds 2 966 86 10000 14.9 70 12:40 10.01.2020
4545 Snow 1 971 74 10000 9.8 70 12:21 10.01.2020
4546 Rain 1 971 93 10000 12.3 80 11:57 10.01.2020
4547 Rain 1 971 93 10000 12.3 80 11:39 10.01.2020
4548 Snow 1 975 86 5000 9.8 90 11:19 10.01.2020
4549 Rain 1 975 94 10000 8.7 90 10:58 10.01.2020
4550 Rain 0 975 94 10000 8.7 90 10:38 10.01.2020
4551 Clouds 1 979 94 10000 10.3 90 10:18 10.01.2020
4552 Rain 0 978 94 10000 6.7 100 09:45 10.01.2020
4553 Snow 0 981 94 10000 5.7 80 09:26 10.01.2020
4554 Clouds 0 980 94 10000 4.6 70 08:56 10.01.2020
4555 Clouds 0 980 94 10000 4.6 70 08:37 10.01.2020
4556 Snow 0 984 98 9000 4.1 90 08:18 10.01.2020
4557 Rain -1 984 92 8000 3.1 90 07:41 10.01.2020
4558 Snow 0 986 98 3500 5.7 120 07:19 10.01.2020
4559 Rain 0 985 98 10000 4.1 130 06:41 10.01.2020
4560 Clouds 0 987 98 10000 4.6 120 06:23 10.01.2020
4561 Clouds -1 988 86 9000 3.6 100 05:25 10.01.2020
4562 Clouds -1 988 86 10000 5.1 190 03:32 10.01.2020
4563 Rain -2 987 86 10000 11.3 240 02:53 10.01.2020
4564 Rain -2 987 92 10000 7.7 220 02:33 10.01.2020
4565 Snow -2 986 92 2000 14.4 240 01:33 10.01.2020
4566 Rain -2 985 86 7000 13.4 240 00:53 10.01.2020
4567 Rain -2 985 86 7000 13.4 240 00:35 10.01.2020
4568 Snow -3 984 86 600 17.5 240 23:57 09.01.2020
4569 Snow -3 984 86 600 17.5 240 23:37 09.01.2020
4570 Clouds -3 985 86 10000 5.1 190 23:19 09.01.2020
4571 Clouds -3 985 92 10000 9.3 230 22:56 09.01.2020
4572 Clouds -3 985 92 10000 9.3 230 22:37 09.01.2020
4573 Snow -4 985 92 300 11.3 220 22:18 09.01.2020
4574 Snow -4 984 100 800 13.4 250 21:55 09.01.2020
4575 Snow -4 984 100 800 13.4 250 21:37 09.01.2020
4576 Snow -3 985 86 4000 9.8 210 21:18 09.01.2020
4577 Snow -4 984 92 7000 13.9 250 20:55 09.01.2020
4578 Snow -4 984 92 7000 13.9 250 20:37 09.01.2020
4579 Rain -4 984 86 5000 11.8 220 20:18 09.01.2020
4580 Rain -4 984 86 8000 9.3 210 19:39 09.01.2020
4581 Rain -4 984 86 2000 9.8 220 19:21 09.01.2020
4582 Snow -4 983 79 1000 11.8 220 18:59 09.01.2020
4583 Snow -4 983 79 1000 11.8 220 18:40 09.01.2020
4584 Rain -4 982 79 10000 9.8 230 18:21 09.01.2020
4585 Snow -4 982 86 2000 12.3 240 17:58 09.01.2020
4586 Snow -4 982 86 2000 12.3 240 17:40 09.01.2020
4587 Snow -4 982 92 100 12.3 240 17:18 09.01.2020
4588 Rain -4 981 86 8000 10.3 230 16:46 09.01.2020
4589 Snow -4 981 86 1000 9.8 230 16:22 09.01.2020
4590 Snow -4 981 86 100 10.8 250 15:44 09.01.2020
4591 Snow -4 981 86 50 10.3 220 15:25 09.01.2020
4592 Snow -3 980 86 80 12.9 240 14:59 09.01.2020
4593 Snow -3 980 86 80 12.9 240 14:41 09.01.2020
4594 Snow -4 980 92 150 14.9 230 14:19 09.01.2020
4595 Snow -3 980 86 2000 12.3 230 13:57 09.01.2020
4596 Snow -3 980 86 2000 12.3 230 13:38 09.01.2020
4597 Snow -3 980 86 40 15.9 220 13:19 09.01.2020
4598 Snow -3 980 86 50 18 230 12:57 09.01.2020
4599 Snow -3 980 86 50 18 230 12:38 09.01.2020
4600 Snow -3 979 86 500 15.4 230 12:18 09.01.2020
4601 Snow -3 978 92 200 21.6 240 11:43 09.01.2020
4602 Snow -3 979 79 8000 15.4 230 11:25 09.01.2020
4603 Snow -3 979 79 8000 15.4 230 11:25 09.01.2020
4604 Snow -3 979 79 2500 17 230 10:59 09.01.2020
4605 Snow -3 979 79 2500 17 230 10:41 09.01.2020
4606 Rain -2 979 63 10000 16.5 230 10:22 09.01.2020
4607 Clouds -2 977 74 10000 20.1 230 09:49 09.01.2020
4608 Snow -2 979 58 9000 15.4 230 09:26 09.01.2020
4609 Rain -2 977 58 10000 20.1 240 08:59 09.01.2020
4610 Rain -1 977 58 10000 20.1 240 08:40 09.01.2020
4611 Clouds -1 979 74 10000 13.9 220 08:22 09.01.2020
4612 Clouds -2 980 74 10000 14.4 230 07:57 09.01.2020
4613 Clouds -2 980 74 10000 14.4 230 07:38 09.01.2020
4614 Rain -2 980 68 10000 14.9 220 07:19 09.01.2020
4615 Rain -1 978 58 10000 19.5 230 06:38 09.01.2020
4616 Rain -1 981 74 7000 17 240 06:18 09.01.2020
4617 Rain -1 981 58 10000 15.4 230 05:40 09.01.2020
4618 Clouds -1 981 80 700 14.9 240 04:42 09.01.2020
4619 Snow -1 981 86 800 13.4 240 03:28 09.01.2020
4620 Snow -2 981 86 500 14.4 230 02:47 09.01.2020
4621 Snow -2 981 86 500 14.4 230 02:47 09.01.2020
4622 Snow -1 982 64 1000 10.3 220 01:53 09.01.2020
4623 Snow 0 982 71 1000 10.3 220 01:33 09.01.2020
4624 Snow 0 982 71 1000 10.3 220 00:40 09.01.2020
4625 Clouds 0 981 71 10000 8.7 230 00:19 09.01.2020
4626 Clouds -1 981 71 8000 7.7 200 23:41 08.01.2020
4627 Clouds -1 981 70 1800 9.8 230 23:23 08.01.2020
4628 Rain 0 981 86 10000 12.3 220 22:58 08.01.2020
4629 Rain 0 981 86 10000 12.3 220 22:38 08.01.2020
4630 Clouds -1 982 70 10000 9.8 230 22:20 08.01.2020
4631 Snow 0 982 70 600 10.3 220 21:56 08.01.2020
4632 Snow 0 982 70 600 10.3 220 21:37 08.01.2020
4633 Clouds -1 982 70 10000 6.7 210 21:18 08.01.2020
4634 Rain -1 981 70 10000 8.7 220 20:57 08.01.2020
4635 Rain -1 981 70 10000 8.7 220 20:38 08.01.2020
4636 Clouds -1 982 80 10000 5.7 170 20:19 08.01.2020
4637 Rain -1 982 62 10000 8.7 230 19:55 08.01.2020
4638 Rain -1 982 62 10000 8.7 230 19:55 08.01.2020
4639 Rain -1 982 62 10000 8.7 230 19:36 08.01.2020
4640 Rain -1 983 62 10000 7.2 240 19:18 08.01.2020
4641 Rain -1 982 62 10000 9.8 250 18:54 08.01.2020
4642 Rain -1 982 62 10000 9.8 250 18:36 08.01.2020
4643 Snow -1 983 86 10000 8.2 210 18:18 08.01.2020
4644 Snow 0 983 62 10000 9.8 230 17:42 08.01.2020
4645 Snow -1 984 80 1500 13.4 250 17:23 08.01.2020
4646 Rain -1 983 58 10000 13.9 250 16:57 08.01.2020
4647 Rain -1 983 58 10000 13.9 250 16:39 08.01.2020
4648 Rain -1 984 74 10000 8.7 260 16:19 08.01.2020
4649 Rain -1 984 74 10000 8.7 260 16:19 08.01.2020
4650 Rain -1 983 58 10000 10.3 270 15:56 08.01.2020
4651 Rain -1 983 58 10000 10.3 270 15:38 08.01.2020
4652 Rain -1 983 58 10000 11.3 260 15:18 08.01.2020
4653 Rain -2 983 58 10000 12.9 240 14:41 08.01.2020
4654 Clouds -1 983 80 1400 13.9 250 14:21 08.01.2020
4655 Rain -1 982 68 10000 13.9 250 13:56 08.01.2020
4656 Rain -1 982 68 10000 13.9 250 13:37 08.01.2020
4657 Snow -1 982 52 10000 14.4 270 13:18 08.01.2020
4658 Snow -2 982 68 10000 14.9 260 12:40 08.01.2020
4659 Snow -2 981 63 1500 13.9 270 12:18 08.01.2020
4660 Rain -1 980 58 10000 19.5 270 11:49 08.01.2020
4661 Rain -1 979 61 10000 17.5 260 11:20 08.01.2020
4662 Clouds -1 977 54 10000 22.6 270 10:59 08.01.2020
4663 Clouds -1 977 54 10000 22.6 270 10:41 08.01.2020
4664 Clouds -1 977 61 10000 17.5 270 10:22 08.01.2020
4665 Snow -1 975 54 10000 23.1 260 09:58 08.01.2020
4666 Snow -1 975 54 10000 23.1 260 09:38 08.01.2020
4667 Clouds -1 975 58 10000 18 260 09:18 08.01.2020
4668 Clouds -2 973 50 10000 24.7 270 08:42 08.01.2020
4669 Clouds -2 972 79 9000 20.6 250 08:23 08.01.2020
4670 Snow -2 971 79 6000 23.1 260 07:59 08.01.2020
4671 Snow -2 971 79 6000 23.1 260 07:59 08.01.2020
4672 Snow -2 971 79 6000 23.1 260 07:59 08.01.2020
4673 Snow -2 971 79 6000 23.1 260 07:41 08.01.2020
4674 Clouds -2 969 74 9000 18 250 07:20 08.01.2020
4675 Clouds -2 969 79 10000 23.7 250 06:42 08.01.2020
4676 Clouds -2 967 74 10000 23.7 250 05:57 08.01.2020
4677 Snow -2 966 86 1000 19 250 05:27 08.01.2020
4678 Clouds -2 965 80 9000 17.5 250 04:39 08.01.2020
4679 Clouds -2 964 80 10000 16.5 250 03:31 08.01.2020
4680 Snow -3 963 92 600 17 240 02:36 08.01.2020
4681 Snow -3 963 92 600 17 240 02:18 08.01.2020
4682 Snow -3 963 86 300 15.9 240 01:39 08.01.2020
4683 Snow -3 961 92 6000 17.5 240 00:52 08.01.2020
4684 Clouds -3 961 79 10000 16.5 250 00:24 08.01.2020
4685 Snow -2 960 58 10000 18.5 250 23:46 07.01.2020
4686 Clouds -3 960 79 10000 19 240 23:21 07.01.2020
4687 Snow -3 959 79 10000 21.1 240 22:58 07.01.2020
4688 Snow -3 959 79 10000 21.1 240 22:38 07.01.2020
4689 Snow -2 958 86 700 14.4 240 22:19 07.01.2020
4690 Snow -2 958 86 700 14.4 240 22:19 07.01.2020
4691 Snow -2 958 86 800 14.4 250 21:42 07.01.2020
4692 Clouds -2 958 80 4000 15.4 240 21:23 07.01.2020
4693 Snow -2 956 63 10000 19.5 250 20:59 07.01.2020
4694 Snow -2 956 63 10000 19.5 250 20:41 07.01.2020
4695 Snow -2 955 92 4000 19.5 240 20:22 07.01.2020
4696 Snow -2 954 86 1700 22.1 250 19:59 07.01.2020
4697 Snow -2 954 86 1700 22.1 250 19:38 07.01.2020
4698 Snow -1 952 92 1000 19 240 19:19 07.01.2020
4699 Snow -1 952 92 1000 19 240 19:19 07.01.2020
4700 Snow -1 952 70 1000 18.5 240 18:57 07.01.2020
4701 Snow -1 952 70 1000 18.5 240 18:38 07.01.2020
4702 Clouds 0 951 80 10000 15.4 230 18:18 07.01.2020
4703 Clouds 0 951 80 10000 15.4 230 18:18 07.01.2020
4704 Rain 0 950 70 9000 18.5 250 17:57 07.01.2020
4705 Rain 0 950 70 9000 18.5 250 17:37 07.01.2020
4706 Clouds 0 950 88 5000 19.5 230 17:19 07.01.2020
4707 Rain 0 948 88 9000 21.6 250 16:55 07.01.2020
4708 Rain 0 948 88 9000 21.6 250 16:37 07.01.2020
4709 Clouds 0 948 88 4500 19.5 240 16:18 07.01.2020
4710 Clouds 0 947 86 2000 19.5 240 15:43 07.01.2020
4711 Rain 1 944 88 10000 16.5 220 15:24 07.01.2020
4712 Rain 1 944 88 10000 16.5 220 15:24 07.01.2020
4713 Rain 1 944 88 10000 16.5 220 15:24 07.01.2020
4714 Rain 3 943 93 10000 18 250 14:59 07.01.2020
4715 Rain 2 943 93 10000 18 250 14:41 07.01.2020
4716 Rain 3 942 86 8000 11.8 200 14:22 07.01.2020
4717 Rain 3 942 86 8000 11.8 200 14:22 07.01.2020
4718 Rain 3 941 86 10000 12.3 230 13:55 07.01.2020
4719 Rain 3 941 86 10000 12.3 230 13:37 07.01.2020
4720 Clouds 3 943 80 10000 6.2 90 13:18 07.01.2020
4721 Rain 3 942 93 10000 6.2 120 12:40 07.01.2020
4722 Clouds 3 943 95 10000 7.2 80 12:19 07.01.2020
4723 Clouds 3 942 93 10000 5.1 90 11:42 07.01.2020
4724 Clouds 3 943 74 10000 8.2 90 11:23 07.01.2020
4725 Rain 2 943 93 10000 7.7 80 10:58 07.01.2020
4726 Rain 2 943 93 10000 7.7 80 10:39 07.01.2020
4727 Clouds 2 943 74 10000 10.8 80 10:21 07.01.2020
4728 Rain 1 943 100 10000 9.3 60 09:56 07.01.2020
4729 Rain 1 943 100 10000 9.3 60 09:37 07.01.2020
4730 Snow 1 945 80 7000 12.9 80 09:19 07.01.2020
4731 Rain 1 945 97 10000 13.4 60 08:41 07.01.2020
4732 Snow 1 947 74 10000 13.9 80 08:20 07.01.2020
4733 Snow 0 948 94 7000 13.4 60 07:49 07.01.2020
4734 Snow 0 948 94 7000 13.4 60 07:49 07.01.2020
4735 Snow 0 950 94 7000 10.8 70 07:23 07.01.2020
4736 Snow 0 951 94 2100 13.9 60 06:52 07.01.2020
4737 Snow 0 955 94 7000 11.3 70 06:32 07.01.2020
4738 Snow 0 956 94 2700 11.3 70 05:42 07.01.2020
4739 Rain 1 963 93 10000 6.2 90 03:52 07.01.2020
4740 Clouds 1 966 64 10000 6.2 90 03:25 07.01.2020
4741 Clouds 1 970 59 10000 5.7 90 02:20 07.01.2020
4742 Clouds 1 969 86 10000 3.6 120 01:40 07.01.2020
4743 Clouds 1 969 86 10000 3.6 120 01:40 07.01.2020
4744 Clouds 1 972 69 10000 5.1 100 01:18 07.01.2020
4745 Clouds 1 973 69 10000 3.6 130 00:21 07.01.2020
4746 Clouds 0 973 80 10000 3.6 170 23:58 06.01.2020
4747 Clouds 0 973 80 10000 3.6 170 23:38 06.01.2020
4748 Clouds 0 975 69 10000 3.1 140 23:20 06.01.2020
4749 Clouds 1 974 69 10000 4.6 220 22:56 06.01.2020
4750 Clouds 1 974 69 10000 4.6 220 22:37 06.01.2020
4751 Clouds 1 975 69 10000 4.1 220 22:18 06.01.2020
4752 Clouds 2 975 64 10000 6.2 240 21:54 06.01.2020
4753 Clouds 3 975 64 10000 6.2 240 21:36 06.01.2020
4754 Clouds 2 975 59 10000 7.2 250 21:18 06.01.2020
4755 Clouds 2 975 64 10000 8.7 260 20:54 06.01.2020
4756 Clouds 2 975 64 10000 8.7 260 20:36 06.01.2020
4757 Clouds 2 975 64 10000 9.8 250 20:18 06.01.2020
4758 Clouds 2 975 64 10000 9.8 250 20:18 06.01.2020
4759 Clouds 2 974 69 10000 11.8 250 19:54 06.01.2020
4760 Clouds 2 974 69 10000 11.8 250 19:36 06.01.2020
4761 Rain 2 973 80 10000 9.3 270 19:18 06.01.2020
4762 Rain 2 973 80 10000 12.3 260 18:41 06.01.2020
4763 Clouds 3 972 77 10000 9.3 260 18:19 06.01.2020
4764 Rain 2 972 93 10000 10.8 270 17:39 06.01.2020
4765 Rain 2 971 80 10000 10.8 270 17:20 06.01.2020
4766 Rain 3 970 86 10000 13.4 250 16:57 06.01.2020
4767 Rain 3 970 86 10000 13.4 250 16:38 06.01.2020
4768 Rain 3 970 84 10000 9.8 260 16:19 06.01.2020
4769 Rain 3 969 86 10000 13.9 260 15:43 06.01.2020
4770 Rain 2 968 84 10000 8.2 260 15:22 06.01.2020
4771 Clouds 2 968 84 10000 12.3 260 14:59 06.01.2020
4772 Clouds 2 968 84 10000 12.3 260 14:41 06.01.2020
4773 Rain 2 966 84 10000 11.8 270 14:22 06.01.2020
4774 Clouds 2 966 93 10000 12.3 280 13:59 06.01.2020
4775 Clouds 2 966 93 10000 12.3 280 13:38 06.01.2020
4776 Drizzle 2 964 84 10000 10.8 280 13:20 06.01.2020
4777 Rain 2 964 93 10000 12.3 290 12:55 06.01.2020
4778 Rain 2 964 93 10000 12.3 290 12:37 06.01.2020
4779 Drizzle 2 963 82 9000 8.2 270 12:18 06.01.2020
4780 Rain 2 963 93 10000 9.8 280 11:41 06.01.2020
4781 Drizzle 2 961 82 4000 10.8 290 11:23 06.01.2020
4782 Clouds 2 962 100 10000 9.8 310 10:58 06.01.2020
4783 Clouds 3 962 100 10000 9.8 310 10:40 06.01.2020
4784 Rain 2 959 86 8000 2.6 160 10:20 06.01.2020
4785 Drizzle 3 960 100 8000 12.3 330 09:39 06.01.2020
4786 Clouds 3 959 86 10000 1.5 110 09:20 06.01.2020
4787 Rain 3 960 100 7000 10.8 350 08:51 06.01.2020
4788 Drizzle 3 959 80 10000 4.6 70 08:33 06.01.2020
4789 Rain 3 960 100 6000 9.8 360 07:57 06.01.2020
4790 Rain 3 960 100 6000 9.8 360 07:36 06.01.2020
4791 Snow 2 961 96 2500 11.8 10 06:46 06.01.2020
4792 Rain 2 962 96 10000 8.2 70 06:27 06.01.2020
4793 Snow 1 963 96 1700 12.3 10 05:48 06.01.2020
4794 Snow 2 966 97 1500 11.8 20 04:53 06.01.2020
4795 Rain 2 968 97 10000 5.1 40 04:20 06.01.2020
4796 Clouds 2 971 97 5000 8.2 50 02:58 06.01.2020
4797 Rain 2 974 80 10000 8.2 70 02:24 06.01.2020
4798 Rain 2 974 93 10000 6.2 60 01:45 06.01.2020
4799 Clouds 2 976 69 10000 6.7 80 01:27 06.01.2020
4800 Rain 2 976 93 10000 5.1 70 00:44 06.01.2020
4801 Rain 2 978 80 10000 4.6 70 00:23 06.01.2020
4802 Rain 2 978 86 10000 4.1 70 23:43 05.01.2020
4803 Rain 2 978 86 10000 4.1 70 23:43 05.01.2020
4804 Clouds 2 980 80 10000 4.1 60 23:23 05.01.2020
4805 Clouds 2 980 80 10000 4.1 60 23:23 05.01.2020
4806 Clouds 2 979 86 10000 4.1 120 22:58 05.01.2020
4807 Clouds 2 979 86 10000 4.1 120 22:39 05.01.2020
4808 Clouds 2 981 80 10000 2.6 60 22:20 05.01.2020
4809 Clouds 2 981 93 10000 5.7 130 21:55 05.01.2020
4810 Clouds 3 981 93 10000 5.7 130 21:37 05.01.2020
4811 Clouds 3 981 93 10000 5.7 130 21:37 05.01.2020
4812 Clouds 2 983 74 10000 3.1 120 21:19 05.01.2020
4813 Clouds 2 983 81 10000 4.1 140 20:55 05.01.2020
4814 Clouds 2 983 81 10000 4.1 140 20:37 05.01.2020
4815 Clouds 2 984 74 10000 3.1 130 20:19 05.01.2020
4816 Clouds 2 984 80 10000 5.1 170 19:56 05.01.2020
4817 Clouds 2 984 80 10000 5.1 170 19:37 05.01.2020
4818 Clouds 2 985 74 10000 4.1 150 19:19 05.01.2020
4819 Clouds 3 985 80 10000 5.7 180 18:55 05.01.2020
4820 Clouds 3 985 80 10000 5.7 180 18:36 05.01.2020
4821 Clouds 3 986 74 10000 5.1 160 18:18 05.01.2020
4822 Clouds 2 985 80 10000 6.7 190 17:57 05.01.2020
4823 Clouds 2 985 80 10000 6.7 190 17:37 05.01.2020
4824 Rain 2 986 74 10000 5.7 180 17:19 05.01.2020
4825 Rain 2 986 74 10000 5.7 180 17:19 05.01.2020
4826 Rain 2 985 73 10000 8.7 210 16:55 05.01.2020
4827 Rain 2 985 73 10000 8.7 210 16:37 05.01.2020
4828 Rain 2 986 74 10000 7.2 190 16:19 05.01.2020
4829 Rain 2 986 74 10000 7.2 190 16:19 05.01.2020
4830 Rain 2 986 74 10000 7.2 190 16:19 05.01.2020
4831 Rain 2 986 74 10000 6.7 200 15:37 05.01.2020
4832 Rain 2 986 74 10000 6.7 200 15:18 05.01.2020
4833 Rain 3 985 73 10000 9.8 210 14:55 05.01.2020
4834 Rain 2 985 73 10000 9.8 210 14:37 05.01.2020
4835 Rain 3 986 74 10000 5.7 190 14:18 05.01.2020
4836 Rain 3 985 67 10000 10.8 220 13:40 05.01.2020
4837 Rain 2 985 80 10000 8.2 200 13:21 05.01.2020
4838 Rain 2 984 74 10000 12.9 230 12:58 05.01.2020
4839 Rain 2 984 74 10000 12.9 230 12:39 05.01.2020
4840 Rain 2 984 74 10000 12.9 230 12:39 05.01.2020
4841 Rain 2 985 74 10000 6.2 200 12:21 05.01.2020
4842 Rain 2 983 74 10000 11.3 240 11:58 05.01.2020
4843 Rain 2 983 74 10000 11.3 240 11:39 05.01.2020
4844 Rain 2 983 74 10000 11.3 240 11:39 05.01.2020
4845 Rain 2 984 74 10000 10.3 210 11:19 05.01.2020
4846 Rain 2 984 74 10000 10.3 210 11:19 05.01.2020
4847 Rain 2 983 67 10000 13.4 240 10:56 05.01.2020
4848 Rain 2 983 67 10000 13.4 240 10:36 05.01.2020
4849 Rain 2 983 80 10000 12.3 220 10:18 05.01.2020
4850 Rain 3 981 67 10000 15.4 220 09:41 05.01.2020
4851 Clouds 3 982 64 10000 11.3 210 09:21 05.01.2020
4852 Clouds 3 982 64 10000 11.3 210 09:21 05.01.2020
4853 Rain 2 980 69 10000 15.9 230 08:48 05.01.2020
4854 Rain 2 981 80 10000 9.8 190 08:29 05.01.2020
4855 Rain 3 979 79 10000 15.4 210 07:56 05.01.2020
4856 Rain 3 979 79 10000 15.4 210 07:37 05.01.2020
4857 Rain 3 980 79 10000 10.8 190 07:18 05.01.2020
4858 Rain 3 980 80 10000 13.9 200 05:59 05.01.2020
4859 Rain 2 982 79 10000 9.8 210 05:30 05.01.2020
4860 Rain 3 980 86 10000 12.3 200 04:43 05.01.2020
4861 Rain 3 981 76 10000 10.3 190 04:18 05.01.2020
4862 Rain 2 983 86 4100 16.5 200 02:46 05.01.2020
4863 Rain 3 983 80 9000 9.8 200 02:24 05.01.2020
4864 Clouds 3 982 93 10000 13.9 190 01:48 05.01.2020
4865 Rain 3 984 81 10000 7.7 180 01:18 05.01.2020
4866 Clouds 3 983 80 10000 12.9 190 00:41 05.01.2020
4867 Rain 3 985 80 10000 8.2 180 00:23 05.01.2020
4868 Rain 3 983 93 10000 12.9 200 23:59 04.01.2020
4869 Rain 3 983 93 10000 12.9 200 23:40 04.01.2020
4870 Rain 3 985 83 10000 7.7 170 23:19 04.01.2020
4871 Clouds 3 984 93 10000 9.8 190 22:40 04.01.2020
4872 Rain 3 986 83 10000 6.2 170 22:22 04.01.2020
4873 Clouds 3 985 93 10000 8.7 200 21:58 04.01.2020
4874 Clouds 3 985 93 10000 8.7 200 21:39 04.01.2020
4875 Rain 3 986 83 10000 7.7 190 21:20 04.01.2020
4876 Clouds 3 986 80 10000 11.3 210 20:59 04.01.2020
4877 Clouds 3 986 80 10000 11.3 210 20:40 04.01.2020
4878 Rain 3 987 80 10000 8.2 190 20:21 04.01.2020
4879 Clouds 4 985 75 10000 11.3 210 19:56 04.01.2020
4880 Clouds 4 985 75 10000 11.3 210 19:38 04.01.2020
4881 Rain 4 987 80 9000 9.3 210 19:19 04.01.2020
4882 Clouds 3 985 86 10000 11.8 200 18:54 04.01.2020
4883 Rain 4 986 80 8000 8.2 200 18:36 04.01.2020
4884 Rain 4 986 80 8000 8.2 200 18:18 04.01.2020
4885 Rain 4 985 86 10000 9.8 220 17:41 04.01.2020
4886 Rain 4 986 80 9000 9.3 200 17:23 04.01.2020
4887 Rain 4 985 93 10000 10.3 220 16:57 04.01.2020
4888 Rain 4 985 93 10000 10.3 220 16:39 04.01.2020
4889 Rain 4 985 93 10000 10.3 220 16:39 04.01.2020
4890 Rain 4 985 86 9000 9.3 170 16:21 04.01.2020
4891 Rain 3 985 100 6000 7.7 190 15:43 04.01.2020
4892 Rain 3 985 86 3500 17.5 120 15:20 04.01.2020
4893 Rain 3 985 86 3500 17.5 120 15:20 04.01.2020
4894 Rain 2 984 100 2500 16.5 140 14:59 04.01.2020
4895 Rain 3 984 100 2500 16.5 140 14:41 04.01.2020
4896 Rain 2 987 94 2500 18.5 100 14:20 04.01.2020
4897 Rain 1 985 93 2500 25.7 130 13:59 04.01.2020
4898 Rain 1 985 93 2500 25.7 130 13:38 04.01.2020
4899 Snow 1 990 94 2500 16.5 110 13:19 04.01.2020
4900 Snow 1 987 93 3000 24.7 130 12:57 04.01.2020
4901 Snow 1 987 93 3000 24.7 130 12:38 04.01.2020
4902 Snow 0 992 94 900 14.9 110 12:18 04.01.2020
4903 Snow 0 991 94 1500 23.1 120 11:55 04.01.2020
4904 Snow 0 991 94 1500 23.1 120 11:36 04.01.2020
4905 Clouds 0 995 91 600 13.9 100 11:18 04.01.2020
4906 Snow -1 995 91 800 21.1 120 10:40 04.01.2020
4907 Snow -1 999 92 600 11.3 100 10:21 04.01.2020
4908 Snow -1 1000 86 500 11.3 100 09:47 04.01.2020
4909 Snow -1 1003 86 1000 8.2 100 09:26 04.01.2020
4910 Snow -1 1001 91 600 18.5 120 08:49 04.01.2020
4911 Clouds -1 1006 63 10000 10.3 90 08:29 04.01.2020
4912 Rain -1 1005 81 10000 12.9 90 07:57 04.01.2020
4913 Rain -1 1005 81 10000 12.9 90 07:38 04.01.2020
4914 Clouds -2 1007 81 10000 12.9 120 06:44 04.01.2020
4915 Snow -2 1009 74 10000 9.8 100 05:59 04.01.2020
4916 Clouds -2 1010 58 10000 8.7 110 04:52 04.01.2020
4917 Clouds -3 1012 58 10000 8.2 90 04:31 04.01.2020
4918 Clouds -4 1013 63 10000 8.7 80 03:29 04.01.2020
4919 Clouds -4 1013 68 10000 5.7 80 02:52 04.01.2020
4920 Clouds -5 1015 62 10000 8.2 90 02:18 04.01.2020
4921 Clouds -6 1015 67 10000 3.6 80 01:45 04.01.2020
4922 Clouds -7 1015 62 10000 3.6 70 01:27 04.01.2020
4923 Clouds -7 1016 72 10000 2.1 160 00:29 04.01.2020
4924 Clouds -8 1016 67 10000 2.6 100 23:59 03.01.2020
4925 Clouds -9 1016 67 10000 2.6 100 23:37 03.01.2020
4926 Clouds -9 1016 72 10000 2.6 130 23:18 03.01.2020
4927 Clouds -8 1016 73 10000 3.6 80 22:40 03.01.2020
4928 Clouds -8 1016 66 10000 1.5 160 22:19 03.01.2020
4929 Clouds -8 1016 67 10000 4.1 50 21:57 03.01.2020
4930 Clouds -8 1016 67 10000 4.1 50 21:38 03.01.2020
4931 Clouds -8 1016 61 10000 3.6 120 21:19 03.01.2020
4932 Clouds -8 1015 62 10000 5.7 40 20:56 03.01.2020
4933 Clouds -8 1015 62 10000 5.7 40 20:38 03.01.2020
4934 Clouds -7 1016 61 10000 1.5 130 20:18 03.01.2020
4935 Clouds -7 1015 62 10000 5.7 40 19:55 03.01.2020
4936 Clouds -7 1015 62 10000 5.7 40 19:37 03.01.2020
4937 Clouds -6 1015 57 10000 2.1 80 19:18 03.01.2020
4938 Clouds -7 1014 62 10000 6.7 20 18:40 03.01.2020
4939 Clouds -7 1014 57 10000 6.2 10 18:21 03.01.2020
4940 Clouds -6 1013 67 10000 5.1 20 17:55 03.01.2020
4941 Clouds -6 1013 67 10000 5.1 20 17:36 03.01.2020
4942 Clouds -7 1013 53 10000 5.1 350 17:18 03.01.2020
4943 Rain -6 1012 73 10000 3.6 40 16:42 03.01.2020
4944 Clouds -5 1012 62 10000 4.1 10 16:22 03.01.2020
4945 Snow -7 1011 73 10000 3.1 330 15:43 03.01.2020
4946 Clouds -5 1011 62 10000 5.1 20 15:19 03.01.2020
4947 Rain -5 1010 92 10000 3.6 330 14:57 03.01.2020
4948 Rain -6 1010 92 10000 3.6 330 14:37 03.01.2020
4949 Rain -6 1009 57 10000 5.1 350 14:19 03.01.2020
4950 Snow -6 1008 85 10000 6.2 330 13:43 03.01.2020
4951 Snow -5 1007 85 2100 7.2 360 13:23 03.01.2020
4952 Rain -4 1006 57 10000 10.3 290 12:58 03.01.2020
4953 Rain -4 1006 57 10000 10.3 290 12:38 03.01.2020
4954 Clouds -5 1006 53 10000 11.3 300 12:20 03.01.2020
4955 Clouds -4 1005 62 10000 12.9 300 11:44 03.01.2020
4956 Rain -5 1004 62 10000 12.9 300 11:20 03.01.2020
4957 Clouds -5 1004 73 4000 14.4 290 10:44 03.01.2020
4958 Clouds -5 1003 53 10000 14.9 300 10:25 03.01.2020
4959 Clouds -4 1002 73 10000 11.3 300 09:58 03.01.2020
4960 Clouds -4 1002 73 10000 11.3 300 09:39 03.01.2020
4961 Clouds -4 1002 58 10000 14.4 300 09:21 03.01.2020
4962 Clouds -4 1002 58 10000 14.4 300 09:21 03.01.2020
4963 Rain -3 1001 68 10000 10.3 310 08:56 03.01.2020
4964 Rain -3 1001 68 10000 10.3 310 08:37 03.01.2020
4965 Rain -4 1000 58 10000 12.3 300 08:19 03.01.2020
4966 Rain -4 999 73 3000 12.3 300 07:39 03.01.2020
4967 Snow -4 999 85 8000 9.8 310 07:18 03.01.2020
4968 Snow -4 998 68 10000 10.3 300 06:47 03.01.2020
4969 Rain -4 997 73 9000 6.7 320 06:28 03.01.2020
4970 Snow -4 996 85 4000 7.2 310 05:30 03.01.2020
4971 Rain -5 994 92 9000 3.1 330 04:19 03.01.2020
4972 Snow -4 992 73 5000 8.7 300 02:56 03.01.2020
4973 Snow -4 992 73 5000 8.7 300 02:56 03.01.2020
4974 Snow -4 992 85 3300 7.7 340 02:26 03.01.2020
4975 Snow -4 991 92 800 12.9 290 01:39 03.01.2020
4976 Rain -4 990 79 10000 9.3 320 00:49 03.01.2020
4977 Snow -5 990 92 1000 14.4 310 00:29 03.01.2020
4978 Snow -5 989 85 650 6.7 230 23:55 02.01.2020
4979 Snow -5 989 85 650 6.7 230 23:37 02.01.2020
4980 Clouds -5 988 73 10000 7.2 200 23:18 02.01.2020
4981 Snow -5 988 85 10000 5.7 220 22:44 02.01.2020
4982 Clouds -4 988 53 10000 6.2 260 22:21 02.01.2020
4983 Clouds -4 988 53 10000 6.2 260 22:21 02.01.2020
4984 Rain -4 988 58 10000 8.2 270 21:57 02.01.2020
4985 Rain -4 988 58 10000 8.2 270 21:39 02.01.2020
4986 Clouds -4 988 58 10000 8.7 290 21:21 02.01.2020
4987 Clouds -4 988 58 10000 8.2 280 20:57 02.01.2020
4988 Clouds -4 988 58 10000 8.2 280 20:39 02.01.2020
4989 Rain -4 988 92 9000 3.6 220 20:20 02.01.2020
4990 Snow -6 988 85 2000 2.1 280 19:55 02.01.2020
4991 Snow -6 988 85 2000 2.1 280 19:37 02.01.2020
4992 Snow -6 988 85 2000 2.1 280 19:37 02.01.2020
4993 Snow -6 987 85 7000 2.1 0 19:19 02.01.2020
4994 Snow -5 986 100 2500 8.7 290 18:56 02.01.2020
4995 Snow -5 986 100 2500 8.7 290 18:37 02.01.2020
4996 Clouds -5 986 79 10000 1 0 18:19 02.01.2020
4997 Rain -4 985 79 10000 2.6 330 17:55 02.01.2020
4998 Clouds -5 985 79 10000 4.6 350 17:36 02.01.2020
4999 Rain -4 985 79 10000 2.6 330 17:36 02.01.2020
5000 Clouds -5 985 79 10000 4.6 350 17:18 02.01.2020
5001 Clouds -5 985 79 10000 4.6 350 17:18 02.01.2020
5002 Rain -4 984 79 10000 5.7 340 16:54 02.01.2020
5003 Rain -4 984 79 10000 5.7 340 16:36 02.01.2020
5004 Rain -4 983 79 10000 5.1 330 16:18 02.01.2020
5005 Snow -4 983 92 10000 5.7 360 15:42 02.01.2020
5006 Clouds -5 982 85 10000 6.2 350 15:24 02.01.2020
5007 Snow -4 982 92 800 6.2 340 14:58 02.01.2020
5008 Snow -4 982 92 800 6.2 340 14:37 02.01.2020
5009 Snow -4 980 85 2000 7.7 340 14:19 02.01.2020
5010 Rain -4 980 85 10000 8.7 360 13:58 02.01.2020
5011 Rain -4 980 85 10000 8.7 360 13:38 02.01.2020
5012 Rain -2 977 79 10000 13.9 320 12:59 02.01.2020
5013 Rain -2 977 79 10000 13.9 320 12:40 02.01.2020
5014 Snow -2 975 86 10000 6.7 340 12:20 02.01.2020
5015 Clouds -2 971 92 10000 2.6 350 11:41 02.01.2020
5016 Clouds -1 971 92 10000 2.6 350 11:21 02.01.2020
5017 Rain 0 970 80 10000 13.4 300 10:46 02.01.2020
5018 Snow 0 969 86 5000 6.2 280 10:27 02.01.2020
5019 Rain -1 969 92 10000 10.3 290 09:56 02.01.2020
5020 Rain -1 967 86 8000 9.8 260 09:35 02.01.2020
5021 Snow -1 967 86 4000 12.9 280 08:58 02.01.2020
5022 Snow 0 967 86 4000 12.9 280 08:39 02.01.2020
5023 Rain -1 967 63 10000 12.3 250 08:19 02.01.2020
5024 Rain -1 966 63 10000 12.9 230 07:47 02.01.2020
5025 Rain -1 966 63 10000 15.9 240 07:26 02.01.2020
5026 Snow -2 966 92 800 18 240 06:41 02.01.2020
5027 Snow -2 967 92 1500 17.5 240 05:40 02.01.2020
5028 Rain -1 969 74 10000 9.8 260 04:34 02.01.2020
5029 Rain -1 970 73 10000 11.8 260 03:29 02.01.2020
5030 Rain -1 969 50 10000 9.8 260 02:21 02.01.2020
5031 Clouds -1 969 68 10000 12.9 260 01:49 02.01.2020
5032 Rain -1 969 92 10000 8.7 250 01:25 02.01.2020
5033 Rain -1 970 86 10000 9.3 220 00:38 02.01.2020
5034 Snow -1 970 77 5000 8.2 230 00:20 02.01.2020
5035 Rain -1 971 86 10000 8.7 200 23:42 01.01.2020
5036 Snow -1 971 86 3000 9.3 210 23:21 01.01.2020
5037 Snow -1 971 86 3000 9.3 210 23:21 01.01.2020
5038 Rain -1 971 86 10000 6.7 230 22:39 01.01.2020
5039 Rain -1 971 86 10000 6.7 230 22:39 01.01.2020
5040 Clouds 0 972 73 10000 10.8 230 22:20 01.01.2020
5041 Clouds 0 972 73 10000 10.8 230 22:20 01.01.2020
5042 Snow 0 972 73 10000 9.8 230 21:58 01.01.2020
5043 Snow 0 972 73 10000 9.8 230 21:39 01.01.2020
5044 Rain 0 972 73 10000 7.7 210 21:20 01.01.2020
5045 Snow 0 972 73 9000 11.8 240 20:57 01.01.2020
5046 Snow 0 972 73 9000 11.8 240 20:38 01.01.2020
5047 Clouds 0 973 71 10000 5.1 210 20:20 01.01.2020
5048 Rain 1 973 71 10000 6.7 220 19:57 01.01.2020
5049 Rain 1 973 71 10000 6.7 220 19:38 01.01.2020
5050 Clouds 0 974 86 10000 7.7 220 19:20 01.01.2020
5051 Rain 1 974 86 10000 10.3 240 18:57 01.01.2020
5052 Rain 1 974 86 10000 10.3 240 18:37 01.01.2020
5053 Rain 1 975 80 10000 8.7 190 18:19 01.01.2020
5054 Rain 2 974 74 10000 10.3 230 17:57 01.01.2020
5055 Rain 2 974 74 10000 10.3 230 17:39 01.01.2020
5056 Rain 2 976 95 10000 8.2 190 17:19 01.01.2020
5057 Rain 2 975 64 10000 10.3 210 16:57 01.01.2020
5058 Rain 2 975 64 10000 10.3 210 16:37 01.01.2020
5059 Clouds 1 977 86 6000 10.8 210 16:19 01.01.2020
5060 Snow 2 977 100 9000 9.8 210 15:54 01.01.2020
5061 Snow 2 977 100 9000 9.8 210 15:36 01.01.2020
5062 Snow 2 979 74 10000 9.8 190 15:18 01.01.2020
5063 Clouds 2 978 86 10000 10.8 210 14:41 01.01.2020
5064 Rain 2 981 95 10000 7.7 180 14:23 01.01.2020
5065 Snow 2 980 93 9000 11.8 220 13:57 01.01.2020
5066 Snow 2 980 93 9000 11.8 220 13:38 01.01.2020
5067 Snow 2 981 74 10000 8.7 190 13:19 01.01.2020
5068 Rain 3 981 81 10000 10.8 200 12:57 01.01.2020
5069 Rain 3 981 81 10000 10.8 200 12:39 01.01.2020
5070 Snow 2 983 74 10000 8.2 190 12:19 01.01.2020
5071 Snow 2 982 93 9000 10.3 230 11:56 01.01.2020
5072 Snow 2 982 93 9000 10.3 230 11:56 01.01.2020
5073 Snow 2 982 93 9000 10.3 230 11:37 01.01.2020
5074 Rain 2 983 80 10000 9.8 200 11:18 01.01.2020
5075 Snow 2 983 80 10000 11.8 210 10:54 01.01.2020
5076 Snow 2 984 80 10000 10.8 220 10:36 01.01.2020
5077 Snow 2 984 80 10000 10.8 220 10:18 01.01.2020
5078 Rain 3 983 80 10000 11.3 220 09:38 01.01.2020
5079 Clouds 3 985 74 10000 7.2 210 09:19 01.01.2020
5080 Clouds 3 985 74 10000 7.2 210 09:19 01.01.2020
5081 Rain 2 983 64 10000 13.4 220 08:56 01.01.2020
5082 Rain 2 983 64 10000 13.4 220 08:37 01.01.2020
5083 Rain 2 983 64 10000 13.4 220 08:37 01.01.2020
5084 Clouds 2 985 84 10000 6.2 210 08:19 01.01.2020
5085 Rain 3 984 86 10000 8.2 240 07:55 01.01.2020
5086 Rain 3 984 86 10000 8.2 240 07:37 01.01.2020
5087 Rain 3 984 86 10000 8.2 240 07:37 01.01.2020
5088 Rain 3 983 93 10000 9.8 240 06:45 01.01.2020
5089 Rain 3 984 84 10000 8.7 220 06:22 01.01.2020
5090 Rain 3 983 86 10000 10.3 230 05:45 01.01.2020
5091 Rain 4 982 80 10000 11.3 230 03:47 01.01.2020
5092 Clouds 4 983 86 10000 5.7 210 03:24 01.01.2020
5093 Rain 4 983 86 10000 9.3 240 02:59 01.01.2020
5094 Rain 4 983 86 10000 9.3 240 02:40 01.01.2020
5095 Rain 4 984 86 9000 7.7 210 02:21 01.01.2020
5096 Rain 5 984 93 10000 9.3 220 01:39 01.01.2020
5097 Smoke 5 985 86 5000 8.2 200 01:21 01.01.2020
5098 Rain 5 985 93 10000 9.8 200 00:44 01.01.2020
5099 Clouds 5 986 86 10000 9.3 190 00:26 01.01.2020
5100 Rain 5 986 100 10000 8.2 190 23:42 31.12.2019
5101 Clouds 5 987 86 10000 8.7 190 23:22 31.12.2019
5102 Drizzle 5 987 93 10000 8.7 200 22:59 31.12.2019
5103 Drizzle 6 987 93 10000 8.7 200 22:39 31.12.2019
5104 Rain 6 989 81 8000 10.8 200 22:20 31.12.2019
5105 Drizzle 6 989 93 10000 10.3 200 21:59 31.12.2019
5106 Drizzle 6 989 93 10000 10.3 200 21:41 31.12.2019
5107 Clouds 6 990 81 10000 7.2 190 21:23 31.12.2019
5108 Drizzle 5 989 93 10000 8.7 190 20:57 31.12.2019
5109 Drizzle 5 989 93 10000 8.7 190 20:37 31.12.2019
5110 Clouds 5 991 86 10000 7.7 190 20:19 31.12.2019
5111 Clouds 5 990 93 10000 8.2 200 19:55 31.12.2019
5112 Clouds 5 990 93 10000 8.2 200 19:37 31.12.2019
5113 Clouds 5 991 80 10000 5.7 170 19:18 31.12.2019
5114 Clouds 4 991 100 10000 7.2 200 18:54 31.12.2019
5115 Clouds 4 991 100 10000 7.2 200 18:36 31.12.2019
5116 Clouds 4 992 93 10000 4.6 180 18:18 31.12.2019
5117 Clouds 4 992 100 10000 4.6 200 17:55 31.12.2019
5118 Clouds 4 992 100 10000 4.6 200 17:36 31.12.2019
5119 Clouds 4 992 100 10000 4.6 200 17:36 31.12.2019
5120 Clouds 4 992 93 10000 4.6 210 17:18 31.12.2019
5121 Clouds 5 992 100 10000 4.1 220 16:55 31.12.2019
5122 Rain 5 992 100 10000 4.1 220 16:36 31.12.2019
5123 Rain 4 992 93 9000 4.1 230 16:18 31.12.2019
5124 Rain 5 991 100 10000 5.1 240 15:55 31.12.2019
5125 Rain 5 991 100 10000 5.1 240 15:55 31.12.2019
5126 Rain 5 991 100 10000 5.1 240 15:55 31.12.2019
5127 Rain 5 991 100 10000 5.1 240 15:37 31.12.2019
5128 Drizzle 5 991 93 800 3.6 230 15:19 31.12.2019
5129 Drizzle 5 991 93 800 2.6 220 14:55 31.12.2019
5130 Drizzle 5 991 93 800 2.6 220 14:36 31.12.2019
5131 Drizzle 5 991 86 1000 2.1 180 14:18 31.12.2019
5132 Rain 6 991 100 10000 3.1 200 13:54 31.12.2019
5133 Rain 6 991 100 10000 3.1 200 13:36 31.12.2019
5134 Rain 6 992 86 2000 2.6 230 13:18 31.12.2019
5135 Drizzle 6 992 93 2000 3.1 230 12:54 31.12.2019
5136 Rain 6 992 87 10000 3.6 210 12:36 31.12.2019
5137 Rain 6 992 87 10000 3.6 210 12:36 31.12.2019
5138 Rain 6 992 87 10000 3.6 210 12:18 31.12.2019
5139 Rain 6 992 100 5000 5.7 210 11:54 31.12.2019
5140 Rain 6 994 87 10000 8.2 190 11:36 31.12.2019
5141 Rain 6 994 87 10000 8.2 190 11:18 31.12.2019
5142 Rain 6 994 100 10000 6.2 190 10:54 31.12.2019
5143 Rain 6 994 100 10000 6.2 190 10:36 31.12.2019
5144 Rain 6 996 87 10000 3.1 170 10:18 31.12.2019
5145 Rain 6 996 100 5000 5.1 190 09:54 31.12.2019
5146 Rain 5 998 81 10000 7.7 180 09:36 31.12.2019
5147 Rain 5 998 81 10000 7.7 180 09:18 31.12.2019
5148 Rain 5 998 100 8000 9.3 190 08:41 31.12.2019
5149 Rain 5 1000 81 10000 11.3 180 08:21 31.12.2019
5150 Rain 5 999 93 6000 11.8 190 07:44 31.12.2019
5151 Rain 5 1002 81 9000 10.3 180 07:22 31.12.2019
5152 Rain 5 1001 100 8000 10.3 180 06:51 31.12.2019
5153 Rain 5 1004 80 10000 6.2 150 06:23 31.12.2019
5154 Rain 4 1005 93 10000 8.7 170 04:54 31.12.2019
5155 Rain 3 1008 80 10000 4.1 140 04:24 31.12.2019
5156 Rain 3 1010 100 8000 7.2 190 02:57 31.12.2019
5157 Rain 3 1011 86 9000 3.6 180 02:20 31.12.2019
5158 Drizzle 3 1011 86 8000 9.3 210 01:49 31.12.2019
5159 Rain 3 1012 91 10000 3.6 150 01:31 31.12.2019
5160 Drizzle 3 1011 93 10000 6.2 180 00:48 31.12.2019
5161 Rain 3 1013 91 10000 4.6 160 00:24 31.12.2019
5162 Clouds 3 1012 86 10000 6.2 200 23:58 30.12.2019
5163 Clouds 3 1012 86 10000 6.2 200 23:39 30.12.2019
5164 Clouds 3 1013 82 10000 4.1 170 23:21 30.12.2019
5165 Clouds 3 1013 80 10000 7.2 210 22:59 30.12.2019
5166 Clouds 2 1013 80 10000 7.2 210 22:41 30.12.2019
5167 Clouds 3 1013 82 10000 4.1 170 22:21 30.12.2019
5168 Clouds 2 1012 82 10000 6.7 230 21:57 30.12.2019
5169 Clouds 2 1012 82 10000 6.7 230 21:57 30.12.2019
5170 Clouds 2 1012 82 10000 6.7 230 21:39 30.12.2019
5171 Clouds 2 1013 82 10000 6.2 190 21:20 30.12.2019
5172 Clouds 2 1012 80 10000 5.07 213 20:58 30.12.2019
5173 Clouds 2 1012 80 10000 5.07 213 20:40 30.12.2019
5174 Rain 2 1013 86 10000 7.2 230 20:20 30.12.2019
5175 Drizzle 2 1013 80 5000 2.1 120 19:58 30.12.2019
5176 Drizzle 2 1013 80 5000 2.1 120 19:39 30.12.2019
5177 Drizzle 2 1013 80 5000 2.1 120 19:39 30.12.2019
5178 Rain 2 1013 80 9000 4.1 90 19:19 30.12.2019
5179 Drizzle 2 1012 93 3000 7.2 240 18:59 30.12.2019
5180 Drizzle 2 1012 93 3000 7.2 240 18:40 30.12.2019
5181 Rain 1 1012 80 10000 3.1 100 18:20 30.12.2019
5182 Rain 1 1012 80 10000 3.1 100 18:20 30.12.2019
5183 Drizzle 1 1011 100 3000 3.6 160 17:57 30.12.2019
5184 Drizzle 1 1011 100 3000 3.6 160 17:39 30.12.2019
5185 Rain 1 1012 74 10000 4.1 140 17:19 30.12.2019
5186 Clouds 1 1012 93 10000 3.6 180 16:58 30.12.2019
5187 Clouds 1 1012 93 10000 3.6 180 16:37 30.12.2019
5188 Clouds 1 1012 74 10000 3.1 100 16:19 30.12.2019
5189 Clouds 1 1011 80 10000 3.1 170 15:56 30.12.2019
5190 Clouds 1 1011 80 10000 3.1 170 15:37 30.12.2019
5191 Clouds 1 1013 69 10000 3.1 140 15:18 30.12.2019
5192 Clouds 1 1012 80 10000 3.1 190 14:43 30.12.2019
5193 Clouds 1 1012 69 10000 2.6 160 14:20 30.12.2019
5194 Clouds 1 1011 74 10000 5.1 210 13:58 30.12.2019
5195 Clouds 1 1011 74 10000 5.1 210 13:40 30.12.2019
5196 Clouds 1 1011 74 10000 5.1 210 13:40 30.12.2019
5197 Clouds 0 1011 69 10000 2.1 220 13:21 30.12.2019
5198 Clouds 0 1011 80 10000 2.6 240 12:56 30.12.2019
5199 Clouds 0 1011 80 10000 2.6 240 12:37 30.12.2019
5200 Clouds 0 1011 69 10000 3.1 230 12:18 30.12.2019
5201 Clouds 1 1010 74 10000 2.6 260 11:45 30.12.2019
5202 Rain 0 1010 69 10000 3.6 260 11:20 30.12.2019
5203 Clouds 0 1010 74 10000 3.6 270 10:58 30.12.2019
5204 Clouds 1 1010 74 10000 3.6 270 10:40 30.12.2019
5205 Clouds 0 1010 74 10000 3.6 270 10:40 30.12.2019
5206 Snow 1 1009 86 10000 0.5 0 10:19 30.12.2019
5207 Clouds 1 1008 74 10000 2.1 280 09:42 30.12.2019
5208 Snow 0 1008 85 10000 1.5 150 09:20 30.12.2019
5209 Clouds 0 1007 86 10000 2.6 280 08:56 30.12.2019
5210 Clouds 0 1007 86 10000 2.6 280 08:38 30.12.2019
5211 Clouds 0 1007 80 10000 1 350 08:18 30.12.2019
5212 Clouds 0 1006 80 10000 3.1 300 07:42 30.12.2019
5213 Clouds 0 1005 84 10000 3.1 300 06:59 30.12.2019
5214 Clear 0 1004 84 10000 0.5 0 06:24 30.12.2019
5215 Clear 1 1002 74 10000 3.6 330 04:23 30.12.2019
5216 Clear 1 1002 80 10000 5.1 340 03:42 30.12.2019
5217 Clear 1 1001 86 10000 4.1 340 02:41 30.12.2019
5218 Clear 1 999 74 10000 4.6 330 02:20 30.12.2019
5219 Clear 1 998 74 10000 4.1 340 01:26 30.12.2019
5220 Clouds 2 998 86 10000 4.1 350 00:47 30.12.2019
5221 Clear 2 997 80 10000 3.6 330 00:28 30.12.2019
5222 Clouds 2 997 85 10000 5.1 340 23:40 29.12.2019
5223 Clouds 2 995 74 10000 5.1 330 23:22 29.12.2019
5224 Clouds 2 996 84 10000 6.2 340 22:57 29.12.2019
5225 Clouds 2 996 84 10000 6.2 340 22:38 29.12.2019
5226 Clouds 2 994 80 10000 6.2 330 22:20 29.12.2019
5227 Clouds 2 994 84 10000 6.7 340 21:55 29.12.2019
5228 Clouds 2 992 80 10000 7.2 320 21:36 29.12.2019
5229 Clouds 2 992 80 10000 7.2 320 21:18 29.12.2019
5230 Clouds 2 992 80 10000 8.2 330 20:55 29.12.2019
5231 Clouds 2 992 80 10000 8.2 330 20:55 29.12.2019
5232 Clouds 2 992 80 10000 8.2 330 20:37 29.12.2019
5233 Clouds 2 989 80 10000 6.2 340 20:18 29.12.2019
5234 Clouds 3 990 81 10000 6.7 330 19:55 29.12.2019
5235 Clouds 3 990 81 10000 6.7 330 19:37 29.12.2019
5236 Clouds 3 990 81 10000 6.7 330 19:37 29.12.2019
5237 Clouds 2 987 69 10000 3.1 330 19:18 29.12.2019
5238 Clouds 3 988 81 10000 11.3 340 18:54 29.12.2019
5239 Clouds 2 988 81 10000 11.3 340 18:36 29.12.2019
5240 Clouds 2 985 69 10000 7.2 360 18:18 29.12.2019
5241 Clouds 2 986 81 10000 9.8 350 17:54 29.12.2019
5242 Clouds 2 986 81 10000 9.8 350 17:36 29.12.2019
5243 Clouds 2 983 69 10000 8.2 360 17:18 29.12.2019
5244 Clouds 2 984 84 10000 9.3 350 16:54 29.12.2019
5245 Clouds 2 984 84 10000 9.3 350 16:36 29.12.2019
5246 Clouds 2 981 69 10000 8.2 340 16:18 29.12.2019
5247 Clouds 3 982 84 10000 10.8 350 15:54 29.12.2019
5248 Clouds 3 982 84 10000 10.8 350 15:36 29.12.2019
5249 Clouds 2 980 74 10000 4.6 350 15:18 29.12.2019
5250 Clouds 3 981 84 10000 10.3 10 14:46 29.12.2019
5251 Clouds 3 979 88 10000 2.6 350 14:19 29.12.2019
5252 Clouds 2 980 88 10000 8.7 20 13:59 29.12.2019
5253 Clouds 2 980 88 10000 8.7 20 13:40 29.12.2019
5254 Clouds 2 979 89 10000 4.6 10 13:22 29.12.2019
5255 Clouds 2 979 89 10000 4.6 10 13:22 29.12.2019
5256 Clouds 2 979 93 10000 8.2 20 12:58 29.12.2019
5257 Clouds 2 979 93 10000 8.2 20 12:39 29.12.2019
5258 Clouds 2 979 89 10000 6.2 40 12:21 29.12.2019
5259 Clouds 2 979 93 10000 10.3 40 11:43 29.12.2019
5260 Drizzle 2 979 90 10000 6.2 50 11:22 29.12.2019
5261 Drizzle 2 979 93 10000 11.8 40 10:59 29.12.2019
5262 Drizzle 2 979 93 10000 11.8 40 10:40 29.12.2019
5263 Clouds 2 980 90 10000 4.1 40 10:18 29.12.2019
5264 Rain 2 980 93 10000 9.3 30 09:47 29.12.2019
5265 Rain 2 980 90 10000 6.2 30 09:28 29.12.2019
5266 Snow 3 981 93 10000 9.3 30 08:59 29.12.2019
5267 Snow 3 981 93 10000 9.3 30 08:40 29.12.2019
5268 Drizzle 2 981 80 10000 3.6 20 08:21 29.12.2019
5269 Rain 3 981 93 10000 8.7 20 07:45 29.12.2019
5270 Rain 3 981 80 10000 4.1 360 07:26 29.12.2019
5271 Rain 4 982 93 10000 7.2 30 06:42 29.12.2019
5272 Clouds 4 982 96 10000 6.7 50 06:19 29.12.2019
5273 Rain 3 983 93 10000 6.7 40 05:44 29.12.2019
5274 Clouds 4 985 81 10000 3.6 80 04:33 29.12.2019
5275 Rain 4 986 93 10000 5.7 50 03:36 29.12.2019
5276 Clouds 3 988 81 10000 7.2 70 02:30 29.12.2019
5277 Clouds 3 988 81 10000 7.2 70 02:30 29.12.2019
5278 Clouds 3 989 93 10000 5.7 50 01:52 29.12.2019
5279 Clouds 3 991 80 10000 5.1 60 01:29 29.12.2019
5280 Clouds 3 991 93 10000 5.1 70 00:47 29.12.2019
5281 Clouds 3 992 86 10000 5.1 70 00:25 29.12.2019
5282 Clouds 3 992 100 10000 4.6 70 23:56 28.12.2019
5283 Clouds 3 992 100 10000 4.6 70 23:37 28.12.2019
5284 Clouds 3 994 86 10000 4.6 70 23:18 28.12.2019
5285 Clouds 3 994 86 10000 4.6 70 23:18 28.12.2019
5286 Clouds 3 994 86 10000 4.6 70 23:18 28.12.2019
5287 Clouds 3 994 86 10000 4.6 70 23:18 28.12.2019
5288 Clouds 3 994 86 10000 4.6 70 23:18 28.12.2019
5289 Clouds 3 994 93 10000 4.1 60 22:38 28.12.2019
5290 Clouds 3 994 80 10000 5.1 90 22:19 28.12.2019
5291 Fog 2 994 100 7000 3.1 60 21:57 28.12.2019
5292 Fog 2 994 100 7000 3.1 60 21:38 28.12.2019
5293 Clouds 2 995 86 10000 4.6 80 21:19 28.12.2019
5294 Fog 2 995 100 2500 4.1 60 20:55 28.12.2019
5295 Fog 2 995 100 2500 4.1 60 20:36 28.12.2019
5296 Clouds 2 996 86 10000 3.1 90 20:18 28.12.2019
5297 Fog 2 996 100 1500 3.1 60 19:54 28.12.2019
5298 Fog 2 996 100 1500 3.1 60 19:36 28.12.2019
5299 Clouds 2 996 86 10000 3.6 100 19:18 28.12.2019
5300 Mist 2 996 100 3000 3.6 70 18:42 28.12.2019
5301 Clouds 2 996 93 10000 3.1 100 18:20 28.12.2019
5302 Drizzle 2 995 100 7000 4.1 60 17:59 28.12.2019
5303 Drizzle 2 995 100 7000 4.1 60 17:41 28.12.2019
5304 Clouds 2 996 97 10000 2.1 80 17:21 28.12.2019
5305 Clouds 2 995 100 10000 3.6 50 16:54 28.12.2019
5306 Rain 2 995 97 10000 2.6 40 16:36 28.12.2019
5307 Rain 2 995 97 10000 2.6 40 16:18 28.12.2019
5308 Clouds 2 995 93 10000 1 50 15:41 28.12.2019
5309 Drizzle 2 994 97 10000 2.6 40 15:21 28.12.2019
5310 Clouds 3 994 93 10000 2.6 100 14:48 28.12.2019
5311 Drizzle 3 994 86 10000 2.1 90 14:26 28.12.2019
5312 Rain 3 993 93 10000 3.6 110 13:58 28.12.2019
5313 Rain 3 993 93 10000 3.6 110 13:39 28.12.2019
5314 Rain 3 993 86 5000 1 110 13:20 28.12.2019
5315 Rain 3 993 100 10000 2.1 90 12:57 28.12.2019
5316 Rain 4 993 100 10000 2.1 90 12:39 28.12.2019
5317 Rain 3 992 80 6000 3.1 90 12:20 28.12.2019
5318 Rain 3 992 100 7000 4.6 70 11:40 28.12.2019
5319 Clouds 3 992 80 10000 6.2 70 11:21 28.12.2019
5320 Clouds 3 992 93 10000 5.1 60 10:56 28.12.2019
5321 Clouds 3 992 93 10000 5.1 60 10:37 28.12.2019
5322 Rain 3 992 80 10000 6.2 80 10:18 28.12.2019
5323 Clouds 3 992 93 10000 3.1 80 09:45 28.12.2019
5324 Rain 4 993 86 10000 5.1 80 09:24 28.12.2019
5325 Rain 4 992 93 10000 4.1 120 08:58 28.12.2019
5326 Rain 4 992 93 10000 4.1 120 08:40 28.12.2019
5327 Clouds 4 993 80 10000 5.7 110 08:22 28.12.2019
5328 Rain 4 992 100 10000 4.6 140 07:43 28.12.2019
5329 Clouds 5 993 80 10000 3.1 60 07:21 28.12.2019
5330 Clouds 4 993 93 10000 4.1 150 05:45 28.12.2019
5331 Clouds 4 993 100 10000 5.1 170 03:48 28.12.2019
5332 Drizzle 4 993 93 10000 5.7 180 02:50 28.12.2019
5333 Clouds 4 993 93 10000 3.6 130 02:20 28.12.2019
5334 Clouds 4 992 100 10000 4.6 170 01:54 28.12.2019
5335 Clouds 4 992 86 10000 2.1 140 01:22 28.12.2019
5336 Clouds 4 991 100 10000 4.1 180 00:44 28.12.2019
5337 Clouds 4 991 86 10000 4.1 190 00:26 28.12.2019
5338 Clouds 4 990 100 10000 3.6 200 23:57 27.12.2019
5339 Clouds 4 990 100 10000 3.6 200 23:37 27.12.2019
5340 Clouds 4 990 93 10000 4.6 190 23:18 27.12.2019
5341 Clouds 4 989 100 10000 4.6 210 22:55 27.12.2019
5342 Clouds 4 989 100 10000 4.6 210 22:37 27.12.2019
5343 Mist 4 989 93 9000 3.6 190 22:19 27.12.2019
5344 Mist 4 988 100 6000 4.6 190 21:41 27.12.2019
5345 Mist 4 988 86 9000 5.1 200 21:23 27.12.2019
5346 Mist 4 987 100 5000 4.6 200 20:44 27.12.2019
5347 Rain 4 987 86 7000 5.1 200 20:26 27.12.2019
5348 Mist 4 987 100 4500 5.7 210 19:59 27.12.2019
5349 Mist 4 987 100 4500 5.7 210 19:40 27.12.2019
5350 Rain 4 986 86 10000 5.7 210 19:19 27.12.2019
5351 Mist 4 985 100 4500 5.7 230 18:56 27.12.2019
5352 Mist 4 985 100 4500 5.7 230 18:37 27.12.2019
5353 Mist 4 985 93 3000 5.1 220 18:18 27.12.2019
5354 Rain 4 984 100 5000 5.1 240 17:55 27.12.2019
5355 Rain 4 984 100 5000 5.1 240 17:37 27.12.2019
5356 Rain 4 984 93 10000 3.1 210 17:18 27.12.2019
5357 Fog 4 984 100 550 4.6 230 16:41 27.12.2019
5358 Rain 4 983 86 10000 3.6 250 16:23 27.12.2019
5359 Rain 4 983 100 10000 3.6 230 15:58 27.12.2019
5360 Rain 4 983 100 10000 3.6 230 15:37 27.12.2019
5361 Rain 4 983 100 10000 3.6 230 15:37 27.12.2019
5362 Rain 4 983 86 9000 4.1 250 15:19 27.12.2019
5363 Rain 3 983 93 1500 2.6 230 14:56 27.12.2019
5364 Rain 3 983 93 1500 2.6 230 14:38 27.12.2019
5365 Rain 4 983 86 10000 1 0 14:19 27.12.2019
5366 Rain 4 984 100 3500 2.1 230 13:47 27.12.2019
5367 Rain 4 984 86 10000 2.1 220 13:24 27.12.2019
5368 Rain 4 984 100 2500 1 280 12:49 27.12.2019
5369 Rain 4 985 80 10000 2.6 100 12:29 27.12.2019
5370 Rain 4 985 100 4000 2.1 170 11:59 27.12.2019
5371 Rain 4 985 100 4000 2.1 170 11:41 27.12.2019
5372 Rain 5 985 86 10000 5.1 90 11:20 27.12.2019
5373 Drizzle 5 985 100 1000 2.1 140 10:47 27.12.2019
5374 Rain 5 986 81 10000 6.7 70 10:24 27.12.2019
5375 Mist 5 986 100 5000 2.6 130 09:59 27.12.2019
5376 Mist 5 986 100 5000 2.6 130 09:39 27.12.2019
5377 Rain 6 987 81 10000 7.7 100 09:21 27.12.2019
5378 Mist 6 987 100 2500 2.6 130 08:49 27.12.2019
5379 Clouds 6 987 75 10000 7.7 110 08:30 27.12.2019
5380 Drizzle 6 987 100 9000 4.1 140 07:48 27.12.2019
5381 Clouds 6 988 81 10000 9.8 120 07:26 27.12.2019
5382 Clouds 6 989 81 10000 5.7 110 06:33 27.12.2019
5383 Drizzle 5 989 100 7000 9.8 130 04:51 27.12.2019
5384 Rain 5 991 93 9000 9.3 130 02:49 27.12.2019
5385 Drizzle 4 991 93 9000 11.8 110 01:56 27.12.2019
5386 Rain 4 993 80 9000 11.3 90 01:23 27.12.2019
5387 Rain 4 992 93 10000 11.8 110 00:53 27.12.2019
5388 Rain 4 994 94 10000 9.3 80 00:34 27.12.2019
5389 Rain 3 994 93 10000 10.3 80 23:59 26.12.2019
5390 Rain 3 994 93 10000 10.3 80 23:41 26.12.2019
5391 Rain 3 996 91 10000 9.3 80 23:21 26.12.2019
5392 Rain 4 996 86 10000 10.3 80 22:45 26.12.2019
5393 Rain 3 998 91 10000 9.8 90 22:22 26.12.2019
5394 Rain 3 998 93 10000 9.3 80 21:58 26.12.2019
5395 Rain 3 998 93 10000 9.3 80 21:38 26.12.2019
5396 Rain 3 999 91 10000 10.3 90 21:20 26.12.2019
5397 Rain 3 999 86 10000 9.8 80 20:46 26.12.2019
5398 Rain 3 1000 94 10000 9.3 90 20:23 26.12.2019
5399 Rain 3 1000 86 10000 8.2 70 19:59 26.12.2019
5400 Rain 3 1000 86 10000 8.2 70 19:39 26.12.2019
5401 Rain 3 1002 94 10000 8.7 90 19:21 26.12.2019
5402 Rain 3 1002 100 10000 8.7 70 18:57 26.12.2019
5403 Rain 3 1002 100 10000 8.7 70 18:38 26.12.2019
5404 Rain 3 1003 94 10000 9.8 80 18:19 26.12.2019
5405 Rain 2 1004 93 10000 9.8 70 17:43 26.12.2019
5406 Rain 2 1004 74 10000 9.3 70 17:22 26.12.2019
5407 Rain 3 1005 86 10000 9.3 60 16:59 26.12.2019
5408 Rain 3 1005 86 10000 9.3 60 16:41 26.12.2019
5409 Rain 3 1006 64 10000 8.7 80 16:21 26.12.2019
5410 Rain 3 1007 77 10000 8.7 60 15:55 26.12.2019
5411 Rain 3 1007 77 10000 8.7 60 15:37 26.12.2019
5412 Clouds 3 1008 55 10000 5.7 70 15:18 26.12.2019
5413 Rain 3 1008 80 10000 7.7 70 14:39 26.12.2019
5414 Clouds 3 1009 51 10000 6.2 70 14:21 26.12.2019
5415 Clouds 4 1009 69 10000 7.2 60 13:43 26.12.2019
5416 Clouds 3 1010 55 10000 5.7 70 13:21 26.12.2019
5417 Clouds 3 1010 74 10000 4.6 50 12:58 26.12.2019
5418 Clouds 2 1010 74 10000 4.6 50 12:39 26.12.2019
5419 Clouds 2 1011 47 10000 3.1 50 12:20 26.12.2019
5420 Clouds 2 1011 74 10000 4.6 60 11:57 26.12.2019
5421 Clouds 2 1011 74 10000 4.6 60 11:38 26.12.2019
5422 Clouds 1 1012 51 10000 2.1 0 11:20 26.12.2019
5423 Clouds 1 1011 64 10000 4.6 50 10:47 26.12.2019
5424 Clouds 1 1013 55 10000 1.5 60 10:19 26.12.2019
5425 Clouds 2 1012 69 10000 4.1 60 09:50 26.12.2019
5426 Clouds 1 1013 47 10000 4.1 90 09:31 26.12.2019
5427 Clouds 1 1013 74 10000 2.1 70 08:55 26.12.2019
5428 Clouds 1 1013 74 10000 2.1 70 08:36 26.12.2019
5429 Clouds 1 1013 47 10000 4.6 70 08:18 26.12.2019
5430 Clouds 0 1014 47 10000 4.1 80 07:30 26.12.2019
5431 Clouds -2 1014 86 10000 2.6 60 06:54 26.12.2019
5432 Clouds -1 1015 79 10000 2.6 120 06:32 26.12.2019
5433 Clouds -2 1015 86 10000 3.1 100 05:46 26.12.2019
5434 Clouds -2 1015 86 10000 1.5 100 04:59 26.12.2019
5435 Clouds -2 1016 79 10000 1.66 134 04:30 26.12.2019
5436 Clouds -2 1017 79 10000 1 0 03:18 26.12.2019
5437 Clouds -2 1017 86 10000 3.1 50 02:38 26.12.2019
5438 Clouds -3 1017 79 10000 3.6 110 02:19 26.12.2019
5439 Clouds -3 1017 80 10000 3.6 60 01:41 26.12.2019
5440 Clouds -3 1018 79 10000 2.6 70 01:22 26.12.2019
5441 Clouds -2 1018 81 10000 4.1 70 00:41 26.12.2019
5442 Clouds -2 1019 74 10000 4.1 80 00:22 26.12.2019
5443 Clouds -1 1018 81 10000 3.6 80 23:42 25.12.2019
5444 Clouds 0 1019 82 10000 5.1 70 23:21 25.12.2019
5445 Clouds 0 1019 82 10000 2.6 60 22:59 25.12.2019
5446 Clouds 0 1019 82 10000 2.6 60 22:40 25.12.2019
5447 Clouds 0 1020 82 10000 4.1 70 22:22 25.12.2019
5448 Clouds 0 1019 69 10000 1 130 21:59 25.12.2019
5449 Clouds 0 1019 69 10000 1 130 21:40 25.12.2019
5450 Clouds 1 1020 82 10000 3.1 90 21:21 25.12.2019
5451 Clouds 1 1020 82 10000 3.1 90 21:21 25.12.2019
5452 Clouds 0 1020 82 10000 2.1 150 20:57 25.12.2019
5453 Clouds 0 1020 82 10000 2.1 150 20:39 25.12.2019
5454 Clouds -1 1020 78 10000 3.1 100 20:18 25.12.2019
5455 Clouds -1 1020 78 10000 3.1 100 20:18 25.12.2019
5456 Clouds -1 1020 78 10000 3.1 100 20:18 25.12.2019
5457 Clouds -1 1019 69 10000 1 150 19:43 25.12.2019
5458 Clouds -1 1019 69 10000 1 150 19:43 25.12.2019
5459 Clouds -1 1020 80 10000 3.6 110 19:25 25.12.2019
5460 Clouds -1 1019 74 10000 1.5 160 18:59 25.12.2019
5461 Clouds -1 1019 74 10000 1.5 160 18:38 25.12.2019
5462 Clouds -1 1019 74 10000 1.5 160 18:38 25.12.2019
5463 Clouds -1 1020 80 10000 1.5 120 18:19 25.12.2019
5464 Clouds -1 1019 74 10000 1.5 170 17:42 25.12.2019
5465 Clouds -1 1019 78 10000 3.1 140 17:20 25.12.2019
5466 Clouds -1 1019 74 10000 1.5 210 16:59 25.12.2019
5467 Clouds -1 1019 74 10000 1.5 210 16:39 25.12.2019
5468 Clouds -1 1019 78 10000 2.6 150 16:19 25.12.2019
5469 Clouds -1 1019 80 10000 2.1 200 15:57 25.12.2019
5470 Clouds -1 1019 80 10000 2.1 200 15:39 25.12.2019
5471 Clouds -1 1019 78 10000 2.1 160 15:20 25.12.2019
5472 Clouds -1 1019 80 10000 2.1 220 14:58 25.12.2019
5473 Clouds -1 1019 80 10000 2.1 220 14:39 25.12.2019
5474 Clouds -1 1019 80 10000 2.1 220 14:39 25.12.2019
5475 Clouds -1 1019 80 10000 2.1 220 14:39 25.12.2019
5476 Clouds -1 1019 80 10000 2.1 220 14:39 25.12.2019
5477 Clouds -1 1019 77 10000 2.6 170 14:20 25.12.2019
5478 Clouds 0 1019 80 10000 4.1 230 13:46 25.12.2019
5479 Clouds 0 1019 69 10000 3.6 180 13:22 25.12.2019
5480 Clouds 0 1018 80 10000 4.6 240 12:58 25.12.2019
5481 Clouds -1 1018 80 10000 4.6 240 12:39 25.12.2019
5482 Clouds -1 1018 79 10000 3.1 180 12:20 25.12.2019
5483 Snow 0 1018 86 10000 4.1 280 11:54 25.12.2019
5484 Clouds 0 1018 74 10000 3.6 190 11:36 25.12.2019
5485 Clouds 0 1018 74 10000 3.6 190 11:18 25.12.2019
5486 Clouds 0 1017 80 10000 5.7 250 10:37 25.12.2019
5487 Clouds 1 1017 74 10000 5.1 210 10:19 25.12.2019
5488 Clouds 1 1016 69 10000 6.2 240 09:49 25.12.2019
5489 Clouds 1 1016 74 10000 4.6 200 09:30 25.12.2019
5490 Clouds 1 1016 69 10000 6.7 240 08:47 25.12.2019
5491 Clouds 1 1016 74 10000 5.1 220 08:29 25.12.2019
5492 Clouds 1 1015 69 10000 6.7 260 07:50 25.12.2019
5493 Clouds 1 1015 74 10000 4.6 210 07:31 25.12.2019
5494 Clouds 1 1015 64 10000 7.7 260 06:50 25.12.2019
5495 Clouds 1 1015 64 10000 6.7 240 06:22 25.12.2019
5496 Clouds 1 1014 64 10000 6.2 240 05:18 25.12.2019
5497 Clouds 1 1014 64 10000 6.2 260 04:39 25.12.2019
5498 Clouds 1 1014 80 10000 6.7 230 04:20 25.12.2019
5499 Clouds 1 1013 64 10000 6.2 270 03:41 25.12.2019
5500 Clouds 1 1013 69 10000 6.7 270 02:51 25.12.2019
5501 Clouds 1 1013 69 10000 5.1 250 02:20 25.12.2019
5502 Clouds 1 1012 74 10000 3.6 250 01:25 25.12.2019
5503 Clouds 1 1012 80 10000 5.1 270 00:52 25.12.2019
5504 Clouds 1 1012 74 10000 4.6 280 00:29 25.12.2019
5505 Clouds 1 1011 86 10000 6.2 260 23:56 24.12.2019
5506 Clouds 1 1011 86 10000 6.2 260 23:38 24.12.2019
5507 Clouds 2 1011 74 10000 4.6 260 23:20 24.12.2019
5508 Clouds 2 1011 74 10000 4.1 280 22:40 24.12.2019
5509 Clouds 2 1010 74 10000 3.1 280 22:21 24.12.2019
5510 Clouds 2 1010 74 10000 6.2 280 21:43 24.12.2019
5511 Clouds 2 1010 74 10000 5.7 290 21:23 24.12.2019
5512 Clouds 2 1010 74 10000 5.7 290 21:23 24.12.2019
5513 Rain 2 1010 74 10000 6.2 300 20:55 24.12.2019
5514 Rain 1 1010 74 10000 6.2 300 20:36 24.12.2019
5515 Clouds 1 1009 80 10000 7.2 280 20:18 24.12.2019
5516 Rain 1 1009 80 10000 7.2 310 19:43 24.12.2019
5517 Snow 1 1008 98 3800 1.5 200 19:20 24.12.2019
5518 Rain 0 1008 98 10000 6.2 310 18:43 24.12.2019
5519 Fog 1 1007 92 10000 2.1 190 18:24 24.12.2019
5520 Drizzle 0 1007 93 10000 6.7 300 17:58 24.12.2019
5521 Rain 0 1006 92 10000 1.5 170 17:38 24.12.2019
5522 Rain 0 1006 92 10000 1.5 170 17:20 24.12.2019
5523 Rain 0 1006 93 10000 4.6 300 16:55 24.12.2019
5524 Fog 1 1005 92 10000 1.5 130 16:37 24.12.2019
5525 Fog 1 1005 92 10000 1.5 130 16:19 24.12.2019
5526 Fog 1 1005 92 10000 1.5 130 16:19 24.12.2019
5527 Rain 1 1005 93 10000 2.6 320 15:55 24.12.2019
5528 Rain 1 1005 93 10000 2.6 320 15:36 24.12.2019
5529 Fog 1 1005 92 10000 1.5 150 15:18 24.12.2019
5530 Drizzle 0 1005 98 4000 2.1 300 14:55 24.12.2019
5531 Drizzle 0 1005 98 4000 2.1 300 14:36 24.12.2019
5532 Fog 1 1004 92 10000 2.64 336 14:18 24.12.2019
5533 Clouds 0 1004 99 10000 1.5 310 13:55 24.12.2019
5534 Clouds 0 1004 99 10000 1.5 310 13:37 24.12.2019
5535 Fog 0 1004 92 10000 1.5 160 13:18 24.12.2019
5536 Clouds 1 1003 86 10000 2.1 320 12:55 24.12.2019
5537 Clouds 1 1003 86 10000 2.1 320 12:36 24.12.2019
5538 Clouds 1 1003 99 10000 2.96 339 12:18 24.12.2019
5539 Clouds 0 1003 99 10000 1 330 11:54 24.12.2019
5540 Clouds 0 1003 99 10000 1 330 11:36 24.12.2019
5541 Clouds 0 1003 99 10000 1 330 11:36 24.12.2019
5542 Rain 0 1003 92 10000 1.5 190 11:18 24.12.2019
5543 Clouds 0 1002 98 10000 1 20 10:55 24.12.2019
5544 Clouds 0 1002 98 10000 1 20 10:36 24.12.2019
5545 Snow 0 1002 92 10000 1 140 10:18 24.12.2019
5546 Clouds 0 1002 98 10000 1.5 100 09:54 24.12.2019
5547 Clouds 0 1002 98 10000 1.5 100 09:36 24.12.2019
5548 Snow 0 1001 98 10000 0.5 0 09:18 24.12.2019
5549 Clouds 0 1001 86 10000 1 40 08:42 24.12.2019
5550 Snow 0 1001 97 10000 1 100 08:20 24.12.2019
5551 Rain 0 1001 97 10000 0.5 10 07:45 24.12.2019
5552 Snow 0 1000 80 10000 1 80 07:24 24.12.2019
5553 Clouds 0 1000 86 10000 2.1 70 06:57 24.12.2019
5554 Clouds 0 1000 86 10000 2.1 70 06:38 24.12.2019
5555 Snow 0 1000 97 10000 1 120 06:18 24.12.2019
5556 Clouds 0 1000 86 10000 1.5 140 05:20 24.12.2019
5557 Clouds 0 1000 86 10000 2.6 20 04:44 24.12.2019
5558 Clouds -1 999 86 10000 2.1 350 03:50 24.12.2019
5559 Clouds 0 1000 86 10000 1.5 320 02:59 24.12.2019
5560 Clouds 0 999 78 10000 1 0 02:21 24.12.2019
5561 Rain 0 999 86 10000 0.5 30 01:50 24.12.2019
5562 Clouds 0 999 78 10000 1.5 100 01:20 24.12.2019
5563 Rain 0 999 74 10000 1 30 00:43 24.12.2019
5564 Clouds -1 1000 88 10000 1.59 60 00:23 24.12.2019
5565 Rain -1 999 88 10000 1 30 23:56 23.12.2019
5566 Rain -1 999 88 10000 1 30 23:56 23.12.2019
5567 Rain -1 999 88 10000 1 30 23:37 23.12.2019
5568 Clouds -1 999 80 10000 1 0 23:19 23.12.2019
5569 Rain -1 999 80 10000 1 100 22:56 23.12.2019
5570 Rain -1 999 80 10000 1 100 22:36 23.12.2019
5571 Clouds -1 999 80 10000 1 220 22:18 23.12.2019
5572 Clouds 0 999 80 10000 1.5 70 21:55 23.12.2019
5573 Clouds 0 999 80 10000 1.5 70 21:36 23.12.2019
5574 Clouds 0 999 64 10000 1 0 21:36 23.12.2019
5575 Clouds 0 999 64 10000 1 0 21:18 23.12.2019
5576 Clouds 0 999 86 10000 2.6 30 20:56 23.12.2019
5577 Clouds 0 999 86 10000 2.6 30 20:56 23.12.2019
5578 Clouds 0 999 86 10000 2.6 30 20:38 23.12.2019
5579 Clouds 0 999 69 10000 1.5 20 20:18 23.12.2019
5580 Clouds -1 998 70 10000 2.6 20 19:55 23.12.2019
5581 Clouds -1 998 70 10000 2.6 20 19:55 23.12.2019
5582 Clouds -1 998 70 10000 2.6 20 19:37 23.12.2019
5583 Clouds -1 998 70 10000 0.5 360 19:19 23.12.2019
5584 Clouds 0 998 80 10000 3.1 10 18:55 23.12.2019
5585 Clouds -1 998 80 10000 3.1 10 18:37 23.12.2019
5586 Clouds -1 998 70 10000 1.5 100 18:19 23.12.2019
5587 Clouds 0 998 80 10000 2.1 20 17:55 23.12.2019
5588 Clouds 0 998 80 10000 2.1 20 17:37 23.12.2019
5589 Clouds 0 998 64 10000 1 350 17:18 23.12.2019
5590 Clouds 0 998 86 10000 3.1 30 16:42 23.12.2019
5591 Clouds 0 998 68 10000 1.49 52 16:19 23.12.2019
5592 Clouds 0 998 86 10000 2.1 30 15:59 23.12.2019
5593 Clouds 0 998 86 10000 2.1 30 15:38 23.12.2019
5594 Clouds 0 998 68 10000 1.49 52 15:20 23.12.2019
5595 Clouds 0 998 86 10000 2.6 40 14:59 23.12.2019
5596 Clouds 0 998 86 10000 2.6 40 14:41 23.12.2019
5597 Clouds 1 998 69 10000 1.5 100 14:22 23.12.2019
5598 Clouds 0 998 86 10000 2.6 30 13:58 23.12.2019
5599 Clouds 0 998 86 10000 2.6 30 13:40 23.12.2019
5600 Clouds 1 998 69 10000 0.5 170 13:22 23.12.2019
5601 Clouds 0 998 80 10000 3.1 360 12:56 23.12.2019
5602 Clouds 0 998 80 10000 3.1 360 12:37 23.12.2019
5603 Clouds 1 998 69 10000 1 0 12:19 23.12.2019
5604 Clouds 0 998 80 10000 2.6 20 11:44 23.12.2019
5605 Clouds 0 998 80 10000 1.5 10 11:26 23.12.2019
5606 Clouds -1 998 72 10000 2.6 30 10:59 23.12.2019
5607 Clouds 0 998 72 10000 2.6 30 10:40 23.12.2019
5608 Clouds 0 998 80 10000 2.12 62 10:21 23.12.2019
5609 Clouds 0 997 80 10000 1.5 60 09:59 23.12.2019
5610 Clouds 0 997 80 10000 1.5 60 09:40 23.12.2019
5611 Clouds -1 997 74 10000 1 270 09:21 23.12.2019
5612 Clouds 0 997 80 10000 4.1 30 08:56 23.12.2019
5613 Clouds 0 997 80 10000 4.1 30 08:38 23.12.2019
5614 Clouds 0 997 74 10000 0.5 0 08:20 23.12.2019
5615 Clouds 0 997 80 10000 3.6 30 07:43 23.12.2019
5616 Clouds 0 997 74 10000 1.5 170 07:20 23.12.2019
5617 Clouds -1 997 80 10000 5.1 40 06:53 23.12.2019
5618 Clouds -1 996 79 10000 1.5 190 06:26 23.12.2019
5619 Clouds 0 996 80 10000 5.1 40 05:53 23.12.2019
5620 Clouds 0 996 79 10000 1 150 05:28 23.12.2019
5621 Clouds 0 996 74 10000 0.5 0 04:31 23.12.2019
5622 Clouds 1 996 76 10000 1 0 03:18 23.12.2019
5623 Clouds 0 996 80 10000 7.7 40 02:40 23.12.2019
5624 Clouds 0 995 74 10000 1.5 140 02:19 23.12.2019
5625 Clouds 1 996 74 10000 9.8 40 01:42 23.12.2019
5626 Clouds 1 995 80 10000 1.5 150 01:23 23.12.2019
5627 Clouds 1 995 74 10000 10.8 40 00:43 23.12.2019
5628 Clouds 1 994 74 10000 1 0 00:22 23.12.2019
5629 Clouds 1 995 69 10000 10.8 40 23:40 22.12.2019
5630 Clouds 1 994 82 10000 1 0 23:21 22.12.2019
5631 Clouds 1 994 74 10000 10.8 40 22:58 22.12.2019
5632 Clouds 1 994 74 10000 10.8 40 22:58 22.12.2019
5633 Clouds 1 994 74 10000 10.8 40 22:40 22.12.2019
5634 Clouds 1 993 82 10000 1 0 22:21 22.12.2019
5635 Clouds 1 994 74 10000 11.3 40 21:58 22.12.2019
5636 Clouds 1 994 74 10000 11.3 40 21:58 22.12.2019
5637 Clouds 1 994 74 10000 11.3 40 21:40 22.12.2019
5638 Clouds 1 993 82 10000 1.5 130 21:21 22.12.2019
5639 Clouds 1 993 74 10000 10.8 40 20:58 22.12.2019
5640 Clouds 1 993 74 10000 10.8 40 20:39 22.12.2019
5641 Clouds 1 992 82 10000 1.5 0 20:19 22.12.2019
5642 Clouds 1 992 82 10000 1.5 0 20:19 22.12.2019
5643 Clouds 2 992 74 10000 10.8 40 19:57 22.12.2019
5644 Clouds 2 992 74 10000 10.8 40 19:38 22.12.2019
5645 Clouds 2 991 64 10000 1 0 19:19 22.12.2019
5646 Clouds 1 992 80 10000 10.8 40 18:42 22.12.2019
5647 Clouds 1 991 82 10000 2.6 160 18:23 22.12.2019
5648 Clouds 2 991 74 10000 9.8 40 17:56 22.12.2019
5649 Clouds 2 991 74 10000 9.8 40 17:38 22.12.2019
5650 Clouds 2 990 64 10000 1.5 100 17:19 22.12.2019
5651 Clouds 2 991 74 10000 11.3 30 16:57 22.12.2019
5652 Clouds 2 991 74 10000 11.3 30 16:38 22.12.2019
5653 Clouds 2 990 64 10000 1.5 170 16:20 22.12.2019
5654 Clouds 2 990 74 10000 10.3 30 15:56 22.12.2019
5655 Clouds 2 990 74 10000 10.3 30 15:37 22.12.2019
5656 Clouds 2 989 64 10000 2.6 250 15:19 22.12.2019
5657 Clouds 1 990 80 10000 9.3 30 14:55 22.12.2019
5658 Clouds 1 990 80 10000 9.3 30 14:36 22.12.2019
5659 Clouds 1 989 69 10000 2.6 160 14:18 22.12.2019
5660 Clouds 2 990 80 10000 9.3 30 13:55 22.12.2019
5661 Clouds 2 990 80 10000 9.3 30 13:36 22.12.2019
5662 Clouds 1 988 59 10000 6.2 30 13:18 22.12.2019
5663 Clouds 1 988 59 10000 6.2 30 13:18 22.12.2019
5664 Clouds 1 990 80 10000 10.8 30 12:55 22.12.2019
5665 Clouds 1 990 80 10000 10.8 30 12:37 22.12.2019
5666 Clouds 1 988 59 10000 8.2 30 12:18 22.12.2019
5667 Clouds 1 989 74 10000 12.9 30 11:54 22.12.2019
5668 Clouds 1 989 74 10000 12.9 30 11:36 22.12.2019
5669 Clouds 1 988 59 10000 10.8 20 11:18 22.12.2019
5670 Clouds 1 989 74 10000 12.3 30 10:54 22.12.2019
5671 Clouds 1 987 64 10000 13.4 20 10:36 22.12.2019
5672 Clouds 1 987 64 10000 13.4 20 10:18 22.12.2019
5673 Clouds 1 989 74 10000 12.9 30 09:41 22.12.2019
5674 Clouds 1 987 64 10000 14.4 20 09:22 22.12.2019
5675 Clouds 1 989 78 10000 13.9 20 08:59 22.12.2019
5676 Clouds 1 989 78 10000 13.9 20 08:38 22.12.2019
5677 Clouds 1 987 64 10000 13.4 20 08:20 22.12.2019
5678 Clouds 1 988 78 10000 15.4 20 07:39 22.12.2019
5679 Clouds 1 986 64 10000 13.9 20 07:20 22.12.2019
5680 Clouds 1 988 78 10000 13.4 30 06:41 22.12.2019
5681 Clouds 1 988 69 10000 15.4 30 05:54 22.12.2019
5682 Clouds 0 986 59 10000 13.4 20 05:23 22.12.2019
5683 Clouds 0 986 76 10000 13.9 20 04:30 22.12.2019
5684 Clouds 0 988 76 10000 13.4 30 03:56 22.12.2019
5685 Clouds 1 989 76 10000 15.4 40 02:42 22.12.2019
5686 Clouds 1 988 77 10000 13.4 30 01:51 22.12.2019
5687 Clouds 1 987 55 10000 7.2 30 01:30 22.12.2019
5688 Clouds 1 988 69 10000 14.9 30 00:47 22.12.2019
5689 Clouds 1 987 59 10000 10.8 20 00:24 22.12.2019
5690 Clouds 1 988 69 10000 13.9 30 23:57 21.12.2019
5691 Clouds 1 988 69 10000 13.9 30 23:38 21.12.2019
5692 Clouds 1 987 59 10000 10.3 30 23:19 21.12.2019
5693 Clouds 1 988 74 10000 13.9 30 22:41 21.12.2019
5694 Clouds 1 987 55 10000 8.7 40 22:19 21.12.2019
5695 Clouds 1 988 74 10000 13.9 30 21:57 21.12.2019
5696 Clouds 2 988 74 10000 13.9 30 21:38 21.12.2019
5697 Clouds 1 987 55 10000 9.3 40 21:20 21.12.2019
5698 Clouds 2 988 80 10000 12.9 30 20:59 21.12.2019
5699 Clouds 2 988 80 10000 12.9 30 20:39 21.12.2019
5700 Clouds 1 986 59 10000 7.2 40 20:21 21.12.2019
5701 Clouds 2 987 74 10000 13.4 30 19:58 21.12.2019
5702 Clouds 2 987 74 10000 13.4 30 19:40 21.12.2019
5703 Clouds 2 987 74 10000 13.4 30 19:40 21.12.2019
5704 Clouds 2 986 59 10000 8.2 30 19:19 21.12.2019
5705 Clouds 2 986 59 10000 8.2 30 19:19 21.12.2019
5706 Clouds 2 987 80 10000 10.8 30 18:45 21.12.2019
5707 Clouds 2 987 59 10000 4.1 50 18:24 21.12.2019
5708 Clouds 3 987 69 10000 12.3 40 17:58 21.12.2019
5709 Clouds 3 987 69 10000 12.3 40 17:39 21.12.2019
5710 Clouds 2 986 51 10000 7.7 50 17:21 21.12.2019
5711 Clouds 3 987 74 10000 12.9 40 16:59 21.12.2019
5712 Clouds 3 987 74 10000 12.9 40 16:41 21.12.2019
5713 Clouds 3 987 74 10000 12.9 40 16:41 21.12.2019
5714 Clouds 2 985 51 10000 2.1 60 16:19 21.12.2019
5715 Clouds 2 985 51 10000 2.1 60 16:19 21.12.2019
5716 Clouds 3 987 69 10000 12.3 40 15:57 21.12.2019
5717 Clouds 3 987 69 10000 12.3 40 15:38 21.12.2019
5718 Clouds 3 987 69 10000 12.3 40 15:38 21.12.2019
5719 Clouds 2 985 55 10000 4.6 50 15:19 21.12.2019
5720 Clouds 3 987 74 10000 13.4 40 14:57 21.12.2019
5721 Clouds 3 987 74 10000 13.4 40 14:38 21.12.2019
5722 Clouds 3 985 51 10000 5.7 30 14:19 21.12.2019
5723 Clouds 4 986 69 10000 13.4 30 13:56 21.12.2019
5724 Clouds 4 986 69 10000 13.4 30 13:37 21.12.2019
5725 Clouds 3 986 51 10000 5.7 20 13:18 21.12.2019
5726 Clouds 3 987 69 10000 11.8 30 12:55 21.12.2019
5727 Clouds 3 987 69 10000 11.8 30 12:37 21.12.2019
5728 Clouds 3 986 59 10000 5.7 10 12:18 21.12.2019
5729 Clouds 3 987 69 10000 11.8 40 11:43 21.12.2019
5730 Clouds 3 986 55 10000 7.2 20 11:25 21.12.2019
5731 Clouds 3 986 69 10000 13.9 40 10:56 21.12.2019
5732 Clouds 3 986 69 10000 13.9 40 10:38 21.12.2019
5733 Clouds 3 986 55 10000 5.7 10 10:19 21.12.2019
5734 Clouds 3 986 74 10000 13.4 40 09:43 21.12.2019
5735 Clouds 3 985 64 10000 5.1 10 09:22 21.12.2019
5736 Clouds 4 986 74 10000 12.3 40 08:59 21.12.2019
5737 Clouds 4 986 74 10000 12.3 40 08:39 21.12.2019
5738 Clouds 3 985 60 10000 5.7 30 08:21 21.12.2019
5739 Clouds 3 986 80 10000 11.8 40 07:44 21.12.2019
5740 Clouds 2 985 64 10000 9.3 30 07:22 21.12.2019
5741 Clouds 3 986 80 10000 11.8 40 06:45 21.12.2019
5742 Clouds 3 985 64 10000 11.3 10 06:26 21.12.2019
5743 Clouds 3 987 80 10000 10.8 40 05:51 21.12.2019
5744 Clouds 2 987 80 10000 10.3 40 04:58 21.12.2019
5745 Clouds 1 987 74 10000 10.3 30 03:59 21.12.2019
5746 Clouds 2 986 64 10000 1.5 320 03:18 21.12.2019
5747 Clear 2 987 64 10000 6.2 360 02:18 21.12.2019
5748 Clear 2 987 80 10000 7.7 40 01:38 21.12.2019
5749 Clouds 2 987 64 10000 3.1 10 01:20 21.12.2019
5750 Clouds 2 988 80 10000 8.2 40 00:37 21.12.2019
5751 Clouds 2 988 59 10000 3.6 10 00:18 21.12.2019
5752 Clouds 2 988 86 10000 5.7 20 23:38 20.12.2019
5753 Clouds 2 988 51 10000 3.1 60 23:19 20.12.2019
5754 Clouds 2 988 86 10000 5.1 40 22:43 20.12.2019
5755 Clouds 2 988 55 10000 2.6 10 22:21 20.12.2019
5756 Clouds 3 989 80 10000 4.6 40 21:59 20.12.2019
5757 Clouds 3 989 80 10000 4.6 40 21:40 20.12.2019
5758 Clouds 2 988 48 10000 6.2 80 21:20 20.12.2019
5759 Clouds 2 989 86 10000 5.1 40 20:55 20.12.2019
5760 Clouds 2 989 86 10000 5.1 40 20:36 20.12.2019
5761 Clouds 2 989 55 10000 3.1 20 20:18 20.12.2019
5762 Clouds 2 989 86 10000 5.7 40 19:41 20.12.2019
5763 Clouds 2 988 55 10000 5.1 40 19:20 20.12.2019
5764 Clouds 2 989 80 10000 4.1 40 18:58 20.12.2019
5765 Clouds 2 989 80 10000 4.1 40 18:38 20.12.2019
5766 Clouds 2 989 55 10000 2.1 50 18:20 20.12.2019
5767 Clouds 3 989 80 10000 7.2 30 17:54 20.12.2019
5768 Clouds 3 989 80 10000 7.2 30 17:36 20.12.2019
5769 Clouds 3 989 51 10000 5.1 50 17:18 20.12.2019
5770 Clouds 3 989 71 10000 5.7 40 16:40 20.12.2019
5771 Clouds 3 989 55 10000 2.1 210 16:20 20.12.2019
5772 Clouds 3 989 55 10000 2.1 210 16:20 20.12.2019
5773 Clouds 4 990 64 10000 5.7 50 15:57 20.12.2019
5774 Clouds 4 990 64 10000 5.7 50 15:39 20.12.2019
5775 Clouds 3 990 51 10000 3.1 70 15:20 20.12.2019
5776 Clouds 4 990 74 10000 5.7 60 14:59 20.12.2019
5777 Clouds 4 990 74 10000 5.7 60 14:40 20.12.2019
5778 Clouds 4 990 55 10000 4.1 30 14:22 20.12.2019
5779 Clouds 4 990 74 10000 6.2 50 13:55 20.12.2019
5780 Clouds 4 990 74 10000 6.2 50 13:36 20.12.2019
5781 Clouds 4 990 52 10000 8.7 90 13:18 20.12.2019
5782 Clouds 4 991 74 10000 7.2 60 12:41 20.12.2019
5783 Clouds 4 990 52 10000 6.2 80 12:19 20.12.2019
5784 Rain 3 991 69 10000 7.2 70 11:59 20.12.2019
5785 Rain 3 991 69 10000 7.2 70 11:40 20.12.2019
5786 Clouds 4 990 48 10000 2.1 0 11:21 20.12.2019
5787 Clouds 4 991 64 10000 7.2 60 10:59 20.12.2019
5788 Clouds 4 991 64 10000 7.2 60 10:41 20.12.2019
5789 Clouds 3 990 55 10000 2.6 50 10:21 20.12.2019
5790 Clouds 4 991 64 10000 8.2 60 09:58 20.12.2019
5791 Clouds 4 991 64 10000 8.2 60 09:40 20.12.2019
5792 Clouds 3 990 52 10000 6.7 90 09:20 20.12.2019
5793 Clouds 3 990 65 10000 7.2 30 08:44 20.12.2019
5794 Rain 3 990 52 10000 6.2 80 08:26 20.12.2019
5795 Clouds 3 990 70 10000 7.7 40 07:59 20.12.2019
5796 Clouds 3 990 70 10000 7.7 40 07:41 20.12.2019
5797 Clouds 2 990 55 10000 4.6 90 07:20 20.12.2019
5798 Clouds 3 991 70 10000 8.7 40 06:52 20.12.2019
5799 Rain 2 990 55 10000 6.7 60 06:33 20.12.2019
5800 Snow 1 991 70 2000 8.2 40 05:56 20.12.2019
5801 Snow 1 991 70 2000 8.2 40 05:37 20.12.2019
5802 Snow 1 991 70 2000 8.2 40 05:37 20.12.2019
5803 Snow 1 991 86 6000 9.3 70 04:33 20.12.2019
5804 Snow 1 992 80 5000 8.2 80 03:31 20.12.2019
5805 Snow 1 993 71 3500 8.7 40 02:44 20.12.2019
5806 Clouds 1 993 74 10000 10.3 40 01:54 20.12.2019
5807 Clouds 2 992 51 10000 6.2 60 01:34 20.12.2019
5808 Rain 1 993 69 10000 10.8 40 00:49 20.12.2019
5809 Clouds 1 992 64 10000 8.2 20 00:30 20.12.2019
5810 Clouds 1 993 74 10000 10.8 30 23:56 19.12.2019
5811 Clouds 1 993 74 10000 10.8 30 23:38 19.12.2019
5812 Clouds 1 993 64 10000 8.2 10 23:18 19.12.2019
5813 Clouds 1 994 69 10000 11.3 40 22:38 19.12.2019
5814 Clouds 1 993 64 10000 8.2 360 22:20 19.12.2019
5815 Clouds 1 995 74 10000 12.9 40 21:56 19.12.2019
5816 Clouds 1 995 74 10000 12.9 40 21:38 19.12.2019
5817 Clouds 1 994 59 10000 8.2 20 21:19 19.12.2019
5818 Clouds 1 995 74 10000 12.9 30 20:56 19.12.2019
5819 Clouds 1 995 74 10000 12.9 30 20:37 19.12.2019
5820 Clouds 1 995 74 10000 12.9 30 20:37 19.12.2019
5821 Clouds 1 995 59 10000 8.7 20 20:18 19.12.2019
5822 Clouds 1 995 59 10000 8.7 20 20:18 19.12.2019
5823 Clouds 1 996 69 10000 12.3 40 19:57 19.12.2019
5824 Clouds 1 996 69 10000 12.3 40 19:57 19.12.2019
5825 Clouds 1 996 69 10000 12.3 40 19:39 19.12.2019
5826 Clouds 1 995 65 10000 10.8 10 19:19 19.12.2019
5827 Clouds 1 996 69 10000 12.9 40 18:55 19.12.2019
5828 Clouds 1 996 69 10000 12.9 40 18:37 19.12.2019
5829 Clouds 1 996 59 10000 6.2 20 18:18 19.12.2019
5830 Clouds 1 997 69 10000 13.4 30 17:54 19.12.2019
5831 Clouds 1 996 59 10000 6.2 360 17:36 19.12.2019
5832 Clouds 1 996 59 10000 6.2 360 17:18 19.12.2019
5833 Clouds 1 997 69 10000 12.9 40 16:54 19.12.2019
5834 Clouds 1 997 69 10000 12.9 40 16:36 19.12.2019
5835 Clouds 1 997 65 10000 8.2 10 16:18 19.12.2019
5836 Clouds 0 998 65 10000 11.8 40 15:54 19.12.2019
5837 Clouds 0 998 65 10000 6.2 360 15:36 19.12.2019
5838 Clouds 0 998 65 10000 6.2 360 15:18 19.12.2019
5839 Clouds 0 998 65 10000 9.8 30 14:42 19.12.2019
5840 Clouds 0 998 70 10000 6.7 360 14:20 19.12.2019
5841 Clouds 0 999 70 10000 9.3 30 13:58 19.12.2019
5842 Clouds 0 999 70 10000 9.3 30 13:38 19.12.2019
5843 Clouds 0 999 66 10000 6.2 360 13:19 19.12.2019
5844 Clouds 0 1000 66 10000 9.8 30 12:57 19.12.2019
5845 Clouds 0 1000 66 10000 9.8 30 12:38 19.12.2019
5846 Clouds 0 1000 66 10000 6.2 360 12:19 19.12.2019
5847 Clouds 0 1000 66 10000 6.2 360 12:19 19.12.2019
5848 Clouds 0 1000 66 10000 9.8 30 11:58 19.12.2019
5849 Clouds 0 1000 66 10000 9.8 30 11:39 19.12.2019
5850 Clouds -1 1000 63 10000 4.6 360 11:18 19.12.2019
5851 Clouds -1 1000 63 10000 4.6 360 11:18 19.12.2019
5852 Clouds -1 1001 71 10000 9.3 30 10:56 19.12.2019
5853 Clouds -1 1001 71 10000 9.3 30 10:37 19.12.2019
5854 Clouds 0 1001 63 10000 6.7 10 10:19 19.12.2019
5855 Clouds 0 1001 71 10000 8.2 30 09:40 19.12.2019
5856 Clouds 0 1001 71 10000 8.2 30 09:40 19.12.2019
5857 Clouds 0 1001 63 10000 3.1 20 09:21 19.12.2019
5858 Clouds -1 1001 68 10000 7.7 30 08:58 19.12.2019
5859 Clouds -1 1001 68 10000 7.7 30 08:40 19.12.2019
5860 Clear -1 1002 58 10000 2.6 20 08:19 19.12.2019
5861 Clear -1 1002 68 10000 7.7 30 07:57 19.12.2019
5862 Clear -1 1002 68 10000 7.7 30 07:38 19.12.2019
5863 Clear -1 1002 54 10000 2.1 20 07:19 19.12.2019
5864 Clear -1 1002 68 10000 6.7 30 06:50 19.12.2019
5865 Clear -1 1002 69 10000 2.6 60 06:29 19.12.2019
5866 Clear -1 1002 74 10000 6.2 40 05:55 19.12.2019
5867 Clear -1 1002 74 10000 6.2 40 05:36 19.12.2019
5868 Clear 0 1003 64 10000 6.2 40 04:52 19.12.2019
5869 Clear 0 1003 64 10000 2.1 40 03:21 19.12.2019
5870 Clouds -1 1004 54 10000 2.6 20 02:23 19.12.2019
5871 Clouds 0 1004 64 10000 4.1 70 01:23 19.12.2019
5872 Clouds 0 1004 64 10000 8.7 60 00:43 19.12.2019
5873 Clouds 0 1004 43 10000 5.1 60 00:24 19.12.2019
5874 Clouds 0 1004 50 10000 7.2 60 23:57 18.12.2019
5875 Clouds 0 1004 50 10000 7.2 60 23:38 18.12.2019
5876 Clouds 1 1004 64 10000 8.7 70 23:18 18.12.2019
5877 Clouds 1 1004 64 10000 5.7 40 22:55 18.12.2019
5878 Clouds 1 1004 64 10000 5.7 40 22:37 18.12.2019
5879 Clouds 1 1004 40 10000 7.7 70 22:19 18.12.2019
5880 Clouds 0 1004 64 10000 4.1 50 21:56 18.12.2019
5881 Clouds 0 1004 64 10000 4.1 50 21:38 18.12.2019
5882 Clouds 0 1004 64 10000 6.2 50 21:19 18.12.2019
5883 Clouds 0 1004 64 10000 6.7 50 20:55 18.12.2019
5884 Clouds 0 1004 64 10000 4.1 30 20:37 18.12.2019
5885 Clouds 0 1004 70 10000 4.1 30 20:19 18.12.2019
5886 Clouds 1 1004 70 10000 5.7 50 19:55 18.12.2019
5887 Clouds 1 1004 70 10000 5.7 50 19:37 18.12.2019
5888 Clouds 0 1004 43 10000 3.1 20 19:18 18.12.2019
5889 Clouds 0 1004 43 10000 3.1 20 19:18 18.12.2019
5890 Clouds 0 1004 68 10000 5.7 40 18:44 18.12.2019
5891 Clouds 1 1004 43 10000 5.7 70 18:25 18.12.2019
5892 Clouds 1 1004 43 10000 5.7 70 18:25 18.12.2019
5893 Clouds 1 1004 70 10000 6.2 50 17:57 18.12.2019
5894 Clouds 1 1004 70 10000 6.2 50 17:39 18.12.2019
5895 Clouds 0 1004 47 10000 5.7 80 17:19 18.12.2019
5896 Clouds 0 1004 55 10000 6.7 60 16:56 18.12.2019
5897 Clouds 1 1004 55 10000 6.7 60 16:38 18.12.2019
5898 Clouds 0 1004 47 10000 5.7 80 16:20 18.12.2019
5899 Clouds 0 1004 66 10000 7.2 60 15:55 18.12.2019
5900 Clouds 0 1004 66 10000 4.6 100 15:37 18.12.2019
5901 Clouds 0 1004 66 10000 4.6 100 15:18 18.12.2019
5902 Clouds 0 1004 59 10000 9.8 70 14:42 18.12.2019
5903 Clouds 0 1005 47 10000 4.6 80 14:22 18.12.2019
5904 Clouds 0 1004 64 10000 8.2 50 13:57 18.12.2019
5905 Clouds 0 1004 64 10000 8.2 50 13:38 18.12.2019
5906 Clouds 0 1004 47 10000 3.6 80 13:20 18.12.2019
5907 Clouds 0 1004 69 10000 8.2 50 12:57 18.12.2019
5908 Clouds 0 1004 69 10000 8.2 50 12:38 18.12.2019
5909 Clouds -1 1004 69 10000 3.6 30 12:19 18.12.2019
5910 Clouds -1 1004 69 10000 9.8 50 11:56 18.12.2019
5911 Clouds 0 1004 69 10000 4.1 50 11:38 18.12.2019
5912 Clear 0 1004 73 10000 4.1 50 11:19 18.12.2019
5913 Clear 0 1004 73 10000 8.7 40 10:55 18.12.2019
5914 Clear 0 1004 73 10000 8.7 40 10:37 18.12.2019
5915 Clear 0 1004 73 10000 5.1 40 10:19 18.12.2019
5916 Clouds 0 1004 73 10000 7.7 40 09:50 18.12.2019
5917 Clouds 0 1004 73 10000 7.7 40 09:50 18.12.2019
5918 Clear 0 1004 73 10000 3.6 60 09:18 18.12.2019
5919 Clear -1 1004 73 10000 7.2 40 08:41 18.12.2019
5920 Clouds 0 1004 54 10000 3.1 30 08:22 18.12.2019
5921 Clouds -2 1004 77 10000 7.7 40 07:45 18.12.2019
5922 Clouds -2 1004 68 10000 2.1 150 07:24 18.12.2019
5923 Clouds -2 1004 77 10000 10.3 30 06:57 18.12.2019
5924 Clouds -1 1004 63 10000 4.44 50 06:28 18.12.2019
5925 Clouds -2 1004 80 10000 10.3 30 05:57 18.12.2019
5926 Clouds -1 1005 74 10000 8.7 30 04:59 18.12.2019
5927 Clouds -1 1004 54 10000 3.6 30 03:31 18.12.2019
5928 Clouds -1 1005 74 10000 9.3 40 02:38 18.12.2019
5929 Clear -1 1005 54 10000 2.6 60 02:20 18.12.2019
5930 Clear -2 1005 74 10000 9.8 40 01:42 18.12.2019
5931 Clouds -1 1005 58 10000 2.6 110 01:23 18.12.2019
5932 Clouds -2 1005 74 10000 9.8 30 00:41 18.12.2019
5933 Clouds -1 1005 58 10000 2.1 160 00:23 18.12.2019
5934 Clouds 0 1005 88 10000 10.3 30 23:57 17.12.2019
5935 Clouds 0 1005 88 10000 10.3 30 23:39 17.12.2019
5936 Clear 0 1005 88 10000 1.5 30 23:19 17.12.2019
5937 Clear 0 1005 88 10000 11.3 30 22:56 17.12.2019
5938 Clear -1 1005 88 10000 11.3 30 22:38 17.12.2019
5939 Clear -1 1005 88 10000 5.1 50 22:19 17.12.2019
5940 Clear 0 1005 88 10000 9.8 40 21:56 17.12.2019
5941 Clear 0 1005 88 10000 9.8 40 21:38 17.12.2019
5942 Clear 0 1005 88 10000 3.6 60 21:19 17.12.2019
5943 Clear 0 1005 80 10000 8.7 40 20:57 17.12.2019
5944 Clear 0 1005 80 10000 8.7 40 20:38 17.12.2019
5945 Clouds 0 1005 84 10000 9.8 30 20:18 17.12.2019
5946 Clouds 0 1005 80 10000 7.7 40 19:56 17.12.2019
5947 Clouds 0 1005 80 10000 7.7 40 19:38 17.12.2019
5948 Clouds 0 1005 84 10000 10.3 30 19:18 17.12.2019
5949 Clouds -1 1005 84 10000 9.3 30 18:55 17.12.2019
5950 Clouds -1 1005 84 10000 9.3 30 18:37 17.12.2019
5951 Clouds 0 1005 84 10000 9.3 20 18:19 17.12.2019
5952 Clouds 0 1005 84 10000 7.7 30 17:42 17.12.2019
5953 Clouds 0 1005 84 10000 7.7 30 17:42 17.12.2019
5954 Clouds 0 1005 84 10000 7.7 30 17:42 17.12.2019
5955 Clouds -1 1005 84 10000 10.8 20 17:21 17.12.2019
5956 Clouds -1 1006 84 10000 7.7 40 16:57 17.12.2019
5957 Clouds -1 1006 84 10000 7.7 40 16:57 17.12.2019
5958 Clouds -1 1006 84 10000 5.7 30 16:38 17.12.2019
5959 Clouds 0 1006 84 10000 5.7 30 16:19 17.12.2019
5960 Clouds -1 1006 84 10000 9.8 30 15:59 17.12.2019
5961 Clouds 0 1006 84 10000 8.2 20 15:38 17.12.2019
5962 Clouds 0 1006 84 10000 8.2 20 15:19 17.12.2019
5963 Clouds 0 1006 84 10000 11.3 40 14:56 17.12.2019
5964 Clouds 0 1006 84 10000 11.3 40 14:38 17.12.2019
5965 Clouds 0 1006 86 10000 5.1 10 14:19 17.12.2019
5966 Clouds 1 1007 86 10000 10.8 40 13:56 17.12.2019
5967 Clouds 1 1007 86 10000 10.8 40 13:38 17.12.2019
5968 Clouds 0 1006 55 10000 1.5 0 13:19 17.12.2019
5969 Clouds 0 1006 55 10000 1.5 0 13:19 17.12.2019
5970 Clouds 0 1006 59 10000 2.1 50 12:58 17.12.2019
5971 Clouds 0 1006 59 10000 2.1 50 12:38 17.12.2019
5972 Clouds 0 1006 59 10000 2.1 50 12:18 17.12.2019
5973 Clouds 0 1007 86 10000 10.8 30 11:56 17.12.2019
5974 Clouds 0 1007 86 10000 10.8 30 11:36 17.12.2019
5975 Clouds 0 1006 90 10000 9.3 20 11:18 17.12.2019
5976 Clouds 0 1007 90 10000 10.8 30 10:56 17.12.2019
5977 Clouds -1 1007 90 10000 10.8 30 10:37 17.12.2019
5978 Clouds -1 1007 90 10000 6.7 40 10:19 17.12.2019
5979 Clouds 0 1007 90 10000 10.3 30 09:42 17.12.2019
5980 Clouds -1 1007 90 10000 6.2 30 09:22 17.12.2019
5981 Clouds -1 1008 90 10000 9.8 30 08:59 17.12.2019
5982 Clouds -1 1008 90 10000 9.8 30 08:40 17.12.2019
5983 Clouds 0 1007 85 10000 10.3 30 08:22 17.12.2019
5984 Clouds 0 1007 85 10000 10.3 30 08:22 17.12.2019
5985 Clouds 0 1008 80 10000 9.8 20 07:58 17.12.2019
5986 Clouds 0 1008 80 10000 9.8 20 07:39 17.12.2019
5987 Clouds 0 1007 85 10000 10.8 20 07:21 17.12.2019
5988 Clouds -1 1008 74 10000 7.7 30 06:42 17.12.2019
5989 Clear -1 1008 85 10000 8.7 20 06:24 17.12.2019
5990 Clear -1 1008 85 10000 8.7 20 06:24 17.12.2019
5991 Clear 0 1008 74 10000 5.1 40 05:41 17.12.2019
5992 Clear 0 1009 80 10000 8.7 50 04:53 17.12.2019
5993 Clear 0 1009 74 10000 8.2 40 03:51 17.12.2019
5994 Clear -1 1009 73 10000 3.1 20 02:26 17.12.2019
5995 Clear 0 1008 75 10000 4.6 50 01:22 17.12.2019
5996 Clear 0 1009 68 10000 11.3 40 00:47 17.12.2019
5997 Clear -1 1008 75 10000 6.2 40 00:21 17.12.2019
5998 Clear -1 1008 75 10000 6.2 40 00:21 17.12.2019
5999 Clear -2 1009 63 10000 7.7 50 23:57 16.12.2019
6000 Clear -2 1009 63 10000 7.7 50 23:38 16.12.2019
6001 Clear -2 1009 58 10000 2.1 120 23:18 16.12.2019
6002 Clear -1 1008 68 10000 8.7 50 22:54 16.12.2019
6003 Clear -1 1008 68 10000 8.7 50 22:36 16.12.2019
6004 Clear -1 1008 54 10000 3.1 80 22:18 16.12.2019
6005 Clear -1 1008 74 10000 6.7 70 21:54 16.12.2019
6006 Clear -1 1008 74 10000 6.7 70 21:36 16.12.2019
6007 Clear -1 1008 58 10000 4.6 60 21:18 16.12.2019
6008 Clear -1 1008 68 10000 12.9 40 20:54 16.12.2019
6009 Clear -1 1008 68 10000 12.9 40 20:36 16.12.2019
6010 Clouds -1 1007 54 10000 2.6 110 20:18 16.12.2019
6011 Clouds -1 1008 76 10000 10.3 50 19:54 16.12.2019
6012 Clouds -1 1008 76 10000 10.3 50 19:36 16.12.2019
6013 Clouds 0 1007 54 10000 2.6 20 19:18 16.12.2019
6014 Clouds 0 1007 54 10000 2.6 20 19:18 16.12.2019
6015 Clouds 0 1007 76 10000 11.3 30 18:42 16.12.2019
6016 Clouds 0 1007 76 10000 11.3 30 18:42 16.12.2019
6017 Clouds 0 1006 76 10000 4.1 70 18:20 16.12.2019
6018 Clouds 0 1006 76 10000 4.1 70 18:20 16.12.2019
6019 Clouds 1 1007 76 10000 9.8 40 17:59 16.12.2019
6020 Clouds 1 1007 76 10000 9.8 40 17:41 16.12.2019
6021 Clouds 0 1006 47 10000 2.6 0 17:22 16.12.2019
6022 Clouds 1 1007 68 10000 12.9 40 16:58 16.12.2019
6023 Clouds 1 1007 68 10000 12.9 40 16:39 16.12.2019
6024 Clouds 1 1006 50 10000 2.1 0 16:20 16.12.2019
6025 Clouds 2 1006 74 10000 10.8 40 15:59 16.12.2019
6026 Clouds 2 1006 74 10000 10.8 40 15:39 16.12.2019
6027 Clouds 1 1005 55 10000 4.6 80 15:21 16.12.2019
6028 Clouds 3 1006 74 10000 10.3 40 14:58 16.12.2019
6029 Clouds 3 1006 74 10000 10.3 40 14:38 16.12.2019
6030 Clouds 2 1005 55 10000 1.5 320 14:20 16.12.2019
6031 Clouds 1 1005 74 10000 10.3 40 13:58 16.12.2019
6032 Clouds 2 1004 64 10000 7.2 50 13:38 16.12.2019
6033 Clouds 2 1004 64 10000 7.2 50 13:20 16.12.2019
6034 Clouds 3 1005 80 10000 10.3 40 12:58 16.12.2019
6035 Clouds 2 1005 80 10000 10.3 40 12:40 16.12.2019
6036 Clouds 3 1004 55 10000 2.1 20 12:20 16.12.2019
6037 Clouds 3 1004 74 10000 10.8 40 11:59 16.12.2019
6038 Clouds 4 1004 74 10000 10.8 40 11:41 16.12.2019
6039 Clouds 3 1003 55 10000 2.6 360 11:21 16.12.2019
6040 Clouds 1 1003 80 10000 9.8 50 10:58 16.12.2019
6041 Clouds 1 1003 80 10000 9.8 50 10:40 16.12.2019
6042 Clouds 1 1003 80 10000 9.8 50 10:40 16.12.2019
6043 Clouds 2 1002 69 10000 2.6 350 10:20 16.12.2019
6044 Clouds -1 1002 74 10000 3.1 40 09:46 16.12.2019
6045 Clouds 0 1002 68 10000 2.1 20 09:28 16.12.2019
6046 Clouds 0 1001 80 10000 5.1 40 08:58 16.12.2019
6047 Clouds 0 1001 79 10000 2.1 150 08:38 16.12.2019
6048 Clouds -2 1001 79 10000 2.1 150 08:19 16.12.2019
6049 Clouds -3 1000 74 10000 5.1 30 07:49 16.12.2019
6050 Clouds -3 1000 79 10000 2.62 38 07:30 16.12.2019
6051 Clouds -4 999 86 10000 3.1 50 06:46 16.12.2019
6052 Clouds -4 999 79 10000 0.5 0 06:26 16.12.2019
6053 Clouds -3 999 74 10000 5.1 40 05:56 16.12.2019
6054 Clouds -3 999 74 10000 5.1 40 05:35 16.12.2019
6055 Clouds -4 998 73 10000 1.5 150 04:33 16.12.2019
6056 Clouds -2 998 77 10000 6.7 20 02:49 16.12.2019
6057 Clouds -1 997 81 10000 7.2 20 01:45 16.12.2019
6058 Clouds -1 997 82 10000 7.7 20 00:55 16.12.2019
6059 Clouds -1 997 82 10000 7.7 20 00:36 16.12.2019
6060 Clouds 0 996 74 10000 2.6 120 00:18 16.12.2019
6061 Clouds -1 997 82 10000 7.2 10 23:40 15.12.2019
6062 Clouds -1 996 74 10000 2.6 170 23:21 15.12.2019
6063 Clouds 1 997 88 10000 8.2 10 22:56 15.12.2019
6064 Clouds 1 997 88 10000 8.2 10 22:38 15.12.2019
6065 Clouds 0 996 59 10000 2.1 70 22:19 15.12.2019
6066 Clouds 1 997 88 10000 7.7 10 21:57 15.12.2019
6067 Clouds 1 997 88 10000 7.7 10 21:38 15.12.2019
6068 Clouds 0 996 59 10000 7.2 350 21:19 15.12.2019
6069 Clouds 0 996 86 10000 7.7 10 20:57 15.12.2019
6070 Clouds 0 996 86 10000 7.7 10 20:38 15.12.2019
6071 Clouds 0 996 59 10000 8.2 360 20:19 15.12.2019
6072 Clouds 0 996 80 10000 7.2 10 19:57 15.12.2019
6073 Clouds 0 996 80 10000 7.2 10 19:39 15.12.2019
6074 Clouds 0 995 59 10000 6.7 10 19:19 15.12.2019
6075 Clouds 1 996 88 10000 7.7 20 18:57 15.12.2019
6076 Clouds 1 996 88 10000 7.7 20 18:38 15.12.2019
6077 Clouds 1 996 88 10000 7.7 20 18:38 15.12.2019
6078 Clouds 0 995 59 10000 7.2 20 18:18 15.12.2019
6079 Clouds 0 995 86 10000 4.6 40 17:56 15.12.2019
6080 Clouds 0 995 86 10000 4.6 40 17:37 15.12.2019
6081 Clouds 0 994 89 10000 8.7 350 17:19 15.12.2019
6082 Clouds 0 995 88 10000 6.2 30 16:57 15.12.2019
6083 Clouds 0 995 89 10000 6.2 30 16:39 15.12.2019
6084 Clouds -1 994 89 10000 7.2 340 16:20 15.12.2019
6085 Clouds 0 995 86 10000 6.2 10 15:55 15.12.2019
6086 Clouds 0 995 86 10000 6.2 10 15:37 15.12.2019
6087 Clouds 0 994 88 10000 2.6 80 15:18 15.12.2019
6088 Clouds 0 994 86 10000 5.7 20 14:55 15.12.2019
6089 Clouds 0 994 86 10000 5.7 20 14:55 15.12.2019
6090 Clouds 0 994 86 10000 5.7 20 14:36 15.12.2019
6091 Clouds -1 994 87 10000 2.1 30 14:18 15.12.2019
6092 Clouds -2 994 86 10000 5.1 20 13:55 15.12.2019
6093 Clouds -2 994 86 10000 5.1 20 13:36 15.12.2019
6094 Clouds -1 994 74 10000 1 0 13:18 15.12.2019
6095 Clouds -1 994 74 10000 1 0 13:18 15.12.2019
6096 Clouds -1 994 89 10000 6.2 20 12:56 15.12.2019
6097 Clouds -1 994 89 10000 6.2 20 12:37 15.12.2019
6098 Clouds -1 993 74 10000 1 0 12:19 15.12.2019
6099 Clouds -3 993 86 10000 6.2 360 11:38 15.12.2019
6100 Clouds -3 993 79 10000 1 0 11:20 15.12.2019
6101 Clouds -2 992 86 10000 6.2 360 10:58 15.12.2019
6102 Clouds -2 992 86 10000 6.2 360 10:40 15.12.2019
6103 Clouds -1 992 73 10000 0.5 0 10:20 15.12.2019
6104 Rain -2 992 87 10000 3.6 20 09:59 15.12.2019
6105 Rain -2 992 87 10000 3.6 20 09:38 15.12.2019
6106 Clouds -2 991 79 10000 1.5 350 09:20 15.12.2019
6107 Rain -2 991 80 10000 2.1 40 08:55 15.12.2019
6108 Rain -2 991 80 10000 2.1 40 08:37 15.12.2019
6109 Clouds -2 991 68 10000 5.29 348 08:19 15.12.2019
6110 Clouds -1 991 78 10000 4.6 20 07:53 15.12.2019
6111 Clouds -1 991 63 10000 1 90 07:32 15.12.2019
6112 Clouds -2 991 73 10000 1.5 140 06:30 15.12.2019
6113 Clouds -2 991 68 10000 5.7 340 05:50 15.12.2019
6114 Clear -3 991 63 10000 2.1 360 05:23 15.12.2019
6115 Clouds -3 991 63 10000 2.1 350 04:24 15.12.2019
6116 Clear -2 991 63 10000 6.2 330 03:22 15.12.2019
6117 Clouds -3 992 68 10000 4.6 360 02:32 15.12.2019
6118 Clouds -3 992 73 10000 7.2 10 01:43 15.12.2019
6119 Clouds -3 992 68 10000 7.7 360 01:20 15.12.2019
6120 Clouds -3 992 73 10000 7.2 10 00:53 15.12.2019
6121 Clouds -3 992 68 10000 6.7 360 00:34 15.12.2019
6122 Clouds -4 992 73 10000 5.7 20 23:56 14.12.2019
6123 Clouds -4 992 73 10000 5.7 20 23:38 14.12.2019
6124 Clouds -4 991 68 10000 6.7 350 23:18 14.12.2019
6125 Clouds -4 992 79 10000 6.2 20 22:56 14.12.2019
6126 Clouds -4 992 79 10000 6.2 20 22:37 14.12.2019
6127 Clear -4 991 62 10000 4.1 20 22:19 14.12.2019
6128 Clouds -7 991 73 10000 6.7 30 21:55 14.12.2019
6129 Clouds -7 991 73 10000 6.7 30 21:37 14.12.2019
6130 Clear -7 991 67 10000 1 0 21:18 14.12.2019
6131 Clear -8 991 68 10000 4.6 20 20:42 14.12.2019
6132 Clear -8 990 56 10000 1 70 20:20 14.12.2019
6133 Clear -9 990 62 10000 1 60 19:59 14.12.2019
6134 Clear -9 990 62 10000 1 60 19:39 14.12.2019
6135 Clear -9 990 56 10000 1.5 110 19:21 14.12.2019
6136 Clouds -9 990 57 10000 2.6 90 18:57 14.12.2019
6137 Clouds -10 990 57 10000 2.6 90 18:38 14.12.2019
6138 Clouds -10 990 57 10000 2.6 90 18:38 14.12.2019
6139 Clear -10 990 66 10000 1 0 18:20 14.12.2019
6140 Clouds -9 989 67 10000 2.6 60 17:57 14.12.2019
6141 Clouds -10 989 67 10000 2.6 60 17:38 14.12.2019
6142 Clear -9 989 56 10000 2.1 90 17:20 14.12.2019
6143 Clouds -9 989 67 10000 3.6 80 16:41 14.12.2019
6144 Clear -9 989 57 10000 2.6 130 16:19 14.12.2019
6145 Clouds -8 989 53 10000 4.6 70 15:55 14.12.2019
6146 Clouds -7 989 53 10000 4.6 70 15:37 14.12.2019
6147 Clear -7 989 57 10000 1.5 30 15:19 14.12.2019
6148 Clouds -7 988 67 10000 4.6 70 14:54 14.12.2019
6149 Clouds -7 988 67 10000 4.6 70 14:36 14.12.2019
6150 Clear -7 988 52 10000 2.6 90 14:18 14.12.2019
6151 Clouds -8 988 62 10000 5.1 70 13:42 14.12.2019
6152 Clear -7 988 52 10000 3.1 70 13:19 14.12.2019
6153 Clear -7 988 52 10000 3.1 70 13:19 14.12.2019
6154 Clouds -7 987 73 10000 2.6 70 12:57 14.12.2019
6155 Clouds -8 987 73 10000 2.6 70 12:38 14.12.2019
6156 Clouds -8 987 73 10000 2.6 70 12:38 14.12.2019
6157 Clear -8 988 52 10000 3.6 50 12:20 14.12.2019
6158 Clouds -8 987 57 10000 5.1 60 11:56 14.12.2019
6159 Clouds -8 987 57 10000 5.1 60 11:38 14.12.2019
6160 Clear -6 987 52 10000 1.5 70 11:19 14.12.2019
6161 Clouds -6 987 67 10000 4.1 50 10:56 14.12.2019
6162 Clouds -6 987 67 10000 4.1 50 10:38 14.12.2019
6163 Clear -6 987 52 10000 4.1 70 10:20 14.12.2019
6164 Clouds -6 986 62 10000 2.6 80 09:43 14.12.2019
6165 Clear -7 987 52 10000 3.6 90 09:23 14.12.2019
6166 Clouds -7 986 62 10000 4.1 70 08:59 14.12.2019
6167 Clouds -7 986 62 10000 4.1 70 08:59 14.12.2019
6168 Clouds -7 986 62 10000 4.1 70 08:40 14.12.2019
6169 Clear -8 986 57 10000 2.6 70 08:19 14.12.2019
6170 Clouds -8 986 73 10000 2.6 70 07:41 14.12.2019
6171 Clear -8 986 57 10000 2.6 60 07:22 14.12.2019
6172 Clear -7 986 73 10000 4.6 70 06:55 14.12.2019
6173 Clouds -7 986 57 10000 3.1 50 06:36 14.12.2019
6174 Clear -7 986 67 10000 3.1 60 05:56 14.12.2019
6175 Clouds -7 986 68 10000 5.1 50 04:35 14.12.2019
6176 Clouds -5 986 53 10000 3.1 70 02:25 14.12.2019
6177 Clouds -6 986 73 10000 6.7 50 01:46 14.12.2019
6178 Clouds -5 986 53 10000 3.6 70 01:28 14.12.2019
6179 Clouds -5 986 68 10000 7.2 50 00:44 14.12.2019
6180 Clouds -5 986 53 10000 3.6 70 00:26 14.12.2019
6181 Clouds -5 986 68 10000 5.7 50 23:43 13.12.2019
6182 Clouds -5 986 57 10000 3.1 50 23:22 13.12.2019
6183 Clouds -5 986 68 10000 7.2 50 23:00 13.12.2019
6184 Clouds -5 986 68 10000 7.2 50 22:40 13.12.2019
6185 Clouds -5 986 57 10000 4.1 70 22:19 13.12.2019
6186 Clouds -5 986 73 10000 6.7 50 21:55 13.12.2019
6187 Clouds -5 986 73 10000 6.7 50 21:37 13.12.2019
6188 Clouds -5 986 57 10000 6.7 80 21:19 13.12.2019
6189 Clouds -5 986 68 10000 7.2 50 20:40 13.12.2019
6190 Clouds -4 986 49 10000 7.2 80 20:21 13.12.2019
6191 Clouds -5 986 68 10000 7.7 60 19:58 13.12.2019
6192 Clouds -5 986 68 10000 7.7 60 19:40 13.12.2019
6193 Clouds -4 986 53 10000 6.2 80 19:21 13.12.2019
6194 Clouds -5 985 62 10000 6.7 60 18:58 13.12.2019
6195 Clouds -5 985 62 10000 6.7 60 18:40 13.12.2019
6196 Clouds -4 985 53 10000 8.2 80 18:19 13.12.2019
6197 Clouds -5 985 62 10000 6.7 60 17:43 13.12.2019
6198 Clouds -4 986 49 10000 5.1 60 17:20 13.12.2019
6199 Clouds -5 985 62 10000 6.2 60 16:59 13.12.2019
6200 Clouds -5 985 62 10000 6.2 60 16:39 13.12.2019
6201 Clouds -4 986 49 10000 4.6 50 16:20 13.12.2019
6202 Clouds -5 986 58 10000 6.7 60 15:58 13.12.2019
6203 Clouds -5 986 45 10000 4.1 40 15:37 13.12.2019
6204 Clouds -5 986 45 10000 4.1 40 15:18 13.12.2019
6205 Clear -6 986 57 10000 6.7 50 14:41 13.12.2019
6206 Clouds -5 986 48 10000 6.2 70 14:21 13.12.2019
6207 Clouds -6 987 53 10000 5.7 60 13:57 13.12.2019
6208 Clear -6 987 53 10000 5.7 60 13:38 13.12.2019
6209 Clear -5 987 44 10000 3.6 60 13:19 13.12.2019
6210 Clear -7 987 62 10000 3.1 70 12:42 13.12.2019
6211 Clear -7 988 57 10000 3.1 50 12:20 13.12.2019
6212 Clear -9 987 73 10000 3.1 70 11:57 13.12.2019
6213 Clear -9 987 73 10000 3.1 70 11:39 13.12.2019
6214 Clear -8 988 61 10000 2.1 100 11:21 13.12.2019
6215 Clear -8 987 73 10000 2.6 80 10:43 13.12.2019
6216 Clear -8 988 61 10000 3.1 60 10:23 13.12.2019
6217 Clouds -9 988 61 10000 2.1 100 09:59 13.12.2019
6218 Clouds -9 988 61 10000 2.1 100 09:39 13.12.2019
6219 Clear -9 988 66 10000 3.6 110 09:18 13.12.2019
6220 Clouds -8 988 67 10000 3.1 100 08:41 13.12.2019
6221 Clear -7 988 61 10000 3.6 100 08:23 13.12.2019
6222 Clouds -8 988 67 10000 3.1 90 07:46 13.12.2019
6223 -273 0 0 0 0 0 07:23 13.12.2019
6224 Clouds -8 989 67 10000 0.5 0 06:55 13.12.2019
6225 Clear -7 989 61 10000 2.6 80 06:29 13.12.2019
6226 Clouds -8 989 67 10000 2.6 50 05:46 13.12.2019
6227 Clear -8 989 78 10000 0.5 0 05:27 13.12.2019
6228 Clouds -7 989 73 10000 3.1 100 04:35 13.12.2019
6229 Clouds -6 990 79 10000 4.6 90 03:47 13.12.2019
6230 Clouds -5 990 62 10000 4.6 80 02:34 13.12.2019
6231 Clouds -5 990 68 10000 5.7 70 01:47 13.12.2019
6232 Clouds -4 990 73 10000 5.7 70 00:57 13.12.2019
6233 Clouds -4 990 73 10000 5.7 70 00:37 13.12.2019
6234 Clear -3 989 73 10000 5.1 80 23:59 12.12.2019
6235 Clear -3 989 73 10000 5.1 80 23:40 12.12.2019
6236 Clear -3 989 58 10000 2.6 80 23:22 12.12.2019
6237 Clear -3 989 68 10000 7.7 50 22:56 12.12.2019
6238 Clear -2 989 68 10000 7.7 50 22:37 12.12.2019
6239 Clear -2 989 54 10000 4.6 70 22:19 12.12.2019
6240 Clouds -2 989 74 10000 9.3 40 21:55 12.12.2019
6241 Clouds -2 989 74 10000 9.3 40 21:37 12.12.2019
6242 Clear -2 988 54 10000 3.1 40 21:18 12.12.2019
6243 Clouds -2 988 74 10000 10.3 40 20:56 12.12.2019
6244 Clear -2 988 58 10000 2.1 70 20:38 12.12.2019
6245 Clear -3 988 58 10000 2.1 70 20:20 12.12.2019
6246 Clouds -2 988 74 10000 10.3 40 19:43 12.12.2019
6247 Clear -3 987 68 10000 7.2 30 19:23 12.12.2019
6248 Clouds -3 987 74 10000 11.3 40 18:58 12.12.2019
6249 Clouds -2 987 74 10000 11.3 40 18:40 12.12.2019
6250 Clouds -2 987 68 10000 6.7 30 18:21 12.12.2019
6251 Clouds -1 987 74 10000 10.8 40 17:59 12.12.2019
6252 Clouds -2 987 74 10000 10.8 40 17:40 12.12.2019
6253 Clouds -3 987 63 10000 6.2 40 17:21 12.12.2019
6254 Clouds -2 987 74 10000 11.8 40 16:59 12.12.2019
6255 Clouds -2 987 74 10000 11.8 40 16:41 12.12.2019
6256 Clear -2 986 58 10000 7.7 50 16:21 12.12.2019
6257 Clouds -2 986 74 10000 12.3 50 15:58 12.12.2019
6258 Clouds -2 986 74 10000 12.3 50 15:40 12.12.2019
6259 Clear -3 986 63 10000 6.2 40 15:19 12.12.2019
6260 Clouds -3 986 74 10000 10.8 40 14:56 12.12.2019
6261 Clouds -3 986 74 10000 10.8 40 14:56 12.12.2019
6262 Clouds -3 986 74 10000 10.8 40 14:36 12.12.2019
6263 Clear -3 986 63 10000 6.2 30 14:18 12.12.2019
6264 Clouds -2 986 74 10000 11.3 40 13:54 12.12.2019
6265 Clouds -3 986 74 10000 11.3 40 13:36 12.12.2019
6266 Clear -3 986 58 10000 2.6 50 13:18 12.12.2019
6267 Clear -3 986 58 10000 2.6 50 13:18 12.12.2019
6268 Clouds -3 987 74 10000 9.3 40 12:41 12.12.2019
6269 Clear -3 986 54 10000 2.6 40 12:22 12.12.2019
6270 Clear -4 987 79 10000 10.8 40 11:59 12.12.2019
6271 Clear -4 987 79 10000 10.8 40 11:40 12.12.2019
6272 Clear -3 986 62 10000 1.5 80 11:21 12.12.2019
6273 Clear -4 987 73 10000 8.7 40 10:58 12.12.2019
6274 Clear -4 987 73 10000 8.7 40 10:40 12.12.2019
6275 Clear -4 986 67 10000 1 0 10:22 12.12.2019
6276 Clear -3 986 73 10000 9.3 40 09:56 12.12.2019
6277 Clear -3 986 73 10000 9.3 40 09:38 12.12.2019
6278 Clear -3 986 62 10000 1 0 09:19 12.12.2019
6279 Clouds -3 987 68 10000 10.3 40 08:47 12.12.2019
6280 Clear -3 986 58 10000 2.1 50 08:28 12.12.2019
6281 Clouds -2 987 68 10000 10.3 40 07:55 12.12.2019
6282 Clouds -2 987 68 10000 10.3 40 07:36 12.12.2019
6283 Clear -2 986 54 10000 2.6 80 07:18 12.12.2019
6284 Clouds -3 986 74 10000 10.3 40 06:41 12.12.2019
6285 Clear -3 986 68 10000 3.6 0 06:21 12.12.2019
6286 Clear -2 985 63 10000 3.1 0 05:28 12.12.2019
6287 Clouds -2 986 79 10000 11.3 50 04:46 12.12.2019
6288 Clouds -2 986 74 10000 9.8 30 02:42 12.12.2019
6289 Clear -1 986 63 10000 1.5 70 02:24 12.12.2019
6290 Clouds -1 986 74 10000 9.3 40 01:59 12.12.2019
6291 Clouds -2 986 68 10000 3.6 0 01:36 12.12.2019
6292 Clouds -1 987 74 10000 9.3 30 00:49 12.12.2019
6293 Clouds -1 986 79 10000 3.6 50 00:22 12.12.2019
6294 Clouds -1 987 74 10000 10.3 20 23:58 11.12.2019
6295 Clouds 0 987 74 10000 10.3 20 23:37 11.12.2019
6296 Clouds -1 986 75 10000 11.3 10 23:18 11.12.2019
6297 Clouds -1 987 74 10000 10.8 20 22:56 11.12.2019
6298 Clouds -1 987 74 10000 10.8 20 22:38 11.12.2019
6299 Clouds -1 986 75 10000 12.9 10 22:18 11.12.2019
6300 Clouds -1 986 75 10000 12.9 10 22:18 11.12.2019
6301 Clouds -1 987 79 10000 11.3 20 21:54 11.12.2019
6302 Clouds -1 987 79 10000 11.3 20 21:36 11.12.2019
6303 Clouds -1 986 68 10000 12.9 10 21:18 11.12.2019
6304 Clouds -1 987 74 10000 11.8 10 20:55 11.12.2019
6305 Clouds -1 987 74 10000 11.8 10 20:36 11.12.2019
6306 Clouds -1 987 68 10000 9.8 10 20:18 11.12.2019
6307 Clouds -1 988 74 10000 9.8 20 19:42 11.12.2019
6308 Clouds -1 987 68 10000 7.7 10 19:23 11.12.2019
6309 Clouds -1 987 68 10000 7.7 10 19:23 11.12.2019
6310 Clouds -1 988 74 10000 10.8 10 18:59 11.12.2019
6311 Clouds -1 988 74 10000 10.8 10 18:40 11.12.2019
6312 Clouds -2 987 68 10000 11.8 360 18:20 11.12.2019
6313 Clouds -2 988 74 10000 11.8 10 17:56 11.12.2019
6314 Clouds -2 988 74 10000 11.8 10 17:38 11.12.2019
6315 Clouds -2 987 74 10000 7.7 340 17:18 11.12.2019
6316 Clouds -2 987 74 10000 7.7 340 17:18 11.12.2019
6317 Clouds -2 988 74 10000 11.8 360 16:56 11.12.2019
6318 Clouds -2 988 74 10000 11.8 360 16:37 11.12.2019
6319 Clouds -1 987 68 10000 8.2 330 16:19 11.12.2019
6320 Clouds -1 988 74 10000 10.8 10 15:57 11.12.2019
6321 Rain -1 986 68 10000 8.2 330 15:37 11.12.2019
6322 Rain -1 986 68 10000 8.2 330 15:19 11.12.2019
6323 Clouds -1 988 68 10000 11.8 10 14:55 11.12.2019
6324 Clouds -1 988 68 10000 11.8 10 14:37 11.12.2019
6325 Rain -1 985 68 10000 9.8 340 14:18 11.12.2019
6326 Clouds -1 987 74 10000 12.3 360 13:44 11.12.2019
6327 Rain -1 984 70 10000 10.3 360 13:23 11.12.2019
6328 Clouds -1 986 74 10000 15.9 360 12:58 11.12.2019
6329 Clouds -1 986 74 10000 15.9 360 12:39 11.12.2019
6330 Clouds -1 984 74 10000 12.9 350 12:21 11.12.2019
6331 Clouds -1 986 74 10000 17.5 360 11:58 11.12.2019
6332 Clouds -1 986 74 10000 17.5 360 11:39 11.12.2019
6333 Clouds -1 985 74 10000 8.7 350 11:19 11.12.2019
6334 Clouds -1 986 74 10000 17 360 10:59 11.12.2019
6335 Clouds -1 986 74 10000 17 360 10:39 11.12.2019
6336 Clouds -1 983 74 0 11.3 340 10:21 11.12.2019
6337 Clouds -1 985 74 10000 14.9 350 09:56 11.12.2019
6338 Clouds -1 985 74 10000 14.9 350 09:38 11.12.2019
6339 Clouds -1 982 74 10000 14.4 340 09:19 11.12.2019
6340 Clouds -1 985 74 10000 17 350 08:55 11.12.2019
6341 Clouds -1 985 74 10000 17 350 08:36 11.12.2019
6342 Clouds -1 981 79 9000 16.5 340 08:18 11.12.2019
6343 Clouds -1 984 74 10000 18.5 360 07:43 11.12.2019
6344 Clouds -1 980 79 9000 14.4 340 07:23 11.12.2019
6345 Clouds -2 983 74 10000 18.5 350 06:46 11.12.2019
6346 Clouds -2 979 92 6000 14.9 340 06:25 11.12.2019
6347 Clouds -2 981 74 10000 19.5 350 05:55 11.12.2019
6348 Clouds -1 981 74 10000 19.5 350 05:35 11.12.2019
6349 Snow -1 980 74 10000 20.6 350 04:51 11.12.2019
6350 Snow -1 975 92 2000 16.5 330 03:29 11.12.2019
6351 Clouds -1 978 74 10000 23.7 350 02:35 11.12.2019
6352 Snow -1 973 92 1000 15.4 340 01:22 11.12.2019
6353 Clouds -1 976 74 10000 25.2 350 00:43 11.12.2019
6354 Snow -1 971 86 1000 16.5 330 00:19 11.12.2019
6355 Clouds -1 973 74 10000 25.7 350 23:45 10.12.2019
6356 Snow -1 969 86 1000 15.4 330 23:26 10.12.2019
6357 Clouds -1 973 80 10000 25.7 350 22:57 10.12.2019
6358 Clouds -1 973 80 10000 25.7 350 22:39 10.12.2019
6359 Snow -1 968 92 1500 15.9 330 22:20 10.12.2019
6360 Clouds -1 973 80 10000 25.2 350 21:54 10.12.2019
6361 Clouds -1 973 80 10000 25.2 350 21:36 10.12.2019
6362 Snow -1 967 92 1000 15.4 330 21:18 10.12.2019
6363 Snow -1 971 80 7000 23.1 350 20:55 10.12.2019
6364 Snow -1 971 80 7000 23.1 350 20:36 10.12.2019
6365 Snow -1 966 92 2000 18 330 20:18 10.12.2019
6366 Snow -1 971 80 9000 24.2 350 19:44 10.12.2019
6367 Snow -1 971 80 9000 24.2 350 19:44 10.12.2019
6368 Snow -1 965 92 2000 17.5 330 19:26 10.12.2019
6369 Snow -1 965 92 2000 17.5 330 19:26 10.12.2019
6370 Snow -1 970 80 8000 25.7 350 18:59 10.12.2019
6371 Snow -1 970 80 8000 25.7 350 18:39 10.12.2019
6372 Snow -1 965 92 2500 15.9 330 18:20 10.12.2019
6373 Clouds -1 970 86 10000 21.1 350 17:55 10.12.2019
6374 Clouds -1 970 86 10000 21.1 350 17:37 10.12.2019
6375 Snow -1 966 86 2500 13.4 340 17:19 10.12.2019
6376 Clouds 0 969 80 10000 20.6 350 16:43 10.12.2019
6377 Snow 0 967 80 2000 12.3 340 16:20 10.12.2019
6378 Snow 0 967 80 2000 12.3 340 16:20 10.12.2019
6379 Clouds 1 969 80 10000 18 350 15:55 10.12.2019
6380 Clouds 1 969 80 10000 18 350 15:37 10.12.2019
6381 Snow 1 967 80 7000 12.3 350 15:18 10.12.2019
6382 Snow 1 967 80 7000 12.3 350 15:18 10.12.2019
6383 Snow 1 967 80 7000 12.3 350 15:18 10.12.2019
6384 Clouds 1 969 86 10000 14.9 360 14:55 10.12.2019
6385 Clouds 1 969 86 10000 14.9 360 14:37 10.12.2019
6386 Rain 1 967 74 10000 10.3 360 14:19 10.12.2019
6387 Snow 1 968 88 10000 10.8 10 13:56 10.12.2019
6388 Snow 1 968 88 10000 10.8 10 13:37 10.12.2019
6389 Snow 2 967 86 10000 8.2 340 13:18 10.12.2019
6390 Clouds 1 968 86 10000 9.8 350 12:40 10.12.2019
6391 Snow 1 968 86 6000 7.2 340 12:22 10.12.2019
6392 Clouds 0 969 86 10000 4.6 350 11:42 10.12.2019
6393 Rain 0 968 89 10000 4.1 330 11:24 10.12.2019
6394 Clouds 0 969 86 10000 5.7 350 10:57 10.12.2019
6395 Clouds 0 969 86 10000 5.7 350 10:38 10.12.2019
6396 Snow 0 969 89 8000 5.7 360 10:20 10.12.2019
6397 Clouds 1 970 80 10000 5.7 360 09:56 10.12.2019
6398 Clouds 1 970 80 10000 5.7 360 09:38 10.12.2019
6399 Clouds 1 969 80 10000 5.1 340 09:19 10.12.2019
6400 Clouds 1 970 89 10000 5.1 330 08:54 10.12.2019
6401 Clouds 1 970 89 10000 5.1 330 08:36 10.12.2019
6402 Clouds 1 970 89 10000 5.1 330 08:36 10.12.2019
6403 Clouds 1 970 80 10000 2.6 330 08:18 10.12.2019
6404 Clouds 0 971 86 10000 4.6 360 07:44 10.12.2019
6405 Clouds 0 971 86 10000 4.6 360 07:43 10.12.2019
6406 Clouds 1 971 97 10000 3.1 330 07:25 10.12.2019
6407 Clouds -2 971 92 10000 4.1 340 06:47 10.12.2019
6408 Clouds -1 971 92 10000 0.5 0 06:21 10.12.2019
6409 Clouds -1 972 97 10000 3.1 330 05:55 10.12.2019
6410 Clouds -1 973 92 10000 1.5 340 04:55 10.12.2019
6411 Clouds 0 974 92 10000 1 340 03:39 10.12.2019
6412 Clouds 0 975 91 10000 2.1 130 02:46 10.12.2019
6413 Clouds 0 976 92 10000 3.1 80 01:45 10.12.2019
6414 Clouds 0 977 80 10000 5.1 90 01:24 10.12.2019
6415 Clouds 0 977 92 10000 3.1 90 00:42 10.12.2019
6416 Rain 0 978 80 10000 4.6 80 00:22 10.12.2019
6417 Clouds 1 978 92 10000 3.6 110 23:42 09.12.2019
6418 Clouds 1 978 92 10000 3.6 110 23:42 09.12.2019
6419 Clouds 0 979 86 10000 4.6 80 23:24 09.12.2019
6420 Clouds 0 979 89 10000 3.1 100 22:58 09.12.2019
6421 Clouds 0 979 89 10000 3.1 100 22:40 09.12.2019
6422 Clouds 1 980 86 10000 4.6 70 22:20 09.12.2019
6423 Clouds 1 980 89 10000 4.1 100 21:57 09.12.2019
6424 Rain 1 981 86 10000 3.1 100 21:39 09.12.2019
6425 Rain 1 981 86 10000 3.1 100 21:39 09.12.2019
6426 Rain 1 981 86 10000 3.1 100 21:19 09.12.2019
6427 Rain 1 981 89 10000 3.6 120 20:57 09.12.2019
6428 Rain 1 981 89 10000 3.6 120 20:39 09.12.2019
6429 Rain 1 982 86 10000 4.6 100 20:20 09.12.2019
6430 Snow 1 982 83 5000 5.7 130 19:56 09.12.2019
6431 Snow 1 982 83 5000 5.7 130 19:38 09.12.2019
6432 Rain 1 983 86 10000 4.6 80 19:19 09.12.2019
6433 Clouds 1 983 83 10000 4.1 140 18:58 09.12.2019
6434 Clouds 1 983 83 10000 4.1 140 18:39 09.12.2019
6435 Rain 1 984 86 10000 2.6 60 18:20 09.12.2019
6436 Rain 1 984 80 10000 4.1 150 17:58 09.12.2019
6437 Rain 1 984 80 10000 4.1 150 17:40 09.12.2019
6438 Rain 1 986 86 10000 3.1 120 17:21 09.12.2019
6439 Clouds 1 985 96 10000 4.6 170 16:56 09.12.2019
6440 Clouds 1 985 96 10000 4.6 170 16:56 09.12.2019
6441 Clouds 1 985 96 10000 4.6 170 16:38 09.12.2019
6442 Rain 1 986 86 10000 5.1 70 16:20 09.12.2019
6443 Rain 1 986 96 10000 3.1 160 15:56 09.12.2019
6444 Rain 1 986 96 10000 3.1 160 15:56 09.12.2019
6445 Rain 1 986 96 10000 3.1 160 15:37 09.12.2019
6446 Snow 1 988 96 9000 6.2 140 15:19 09.12.2019
6447 Clouds 1 987 86 10000 3.1 140 14:57 09.12.2019
6448 Clouds 1 987 86 10000 3.1 140 14:57 09.12.2019
6449 Clouds 1 987 86 10000 3.1 140 14:39 09.12.2019
6450 Clouds 1 988 96 10000 8.7 90 14:18 09.12.2019
6451 Snow 1 989 96 1500 10.8 100 13:55 09.12.2019
6452 Clouds 1 989 96 5000 10.8 100 13:36 09.12.2019
6453 Clouds 1 989 96 5000 10.8 100 13:18 09.12.2019
6454 Rain 1 989 93 8000 11.3 140 12:54 09.12.2019
6455 Rain 1 989 93 8000 11.3 140 12:36 09.12.2019
6456 Snow 1 992 96 1100 7.7 100 12:18 09.12.2019
6457 Clouds 1 990 93 10000 12.3 120 11:40 09.12.2019
6458 Snow 1 993 92 3000 8.7 100 11:21 09.12.2019
6459 Rain 0 992 93 10000 8.2 110 10:57 09.12.2019
6460 Rain 0 992 93 10000 8.2 110 10:38 09.12.2019
6461 Clouds 0 994 92 2000 8.7 90 10:19 09.12.2019
6462 Clouds 0 994 92 2000 8.7 90 10:19 09.12.2019
6463 Clouds -1 994 92 10000 10.3 100 09:43 09.12.2019
6464 Snow -1 997 92 1600 8.7 90 09:24 09.12.2019
6465 Clouds -1 996 92 7000 10.3 100 08:57 09.12.2019
6466 Clouds -1 996 92 7000 10.3 100 08:38 09.12.2019
6467 Snow 0 998 92 2000 8.7 90 08:20 09.12.2019
6468 Snow 0 998 92 10000 6.7 110 07:48 09.12.2019
6469 Rain 1 999 92 10000 5.7 60 07:30 09.12.2019
6470 Clouds -1 999 92 10000 3.6 110 06:55 09.12.2019
6471 Snow -2 1000 63 10000 8.2 80 06:29 09.12.2019
6472 Clouds -2 1000 79 10000 3.6 70 05:42 09.12.2019
6473 Clouds -2 1001 63 10000 7.2 70 05:20 09.12.2019
6474 Clouds -3 1003 63 10000 5.7 70 04:27 09.12.2019
6475 Clouds -3 1003 63 10000 5.7 70 04:27 09.12.2019
6476 Clear -2 1004 63 10000 5.7 70 02:28 09.12.2019
6477 Clear -3 1004 74 10000 1 140 01:46 09.12.2019
6478 Clear -3 1003 73 10000 2.6 130 00:57 09.12.2019
6479 Clear -3 1004 73 10000 3.6 90 00:33 09.12.2019
6480 Clear -4 1004 74 10000 3.1 90 23:55 08.12.2019
6481 Clear -4 1004 74 10000 3.1 90 23:55 08.12.2019
6482 Clear -4 1004 74 10000 3.1 90 23:37 08.12.2019
6483 Clear -4 1004 73 10000 1 0 23:18 08.12.2019
6484 Clouds -3 1004 80 10000 2.1 70 22:56 08.12.2019
6485 Clouds -3 1004 80 10000 2.1 70 22:38 08.12.2019
6486 Clouds -3 1004 80 10000 2.1 70 22:38 08.12.2019
6487 Clear -4 1004 68 10000 1 140 22:18 08.12.2019
6488 Clouds -3 1004 79 10000 4.1 20 21:55 08.12.2019
6489 Clouds -3 1004 79 10000 4.1 20 21:37 08.12.2019
6490 Clear -3 1003 73 10000 1.5 140 21:19 08.12.2019
6491 Clouds -2 1003 79 10000 6.2 30 20:55 08.12.2019
6492 Clouds -3 1003 79 10000 6.2 30 20:37 08.12.2019
6493 Clouds -2 1003 74 10000 2.6 130 20:18 08.12.2019
6494 Clouds -2 1003 84 10000 6.7 30 19:55 08.12.2019
6495 Clouds -1 1003 84 10000 6.7 30 19:36 08.12.2019
6496 Clouds -2 1002 74 10000 2.6 140 19:18 08.12.2019
6497 Clouds 0 1002 84 10000 7.2 30 18:54 08.12.2019
6498 Clouds 0 1001 84 10000 2.1 0 18:36 08.12.2019
6499 Clouds 0 1001 84 10000 2.1 0 18:18 08.12.2019
6500 Clouds 1 1001 80 10000 6.7 30 17:54 08.12.2019
6501 Clouds 1 1000 69 10000 6.7 360 17:36 08.12.2019
6502 Clouds 0 1000 69 10000 6.7 360 17:18 08.12.2019
6503 Clouds 2 1000 80 10000 7.7 30 16:42 08.12.2019
6504 Clouds 2 999 55 10000 1.5 90 16:24 08.12.2019
6505 Clouds 3 999 74 10000 6.2 30 15:59 08.12.2019
6506 Clouds 3 999 74 10000 6.2 30 15:37 08.12.2019
6507 Clouds 2 997 59 10000 9.3 20 15:18 08.12.2019
6508 Clouds 3 997 74 10000 5.7 40 14:57 08.12.2019
6509 Clouds 3 997 74 10000 5.7 40 14:57 08.12.2019
6510 Clouds 3 997 74 10000 5.7 40 14:37 08.12.2019
6511 Clouds 2 996 55 10000 5.7 20 14:19 08.12.2019
6512 Clouds 2 996 55 10000 5.7 20 14:19 08.12.2019
6513 Clouds 2 996 80 10000 7.7 30 13:41 08.12.2019
6514 Clouds 1 995 69 10000 7.2 10 13:23 08.12.2019
6515 Clouds 2 995 80 10000 8.2 20 12:59 08.12.2019
6516 Clouds 2 995 80 10000 8.2 20 12:59 08.12.2019
6517 Clouds 2 995 80 10000 8.2 20 12:41 08.12.2019
6518 Clouds 2 995 80 10000 8.2 20 12:41 08.12.2019
6519 Clouds 1 994 64 10000 12.3 10 12:22 08.12.2019
6520 Clouds 1 993 69 10000 8.7 20 11:59 08.12.2019
6521 Clouds 1 993 69 10000 8.7 20 11:38 08.12.2019
6522 Clear 0 992 59 10000 10.3 10 11:19 08.12.2019
6523 Clear 1 992 74 10000 8.7 20 10:57 08.12.2019
6524 Clear 1 992 74 10000 8.7 20 10:38 08.12.2019
6525 Clear 1 992 74 10000 8.7 20 10:38 08.12.2019
6526 Clear 0 991 55 10000 9.8 20 10:19 08.12.2019
6527 Clouds -1 991 74 10000 6.2 20 09:55 08.12.2019
6528 Clear 0 989 54 10000 2.6 0 09:37 08.12.2019
6529 Clear 0 989 54 10000 2.6 0 09:18 08.12.2019
6530 Clouds -2 990 74 10000 8.7 20 08:43 08.12.2019
6531 Clouds -3 988 62 10000 2.1 150 08:23 08.12.2019
6532 Clouds -4 988 63 10000 10.3 20 07:58 08.12.2019
6533 Clouds -3 988 63 10000 10.3 20 07:40 08.12.2019
6534 Clouds -3 987 67 10000 2.1 140 07:19 08.12.2019
6535 Clouds -3 988 63 10000 11.3 30 06:41 08.12.2019
6536 Clouds -2 986 62 10000 1.5 160 06:21 08.12.2019
6537 Clouds -3 985 57 10000 1.5 150 05:30 08.12.2019
6538 Clouds -4 986 63 10000 8.2 20 04:57 08.12.2019
6539 Clouds -3 985 63 10000 9.8 30 03:41 08.12.2019
6540 Clouds -3 984 58 10000 0.5 0 03:20 08.12.2019
6541 Clouds -2 984 49 10000 1.5 90 02:28 08.12.2019
6542 Clouds -3 985 63 10000 10.8 40 01:48 08.12.2019
6543 Clouds -3 985 63 10000 13.4 40 00:59 08.12.2019
6544 Clouds -4 985 63 10000 13.4 40 00:39 08.12.2019
6545 Clouds -3 984 63 10000 9.8 10 00:19 08.12.2019
6546 Clouds -3 985 63 10000 12.3 40 23:40 07.12.2019
6547 Clouds -3 984 63 10000 9.3 20 23:20 07.12.2019
6548 Clouds -3 985 63 10000 13.4 40 22:56 07.12.2019
6549 Clouds -3 985 63 10000 13.4 40 22:38 07.12.2019
6550 Clouds -3 984 58 10000 11.3 10 22:20 07.12.2019
6551 Clouds -2 984 63 10000 11.8 30 21:56 07.12.2019
6552 Clouds -2 984 63 10000 11.8 30 21:56 07.12.2019
6553 Clouds -3 984 63 10000 11.8 30 21:38 07.12.2019
6554 Clouds -3 984 63 10000 11.8 30 21:38 07.12.2019
6555 Clouds -3 984 63 10000 9.8 10 21:19 07.12.2019
6556 Clouds -2 985 58 10000 12.9 40 20:56 07.12.2019
6557 Clouds -2 985 58 10000 12.9 40 20:36 07.12.2019
6558 Clouds -2 984 63 10000 9.8 10 20:18 07.12.2019
6559 Clouds -2 985 63 10000 12.3 40 19:56 07.12.2019
6560 Clouds -2 985 63 10000 12.3 40 19:37 07.12.2019
6561 Clouds -1 984 58 10000 7.2 360 19:19 07.12.2019
6562 Clouds -1 985 63 10000 12.3 40 18:44 07.12.2019
6563 Clouds -1 985 50 10000 6.2 40 18:19 07.12.2019
6564 -273 0 0 0 0 0 17:58 07.12.2019
6565 Clouds 0 985 55 10000 12.3 40 17:40 07.12.2019
6566 Clouds 0 985 31 10000 4.1 70 17:21 07.12.2019
6567 Clouds 0 986 43 10000 13.4 60 16:56 07.12.2019
6568 Clouds 0 986 43 10000 13.4 60 16:38 07.12.2019
6569 Clouds -1 985 31 10000 10.8 70 16:19 07.12.2019
6570 Clouds 0 986 46 10000 15.4 70 15:56 07.12.2019
6571 Clouds -1 986 46 10000 15.4 70 15:38 07.12.2019
6572 Clouds -1 987 34 10000 9.8 80 15:18 07.12.2019
6573 Clouds -1 987 34 10000 9.8 80 15:18 07.12.2019
6574 Clouds -1 988 58 10000 13.9 70 14:42 07.12.2019
6575 Clouds -1 988 50 10000 8.7 80 14:19 07.12.2019
6576 Clouds -1 988 63 10000 14.4 80 13:55 07.12.2019
6577 Clouds -1 990 50 10000 9.3 80 13:37 07.12.2019
6578 Clouds -1 990 49 10000 9.3 80 13:18 07.12.2019
6579 Clouds -1 989 63 10000 13.4 70 12:41 07.12.2019
6580 Clouds -1 991 49 10000 6.7 80 12:22 07.12.2019
6581 Clouds -2 991 68 10000 14.9 80 11:58 07.12.2019
6582 Clouds -2 991 68 10000 14.9 80 11:40 07.12.2019
6583 Clouds -1 992 63 10000 8.2 80 11:21 07.12.2019
6584 Clouds -2 992 63 10000 13.4 70 10:38 07.12.2019
6585 Clouds -2 993 58 10000 9.3 90 10:20 07.12.2019
6586 Clouds -1 993 68 10000 11.3 70 09:58 07.12.2019
6587 Clouds -1 993 68 10000 11.3 70 09:37 07.12.2019
6588 Clouds -1 994 63 10000 10.3 90 09:18 07.12.2019
6589 Clouds -2 994 68 10000 10.8 80 08:41 07.12.2019
6590 Clouds -2 995 58 10000 8.7 80 08:21 07.12.2019
6591 Clouds -2 995 68 10000 11.3 80 07:46 07.12.2019
6592 Clouds -2 995 58 10000 5.1 60 07:26 07.12.2019
6593 Clouds -2 995 63 10000 9.3 80 06:50 07.12.2019
6594 Clouds -2 996 50 10000 8.2 80 06:25 07.12.2019
6595 Clouds -2 996 63 10000 8.2 70 05:34 07.12.2019
6596 Clouds -2 998 54 10000 6.2 70 04:19 07.12.2019
6597 Clouds -3 997 63 10000 7.2 70 03:44 07.12.2019
6598 Clouds -3 999 54 10000 6.7 80 02:21 07.12.2019
6599 Clouds -3 999 68 10000 4.6 80 01:35 07.12.2019
6600 Clouds -4 999 73 10000 3.1 50 00:55 07.12.2019
6601 Clouds -3 1000 62 10000 6.2 110 00:20 07.12.2019
6602 Clouds -4 1000 73 10000 3.1 60 23:56 06.12.2019
6603 Clouds -4 1000 73 10000 3.1 60 23:38 06.12.2019
6604 Clouds -5 999 73 10000 3.1 100 23:18 06.12.2019
6605 Clouds -5 999 74 10000 3.1 60 22:38 06.12.2019
6606 Clouds -6 1000 68 10000 4.6 90 22:20 06.12.2019
6607 Clouds -6 999 79 10000 3.1 90 21:58 06.12.2019
6608 Clouds -6 999 79 10000 3.1 90 21:39 06.12.2019
6609 Clouds -6 999 79 10000 3.1 90 21:39 06.12.2019
6610 Clouds -6 1000 79 10000 1.5 100 21:20 06.12.2019
6611 Clouds -6 1000 79 10000 2.6 80 20:43 06.12.2019
6612 Clouds -5 1000 73 10000 2.6 110 20:25 06.12.2019
6613 Clouds -5 999 79 10000 3.1 80 19:59 06.12.2019
6614 Clouds -6 999 79 10000 3.1 80 19:40 06.12.2019
6615 Clear -5 999 73 10000 1.5 120 19:22 06.12.2019
6616 Clear -5 999 73 10000 1.5 120 19:22 06.12.2019
6617 Clouds -2 999 68 10000 5.7 40 18:57 06.12.2019
6618 Clouds -4 999 68 10000 5.7 40 18:39 06.12.2019
6619 Clear -2 999 68 10000 3.6 100 18:19 06.12.2019
6620 Clouds -3 998 74 10000 4.6 20 17:56 06.12.2019
6621 Clouds -3 998 74 10000 4.6 20 17:56 06.12.2019
6622 Clouds -5 998 74 10000 4.6 20 17:38 06.12.2019
6623 Clear -5 998 73 10000 2.6 120 17:19 06.12.2019
6624 Clear -5 998 73 10000 2.6 120 17:19 06.12.2019
6625 Clouds -5 998 79 10000 5.1 20 16:43 06.12.2019
6626 Clear -4 998 79 10000 2.6 170 16:25 06.12.2019
6627 Clouds -3 998 74 10000 4.1 20 15:59 06.12.2019
6628 Clouds -3 998 74 10000 4.1 20 15:41 06.12.2019
6629 Clear -2 998 79 10000 2.6 150 15:19 06.12.2019
6630 Clouds -2 998 80 10000 5.7 30 14:57 06.12.2019
6631 Clouds -2 998 80 10000 5.7 30 14:39 06.12.2019
6632 Clear -1 998 79 10000 1 0 14:19 06.12.2019
6633 Clouds -2 998 80 10000 4.1 20 13:44 06.12.2019
6634 Clear -2 997 79 10000 1 0 13:26 06.12.2019
6635 Clouds -2 997 80 10000 5.1 40 12:44 06.12.2019
6636 Clear -2 996 79 10000 2.1 150 12:23 06.12.2019
6637 Clouds 0 996 80 10000 6.7 30 11:59 06.12.2019
6638 Clouds 0 996 80 10000 6.7 30 11:41 06.12.2019
6639 -273 0 0 0 0 0 11:23 06.12.2019
6640 Clouds 0 996 84 10000 7.2 20 10:54 06.12.2019
6641 Clouds 0 996 84 10000 7.2 20 10:36 06.12.2019
6642 Clouds 0 995 84 10000 7.2 360 10:18 06.12.2019
6643 Clouds 0 996 84 10000 6.2 20 09:54 06.12.2019
6644 Clouds 0 996 84 10000 6.2 20 09:36 06.12.2019
6645 Clouds -1 995 84 10000 6.7 360 09:18 06.12.2019
6646 Clouds 0 995 80 10000 5.7 20 08:40 06.12.2019
6647 Clouds -1 994 80 10000 6.7 360 08:21 06.12.2019
6648 Clouds 0 994 80 10000 5.1 20 07:38 06.12.2019
6649 Clouds -1 993 82 10000 8.7 360 07:20 06.12.2019
6650 Clouds -1 994 82 10000 5.7 20 06:48 06.12.2019
6651 Clouds -1 993 74 10000 1 0 06:24 06.12.2019
6652 Clouds 0 993 80 10000 5.1 20 05:46 06.12.2019
6653 Clouds -3 990 83 10000 6.2 30 02:44 06.12.2019
6654 Clouds -3 990 86 10000 5.1 30 01:43 06.12.2019
6655 Clouds -2 989 78 10000 5.7 30 00:50 06.12.2019
6656 Clouds -2 989 79 10000 1.5 140 00:23 06.12.2019
6657 Clouds -3 989 86 10000 5.7 20 23:51 05.12.2019
6658 Clouds -3 988 85 10000 2.1 130 23:20 05.12.2019
6659 Clouds -4 988 86 10000 6.2 20 22:58 05.12.2019
6660 Clouds -4 988 86 10000 6.2 20 22:39 05.12.2019
6661 Clouds -4 988 92 10000 1.5 150 22:19 05.12.2019
6662 Clouds -4 988 86 10000 4.1 10 21:56 05.12.2019
6663 Clouds -4 988 86 10000 4.1 10 21:37 05.12.2019
6664 Clouds -4 987 85 10000 2.88 28 21:19 05.12.2019
6665 Clouds -5 987 92 10000 3.6 20 20:56 05.12.2019
6666 Clouds -5 987 92 10000 3.6 20 20:56 05.12.2019
6667 Clouds -5 987 92 10000 3.6 20 20:37 05.12.2019
6668 Clouds -5 987 85 10000 1 0 20:18 05.12.2019
6669 Clouds -5 987 85 10000 1 0 20:18 05.12.2019
6670 Clouds -5 987 85 10000 1 0 20:18 05.12.2019
6671 Clouds -5 987 79 10000 3.6 20 19:41 05.12.2019
6672 Clouds -5 987 85 10000 1.5 150 19:22 05.12.2019
6673 Clouds -5 987 74 10000 3.1 10 18:59 05.12.2019
6674 Clouds -5 987 74 10000 3.1 10 18:39 05.12.2019
6675 Clouds -5 986 85 10000 1 0 18:20 05.12.2019
6676 Clouds -5 986 86 10000 2.1 110 17:55 05.12.2019
6677 Clouds -5 986 86 10000 2.1 110 17:37 05.12.2019
6678 Clear -4 986 92 10000 1.5 130 17:18 05.12.2019
6679 Clouds -4 986 79 10000 1.5 110 16:40 05.12.2019
6680 Clouds -4 986 79 10000 1.5 110 16:40 05.12.2019
6681 Clouds -4 986 79 10000 1.5 110 16:40 05.12.2019
6682 Clear -5 986 92 10000 1.5 130 16:22 05.12.2019
6683 Clouds -4 985 68 10000 2.6 20 15:58 05.12.2019
6684 Clouds -4 985 68 10000 2.6 20 15:40 05.12.2019
6685 Clear -5 986 85 10000 1.5 150 15:21 05.12.2019
6686 Clouds -4 985 74 10000 1.5 340 14:57 05.12.2019
6687 Clouds -4 985 74 10000 1.5 340 14:38 05.12.2019
6688 Clear -4 985 92 10000 1 0 14:20 05.12.2019
6689 Clouds -4 985 92 10000 0.5 300 13:58 05.12.2019
6690 Clouds -4 985 92 10000 0.5 300 13:40 05.12.2019
6691 Clear -4 985 86 10000 1.5 150 13:21 05.12.2019
6692 Clouds -4 985 100 10000 1.5 170 12:59 05.12.2019
6693 Clouds -4 985 100 10000 1.5 170 12:40 05.12.2019
6694 Clear -4 985 92 10000 0.5 0 12:21 05.12.2019
6695 Clouds -4 985 100 10000 1 160 11:55 05.12.2019
6696 Clear -4 984 86 10000 1.7 51 11:36 05.12.2019
6697 Clouds -3 984 86 10000 1.47 2 11:18 05.12.2019
6698 Clouds -2 984 92 10000 2.1 100 10:54 05.12.2019
6699 Clouds -1 984 86 10000 2.1 340 10:36 05.12.2019
6700 Clouds -2 984 86 10000 2.1 340 10:18 05.12.2019
6701 Clouds 0 983 86 10000 1.47 2 09:42 05.12.2019
6702 Clouds 0 983 86 10000 1.47 2 09:20 05.12.2019
6703 Clouds 0 983 80 10000 1.5 20 08:57 05.12.2019
6704 Clouds 0 983 80 10000 1.5 20 08:37 05.12.2019
6705 Clouds -1 982 80 10000 2.6 360 08:19 05.12.2019
6706 Rain 0 982 86 10000 4.6 340 07:44 05.12.2019
6707 Rain 0 982 78 10000 1.5 340 07:24 05.12.2019
6708 Snow 0 981 78 10000 3.1 300 06:49 05.12.2019
6709 Rain 0 981 78 10000 2.1 320 06:24 05.12.2019
6710 Rain 0 980 92 10000 6.2 300 05:58 05.12.2019
6711 Rain 0 980 92 10000 6.2 300 05:38 05.12.2019
6712 Rain -1 980 67 10000 4.1 330 05:18 05.12.2019
6713 Snow 0 977 80 10000 8.7 280 03:43 05.12.2019
6714 Snow 1 976 67 10000 13.4 250 02:42 05.12.2019
6715 Rain 2 976 69 10000 10.3 270 02:23 05.12.2019
6716 Rain 1 976 80 10000 10.3 280 01:51 05.12.2019
6717 Snow 0 974 80 7000 11.3 260 01:24 05.12.2019
6718 Rain 0 974 69 10000 14.4 270 00:47 05.12.2019
6719 Rain 0 973 86 10000 8.2 260 00:24 05.12.2019
6720 Clouds -1 973 57 3000 13.4 260 23:57 04.12.2019
6721 Clouds -2 973 57 3000 13.4 260 23:38 04.12.2019
6722 Snow -1 973 92 8000 3.1 90 23:19 04.12.2019
6723 Snow -2 972 62 8000 6.7 280 22:39 04.12.2019
6724 Rain -2 973 92 10000 4.1 140 22:20 04.12.2019
6725 Snow -2 974 92 1000 4.6 220 21:58 04.12.2019
6726 Snow -2 974 92 1000 4.6 220 21:40 04.12.2019
6727 Rain -2 974 86 10000 3.6 150 21:21 04.12.2019
6728 Snow -3 973 100 1200 4.1 240 20:59 04.12.2019
6729 Snow -3 973 100 1200 4.1 240 20:41 04.12.2019
6730 Rain -1 974 74 10000 3.6 160 20:22 04.12.2019
6731 Snow -2 973 80 10000 4.6 220 19:59 04.12.2019
6732 Snow -2 973 80 10000 4.6 220 19:39 04.12.2019
6733 Rain -2 974 68 10000 5.1 200 19:20 04.12.2019
6734 Rain -2 973 68 10000 7.7 240 18:57 04.12.2019
6735 Rain -2 973 68 10000 7.7 240 18:39 04.12.2019
6736 Rain -2 974 80 10000 3.6 150 18:20 04.12.2019
6737 Rain -2 973 68 10000 9.3 240 17:40 04.12.2019